Wetterdaten: Freitag, 27.04.2018
Datum Zeit Temp. A. Pool Temp. Feuchte A. Luftdruck Regen Wind Richtung Richtung Sonnenschein ET UV Solar Taupunkt Windchill Windben Empfang
27.04.2018 00:00 8,5 C 17,2 C 85 % 1018,5 hPa 0,0 l/m 5,8 km/h (2 Bft) NO 52 0 min 0,000 mm 0,0 UV-I 0 W/m 6,1 C 8,5 C 6,4 km/h (2 Bft) 100,00 %
27.04.2018 00:02 8,5 C 17,2 C 85 % 1018,5 hPa 0,0 l/m 5,8 km/h (2 Bft) NO 53 0 min 0,000 mm 0,0 UV-I 0 W/m 6,1 C 8,5 C 6,4 km/h (2 Bft) 100,00 %
27.04.2018 00:03 8,5 C 17,2 C 85 % 1018,5 hPa 0,0 l/m 6,6 km/h (2 Bft) NO 53 0 min 0,000 mm 0,0 UV-I 0 W/m 6,1 C 8,4 C 8,0 km/h (2 Bft) 100,00 %
27.04.2018 00:04 8,4 C 17,2 C 85 % 1018,5 hPa 0,0 l/m 6,4 km/h (2 Bft) O-NO 58 0 min 0,000 mm 0,0 UV-I 0 W/m 6,0 C 8,4 C 8,0 km/h (2 Bft) 100,00 %
27.04.2018 00:05 8,4 C 17,2 C 85 % 1018,5 hPa 0,0 l/m 6,7 km/h (2 Bft) NO 49 0 min 0,000 mm 0,0 UV-I 0 W/m 6,0 C 8,2 C 8,0 km/h (2 Bft) 100,00 %
27.04.2018 00:06 8,4 C 17,2 C 85 % 1018,5 hPa 0,0 l/m 6,0 km/h (2 Bft) NO 50 0 min 0,000 mm 0,0 UV-I 0 W/m 6,0 C 8,4 C 6,4 km/h (2 Bft) 100,00 %
27.04.2018 00:07 8,5 C 17,2 C 85 % 1018,6 hPa 0,0 l/m 6,6 km/h (2 Bft) NO 49 0 min 0,000 mm 0,0 UV-I 0 W/m 6,1 C 8,4 C 8,0 km/h (2 Bft) 100,00 %
27.04.2018 00:08 8,5 C 17,2 C 85 % 1018,6 hPa 0,0 l/m 6,3 km/h (2 Bft) NO 49 0 min 0,000 mm 0,0 UV-I 0 W/m 6,1 C 8,5 C 8,0 km/h (2 Bft) 91,67 %
27.04.2018 00:09 8,5 C 17,2 C 84 % 1018,6 hPa 0,0 l/m 4,8 km/h (1 Bft) NO 49 0 min 0,000 mm 0,0 UV-I 0 W/m 6,0 C 8,5 C 6,4 km/h (2 Bft) 95,65 %
27.04.2018 00:10 8,6 C 17,2 C 84 % 1018,6 hPa 0,0 l/m 4,5 km/h (1 Bft) NO 49 0 min 0,000 mm 0,0 UV-I 0 W/m 6,1 C 8,6 C 4,8 km/h (1 Bft) 95,83 %
27.04.2018 00:11 8,6 C 17,2 C 84 % 1018,6 hPa 0,0 l/m 3,7 km/h (1 Bft) NO 49 0 min 0,000 mm 0,0 UV-I 0 W/m 6,1 C 8,6 C 4,8 km/h (1 Bft) 100,00 %
27.04.2018 00:12 8,6 C 17,2 C 84 % 1018,6 hPa 0,0 l/m 3,0 km/h (1 Bft) NO 49 0 min 0,000 mm 0,0 UV-I 0 W/m 6,1 C 8,6 C 3,2 km/h (1 Bft) 100,00 %
27.04.2018 00:13 8,6 C 17,2 C 84 % 1018,6 hPa 0,0 l/m 1,8 km/h (1 Bft) NO 49 0 min 0,000 mm 0,0 UV-I 0 W/m 6,1 C 8,6 C 3,2 km/h (1 Bft) 100,00 %
27.04.2018 00:14 8,6 C 17,2 C 84 % 1018,7 hPa 0,0 l/m 0,2 km/h (0 Bft) NO 49 0 min 0,000 mm 0,0 UV-I 0 W/m 6,1 C 8,6 C 1,6 km/h (1 Bft) 100,00 %
27.04.2018 00:15 8,6 C 17,2 C 84 % 1018,7 hPa 0,0 l/m 0,0 km/h (0 Bft) NO 49 0 min 0,000 mm 0,0 UV-I 0 W/m 6,1 C 8,6 C 0,0 km/h (0 Bft) 100,00 %
27.04.2018 00:16 8,7 C 17,2 C 84 % 1018,7 hPa 0,0 l/m 0,0 km/h (0 Bft) NO 49 0 min 0,000 mm 0,0 UV-I 0 W/m 6,2 C 8,7 C 0,0 km/h (0 Bft) 95,83 %
27.04.2018 00:17 8,7 C 17,2 C 84 % 1018,7 hPa 0,0 l/m 0,6 km/h (0 Bft) NO 49 0 min 0,000 mm 0,0 UV-I 0 W/m 6,2 C 8,7 C 1,6 km/h (1 Bft) 100,00 %
27.04.2018 00:18 8,7 C 17,2 C 83 % 1018,7 hPa 0,0 l/m 0,0 km/h (0 Bft) NO 49 0 min 0,000 mm 0,0 UV-I 0 W/m 6,0 C 8,7 C 0,0 km/h (0 Bft) 100,00 %
27.04.2018 00:19 8,7 C 17,2 C 83 % 1018,8 hPa 0,0 l/m 0,0 km/h (0 Bft) NO 49 0 min 0,000 mm 0,0 UV-I 0 W/m 6,0 C 8,7 C 0,0 km/h (0 Bft) 100,00 %
27.04.2018 00:20 8,7 C 17,2 C 84 % 1018,7 hPa 0,0 l/m 0,0 km/h (0 Bft) NO 49 0 min 0,000 mm 0,0 UV-I 0 W/m 6,2 C 8,7 C 0,0 km/h (0 Bft) 100,00 %
27.04.2018 00:21 8,6 C 17,2 C 84 % 1018,7 hPa 0,0 l/m 0,0 km/h (0 Bft) NO 49 0 min 0,000 mm 0,0 UV-I 0 W/m 6,1 C 8,6 C 0,0 km/h (0 Bft) 96,15 %
27.04.2018 00:22 8,6 C 17,2 C 85 % 1018,7 hPa 0,0 l/m 0,0 km/h (0 Bft) NO 49 0 min 0,000 mm 0,0 UV-I 0 W/m 6,2 C 8,6 C 0,0 km/h (0 Bft) 100,00 %
27.04.2018 00:23 8,6 C 17,2 C 85 % 1018,7 hPa 0,0 l/m 0,0 km/h (0 Bft) NO 49 0 min 0,000 mm 0,0 UV-I 0 W/m 6,2 C 8,6 C 0,0 km/h (0 Bft) 100,00 %
27.04.2018 00:24 8,4 C 17,2 C 85 % 1018,7 hPa 0,0 l/m 0,0 km/h (0 Bft) NO 49 0 min 0,000 mm 0,0 UV-I 0 W/m 6,0 C 8,4 C 0,0 km/h (0 Bft) 100,00 %
27.04.2018 00:25 8,4 C 17,2 C 85 % 1018,7 hPa 0,0 l/m 0,1 km/h (0 Bft) NO 49 0 min 0,000 mm 0,0 UV-I 0 W/m 6,0 C 8,4 C 1,6 km/h (1 Bft) 95,83 %
27.04.2018 00:26 8,3 C 17,2 C 86 % 1018,7 hPa 0,0 l/m 1,0 km/h (0 Bft) NO 49 0 min 0,000 mm 0,0 UV-I 0 W/m 6,1 C 8,3 C 1,6 km/h (1 Bft) 100,00 %
27.04.2018 00:27 8,3 C 17,2 C 86 % 1018,7 hPa 0,0 l/m 0,0 km/h (0 Bft) NO 48 0 min 0,000 mm 0,0 UV-I 0 W/m 6,1 C 8,3 C 0,0 km/h (0 Bft) 100,00 %
27.04.2018 00:28 8,3 C 17,2 C 86 % 1018,7 hPa 0,0 l/m 0,0 km/h (0 Bft) NO 48 0 min 0,000 mm 0,0 UV-I 0 W/m 6,1 C 8,3 C 0,0 km/h (0 Bft) 86,96 %
27.04.2018 00:29 8,2 C 17,2 C 86 % 1018,8 hPa 0,0 l/m 0,0 km/h (0 Bft) NO 49 0 min 0,000 mm 0,0 UV-I 0 W/m 6,0 C 8,2 C 0,0 km/h (0 Bft) 100,00 %
27.04.2018 00:30 8,1 C 17,2 C 86 % 1018,8 hPa 0,0 l/m 0,0 km/h (0 Bft) NO 49 0 min 0,000 mm 0,0 UV-I 0 W/m 5,9 C 8,1 C 0,0 km/h (0 Bft) 95,65 %
27.04.2018 00:31 8,0 C 17,2 C 87 % 1018,8 hPa 0,0 l/m 0,0 km/h (0 Bft) NO 49 0 min 0,000 mm 0,0 UV-I 0 W/m 6,0 C 8,0 C 0,0 km/h (0 Bft) 100,00 %
27.04.2018 00:32 7,9 C 17,2 C 87 % 1018,8 hPa 0,0 l/m 0,0 km/h (0 Bft) NO 49 0 min 0,000 mm 0,0 UV-I 0 W/m 5,9 C 7,9 C 0,0 km/h (0 Bft) 95,65 %
27.04.2018 00:33 7,9 C 17,2 C 88 % 1018,8 hPa 0,0 l/m 0,0 km/h (0 Bft) NO 49 0 min 0,000 mm 0,0 UV-I 0 W/m 6,0 C 7,9 C 0,0 km/h (0 Bft) 91,67 %
27.04.2018 00:34 7,9 C 17,2 C 88 % 1018,8 hPa 0,0 l/m 0,0 km/h (0 Bft) NO 49 0 min 0,000 mm 0,0 UV-I 0 W/m 6,0 C 7,9 C 0,0 km/h (0 Bft) 100,00 %
27.04.2018 00:35 7,9 C 17,2 C 88 % 1018,8 hPa 0,0 l/m 0,2 km/h (0 Bft) NO 49 0 min 0,000 mm 0,0 UV-I 0 W/m 6,0 C 7,9 C 1,6 km/h (1 Bft) 95,83 %
27.04.2018 00:36 8,1 C 17,2 C 88 % 1018,8 hPa 0,0 l/m 0,1 km/h (0 Bft) NO 49 0 min 0,000 mm 0,0 UV-I 0 W/m 6,2 C 8,1 C 1,6 km/h (1 Bft) 100,00 %
27.04.2018 00:37 8,1 C 17,2 C 88 % 1018,8 hPa 0,0 l/m 0,0 km/h (0 Bft) NO 49 0 min 0,000 mm 0,0 UV-I 0 W/m 6,2 C 8,1 C 0,0 km/h (0 Bft) 95,83 %
27.04.2018 00:38 8,0 C 17,2 C 88 % 1018,8 hPa 0,0 l/m 0,0 km/h (0 Bft) NO 49 0 min 0,000 mm 0,0 UV-I 0 W/m 6,1 C 8,0 C 0,0 km/h (0 Bft) 100,00 %
27.04.2018 00:39 7,8 C 17,2 C 87 % 1018,7 hPa 0,0 l/m 0,0 km/h (0 Bft) NO 49 0 min 0,000 mm 0,0 UV-I 0 W/m 5,8 C 7,8 C 0,0 km/h (0 Bft) 95,83 %
27.04.2018 00:40 7,7 C 17,2 C 88 % 1018,7 hPa 0,0 l/m 0,0 km/h (0 Bft) NO 49 0 min 0,000 mm 0,0 UV-I 0 W/m 5,8 C 7,7 C 0,0 km/h (0 Bft) 95,65 %
27.04.2018 00:41 7,6 C 17,2 C 88 % 1018,7 hPa 0,0 l/m 0,0 km/h (0 Bft) NO 49 0 min 0,000 mm 0,0 UV-I 0 W/m 5,7 C 7,6 C 0,0 km/h (0 Bft) 100,00 %
27.04.2018 00:42 7,5 C 17,2 C 88 % 1018,7 hPa 0,0 l/m 0,0 km/h (0 Bft) NO 49 0 min 0,000 mm 0,0 UV-I 0 W/m 5,6 C 7,5 C 0,0 km/h (0 Bft) 95,65 %
27.04.2018 00:43 7,4 C 17,2 C 89 % 1018,7 hPa 0,0 l/m 0,0 km/h (0 Bft) NO 49 0 min 0,000 mm 0,0 UV-I 0 W/m 5,7 C 7,4 C 0,0 km/h (0 Bft) 100,00 %
27.04.2018 00:44 7,4 C 17,2 C 89 % 1018,7 hPa 0,0 l/m 0,0 km/h (0 Bft) NO 49 0 min 0,000 mm 0,0 UV-I 0 W/m 5,7 C 7,4 C 0,0 km/h (0 Bft) 95,83 %
27.04.2018 00:45 7,4 C 17,2 C 89 % 1018,7 hPa 0,0 l/m 0,0 km/h (0 Bft) NO 49 0 min 0,000 mm 0,0 UV-I 0 W/m 5,7 C 7,4 C 0,0 km/h (0 Bft) 91,30 %
27.04.2018 00:46 7,4 C 17,2 C 89 % 1018,8 hPa 0,0 l/m 0,4 km/h (0 Bft) NO 49 0 min 0,000 mm 0,0 UV-I 0 W/m 5,7 C 7,4 C 1,6 km/h (1 Bft) 95,83 %
27.04.2018 00:47 7,4 C 17,2 C 89 % 1018,8 hPa 0,0 l/m 1,6 km/h (1 Bft) NO 49 0 min 0,000 mm 0,0 UV-I 0 W/m 5,7 C 7,4 C 1,6 km/h (1 Bft) 100,00 %
27.04.2018 00:48 7,3 C 17,2 C 89 % 1018,7 hPa 0,0 l/m 0,5 km/h (0 Bft) NO 48 0 min 0,000 mm 0,0 UV-I 0 W/m 5,6 C 7,3 C 1,6 km/h (1 Bft) 95,83 %
27.04.2018 00:49 7,3 C 17,2 C 89 % 1018,7 hPa 0,0 l/m 0,0 km/h (0 Bft) NO 49 0 min 0,000 mm 0,0 UV-I 0 W/m 5,6 C 7,3 C 0,0 km/h (0 Bft) 100,00 %
27.04.2018 00:50 7,3 C 17,2 C 90 % 1018,7 hPa 0,0 l/m 0,0 km/h (0 Bft) NO 49 0 min 0,000 mm 0,0 UV-I 0 W/m 5,8 C 7,3 C 0,0 km/h (0 Bft) 95,83 %
27.04.2018 00:51 7,3 C 17,2 C 90 % 1018,7 hPa 0,0 l/m 0,0 km/h (0 Bft) NO 49 0 min 0,000 mm 0,0 UV-I 0 W/m 5,8 C 7,3 C 0,0 km/h (0 Bft) 95,65 %
27.04.2018 00:52 7,3 C 17,2 C 90 % 1018,7 hPa 0,0 l/m 0,5 km/h (0 Bft) NO 48 0 min 0,000 mm 0,0 UV-I 0 W/m 5,8 C 7,3 C 1,6 km/h (1 Bft) 100,00 %
27.04.2018 00:53 7,3 C 17,2 C 90 % 1018,7 hPa 0,0 l/m 0,7 km/h (0 Bft) NO 49 0 min 0,000 mm 0,0 UV-I 0 W/m 5,8 C 7,3 C 1,6 km/h (1 Bft) 95,65 %
27.04.2018 00:54 7,3 C 17,2 C 90 % 1018,7 hPa 0,0 l/m 1,0 km/h (0 Bft) NO 49 0 min 0,000 mm 0,0 UV-I 0 W/m 5,8 C 7,3 C 1,6 km/h (1 Bft) 100,00 %
27.04.2018 00:55 7,2 C 17,2 C 89 % 1018,7 hPa 0,0 l/m 1,6 km/h (1 Bft) NO 49 0 min 0,000 mm 0,0 UV-I 0 W/m 5,5 C 7,2 C 1,6 km/h (1 Bft) 91,30 %
27.04.2018 00:56 7,2 C 17,2 C 89 % 1018,7 hPa 0,0 l/m 1,9 km/h (1 Bft) NO 49 0 min 0,000 mm 0,0 UV-I 0 W/m 5,5 C 7,2 C 3,2 km/h (1 Bft) 95,83 %
27.04.2018 00:57 7,1 C 17,2 C 89 % 1018,7 hPa 0,0 l/m 1,6 km/h (1 Bft) NO 49 0 min 0,000 mm 0,0 UV-I 0 W/m 5,4 C 7,1 C 1,6 km/h (1 Bft) 95,65 %
27.04.2018 00:58 6,9 C 17,2 C 89 % 1018,7 hPa 0,0 l/m 2,5 km/h (1 Bft) NO 49 0 min 0,000 mm 0,0 UV-I 0 W/m 5,2 C 6,9 C 3,2 km/h (1 Bft) 96,30 %
27.04.2018 00:59 6,9 C 17,2 C 89 % 1018,7 hPa 0,0 l/m 2,6 km/h (1 Bft) NO 49 0 min 0,000 mm 0,0 UV-I 0 W/m 5,2 C 6,9 C 3,2 km/h (1 Bft) 100,00 %
27.04.2018 01:00 6,8 C 17,2 C 90 % 1018,6 hPa 0,0 l/m 2,3 km/h (1 Bft) NO 49 0 min 0,000 mm 0,0 UV-I 0 W/m 5,3 C 6,8 C 3,2 km/h (1 Bft) 100,00 %
27.04.2018 01:01 6,7 C 17,2 C 90 % 1018,6 hPa 0,0 l/m 2,0 km/h (1 Bft) NO 49 0 min 0,000 mm 0,0 UV-I 0 W/m 5,2 C 6,7 C 3,2 km/h (1 Bft) 95,65 %
27.04.2018 01:02 6,7 C 17,2 C 91 % 1018,6 hPa 0,0 l/m 2,2 km/h (1 Bft) NO 49 0 min 0,000 mm 0,0 UV-I 0 W/m 5,3 C 6,7 C 3,2 km/h (1 Bft) 100,00 %
27.04.2018 01:03 6,6 C 17,2 C 91 % 1018,6 hPa 0,0 l/m 1,7 km/h (1 Bft) NO 49 0 min 0,000 mm 0,0 UV-I 0 W/m 5,2 C 6,6 C 3,2 km/h (1 Bft) 100,00 %
27.04.2018 01:04 6,6 C 17,2 C 91 % 1018,6 hPa 0,0 l/m 1,5 km/h (1 Bft) NO 49 0 min 0,000 mm 0,0 UV-I 0 W/m 5,2 C 6,6 C 1,6 km/h (1 Bft) 100,00 %
27.04.2018 01:05 6,7 C 16,7 C 91 % 1018,6 hPa 0,0 l/m 0,3 km/h (0 Bft) NO 49 0 min 0,000 mm 0,0 UV-I 0 W/m 5,3 C 6,7 C 1,6 km/h (1 Bft) 100,00 %
27.04.2018 01:06 6,7 C 16,7 C 91 % 1018,6 hPa 0,0 l/m 0,0 km/h (0 Bft) NO 49 0 min 0,000 mm 0,0 UV-I 0 W/m 5,3 C 6,7 C 0,0 km/h (0 Bft) 91,30 %
27.04.2018 01:07 6,7 C 16,7 C 92 % 1018,6 hPa 0,0 l/m 0,0 km/h (0 Bft) NO 49 0 min 0,000 mm 0,0 UV-I 0 W/m 5,5 C 6,7 C 0,0 km/h (0 Bft) 100,00 %
27.04.2018 01:08 6,7 C 17,2 C 92 % 1018,6 hPa 0,0 l/m 0,0 km/h (0 Bft) NO 49 0 min 0,000 mm 0,0 UV-I 0 W/m 5,5 C 6,7 C 0,0 km/h (0 Bft) 100,00 %
27.04.2018 01:09 6,8 C 17,2 C 91 % 1018,6 hPa 0,0 l/m 1,9 km/h (1 Bft) NO 49 0 min 0,000 mm 0,0 UV-I 0 W/m 5,4 C 6,8 C 3,2 km/h (1 Bft) 100,00 %
27.04.2018 01:10 6,8 C 16,7 C 91 % 1018,6 hPa 0,0 l/m 1,7 km/h (1 Bft) NO 49 0 min 0,000 mm 0,0 UV-I 0 W/m 5,4 C 6,8 C 3,2 km/h (1 Bft) 100,00 %
27.04.2018 01:11 6,8 C 16,7 C 91 % 1018,6 hPa 0,0 l/m 2,0 km/h (1 Bft) NO 48 0 min 0,000 mm 0,0 UV-I 0 W/m 5,4 C 6,8 C 3,2 km/h (1 Bft) 100,00 %
27.04.2018 01:12 6,9 C 16,7 C 91 % 1018,6 hPa 0,0 l/m 2,1 km/h (1 Bft) NO 49 0 min 0,000 mm 0,0 UV-I 0 W/m 5,5 C 6,9 C 3,2 km/h (1 Bft) 95,65 %
27.04.2018 01:13 7,0 C 16,7 C 91 % 1018,6 hPa 0,0 l/m 1,6 km/h (1 Bft) NO 49 0 min 0,000 mm 0,0 UV-I 0 W/m 5,6 C 7,0 C 1,6 km/h (1 Bft) 100,00 %
27.04.2018 01:14 7,1 C 16,7 C 90 % 1018,7 hPa 0,0 l/m 1,4 km/h (1 Bft) NO 49 0 min 0,000 mm 0,0 UV-I 0 W/m 5,6 C 7,1 C 1,6 km/h (1 Bft) 95,65 %
27.04.2018 01:15 7,2 C 16,7 C 90 % 1018,6 hPa 0,0 l/m 1,1 km/h (1 Bft) NO 49 0 min 0,000 mm 0,0 UV-I 0 W/m 5,7 C 7,2 C 1,6 km/h (1 Bft) 100,00 %
27.04.2018 01:16 7,2 C 16,7 C 90 % 1018,6 hPa 0,0 l/m 1,0 km/h (0 Bft) NO 49 0 min 0,000 mm 0,0 UV-I 0 W/m 5,7 C 7,2 C 1,6 km/h (1 Bft) 100,00 %
27.04.2018 01:17 7,2 C 16,7 C 90 % 1018,5 hPa 0,0 l/m 1,1 km/h (1 Bft) NO 49 0 min 0,000 mm 0,0 UV-I 0 W/m 5,7 C 7,2 C 1,6 km/h (1 Bft) 100,00 %
27.04.2018 01:18 7,2 C 16,7 C 90 % 1018,6 hPa 0,0 l/m 1,9 km/h (1 Bft) NO 48 0 min 0,000 mm 0,0 UV-I 0 W/m 5,7 C 7,2 C 3,2 km/h (1 Bft) 100,00 %
27.04.2018 01:19 7,2 C 16,7 C 89 % 1018,6 hPa 0,0 l/m 1,7 km/h (1 Bft) NO 49 0 min 0,000 mm 0,0 UV-I 0 W/m 5,5 C 7,2 C 3,2 km/h (1 Bft) 100,00 %
27.04.2018 01:20 7,2 C 16,7 C 89 % 1018,6 hPa 0,0 l/m 1,9 km/h (1 Bft) NO 49 0 min 0,000 mm 0,0 UV-I 0 W/m 5,5 C 7,2 C 3,2 km/h (1 Bft) 95,83 %
27.04.2018 01:21 7,0 C 16,7 C 89 % 1018,6 hPa 0,0 l/m 1,6 km/h (1 Bft) NO 49 0 min 0,000 mm 0,0 UV-I 0 W/m 5,3 C 7,0 C 1,6 km/h (1 Bft) 100,00 %
27.04.2018 01:22 6,9 C 16,7 C 89 % 1018,6 hPa 0,0 l/m 1,2 km/h (1 Bft) NO 49 0 min 0,000 mm 0,0 UV-I 0 W/m 5,2 C 6,9 C 1,6 km/h (1 Bft) 100,00 %
27.04.2018 01:23 6,9 C 16,7 C 90 % 1018,6 hPa 0,0 l/m 0,7 km/h (0 Bft) NO 49 0 min 0,000 mm 0,0 UV-I 0 W/m 5,4 C 6,9 C 1,6 km/h (1 Bft) 100,00 %
27.04.2018 01:24 6,9 C 16,7 C 90 % 1018,6 hPa 0,0 l/m 0,0 km/h (0 Bft) NO 49 0 min 0,000 mm 0,0 UV-I 0 W/m 5,4 C 6,9 C 0,0 km/h (0 Bft) 100,00 %
27.04.2018 01:25 6,9 C 16,7 C 90 % 1018,6 hPa 0,0 l/m 0,0 km/h (0 Bft) NO 48 0 min 0,000 mm 0,0 UV-I 0 W/m 5,4 C 6,9 C 0,0 km/h (0 Bft) 100,00 %
27.04.2018 01:26 6,9 C 16,7 C 90 % 1018,6 hPa 0,0 l/m 0,0 km/h (0 Bft) NO 49 0 min 0,000 mm 0,0 UV-I 0 W/m 5,4 C 6,9 C 0,0 km/h (0 Bft) 100,00 %
27.04.2018 01:27 6,9 C 16,7 C 90 % 1018,6 hPa 0,0 l/m 0,0 km/h (0 Bft) NO 49 0 min 0,000 mm 0,0 UV-I 0 W/m 5,4 C 6,9 C 0,0 km/h (0 Bft) 95,65 %
27.04.2018 01:28 6,8 C 16,7 C 90 % 1018,6 hPa 0,0 l/m 1,0 km/h (0 Bft) NO 49 0 min 0,000 mm 0,0 UV-I 0 W/m 5,3 C 6,8 C 1,6 km/h (1 Bft) 96,30 %
27.04.2018 01:29 6,8 C 16,7 C 90 % 1018,7 hPa 0,0 l/m 2,1 km/h (1 Bft) NO 49 0 min 0,000 mm 0,0 UV-I 0 W/m 5,3 C 6,8 C 3,2 km/h (1 Bft) 95,65 %
27.04.2018 01:30 6,8 C 16,7 C 90 % 1018,6 hPa 0,0 l/m 2,2 km/h (1 Bft) NO 49 0 min 0,000 mm 0,0 UV-I 0 W/m 5,3 C 6,8 C 3,2 km/h (1 Bft) 100,00 %
27.04.2018 01:31 6,8 C 16,7 C 91 % 1018,7 hPa 0,0 l/m 2,1 km/h (1 Bft) NO 48 0 min 0,000 mm 0,0 UV-I 0 W/m 5,4 C 6,8 C 3,2 km/h (1 Bft) 100,00 %
27.04.2018 01:32 6,8 C 16,7 C 91 % 1018,7 hPa 0,0 l/m 1,8 km/h (1 Bft) NO 49 0 min 0,000 mm 0,0 UV-I 0 W/m 5,4 C 6,8 C 3,2 km/h (1 Bft) 100,00 %
27.04.2018 01:33 6,8 C 16,7 C 91 % 1018,7 hPa 0,0 l/m 0,6 km/h (0 Bft) NO 49 0 min 0,000 mm 0,0 UV-I 0 W/m 5,4 C 6,8 C 1,6 km/h (1 Bft) 100,00 %
27.04.2018 01:34 6,7 C 16,7 C 91 % 1018,7 hPa 0,0 l/m 0,0 km/h (0 Bft) NO 49 0 min 0,000 mm 0,0 UV-I 0 W/m 5,3 C 6,7 C 0,0 km/h (0 Bft) 100,00 %
27.04.2018 01:35 6,8 C 16,7 C 91 % 1018,7 hPa 0,0 l/m 0,0 km/h (0 Bft) NO 49 0 min 0,000 mm 0,0 UV-I 0 W/m 5,4 C 6,8 C 0,0 km/h (0 Bft) 95,65 %
27.04.2018 01:36 6,8 C 16,7 C 91 % 1018,7 hPa 0,0 l/m 0,0 km/h (0 Bft) NO 49 0 min 0,000 mm 0,0 UV-I 0 W/m 5,4 C 6,8 C 0,0 km/h (0 Bft) 100,00 %
27.04.2018 01:37 6,8 C 16,7 C 91 % 1018,7 hPa 0,0 l/m 0,0 km/h (0 Bft) NO 49 0 min 0,000 mm 0,0 UV-I 0 W/m 5,4 C 6,8 C 0,0 km/h (0 Bft) 100,00 %
27.04.2018 01:38 6,7 C 16,7 C 91 % 1018,7 hPa 0,0 l/m 0,0 km/h (0 Bft) NO 49 0 min 0,000 mm 0,0 UV-I 0 W/m 5,3 C 6,7 C 0,0 km/h (0 Bft) 95,83 %
27.04.2018 01:39 6,6 C 16,7 C 90 % 1018,6 hPa 0,0 l/m 1,6 km/h (1 Bft) NO 48 0 min 0,000 mm 0,0 UV-I 0 W/m 5,1 C 6,6 C 3,2 km/h (1 Bft) 100,00 %
27.04.2018 01:40 6,4 C 16,7 C 90 % 1018,6 hPa 0,0 l/m 1,0 km/h (0 Bft) NO 49 0 min 0,000 mm 0,0 UV-I 0 W/m 4,9 C 6,4 C 3,2 km/h (1 Bft) 100,00 %
27.04.2018 01:41 6,3 C 16,7 C 90 % 1018,6 hPa 0,0 l/m 2,1 km/h (1 Bft) NO 49 0 min 0,000 mm 0,0 UV-I 0 W/m 4,8 C 6,3 C 3,2 km/h (1 Bft) 100,00 %
27.04.2018 01:42 6,2 C 16,7 C 91 % 1018,6 hPa 0,0 l/m 0,7 km/h (0 Bft) NO 49 0 min 0,000 mm 0,0 UV-I 0 W/m 4,8 C 6,2 C 1,6 km/h (1 Bft) 100,00 %
27.04.2018 01:43 6,1 C 16,7 C 91 % 1018,6 hPa 0,0 l/m 0,4 km/h (0 Bft) NO 49 0 min 0,000 mm 0,0 UV-I 0 W/m 4,7 C 6,1 C 3,2 km/h (1 Bft) 100,00 %
27.04.2018 01:44 6,0 C 16,7 C 91 % 1018,5 hPa 0,0 l/m 1,4 km/h (1 Bft) NO 49 0 min 0,000 mm 0,0 UV-I 0 W/m 4,6 C 6,0 C 3,2 km/h (1 Bft) 95,83 %
27.04.2018 01:45 6,0 C 16,7 C 92 % 1018,5 hPa 0,0 l/m 0,1 km/h (0 Bft) NO 49 0 min 0,000 mm 0,0 UV-I 0 W/m 4,8 C 6,0 C 1,6 km/h (1 Bft) 100,00 %
27.04.2018 01:46 6,1 C 16,7 C 92 % 1018,5 hPa 0,0 l/m 0,3 km/h (0 Bft) NO 49 0 min 0,000 mm 0,0 UV-I 0 W/m 4,9 C 6,1 C 1,6 km/h (1 Bft) 100,00 %
27.04.2018 01:47 6,1 C 16,7 C 92 % 1018,5 hPa 0,0 l/m 0,5 km/h (0 Bft) NO 49 0 min 0,000 mm 0,0 UV-I 0 W/m 4,9 C 6,1 C 1,6 km/h (1 Bft) 97,14 %
27.04.2018 01:48 6,1 C 16,7 C 92 % 1018,5 hPa 0,0 l/m 0,3 km/h (0 Bft) NO 49 0 min 0,000 mm 0,0 UV-I 0 W/m 4,9 C 6,1 C 1,6 km/h (1 Bft) 100,00 %
27.04.2018 01:49 6,0 C 16,7 C 92 % 1018,5 hPa 0,0 l/m 0,0 km/h (0 Bft) NO 49 0 min 0,000 mm 0,0 UV-I 0 W/m 4,8 C 6,0 C 0,0 km/h (0 Bft) 100,00 %
27.04.2018 01:50 6,0 C 16,7 C 92 % 1018,5 hPa 0,0 l/m 0,0 km/h (0 Bft) NO 49 0 min 0,000 mm 0,0 UV-I 0 W/m 4,8 C 6,0 C 0,0 km/h (0 Bft) 100,00 %
27.04.2018 01:51 6,0 C 16,7 C 92 % 1018,5 hPa 0,0 l/m 0,0 km/h (0 Bft) NO 49 0 min 0,000 mm 0,0 UV-I 0 W/m 4,8 C 6,0 C 0,0 km/h (0 Bft) 100,00 %
27.04.2018 01:52 5,9 C 16,7 C 92 % 1018,4 hPa 0,0 l/m 0,9 km/h (0 Bft) NO 49 0 min 0,000 mm 0,0 UV-I 0 W/m 4,7 C 5,9 C 3,2 km/h (1 Bft) 95,65 %
27.04.2018 01:53 6,0 C 16,7 C 92 % 1018,5 hPa 0,0 l/m 3,3 km/h (1 Bft) O-NO 73 0 min 0,000 mm 0,0 UV-I 0 W/m 4,8 C 6,0 C 4,8 km/h (1 Bft) 100,00 %
27.04.2018 01:54 6,1 C 16,7 C 93 % 1018,5 hPa 0,0 l/m 2,8 km/h (1 Bft) O-NO 74 0 min 0,000 mm 0,0 UV-I 0 W/m 5,1 C 6,1 C 3,2 km/h (1 Bft) 100,00 %
27.04.2018 01:55 6,2 C 16,7 C 93 % 1018,5 hPa 0,0 l/m 2,5 km/h (1 Bft) O-NO 75 0 min 0,000 mm 0,0 UV-I 0 W/m 5,2 C 6,2 C 3,2 km/h (1 Bft) 100,00 %
27.04.2018 01:56 6,3 C 16,7 C 93 % 1018,5 hPa 0,0 l/m 3,1 km/h (1 Bft) O-NO 75 0 min 0,000 mm 0,0 UV-I 0 W/m 5,3 C 6,3 C 3,2 km/h (1 Bft) 100,00 %
27.04.2018 01:57 6,4 C 16,7 C 92 % 1018,5 hPa 0,0 l/m 3,5 km/h (1 Bft) O-SO 117 0 min 0,000 mm 0,0 UV-I 0 W/m 5,2 C 6,4 C 4,8 km/h (1 Bft) 95,83 %
27.04.2018 01:58 6,4 C 16,7 C 92 % 1018,5 hPa 0,0 l/m 3,5 km/h (1 Bft) O-SO 117 0 min 0,000 mm 0,0 UV-I 0 W/m 5,2 C 6,4 C 4,8 km/h (1 Bft) 92,31 %
27.04.2018 01:59 6,4 C 16,7 C 92 % 1018,5 hPa 0,0 l/m 2,8 km/h (1 Bft) O-SO 117 0 min 0,000 mm 0,0 UV-I 0 W/m 5,2 C 6,4 C 3,2 km/h (1 Bft) 100,00 %
27.04.2018 02:00 6,4 C 16,7 C 91 % 1018,5 hPa 0,0 l/m 2,6 km/h (1 Bft) O-SO 117 0 min 0,000 mm 0,0 UV-I 0 W/m 5,0 C 6,4 C 3,2 km/h (1 Bft) 100,00 %
27.04.2018 02:01 6,3 C 16,7 C 91 % 1018,5 hPa 0,0 l/m 2,8 km/h (1 Bft) O-SO 117 0 min 0,000 mm 0,0 UV-I 0 W/m 4,9 C 6,3 C 3,2 km/h (1 Bft) 100,00 %
27.04.2018 02:02 6,2 C 16,7 C 91 % 1018,5 hPa 0,0 l/m 2,4 km/h (1 Bft) O-SO 117 0 min 0,000 mm 0,0 UV-I 0 W/m 4,8 C 6,2 C 3,2 km/h (1 Bft) 100,00 %
27.04.2018 02:03 6,2 C 16,7 C 91 % 1018,5 hPa 0,0 l/m 2,3 km/h (1 Bft) O-SO 117 0 min 0,000 mm 0,0 UV-I 0 W/m 4,8 C 6,2 C 3,2 km/h (1 Bft) 100,00 %
27.04.2018 02:04 6,1 C 16,7 C 91 % 1018,5 hPa 0,0 l/m 2,1 km/h (1 Bft) O-SO 117 0 min 0,000 mm 0,0 UV-I 0 W/m 4,7 C 6,1 C 3,2 km/h (1 Bft) 95,65 %
27.04.2018 02:05 6,1 C 16,7 C 91 % 1018,5 hPa 0,0 l/m 3,2 km/h (1 Bft) O-SO 117 0 min 0,000 mm 0,0 UV-I 0 W/m 4,7 C 6,1 C 4,8 km/h (1 Bft) 100,00 %
27.04.2018 02:06 6,1 C 16,7 C 92 % 1018,5 hPa 0,0 l/m 3,6 km/h (1 Bft) O-SO 117 0 min 0,000 mm 0,0 UV-I 0 W/m 4,9 C 6,1 C 4,8 km/h (1 Bft) 100,00 %
27.04.2018 02:07 6,1 C 16,7 C 91 % 1018,5 hPa 0,0 l/m 4,0 km/h (1 Bft) O-SO 117 0 min 0,000 mm 0,0 UV-I 0 W/m 4,7 C 6,1 C 4,8 km/h (1 Bft) 100,00 %
27.04.2018 02:08 6,0 C 16,7 C 92 % 1018,5 hPa 0,0 l/m 4,5 km/h (1 Bft) O-SO 117 0 min 0,000 mm 0,0 UV-I 0 W/m 4,8 C 6,0 C 4,8 km/h (1 Bft) 100,00 %
27.04.2018 02:09 6,1 C 16,7 C 92 % 1018,5 hPa 0,0 l/m 4,5 km/h (1 Bft) O-SO 117 0 min 0,000 mm 0,0 UV-I 0 W/m 4,9 C 6,1 C 4,8 km/h (1 Bft) 100,00 %
27.04.2018 02:10 6,0 C 16,7 C 92 % 1018,5 hPa 0,0 l/m 3,8 km/h (1 Bft) O-SO 117 0 min 0,000 mm 0,0 UV-I 0 W/m 4,8 C 6,0 C 4,8 km/h (1 Bft) 95,83 %
27.04.2018 02:11 5,9 C 16,7 C 92 % 1018,5 hPa 0,0 l/m 3,2 km/h (1 Bft) O-SO 117 0 min 0,000 mm 0,0 UV-I 0 W/m 4,7 C 5,9 C 3,2 km/h (1 Bft) 82,61 %
27.04.2018 02:12 5,9 C 16,7 C 92 % 1018,5 hPa 0,0 l/m 3,2 km/h (1 Bft) O-SO 117 0 min 0,000 mm 0,0 UV-I 0 W/m 4,7 C 5,9 C 4,8 km/h (1 Bft) 100,00 %
27.04.2018 02:13 5,8 C 16,7 C 92 % 1018,5 hPa 0,0 l/m 3,2 km/h (1 Bft) O-SO 117 0 min 0,000 mm 0,0 UV-I 0 W/m 4,6 C 5,8 C 4,8 km/h (1 Bft) 100,00 %
27.04.2018 02:14 5,8 C 16,7 C 92 % 1018,5 hPa 0,0 l/m 3,6 km/h (1 Bft) O-SO 117 0 min 0,000 mm 0,0 UV-I 0 W/m 4,6 C 5,8 C 4,8 km/h (1 Bft) 95,83 %
27.04.2018 02:15 5,7 C 16,7 C 92 % 1018,5 hPa 0,0 l/m 4,4 km/h (1 Bft) SO 140 0 min 0,000 mm 0,0 UV-I 0 W/m 4,5 C 5,7 C 6,4 km/h (2 Bft) 100,00 %
27.04.2018 02:16 5,7 C 16,7 C 92 % 1018,4 hPa 0,0 l/m 4,3 km/h (1 Bft) SO 140 0 min 0,000 mm 0,0 UV-I 0 W/m 4,5 C 5,7 C 4,8 km/h (1 Bft) 93,10 %
27.04.2018 02:17 5,7 C 16,7 C 92 % 1018,4 hPa 0,0 l/m 4,1 km/h (1 Bft) SO 140 0 min 0,000 mm 0,0 UV-I 0 W/m 4,5 C 5,7 C 4,8 km/h (1 Bft) 91,30 %
27.04.2018 02:18 5,7 C 16,7 C 92 % 1018,4 hPa 0,0 l/m 3,4 km/h (1 Bft) SO 140 0 min 0,000 mm 0,0 UV-I 0 W/m 4,5 C 5,7 C 4,8 km/h (1 Bft) 100,00 %
27.04.2018 02:19 5,6 C 16,7 C 92 % 1018,4 hPa 0,0 l/m 3,1 km/h (1 Bft) SO 140 0 min 0,000 mm 0,0 UV-I 0 W/m 4,4 C 5,6 C 4,8 km/h (1 Bft) 95,65 %
27.04.2018 02:20 5,6 C 16,7 C 92 % 1018,4 hPa 0,0 l/m 2,8 km/h (1 Bft) SO 140 0 min 0,000 mm 0,0 UV-I 0 W/m 4,4 C 5,6 C 3,2 km/h (1 Bft) 100,00 %
27.04.2018 02:21 5,7 C 16,7 C 93 % 1018,4 hPa 0,0 l/m 3,8 km/h (1 Bft) SO 140 0 min 0,000 mm 0,0 UV-I 0 W/m 4,7 C 5,7 C 4,8 km/h (1 Bft) 95,65 %
27.04.2018 02:22 5,9 C 16,7 C 94 % 1018,3 hPa 0,0 l/m 4,2 km/h (1 Bft) SO 140 0 min 0,000 mm 0,0 UV-I 0 W/m 5,0 C 5,9 C 4,8 km/h (1 Bft) 100,00 %
27.04.2018 02:23 5,9 C 16,7 C 94 % 1018,3 hPa 0,0 l/m 4,5 km/h (1 Bft) SO 140 0 min 0,000 mm 0,0 UV-I 0 W/m 5,0 C 5,9 C 4,8 km/h (1 Bft) 95,83 %
27.04.2018 02:24 5,9 C 16,7 C 93 % 1018,3 hPa 0,0 l/m 4,3 km/h (1 Bft) SO 140 0 min 0,000 mm 0,0 UV-I 0 W/m 4,9 C 5,9 C 4,8 km/h (1 Bft) 100,00 %
27.04.2018 02:25 5,8 C 16,7 C 92 % 1018,3 hPa 0,0 l/m 3,5 km/h (1 Bft) SO 140 0 min 0,000 mm 0,0 UV-I 0 W/m 4,6 C 5,8 C 4,8 km/h (1 Bft) 96,15 %
27.04.2018 02:26 5,8 C 16,7 C 92 % 1018,3 hPa 0,0 l/m 3,3 km/h (1 Bft) SO 140 0 min 0,000 mm 0,0 UV-I 0 W/m 4,6 C 5,8 C 4,8 km/h (1 Bft) 95,83 %
27.04.2018 02:27 5,7 C 16,7 C 93 % 1018,3 hPa 0,0 l/m 2,6 km/h (1 Bft) SO 140 0 min 0,000 mm 0,0 UV-I 0 W/m 4,7 C 5,7 C 3,2 km/h (1 Bft) 100,00 %
27.04.2018 02:28 5,8 C 16,7 C 93 % 1018,3 hPa 0,0 l/m 1,3 km/h (1 Bft) SO 140 0 min 0,000 mm 0,0 UV-I 0 W/m 4,8 C 5,8 C 3,2 km/h (1 Bft) 91,30 %
27.04.2018 02:29 5,8 C 16,7 C 93 % 1018,3 hPa 0,0 l/m 0,0 km/h (0 Bft) SO 140 0 min 0,000 mm 0,0 UV-I 0 W/m 4,8 C 5,8 C 0,0 km/h (0 Bft) 100,00 %
27.04.2018 02:30 5,9 C 16,7 C 93 % 1018,3 hPa 0,0 l/m 0,0 km/h (0 Bft) SO 140 0 min 0,000 mm 0,0 UV-I 0 W/m 4,9 C 5,9 C 0,0 km/h (0 Bft) 95,65 %
27.04.2018 02:31 6,0 C 16,7 C 93 % 1018,3 hPa 0,0 l/m 0,2 km/h (0 Bft) SO 140 0 min 0,000 mm 0,0 UV-I 0 W/m 5,0 C 6,0 C 1,6 km/h (1 Bft) 100,00 %
27.04.2018 02:32 6,0 C 16,7 C 93 % 1018,2 hPa 0,0 l/m 2,3 km/h (1 Bft) SO 140 0 min 0,000 mm 0,0 UV-I 0 W/m 5,0 C 6,0 C 3,2 km/h (1 Bft) 95,65 %
27.04.2018 02:33 6,0 C 16,7 C 93 % 1018,2 hPa 0,0 l/m 2,6 km/h (1 Bft) SO 140 0 min 0,000 mm 0,0 UV-I 0 W/m 5,0 C 6,0 C 3,2 km/h (1 Bft) 100,00 %
27.04.2018 02:34 5,9 C 16,7 C 92 % 1018,3 hPa 0,0 l/m 2,9 km/h (1 Bft) SO 140 0 min 0,000 mm 0,0 UV-I 0 W/m 4,7 C 5,9 C 3,2 km/h (1 Bft) 92,86 %
27.04.2018 02:35 5,7 C 16,7 C 92 % 1018,2 hPa 0,0 l/m 3,4 km/h (1 Bft) SO 140 0 min 0,000 mm 0,0 UV-I 0 W/m 4,5 C 5,7 C 4,8 km/h (1 Bft) 100,00 %
27.04.2018 02:36 5,7 C 16,7 C 92 % 1018,2 hPa 0,0 l/m 3,8 km/h (1 Bft) SO 140 0 min 0,000 mm 0,0 UV-I 0 W/m 4,5 C 5,7 C 4,8 km/h (1 Bft) 95,65 %
27.04.2018 02:37 5,6 C 16,7 C 92 % 1018,2 hPa 0,0 l/m 3,6 km/h (1 Bft) SO 140 0 min 0,000 mm 0,0 UV-I 0 W/m 4,4 C 5,6 C 4,8 km/h (1 Bft) 95,83 %
27.04.2018 02:38 5,6 C 16,7 C 92 % 1018,2 hPa 0,0 l/m 2,7 km/h (1 Bft) SO 140 0 min 0,000 mm 0,0 UV-I 0 W/m 4,4 C 5,6 C 3,2 km/h (1 Bft) 100,00 %
27.04.2018 02:39 5,6 C 16,7 C 93 % 1018,2 hPa 0,0 l/m 2,3 km/h (1 Bft) SO 140 0 min 0,000 mm 0,0 UV-I 0 W/m 4,6 C 5,6 C 3,2 km/h (1 Bft) 96,30 %
27.04.2018 02:40 5,5 C 16,7 C 93 % 1018,2 hPa 0,0 l/m 2,0 km/h (1 Bft) SO 140 0 min 0,000 mm 0,0 UV-I 0 W/m 4,5 C 5,5 C 3,2 km/h (1 Bft) 100,00 %
27.04.2018 02:41 5,4 C 16,7 C 93 % 1018,2 hPa 0,0 l/m 2,1 km/h (1 Bft) SO 140 0 min 0,000 mm 0,0 UV-I 0 W/m 4,4 C 5,4 C 3,2 km/h (1 Bft) 94,74 %
27.04.2018 02:42 5,4 C 16,7 C 93 % 1018,2 hPa 0,0 l/m 2,1 km/h (1 Bft) SO 140 0 min 0,000 mm 0,0 UV-I 0 W/m 4,4 C 5,4 C 3,2 km/h (1 Bft) 100,00 %
27.04.2018 02:43 5,4 C 16,7 C 93 % 1018,2 hPa 0,0 l/m 2,5 km/h (1 Bft) SO 140 0 min 0,000 mm 0,0 UV-I 0 W/m 4,4 C 5,4 C 3,2 km/h (1 Bft) 92,31 %
27.04.2018 02:44 5,3 C 16,7 C 93 % 1018,2 hPa 0,0 l/m 2,3 km/h (1 Bft) SO 140 0 min 0,000 mm 0,0 UV-I 0 W/m 4,3 C 5,3 C 3,2 km/h (1 Bft) 95,83 %
27.04.2018 02:45 5,3 C 16,7 C 93 % 1018,2 hPa 0,0 l/m 1,3 km/h (1 Bft) SO 140 0 min 0,000 mm 0,0 UV-I 0 W/m 4,3 C 5,3 C 1,6 km/h (1 Bft) 95,65 %
27.04.2018 02:46 5,4 C 16,7 C 93 % 1018,1 hPa 0,0 l/m 0,0 km/h (0 Bft) SO 140 0 min 0,000 mm 0,0 UV-I 0 W/m 4,4 C 5,4 C 0,0 km/h (0 Bft) 95,83 %
27.04.2018 02:47 5,4 C 16,7 C 94 % 1018,1 hPa 0,0 l/m 0,1 km/h (0 Bft) SO 140 0 min 0,000 mm 0,0 UV-I 0 W/m 4,5 C 5,4 C 1,6 km/h (1 Bft) 95,65 %
27.04.2018 02:49 5,4 C 16,7 C 93 % 1018,1 hPa 0,0 l/m 2,1 km/h (1 Bft) SO 140 0 min 0,000 mm 0,0 UV-I 0 W/m 4,4 C 5,4 C 3,2 km/h (1 Bft) 95,74 %
27.04.2018 02:50 5,4 C 16,7 C 93 % 1018,1 hPa 0,0 l/m 1,6 km/h (1 Bft) SO 140 0 min 0,000 mm 0,0 UV-I 0 W/m 4,4 C 5,4 C 1,6 km/h (1 Bft) 91,67 %
27.04.2018 02:51 5,4 C 16,7 C 93 % 1018,1 hPa 0,0 l/m 1,4 km/h (1 Bft) SO 140 0 min 0,000 mm 0,0 UV-I 0 W/m 4,4 C 5,4 C 1,6 km/h (1 Bft) 91,30 %
27.04.2018 02:52 5,5 C 16,7 C 94 % 1018,0 hPa 0,0 l/m 1,9 km/h (1 Bft) SO 140 0 min 0,000 mm 0,0 UV-I 0 W/m 4,6 C 5,5 C 3,2 km/h (1 Bft) 95,83 %
27.04.2018 02:53 5,5 C 16,7 C 94 % 1018,0 hPa 0,0 l/m 3,3 km/h (1 Bft) SO 140 0 min 0,000 mm 0,0 UV-I 0 W/m 4,6 C 5,5 C 4,8 km/h (1 Bft) 95,65 %
27.04.2018 02:54 5,5 C 16,7 C 94 % 1018,0 hPa 0,0 l/m 3,4 km/h (1 Bft) SO 140 0 min 0,000 mm 0,0 UV-I 0 W/m 4,6 C 5,5 C 4,8 km/h (1 Bft) 95,83 %
27.04.2018 02:55 5,5 C 16,7 C 93 % 1017,9 hPa 0,0 l/m 3,2 km/h (1 Bft) SO 140 0 min 0,000 mm 0,0 UV-I 0 W/m 4,5 C 5,5 C 3,2 km/h (1 Bft) 91,30 %
27.04.2018 02:56 5,5 C 16,7 C 94 % 1017,9 hPa 0,0 l/m 2,4 km/h (1 Bft) SO 140 0 min 0,000 mm 0,0 UV-I 0 W/m 4,6 C 5,5 C 3,2 km/h (1 Bft) 91,67 %
27.04.2018 02:57 5,6 C 16,7 C 94 % 1018,0 hPa 0,0 l/m 2,8 km/h (1 Bft) SO 140 0 min 0,000 mm 0,0 UV-I 0 W/m 4,7 C 5,6 C 3,2 km/h (1 Bft) 95,65 %
27.04.2018 02:58 5,6 C 16,7 C 94 % 1018,0 hPa 0,0 l/m 2,7 km/h (1 Bft) SO 140 0 min 0,000 mm 0,0 UV-I 0 W/m 4,7 C 5,6 C 3,2 km/h (1 Bft) 91,67 %
27.04.2018 02:59 5,6 C 16,7 C 94 % 1018,0 hPa 0,0 l/m 3,3 km/h (1 Bft) SO 140 0 min 0,000 mm 0,0 UV-I 0 W/m 4,7 C 5,6 C 4,8 km/h (1 Bft) 95,65 %
27.04.2018 03:00 5,6 C 16,7 C 94 % 1018,0 hPa 0,0 l/m 3,4 km/h (1 Bft) SO 140 0 min 0,000 mm 0,0 UV-I 0 W/m 4,7 C 5,6 C 4,8 km/h (1 Bft) 95,83 %
27.04.2018 03:01 5,6 C 16,7 C 93 % 1017,9 hPa 0,0 l/m 3,4 km/h (1 Bft) SO 140 0 min 0,000 mm 0,0 UV-I 0 W/m 4,6 C 5,6 C 4,8 km/h (1 Bft) 100,00 %
27.04.2018 03:02 5,6 C 16,7 C 94 % 1017,9 hPa 0,0 l/m 4,4 km/h (1 Bft) SO 140 0 min 0,000 mm 0,0 UV-I 0 W/m 4,7 C 5,6 C 6,4 km/h (2 Bft) 95,65 %
27.04.2018 03:03 5,6 C 16,7 C 94 % 1017,9 hPa 0,0 l/m 5,3 km/h (1 Bft) S-SO 156 0 min 0,000 mm 0,0 UV-I 0 W/m 4,7 C 5,6 C 8,0 km/h (2 Bft) 100,00 %
27.04.2018 03:04 5,6 C 16,7 C 94 % 1017,9 hPa 0,0 l/m 4,2 km/h (1 Bft) S-SO 156 0 min 0,000 mm 0,0 UV-I 0 W/m 4,7 C 5,6 C 4,8 km/h (1 Bft) 95,65 %
27.04.2018 03:05 5,7 C 16,7 C 94 % 1017,9 hPa 0,0 l/m 4,1 km/h (1 Bft) S-SO 157 0 min 0,000 mm 0,0 UV-I 0 W/m 4,8 C 5,7 C 4,8 km/h (1 Bft) 100,00 %
27.04.2018 03:06 5,7 C 16,7 C 94 % 1017,9 hPa 0,0 l/m 2,6 km/h (1 Bft) S-SO 157 0 min 0,000 mm 0,0 UV-I 0 W/m 4,8 C 5,7 C 3,2 km/h (1 Bft) 92,31 %
27.04.2018 03:07 5,7 C 16,7 C 93 % 1017,9 hPa 0,0 l/m 3,0 km/h (1 Bft) S-SO 157 0 min 0,000 mm 0,0 UV-I 0 W/m 4,7 C 5,7 C 3,2 km/h (1 Bft) 100,00 %
27.04.2018 03:08 5,7 C 16,7 C 93 % 1017,9 hPa 0,0 l/m 3,8 km/h (1 Bft) S-SO 157 0 min 0,000 mm 0,0 UV-I 0 W/m 4,7 C 5,7 C 4,8 km/h (1 Bft) 95,65 %
27.04.2018 03:09 5,7 C 16,7 C 93 % 1017,8 hPa 0,0 l/m 4,1 km/h (1 Bft) S-SO 157 0 min 0,000 mm 0,0 UV-I 0 W/m 4,7 C 5,7 C 4,8 km/h (1 Bft) 96,15 %
27.04.2018 03:10 5,7 C 16,7 C 94 % 1017,9 hPa 0,0 l/m 4,5 km/h (1 Bft) S-SO 156 0 min 0,000 mm 0,0 UV-I 0 W/m 4,8 C 5,7 C 8,0 km/h (2 Bft) 100,00 %
27.04.2018 03:11 5,8 C 16,7 C 93 % 1017,9 hPa 0,0 l/m 4,3 km/h (1 Bft) S-SO 156 0 min 0,000 mm 0,0 UV-I 0 W/m 4,8 C 5,8 C 4,8 km/h (1 Bft) 91,67 %
27.04.2018 03:12 5,8 C 16,7 C 93 % 1017,9 hPa 0,0 l/m 4,6 km/h (1 Bft) S-SO 156 0 min 0,000 mm 0,0 UV-I 0 W/m 4,8 C 5,8 C 4,8 km/h (1 Bft) 100,00 %
27.04.2018 03:13 5,8 C 16,7 C 93 % 1017,8 hPa 0,0 l/m 5,1 km/h (1 Bft) S-SO 156 0 min 0,000 mm 0,0 UV-I 0 W/m 4,8 C 5,8 C 8,0 km/h (2 Bft) 95,83 %
27.04.2018 03:14 5,8 C 16,7 C 93 % 1017,9 hPa 0,0 l/m 4,7 km/h (1 Bft) S-SO 156 0 min 0,000 mm 0,0 UV-I 0 W/m 4,8 C 5,8 C 8,0 km/h (2 Bft) 100,00 %
27.04.2018 03:15 5,7 C 16,7 C 93 % 1017,9 hPa 0,0 l/m 4,2 km/h (1 Bft) S-SO 156 0 min 0,000 mm 0,0 UV-I 0 W/m 4,7 C 5,7 C 4,8 km/h (1 Bft) 95,83 %
27.04.2018 03:16 5,7 C 16,7 C 93 % 1017,9 hPa 0,0 l/m 3,6 km/h (1 Bft) S-SO 156 0 min 0,000 mm 0,0 UV-I 0 W/m 4,7 C 5,7 C 4,8 km/h (1 Bft) 100,00 %
27.04.2018 03:17 5,7 C 16,7 C 93 % 1017,9 hPa 0,0 l/m 2,7 km/h (1 Bft) S-SO 156 0 min 0,000 mm 0,0 UV-I 0 W/m 4,7 C 5,7 C 3,2 km/h (1 Bft) 91,67 %
27.04.2018 03:19 5,6 C 16,7 C 93 % 1017,9 hPa 0,0 l/m 3,1 km/h (1 Bft) S-SO 156 0 min 0,000 mm 0,0 UV-I 0 W/m 4,6 C 5,6 C 4,8 km/h (1 Bft) 95,74 %
27.04.2018 03:20 5,6 C 16,7 C 93 % 1017,9 hPa 0,0 l/m 3,2 km/h (1 Bft) S-SO 156 0 min 0,000 mm 0,0 UV-I 0 W/m 4,6 C 5,6 C 3,2 km/h (1 Bft) 95,83 %
27.04.2018 03:21 5,6 C 16,7 C 93 % 1017,9 hPa 0,0 l/m 2,7 km/h (1 Bft) S-SO 156 0 min 0,000 mm 0,0 UV-I 0 W/m 4,6 C 5,6 C 3,2 km/h (1 Bft) 100,00 %
27.04.2018 03:22 5,5 C 16,7 C 93 % 1017,9 hPa 0,0 l/m 2,8 km/h (1 Bft) S-SO 156 0 min 0,000 mm 0,0 UV-I 0 W/m 4,5 C 5,5 C 3,2 km/h (1 Bft) 95,83 %
27.04.2018 03:23 5,6 C 16,7 C 93 % 1017,9 hPa 0,0 l/m 3,6 km/h (1 Bft) S-SO 156 0 min 0,000 mm 0,0 UV-I 0 W/m 4,6 C 5,6 C 4,8 km/h (1 Bft) 100,00 %
27.04.2018 03:24 5,7 C 16,7 C 94 % 1017,9 hPa 0,0 l/m 3,8 km/h (1 Bft) S-SO 156 0 min 0,000 mm 0,0 UV-I 0 W/m 4,8 C 5,7 C 4,8 km/h (1 Bft) 100,00 %
27.04.2018 03:25 5,8 C 16,7 C 94 % 1017,9 hPa 0,0 l/m 4,6 km/h (1 Bft) S-SO 156 0 min 0,000 mm 0,0 UV-I 0 W/m 4,9 C 5,8 C 8,0 km/h (2 Bft) 95,65 %
27.04.2018 03:26 5,8 C 16,7 C 94 % 1017,9 hPa 0,0 l/m 4,5 km/h (1 Bft) S-SO 156 0 min 0,000 mm 0,0 UV-I 0 W/m 4,9 C 5,8 C 4,8 km/h (1 Bft) 100,00 %
27.04.2018 03:27 5,8 C 16,7 C 93 % 1017,8 hPa 0,0 l/m 4,2 km/h (1 Bft) S-SO 156 0 min 0,000 mm 0,0 UV-I 0 W/m 4,8 C 5,8 C 4,8 km/h (1 Bft) 95,65 %
27.04.2018 03:28 5,8 C 16,7 C 93 % 1017,9 hPa 0,0 l/m 3,8 km/h (1 Bft) S-SO 156 0 min 0,000 mm 0,0 UV-I 0 W/m 4,8 C 5,8 C 4,8 km/h (1 Bft) 100,00 %
27.04.2018 03:29 5,8 C 16,7 C 93 % 1017,8 hPa 0,0 l/m 2,7 km/h (1 Bft) S-SO 156 0 min 0,000 mm 0,0 UV-I 0 W/m 4,8 C 5,8 C 3,2 km/h (1 Bft) 91,30 %
27.04.2018 03:30 5,7 C 16,7 C 93 % 1017,8 hPa 0,0 l/m 1,9 km/h (1 Bft) S-SO 156 0 min 0,000 mm 0,0 UV-I 0 W/m 4,7 C 5,7 C 3,2 km/h (1 Bft) 100,00 %
27.04.2018 03:31 5,7 C 16,7 C 93 % 1017,9 hPa 0,0 l/m 2,1 km/h (1 Bft) S-SO 156 0 min 0,000 mm 0,0 UV-I 0 W/m 4,7 C 5,7 C 3,2 km/h (1 Bft) 100,00 %
27.04.2018 03:32 5,7 C 16,7 C 93 % 1017,8 hPa 0,0 l/m 3,0 km/h (1 Bft) S-SO 156 0 min 0,000 mm 0,0 UV-I 0 W/m 4,7 C 5,7 C 3,2 km/h (1 Bft) 100,00 %
27.04.2018 03:33 5,6 C 16,7 C 93 % 1017,8 hPa 0,0 l/m 2,5 km/h (1 Bft) S-SO 156 0 min 0,000 mm 0,0 UV-I 0 W/m 4,6 C 5,6 C 3,2 km/h (1 Bft) 100,00 %
27.04.2018 03:34 5,6 C 16,7 C 93 % 1017,8 hPa 0,0 l/m 1,9 km/h (1 Bft) S-SO 156 0 min 0,000 mm 0,0 UV-I 0 W/m 4,6 C 5,6 C 3,2 km/h (1 Bft) 100,00 %
27.04.2018 03:35 5,6 C 16,7 C 93 % 1017,8 hPa 0,0 l/m 1,9 km/h (1 Bft) S-SO 156 0 min 0,000 mm 0,0 UV-I 0 W/m 4,6 C 5,6 C 3,2 km/h (1 Bft) 95,65 %
27.04.2018 03:36 5,6 C 16,7 C 93 % 1017,8 hPa 0,0 l/m 1,8 km/h (1 Bft) S-SO 156 0 min 0,000 mm 0,0 UV-I 0 W/m 4,6 C 5,6 C 3,2 km/h (1 Bft) 100,00 %
27.04.2018 03:37 5,6 C 16,7 C 93 % 1017,8 hPa 0,0 l/m 1,5 km/h (1 Bft) S-SO 156 0 min 0,000 mm 0,0 UV-I 0 W/m 4,6 C 5,6 C 3,2 km/h (1 Bft) 100,00 %
27.04.2018 03:38 5,6 C 16,7 C 93 % 1017,8 hPa 0,0 l/m 1,8 km/h (1 Bft) S-SO 156 0 min 0,000 mm 0,0 UV-I 0 W/m 4,6 C 5,6 C 3,2 km/h (1 Bft) 100,00 %
27.04.2018 03:39 5,6 C 16,7 C 93 % 1017,8 hPa 0,0 l/m 1,9 km/h (1 Bft) S-SO 156 0 min 0,000 mm 0,0 UV-I 0 W/m 4,6 C 5,6 C 3,2 km/h (1 Bft) 100,00 %
27.04.2018 03:40 5,6 C 16,7 C 93 % 1017,8 hPa 0,0 l/m 2,0 km/h (1 Bft) S-SO 156 0 min 0,000 mm 0,0 UV-I 0 W/m 4,6 C 5,6 C 3,2 km/h (1 Bft) 100,00 %
27.04.2018 03:41 5,6 C 16,7 C 93 % 1017,8 hPa 0,0 l/m 1,4 km/h (1 Bft) S-SO 156 0 min 0,000 mm 0,0 UV-I 0 W/m 4,6 C 5,6 C 3,2 km/h (1 Bft) 100,00 %
27.04.2018 03:42 5,6 C 16,7 C 93 % 1017,8 hPa 0,0 l/m 1,1 km/h (1 Bft) S-SO 156 0 min 0,000 mm 0,0 UV-I 0 W/m 4,6 C 5,6 C 1,6 km/h (1 Bft) 95,65 %
27.04.2018 03:43 5,6 C 16,7 C 93 % 1017,7 hPa 0,0 l/m 0,8 km/h (0 Bft) S-SO 156 0 min 0,000 mm 0,0 UV-I 0 W/m 4,6 C 5,6 C 1,6 km/h (1 Bft) 100,00 %
27.04.2018 03:44 5,5 C 16,7 C 93 % 1017,7 hPa 0,0 l/m 0,9 km/h (0 Bft) S-SO 156 0 min 0,000 mm 0,0 UV-I 0 W/m 4,5 C 5,5 C 1,6 km/h (1 Bft) 100,00 %
27.04.2018 03:45 5,6 C 16,7 C 93 % 1017,7 hPa 0,0 l/m 1,1 km/h (1 Bft) S-SO 156 0 min 0,000 mm 0,0 UV-I 0 W/m 4,6 C 5,6 C 1,6 km/h (1 Bft) 100,00 %
27.04.2018 03:46 5,6 C 16,7 C 93 % 1017,7 hPa 0,0 l/m 0,0 km/h (0 Bft) S-SO 156 0 min 0,000 mm 0,0 UV-I 0 W/m 4,6 C 5,6 C 0,0 km/h (0 Bft) 95,65 %
27.04.2018 03:47 5,7 C 16,7 C 93 % 1017,7 hPa 0,0 l/m 1,7 km/h (1 Bft) S-SO 156 0 min 0,000 mm 0,0 UV-I 0 W/m 4,7 C 5,7 C 3,2 km/h (1 Bft) 100,00 %
27.04.2018 03:48 5,7 C 16,7 C 93 % 1017,7 hPa 0,0 l/m 2,1 km/h (1 Bft) S-SO 156 0 min 0,000 mm 0,0 UV-I 0 W/m 4,7 C 5,7 C 3,2 km/h (1 Bft) 100,00 %
27.04.2018 03:49 5,7 C 16,7 C 93 % 1017,7 hPa 0,0 l/m 3,2 km/h (1 Bft) S-SO 156 0 min 0,000 mm 0,0 UV-I 0 W/m 4,7 C 5,7 C 4,8 km/h (1 Bft) 95,83 %
27.04.2018 03:50 5,7 C 16,7 C 93 % 1017,7 hPa 0,0 l/m 3,8 km/h (1 Bft) S-SO 156 0 min 0,000 mm 0,0 UV-I 0 W/m 4,7 C 5,7 C 4,8 km/h (1 Bft) 100,00 %
27.04.2018 03:51 5,8 C 16,7 C 93 % 1017,7 hPa 0,0 l/m 3,7 km/h (1 Bft) S-SO 156 0 min 0,000 mm 0,0 UV-I 0 W/m 4,8 C 5,8 C 4,8 km/h (1 Bft) 100,00 %
27.04.2018 03:52 5,8 C 16,7 C 93 % 1017,7 hPa 0,0 l/m 3,4 km/h (1 Bft) S-SO 156 0 min 0,000 mm 0,0 UV-I 0 W/m 4,8 C 5,8 C 4,8 km/h (1 Bft) 100,00 %
27.04.2018 03:53 5,7 C 16,7 C 93 % 1017,7 hPa 0,0 l/m 2,1 km/h (1 Bft) S-SO 156 0 min 0,000 mm 0,0 UV-I 0 W/m 4,7 C 5,7 C 3,2 km/h (1 Bft) 100,00 %
27.04.2018 03:54 5,7 C 16,7 C 92 % 1017,6 hPa 0,0 l/m 1,6 km/h (1 Bft) S-SO 156 0 min 0,000 mm 0,0 UV-I 0 W/m 4,5 C 5,7 C 3,2 km/h (1 Bft) 100,00 %
27.04.2018 03:55 5,6 C 16,7 C 92 % 1017,6 hPa 0,0 l/m 1,3 km/h (1 Bft) S-SO 156 0 min 0,000 mm 0,0 UV-I 0 W/m 4,4 C 5,6 C 3,2 km/h (1 Bft) 95,65 %
27.04.2018 03:56 5,6 C 16,7 C 92 % 1017,6 hPa 0,0 l/m 0,1 km/h (0 Bft) S-SO 156 0 min 0,000 mm 0,0 UV-I 0 W/m 4,4 C 5,6 C 1,6 km/h (1 Bft) 100,00 %
27.04.2018 03:57 5,6 C 16,7 C 93 % 1017,6 hPa 0,0 l/m 1,1 km/h (1 Bft) S-SO 156 0 min 0,000 mm 0,0 UV-I 0 W/m 4,6 C 5,6 C 3,2 km/h (1 Bft) 100,00 %
27.04.2018 03:58 5,6 C 16,7 C 93 % 1017,6 hPa 0,0 l/m 1,7 km/h (1 Bft) S-SO 156 0 min 0,000 mm 0,0 UV-I 0 W/m 4,6 C 5,6 C 3,2 km/h (1 Bft) 100,00 %
27.04.2018 03:59 5,6 C 16,7 C 93 % 1017,6 hPa 0,0 l/m 2,5 km/h (1 Bft) S-SO 156 0 min 0,000 mm 0,0 UV-I 0 W/m 4,6 C 5,6 C 3,2 km/h (1 Bft) 100,00 %
27.04.2018 04:00 5,6 C 16,7 C 93 % 1017,6 hPa 0,0 l/m 2,5 km/h (1 Bft) S-SO 156 0 min 0,000 mm 0,0 UV-I 0 W/m 4,6 C 5,6 C 3,2 km/h (1 Bft) 100,00 %
27.04.2018 04:01 5,5 C 16,7 C 93 % 1017,6 hPa 0,0 l/m 3,2 km/h (1 Bft) S-SO 156 0 min 0,000 mm 0,0 UV-I 0 W/m 4,5 C 5,5 C 3,2 km/h (1 Bft) 100,00 %
27.04.2018 04:02 5,5 C 16,7 C 93 % 1017,6 hPa 0,0 l/m 3,4 km/h (1 Bft) S-SO 156 0 min 0,000 mm 0,0 UV-I 0 W/m 4,5 C 5,5 C 4,8 km/h (1 Bft) 100,00 %
27.04.2018 04:03 5,4 C 16,7 C 93 % 1017,6 hPa 0,0 l/m 1,6 km/h (1 Bft) S-SO 156 0 min 0,000 mm 0,0 UV-I 0 W/m 4,4 C 5,4 C 3,2 km/h (1 Bft) 100,00 %
27.04.2018 04:04 5,4 C 16,7 C 93 % 1017,6 hPa 0,0 l/m 1,1 km/h (1 Bft) S-SO 156 0 min 0,000 mm 0,0 UV-I 0 W/m 4,4 C 5,4 C 1,6 km/h (1 Bft) 91,67 %
27.04.2018 04:05 5,4 C 16,7 C 93 % 1017,6 hPa 0,0 l/m 1,7 km/h (1 Bft) S-SO 156 0 min 0,000 mm 0,0 UV-I 0 W/m 4,4 C 5,4 C 3,2 km/h (1 Bft) 100,00 %
27.04.2018 04:06 5,4 C 16,7 C 93 % 1017,5 hPa 0,0 l/m 0,5 km/h (0 Bft) S-SO 156 0 min 0,000 mm 0,0 UV-I 0 W/m 4,4 C 5,4 C 1,6 km/h (1 Bft) 100,00 %
27.04.2018 04:07 5,4 C 16,7 C 93 % 1017,6 hPa 0,0 l/m 0,0 km/h (0 Bft) S-SO 156 0 min 0,000 mm 0,0 UV-I 0 W/m 4,4 C 5,4 C 0,0 km/h (0 Bft) 95,65 %
27.04.2018 04:08 5,4 C 16,7 C 93 % 1017,6 hPa 0,0 l/m 0,0 km/h (0 Bft) S-SO 156 0 min 0,000 mm 0,0 UV-I 0 W/m 4,4 C 5,4 C 0,0 km/h (0 Bft) 100,00 %
27.04.2018 04:09 5,5 C 16,7 C 93 % 1017,6 hPa 0,0 l/m 0,0 km/h (0 Bft) S-SO 156 0 min 0,000 mm 0,0 UV-I 0 W/m 4,5 C 5,5 C 0,0 km/h (0 Bft) 100,00 %
27.04.2018 04:10 5,5 C 16,7 C 93 % 1017,5 hPa 0,0 l/m 0,0 km/h (0 Bft) S-SO 156 0 min 0,000 mm 0,0 UV-I 0 W/m 4,5 C 5,5 C 0,0 km/h (0 Bft) 100,00 %
27.04.2018 04:11 5,6 C 16,7 C 94 % 1017,5 hPa 0,0 l/m 0,0 km/h (0 Bft) S-SO 156 0 min 0,000 mm 0,0 UV-I 0 W/m 4,7 C 5,6 C 0,0 km/h (0 Bft) 100,00 %
27.04.2018 04:12 5,6 C 16,7 C 93 % 1017,5 hPa 0,0 l/m 1,2 km/h (1 Bft) S-SO 156 0 min 0,000 mm 0,0 UV-I 0 W/m 4,6 C 5,6 C 3,2 km/h (1 Bft) 100,00 %
27.04.2018 04:13 5,5 C 16,7 C 93 % 1017,5 hPa 0,0 l/m 2,4 km/h (1 Bft) S-SO 156 0 min 0,000 mm 0,0 UV-I 0 W/m 4,5 C 5,5 C 3,2 km/h (1 Bft) 100,00 %
27.04.2018 04:14 5,4 C 16,7 C 93 % 1017,5 hPa 0,0 l/m 2,1 km/h (1 Bft) S-SO 156 0 min 0,000 mm 0,0 UV-I 0 W/m 4,4 C 5,4 C 3,2 km/h (1 Bft) 100,00 %
27.04.2018 04:15 5,3 C 16,7 C 93 % 1017,5 hPa 0,0 l/m 3,2 km/h (1 Bft) S-SO 156 0 min 0,000 mm 0,0 UV-I 0 W/m 4,3 C 5,3 C 4,8 km/h (1 Bft) 100,00 %
27.04.2018 04:16 5,1 C 16,7 C 92 % 1017,5 hPa 0,0 l/m 3,6 km/h (1 Bft) S-SO 156 0 min 0,000 mm 0,0 UV-I 0 W/m 3,9 C 5,1 C 4,8 km/h (1 Bft) 100,00 %
27.04.2018 04:17 5,1 C 16,7 C 93 % 1017,5 hPa 0,0 l/m 4,1 km/h (1 Bft) S-SO 156 0 min 0,000 mm 0,0 UV-I 0 W/m 4,1 C 5,1 C 4,8 km/h (1 Bft) 100,00 %
27.04.2018 04:18 5,1 C 16,7 C 93 % 1017,5 hPa 0,0 l/m 3,8 km/h (1 Bft) S-SO 156 0 min 0,000 mm 0,0 UV-I 0 W/m 4,1 C 5,1 C 4,8 km/h (1 Bft) 95,65 %
27.04.2018 04:19 5,1 C 16,7 C 93 % 1017,5 hPa 0,0 l/m 3,0 km/h (1 Bft) S-SO 156 0 min 0,000 mm 0,0 UV-I 0 W/m 4,1 C 5,1 C 3,2 km/h (1 Bft) 100,00 %
27.04.2018 04:20 5,0 C 16,7 C 93 % 1017,5 hPa 0,0 l/m 1,7 km/h (1 Bft) S-SO 156 0 min 0,000 mm 0,0 UV-I 0 W/m 4,0 C 5,0 C 3,2 km/h (1 Bft) 100,00 %
27.04.2018 04:21 4,9 C 16,7 C 93 % 1017,5 hPa 0,0 l/m 0,7 km/h (0 Bft) S-SO 156 0 min 0,000 mm 0,0 UV-I 0 W/m 3,9 C 4,9 C 1,6 km/h (1 Bft) 100,00 %
27.04.2018 04:22 4,8 C 16,7 C 93 % 1017,4 hPa 0,0 l/m 0,1 km/h (0 Bft) S-SO 156 0 min 0,000 mm 0,0 UV-I 0 W/m 3,8 C 4,8 C 1,6 km/h (1 Bft) 100,00 %
27.04.2018 04:23 4,9 C 16,7 C 94 % 1017,4 hPa 0,0 l/m 1,2 km/h (1 Bft) S-SO 156 0 min 0,000 mm 0,0 UV-I 0 W/m 4,0 C 4,9 C 4,8 km/h (1 Bft) 100,00 %
27.04.2018 04:24 4,9 C 16,7 C 93 % 1017,5 hPa 0,0 l/m 2,4 km/h (1 Bft) S-SO 156 0 min 0,000 mm 0,0 UV-I 0 W/m 3,9 C 4,9 C 3,2 km/h (1 Bft) 100,00 %
27.04.2018 04:25 4,9 C 16,7 C 94 % 1017,4 hPa 0,0 l/m 0,2 km/h (0 Bft) S-SO 156 0 min 0,000 mm 0,0 UV-I 0 W/m 4,0 C 4,9 C 1,6 km/h (1 Bft) 100,00 %
27.04.2018 04:26 5,0 C 16,7 C 94 % 1017,4 hPa 0,0 l/m 0,0 km/h (0 Bft) S-SO 156 0 min 0,000 mm 0,0 UV-I 0 W/m 4,1 C 5,0 C 0,0 km/h (0 Bft) 100,00 %
27.04.2018 04:27 5,1 C 16,7 C 94 % 1017,5 hPa 0,0 l/m 0,0 km/h (0 Bft) S-SO 156 0 min 0,000 mm 0,0 UV-I 0 W/m 4,2 C 5,1 C 0,0 km/h (0 Bft) 100,00 %
27.04.2018 04:28 5,2 C 16,7 C 94 % 1017,4 hPa 0,0 l/m 1,1 km/h (1 Bft) S-SO 156 0 min 0,000 mm 0,0 UV-I 0 W/m 4,3 C 5,2 C 3,2 km/h (1 Bft) 100,00 %
27.04.2018 04:29 5,2 C 16,7 C 94 % 1017,4 hPa 0,0 l/m 1,3 km/h (1 Bft) S-SO 156 0 min 0,000 mm 0,0 UV-I 0 W/m 4,3 C 5,2 C 1,6 km/h (1 Bft) 100,00 %
27.04.2018 04:30 5,3 C 16,7 C 94 % 1017,4 hPa 0,0 l/m 0,8 km/h (0 Bft) S-SO 156 0 min 0,000 mm 0,0 UV-I 0 W/m 4,4 C 5,3 C 1,6 km/h (1 Bft) 100,00 %
27.04.2018 04:31 5,3 C 16,7 C 94 % 1017,4 hPa 0,0 l/m 1,7 km/h (1 Bft) S-SO 156 0 min 0,000 mm 0,0 UV-I 0 W/m 4,4 C 5,3 C 3,2 km/h (1 Bft) 100,00 %
27.04.2018 04:32 5,4 C 16,7 C 94 % 1017,4 hPa 0,0 l/m 1,7 km/h (1 Bft) S-SO 156 0 min 0,000 mm 0,0 UV-I 0 W/m 4,5 C 5,4 C 3,2 km/h (1 Bft) 100,00 %
27.04.2018 04:33 5,4 C 16,7 C 93 % 1017,4 hPa 0,0 l/m 1,6 km/h (1 Bft) S-SO 156 0 min 0,000 mm 0,0 UV-I 0 W/m 4,4 C 5,4 C 3,2 km/h (1 Bft) 100,00 %
27.04.2018 04:34 5,4 C 16,7 C 93 % 1017,4 hPa 0,0 l/m 0,8 km/h (0 Bft) S-SO 156 0 min 0,000 mm 0,0 UV-I 0 W/m 4,4 C 5,4 C 1,6 km/h (1 Bft) 100,00 %
27.04.2018 04:35 5,3 C 16,7 C 93 % 1017,4 hPa 0,0 l/m 2,3 km/h (1 Bft) S-SO 156 0 min 0,000 mm 0,0 UV-I 0 W/m 4,3 C 5,3 C 3,2 km/h (1 Bft) 95,65 %
27.04.2018 04:36 5,3 C 16,7 C 93 % 1017,4 hPa 0,0 l/m 5,1 km/h (1 Bft) SO 126 0 min 0,000 mm 0,0 UV-I 0 W/m 4,3 C 5,3 C 6,4 km/h (2 Bft) 100,00 %
27.04.2018 04:37 5,3 C 16,7 C 93 % 1017,3 hPa 0,0 l/m 5,0 km/h (1 Bft) SO 125 0 min 0,000 mm 0,0 UV-I 0 W/m 4,3 C 5,3 C 8,0 km/h (2 Bft) 100,00 %
27.04.2018 04:38 5,3 C 16,7 C 93 % 1017,3 hPa 0,0 l/m 1,4 km/h (1 Bft) SO 125 0 min 0,000 mm 0,0 UV-I 0 W/m 4,3 C 5,3 C 3,2 km/h (1 Bft) 100,00 %
27.04.2018 04:39 5,4 C 16,7 C 93 % 1017,3 hPa 0,0 l/m 0,2 km/h (0 Bft) SO 125 0 min 0,000 mm 0,0 UV-I 0 W/m 4,4 C 5,4 C 1,6 km/h (1 Bft) 100,00 %
27.04.2018 04:40 5,4 C 16,7 C 93 % 1017,3 hPa 0,0 l/m 0,3 km/h (0 Bft) SO 125 0 min 0,000 mm 0,0 UV-I 0 W/m 4,4 C 5,4 C 1,6 km/h (1 Bft) 100,00 %
27.04.2018 04:41 5,5 C 16,7 C 93 % 1017,3 hPa 0,0 l/m 0,9 km/h (0 Bft) SO 125 0 min 0,000 mm 0,0 UV-I 0 W/m 4,5 C 5,5 C 1,6 km/h (1 Bft) 100,00 %
27.04.2018 04:42 5,6 C 16,7 C 93 % 1017,3 hPa 0,0 l/m 0,0 km/h (0 Bft) SO 125 0 min 0,000 mm 0,0 UV-I 0 W/m 4,6 C 5,6 C 0,0 km/h (0 Bft) 100,00 %
27.04.2018 04:43 5,4 C 16,7 C 92 % 1017,3 hPa 0,0 l/m 0,1 km/h (0 Bft) SO 125 0 min 0,000 mm 0,0 UV-I 0 W/m 4,2 C 5,4 C 1,6 km/h (1 Bft) 100,00 %
27.04.2018 04:44 5,3 C 16,7 C 92 % 1017,3 hPa 0,0 l/m 0,0 km/h (0 Bft) SO 125 0 min 0,000 mm 0,0 UV-I 0 W/m 4,1 C 5,3 C 0,0 km/h (0 Bft) 100,00 %
27.04.2018 04:45 5,3 C 16,7 C 92 % 1017,3 hPa 0,0 l/m 0,0 km/h (0 Bft) SO 125 0 min 0,000 mm 0,0 UV-I 0 W/m 4,1 C 5,3 C 0,0 km/h (0 Bft) 100,00 %
27.04.2018 04:46 5,2 C 16,7 C 93 % 1017,3 hPa 0,0 l/m 0,0 km/h (0 Bft) SO 125 0 min 0,000 mm 0,0 UV-I 0 W/m 4,2 C 5,2 C 0,0 km/h (0 Bft) 100,00 %
27.04.2018 04:47 5,2 C 16,7 C 93 % 1017,2 hPa 0,0 l/m 1,3 km/h (1 Bft) SO 125 0 min 0,000 mm 0,0 UV-I 0 W/m 4,2 C 5,2 C 3,2 km/h (1 Bft) 95,65 %
27.04.2018 04:48 5,2 C 16,7 C 93 % 1017,3 hPa 0,0 l/m 0,8 km/h (0 Bft) SO 125 0 min 0,000 mm 0,0 UV-I 0 W/m 4,2 C 5,2 C 1,6 km/h (1 Bft) 100,00 %
27.04.2018 04:49 5,2 C 16,7 C 93 % 1017,2 hPa 0,0 l/m 1,2 km/h (1 Bft) O-SO 123 0 min 0,000 mm 0,0 UV-I 0 W/m 4,2 C 5,2 C 3,2 km/h (1 Bft) 100,00 %
27.04.2018 04:50 5,2 C 16,7 C 93 % 1017,3 hPa 0,0 l/m 1,2 km/h (1 Bft) O-SO 123 0 min 0,000 mm 0,0 UV-I 0 W/m 4,2 C 5,2 C 4,8 km/h (1 Bft) 100,00 %
27.04.2018 04:51 5,2 C 16,7 C 93 % 1017,3 hPa 0,0 l/m 1,7 km/h (1 Bft) O-SO 111 0 min 0,000 mm 0,0 UV-I 0 W/m 4,2 C 5,2 C 4,8 km/h (1 Bft) 95,83 %
27.04.2018 04:52 5,2 C 16,7 C 94 % 1017,3 hPa 0,0 l/m 2,1 km/h (1 Bft) O-SO 111 0 min 0,000 mm 0,0 UV-I 0 W/m 4,3 C 5,2 C 3,2 km/h (1 Bft) 100,00 %
27.04.2018 04:54 5,3 C 16,7 C 93 % 1017,3 hPa 0,0 l/m 0,3 km/h (0 Bft) O-SO 111 0 min 0,000 mm 0,0 UV-I 0 W/m 4,3 C 5,3 C 3,2 km/h (1 Bft) 97,87 %
27.04.2018 04:55 5,2 C 16,7 C 93 % 1017,3 hPa 0,0 l/m 0,1 km/h (0 Bft) O-SO 111 0 min 0,000 mm 0,0 UV-I 0 W/m 4,2 C 5,2 C 1,6 km/h (1 Bft) 100,00 %
27.04.2018 04:57 5,2 C 16,7 C 93 % 1017,2 hPa 0,0 l/m 1,8 km/h (1 Bft) O-SO 107 0 min 0,000 mm 0,0 UV-I 0 W/m 4,2 C 5,2 C 9,7 km/h (2 Bft) 97,87 %
27.04.2018 04:58 5,2 C 16,7 C 93 % 1017,2 hPa 0,0 l/m 1,9 km/h (1 Bft) O-SO 107 0 min 0,000 mm 0,0 UV-I 0 W/m 4,2 C 5,2 C 3,2 km/h (1 Bft) 95,65 %
27.04.2018 04:59 5,2 C 16,7 C 93 % 1017,2 hPa 0,0 l/m 1,7 km/h (1 Bft) SO 135 0 min 0,000 mm 0,0 UV-I 0 W/m 4,2 C 5,2 C 4,8 km/h (1 Bft) 100,00 %
27.04.2018 05:00 5,2 C 16,7 C 93 % 1017,2 hPa 0,0 l/m 2,5 km/h (1 Bft) SO 135 0 min 0,000 mm 0,0 UV-I 0 W/m 4,2 C 5,2 C 3,2 km/h (1 Bft) 100,00 %
27.04.2018 05:01 5,2 C 16,7 C 93 % 1017,2 hPa 0,0 l/m 1,9 km/h (1 Bft) SO 135 0 min 0,000 mm 0,0 UV-I 0 W/m 4,2 C 5,2 C 3,2 km/h (1 Bft) 95,83 %
27.04.2018 05:03 5,2 C 16,7 C 93 % 1017,2 hPa 0,0 l/m 1,2 km/h (1 Bft) SO 135 0 min 0,000 mm 0,0 UV-I 0 W/m 4,2 C 5,2 C 3,2 km/h (1 Bft) 98,00 %
27.04.2018 05:04 5,2 C 16,7 C 93 % 1017,2 hPa 0,0 l/m 2,3 km/h (1 Bft) NO 49 0 min 0,000 mm 0,0 UV-I 0 W/m 4,2 C 5,2 C 4,8 km/h (1 Bft) 95,65 %
27.04.2018 05:05 5,2 C 16,7 C 93 % 1017,3 hPa 0,0 l/m 2,9 km/h (1 Bft) NO 49 0 min 0,000 mm 0,0 UV-I 0 W/m 4,2 C 5,2 C 4,8 km/h (1 Bft) 100,00 %
27.04.2018 05:06 5,2 C 16,7 C 93 % 1017,3 hPa 0,0 l/m 2,8 km/h (1 Bft) NO 49 0 min 0,000 mm 0,0 UV-I 0 W/m 4,2 C 5,2 C 4,8 km/h (1 Bft) 96,15 %
27.04.2018 05:07 5,1 C 16,7 C 93 % 1017,3 hPa 0,0 l/m 2,4 km/h (1 Bft) NO 49 0 min 0,000 mm 0,0 UV-I 0 W/m 4,1 C 5,1 C 3,2 km/h (1 Bft) 100,00 %
27.04.2018 05:08 5,0 C 16,7 C 93 % 1017,3 hPa 0,0 l/m 2,1 km/h (1 Bft) NO 49 0 min 0,000 mm 0,0 UV-I 0 W/m 4,0 C 5,0 C 3,2 km/h (1 Bft) 95,65 %
27.04.2018 05:09 4,9 C 16,7 C 93 % 1017,3 hPa 0,0 l/m 3,2 km/h (1 Bft) NO 49 0 min 0,000 mm 0,0 UV-I 0 W/m 3,9 C 4,9 C 3,2 km/h (1 Bft) 100,00 %
27.04.2018 05:10 4,8 C 16,7 C 93 % 1017,3 hPa 0,0 l/m 4,3 km/h (1 Bft) NO 49 0 min 0,000 mm 0,0 UV-I 0 W/m 3,8 C 4,8 C 6,4 km/h (2 Bft) 95,65 %
27.04.2018 05:11 4,7 C 16,7 C 93 % 1017,3 hPa 0,0 l/m 4,3 km/h (1 Bft) NO 49 0 min 0,000 mm 0,0 UV-I 0 W/m 3,7 C 4,7 C 6,4 km/h (2 Bft) 96,15 %
27.04.2018 05:12 4,7 C 16,7 C 93 % 1017,3 hPa 0,0 l/m 4,1 km/h (1 Bft) NO 50 0 min 0,000 mm 0,0 UV-I 0 W/m 3,7 C 4,7 C 4,8 km/h (1 Bft) 100,00 %
27.04.2018 05:13 4,7 C 16,7 C 94 % 1017,3 hPa 0,0 l/m 4,3 km/h (1 Bft) NO 51 0 min 0,000 mm 0,0 UV-I 0 W/m 3,8 C 4,7 C 4,8 km/h (1 Bft) 96,00 %
27.04.2018 05:14 4,8 C 16,7 C 94 % 1017,3 hPa 0,0 l/m 5,2 km/h (1 Bft) O-NO 57 0 min 0,000 mm 0,0 UV-I 0 W/m 3,9 C 4,8 C 6,4 km/h (2 Bft) 100,00 %
27.04.2018 05:15 4,9 C 16,7 C 94 % 1017,3 hPa 0,0 l/m 5,1 km/h (1 Bft) O-NO 58 0 min 0,000 mm 0,0 UV-I 0 W/m 4,0 C 4,9 C 6,4 km/h (2 Bft) 91,30 %
27.04.2018 05:16 4,9 C 16,7 C 94 % 1017,3 hPa 0,0 l/m 4,9 km/h (1 Bft) O-NO 61 0 min 0,000 mm 0,0 UV-I 0 W/m 4,0 C 4,9 C 6,4 km/h (2 Bft) 92,59 %
27.04.2018 05:17 5,0 C 16,7 C 94 % 1017,3 hPa 0,0 l/m 4,4 km/h (1 Bft) O-NO 61 0 min 0,000 mm 0,0 UV-I 0 W/m 4,1 C 5,0 C 4,8 km/h (1 Bft) 100,00 %
27.04.2018 05:18 5,0 C 16,7 C 94 % 1017,3 hPa 0,0 l/m 4,8 km/h (1 Bft) O-NO 61 0 min 0,000 mm 0,0 UV-I 0 W/m 4,1 C 5,0 C 6,4 km/h (2 Bft) 96,30 %
27.04.2018 05:19 5,1 C 16,7 C 94 % 1017,3 hPa 0,0 l/m 5,0 km/h (1 Bft) O-NO 61 0 min 0,000 mm 0,0 UV-I 0 W/m 4,2 C 5,1 C 6,4 km/h (2 Bft) 95,65 %
27.04.2018 05:20 5,2 C 16,7 C 94 % 1017,3 hPa 0,0 l/m 5,0 km/h (1 Bft) O-NO 74 0 min 0,000 mm 0,0 UV-I 0 W/m 4,3 C 5,2 C 6,4 km/h (2 Bft) 91,67 %
27.04.2018 05:21 5,2 C 16,7 C 94 % 1017,3 hPa 0,0 l/m 4,4 km/h (1 Bft) O-NO 74 0 min 0,000 mm 0,0 UV-I 0 W/m 4,3 C 5,2 C 4,8 km/h (1 Bft) 100,00 %
27.04.2018 05:22 5,3 C 16,7 C 94 % 1017,3 hPa 0,0 l/m 4,9 km/h (1 Bft) O-NO 76 0 min 0,000 mm 0,0 UV-I 0 W/m 4,4 C 5,3 C 6,4 km/h (2 Bft) 91,67 %
27.04.2018 05:23 5,3 C 16,7 C 94 % 1017,3 hPa 0,0 l/m 4,2 km/h (1 Bft) O-NO 76 0 min 0,000 mm 0,0 UV-I 0 W/m 4,4 C 5,3 C 6,4 km/h (2 Bft) 100,00 %
27.04.2018 05:24 5,3 C 16,7 C 94 % 1017,3 hPa 0,0 l/m 4,3 km/h (1 Bft) O 83 0 min 0,000 mm 0,0 UV-I 0 W/m 4,4 C 5,3 C 4,8 km/h (1 Bft) 91,67 %
27.04.2018 05:25 5,3 C 16,7 C 94 % 1017,3 hPa 0,0 l/m 3,5 km/h (1 Bft) O 83 0 min 0,000 mm 0,0 UV-I 0 W/m 4,4 C 5,3 C 4,8 km/h (1 Bft) 91,30 %
27.04.2018 05:26 5,3 C 16,7 C 94 % 1017,3 hPa 0,0 l/m 2,8 km/h (1 Bft) O 83 0 min 0,000 mm 0,0 UV-I 0 W/m 4,4 C 5,3 C 3,2 km/h (1 Bft) 92,59 %
27.04.2018 05:27 5,4 C 16,7 C 93 % 1017,3 hPa 0,0 l/m 3,2 km/h (1 Bft) O 83 0 min 0,000 mm 0,0 UV-I 0 W/m 4,4 C 5,4 C 4,8 km/h (1 Bft) 91,30 %
27.04.2018 05:28 5,4 C 16,7 C 93 % 1017,2 hPa 0,0 l/m 3,8 km/h (1 Bft) O 83 0 min 0,000 mm 0,0 UV-I 0 W/m 4,4 C 5,4 C 4,8 km/h (1 Bft) 100,00 %
27.04.2018 05:29 5,3 C 16,7 C 93 % 1017,2 hPa 0,0 l/m 2,4 km/h (1 Bft) O 83 0 min 0,000 mm 0,0 UV-I 0 W/m 4,3 C 5,3 C 4,8 km/h (1 Bft) 91,30 %
27.04.2018 05:30 5,3 C 16,7 C 93 % 1017,2 hPa 0,0 l/m 2,0 km/h (1 Bft) O 83 0 min 0,000 mm 0,0 UV-I 0 W/m 4,3 C 5,3 C 3,2 km/h (1 Bft) 95,83 %
27.04.2018 05:31 5,1 C 16,7 C 93 % 1017,2 hPa 0,0 l/m 1,9 km/h (1 Bft) O 83 0 min 0,000 mm 0,0 UV-I 0 W/m 4,1 C 5,1 C 3,2 km/h (1 Bft) 91,30 %
27.04.2018 05:32 5,0 C 16,7 C 93 % 1017,2 hPa 0,0 l/m 2,2 km/h (1 Bft) O 83 0 min 0,000 mm 0,0 UV-I 0 W/m 4,0 C 5,0 C 3,2 km/h (1 Bft) 100,00 %
27.04.2018 05:33 4,9 C 16,7 C 93 % 1017,1 hPa 0,0 l/m 2,5 km/h (1 Bft) O 83 0 min 0,000 mm 0,0 UV-I 0 W/m 3,9 C 4,9 C 3,2 km/h (1 Bft) 91,67 %
27.04.2018 05:34 4,8 C 16,7 C 93 % 1017,1 hPa 0,0 l/m 1,2 km/h (1 Bft) O 83 0 min 0,000 mm 0,0 UV-I 0 W/m 3,8 C 4,8 C 3,2 km/h (1 Bft) 100,00 %
27.04.2018 05:35 4,8 C 16,7 C 93 % 1017,1 hPa 0,0 l/m 0,6 km/h (0 Bft) O 83 0 min 0,000 mm 0,0 UV-I 0 W/m 3,8 C 4,8 C 1,6 km/h (1 Bft) 91,67 %
27.04.2018 05:36 4,7 C 16,7 C 93 % 1017,1 hPa 0,0 l/m 1,9 km/h (1 Bft) O 83 0 min 0,000 mm 0,0 UV-I 0 W/m 3,7 C 4,7 C 3,2 km/h (1 Bft) 86,96 %
27.04.2018 05:37 4,7 C 16,7 C 94 % 1017,1 hPa 0,0 l/m 0,6 km/h (0 Bft) O 83 0 min 0,000 mm 0,0 UV-I 0 W/m 3,8 C 4,7 C 3,2 km/h (1 Bft) 100,00 %
27.04.2018 05:38 4,7 C 16,7 C 94 % 1017,1 hPa 0,0 l/m 0,0 km/h (0 Bft) O 83 0 min 0,000 mm 0,0 UV-I 0 W/m 3,8 C 4,7 C 0,0 km/h (0 Bft) 91,30 %
27.04.2018 05:39 4,7 C 16,7 C 94 % 1017,1 hPa 0,0 l/m 0,0 km/h (0 Bft) O 83 0 min 0,000 mm 0,0 UV-I 0 W/m 3,8 C 4,7 C 0,0 km/h (0 Bft) 100,00 %
27.04.2018 05:40 4,7 C 16,7 C 94 % 1017,1 hPa 0,0 l/m 0,0 km/h (0 Bft) O 83 0 min 0,000 mm 0,0 UV-I 5 W/m 3,8 C 4,7 C 0,0 km/h (0 Bft) 95,65 %
27.04.2018 05:41 4,8 C 16,7 C 94 % 1017,1 hPa 0,0 l/m 0,0 km/h (0 Bft) O 83 0 min 0,000 mm 0,0 UV-I 5 W/m 3,9 C 4,8 C 0,0 km/h (0 Bft) 100,00 %
27.04.2018 05:42 4,8 C 16,7 C 94 % 1017,1 hPa 0,0 l/m 0,0 km/h (0 Bft) O 83 0 min 0,000 mm 0,0 UV-I 5 W/m 3,9 C 4,8 C 0,0 km/h (0 Bft) 95,65 %
27.04.2018 05:43 4,8 C 16,7 C 94 % 1017,1 hPa 0,0 l/m 0,0 km/h (0 Bft) O 83 0 min 0,000 mm 0,0 UV-I 5 W/m 3,9 C 4,8 C 0,0 km/h (0 Bft) 95,83 %
27.04.2018 05:44 4,8 C 16,7 C 94 % 1017,1 hPa 0,0 l/m 0,0 km/h (0 Bft) O 83 0 min 0,000 mm 0,0 UV-I 5 W/m 3,9 C 4,8 C 0,0 km/h (0 Bft) 92,31 %
27.04.2018 05:45 4,8 C 16,1 C 94 % 1017,1 hPa 0,0 l/m 0,0 km/h (0 Bft) O 83 0 min 0,000 mm 0,0 UV-I 5 W/m 3,9 C 4,8 C 0,0 km/h (0 Bft) 95,83 %
27.04.2018 05:46 4,8 C 16,1 C 94 % 1017,1 hPa 0,0 l/m 0,0 km/h (0 Bft) O 83 0 min 0,000 mm 0,0 UV-I 5 W/m 3,9 C 4,8 C 0,0 km/h (0 Bft) 100,00 %
27.04.2018 05:47 4,8 C 16,1 C 94 % 1017,1 hPa 0,0 l/m 0,0 km/h (0 Bft) O 83 0 min 0,000 mm 0,0 UV-I 5 W/m 3,9 C 4,8 C 0,0 km/h (0 Bft) 95,83 %
27.04.2018 05:48 4,7 C 16,1 C 94 % 1017,1 hPa 0,0 l/m 1,2 km/h (1 Bft) O 83 0 min 0,000 mm 0,0 UV-I 6 W/m 3,8 C 4,7 C 3,2 km/h (1 Bft) 100,00 %
27.04.2018 05:49 4,7 C 16,1 C 94 % 1017,1 hPa 0,0 l/m 1,7 km/h (1 Bft) O 83 0 min 0,000 mm 0,0 UV-I 7 W/m 3,8 C 4,7 C 3,2 km/h (1 Bft) 100,00 %
27.04.2018 05:50 4,7 C 16,1 C 94 % 1017,1 hPa 0,0 l/m 1,5 km/h (1 Bft) O 83 0 min 0,000 mm 0,0 UV-I 7 W/m 3,8 C 4,7 C 1,6 km/h (1 Bft) 95,83 %
27.04.2018 05:51 4,6 C 16,1 C 94 % 1017,1 hPa 0,0 l/m 1,7 km/h (1 Bft) O 83 0 min 0,000 mm 0,0 UV-I 7 W/m 3,7 C 4,6 C 3,2 km/h (1 Bft) 92,31 %
27.04.2018 05:52 4,6 C 16,1 C 94 % 1017,1 hPa 0,0 l/m 2,2 km/h (1 Bft) O 83 0 min 0,000 mm 0,0 UV-I 7 W/m 3,7 C 4,6 C 3,2 km/h (1 Bft) 100,00 %
27.04.2018 05:53 4,6 C 16,1 C 94 % 1017,1 hPa 0,0 l/m 2,5 km/h (1 Bft) O 83 0 min 0,000 mm 0,0 UV-I 7 W/m 3,7 C 4,6 C 3,2 km/h (1 Bft) 91,30 %
27.04.2018 05:54 4,6 C 16,1 C 94 % 1017,1 hPa 0,0 l/m 2,5 km/h (1 Bft) O 83 0 min 0,000 mm 0,0 UV-I 7 W/m 3,7 C 4,6 C 3,2 km/h (1 Bft) 100,00 %
27.04.2018 05:55 4,6 C 16,1 C 94 % 1017,1 hPa 0,0 l/m 3,0 km/h (1 Bft) O 83 0 min 0,000 mm 0,0 UV-I 8 W/m 3,7 C 4,6 C 4,8 km/h (1 Bft) 95,65 %
27.04.2018 05:56 4,6 C 16,1 C 94 % 1017,1 hPa 0,0 l/m 3,3 km/h (1 Bft) O 83 0 min 0,000 mm 0,0 UV-I 9 W/m 3,7 C 4,6 C 4,8 km/h (1 Bft) 100,00 %
27.04.2018 05:57 4,6 C 16,1 C 94 % 1017,1 hPa 0,0 l/m 2,9 km/h (1 Bft) O 83 0 min 0,000 mm 0,0 UV-I 9 W/m 3,7 C 4,6 C 4,8 km/h (1 Bft) 96,15 %
27.04.2018 05:58 4,6 C 16,1 C 94 % 1017,0 hPa 0,0 l/m 3,2 km/h (1 Bft) O 83 0 min 0,000 mm 0,0 UV-I 11 W/m 3,7 C 4,6 C 4,8 km/h (1 Bft) 100,00 %
27.04.2018 05:59 4,6 C 16,1 C 94 % 1017,1 hPa 0,0 l/m 2,3 km/h (1 Bft) O 83 0 min 0,000 mm 0,0 UV-I 11 W/m 3,7 C 4,6 C 3,2 km/h (1 Bft) 96,15 %
27.04.2018 06:00 4,6 C 16,1 C 94 % 1017,1 hPa 0,0 l/m 2,5 km/h (1 Bft) O 83 0 min 0,000 mm 0,0 UV-I 11 W/m 3,7 C 4,6 C 3,2 km/h (1 Bft) 100,00 %
27.04.2018 06:01 4,7 C 16,1 C 94 % 1017,1 hPa 0,0 l/m 2,2 km/h (1 Bft) O 83 0 min 0,000 mm 0,0 UV-I 11 W/m 3,8 C 4,7 C 3,2 km/h (1 Bft) 95,65 %
27.04.2018 06:02 4,7 C 16,1 C 94 % 1017,1 hPa 0,0 l/m 2,5 km/h (1 Bft) O 83 0 min 0,000 mm 0,0 UV-I 11 W/m 3,8 C 4,7 C 3,2 km/h (1 Bft) 95,83 %
27.04.2018 06:03 4,8 C 16,1 C 94 % 1017,1 hPa 0,0 l/m 2,0 km/h (1 Bft) O 83 0 min 0,000 mm 0,0 UV-I 12 W/m 3,9 C 4,8 C 3,2 km/h (1 Bft) 100,00 %
27.04.2018 06:04 4,8 C 16,1 C 94 % 1017,1 hPa 0,0 l/m 1,7 km/h (1 Bft) O 83 1 min 0,000 mm 0,0 UV-I 12 W/m 3,9 C 4,8 C 3,2 km/h (1 Bft) 95,83 %
27.04.2018 06:05 4,8 C 16,1 C 94 % 1017,1 hPa 0,0 l/m 2,3 km/h (1 Bft) O 83 1 min 0,000 mm 0,0 UV-I 13 W/m 3,9 C 4,8 C 3,2 km/h (1 Bft) 100,00 %
27.04.2018 06:06 4,7 C 16,1 C 94 % 1017,1 hPa 0,0 l/m 3,3 km/h (1 Bft) O 83 1 min 0,000 mm 0,0 UV-I 14 W/m 3,8 C 4,7 C 4,8 km/h (1 Bft) 100,00 %
27.04.2018 06:07 4,7 C 16,1 C 94 % 1017,1 hPa 0,0 l/m 3,4 km/h (1 Bft) O 83 1 min 0,000 mm 0,0 UV-I 14 W/m 3,8 C 4,7 C 4,8 km/h (1 Bft) 100,00 %
27.04.2018 06:08 4,7 C 16,1 C 94 % 1017,1 hPa 0,0 l/m 3,4 km/h (1 Bft) O 83 1 min 0,000 mm 0,0 UV-I 16 W/m 3,8 C 4,7 C 4,8 km/h (1 Bft) 95,83 %
27.04.2018 06:09 4,7 C 16,1 C 94 % 1017,1 hPa 0,0 l/m 3,8 km/h (1 Bft) O 83 0 min 0,000 mm 0,0 UV-I 16 W/m 3,8 C 4,7 C 4,8 km/h (1 Bft) 100,00 %
27.04.2018 06:10 4,6 C 16,1 C 94 % 1017,1 hPa 0,0 l/m 4,0 km/h (1 Bft) O 83 0 min 0,000 mm 0,0 UV-I 17 W/m 3,7 C 4,6 C 4,8 km/h (1 Bft) 100,00 %
27.04.2018 06:11 4,6 C 16,1 C 94 % 1017,1 hPa 0,0 l/m 4,5 km/h (1 Bft) O 82 0 min 0,000 mm 0,0 UV-I 18 W/m 3,7 C 4,6 C 4,8 km/h (1 Bft) 92,31 %
27.04.2018 06:12 4,6 C 16,1 C 94 % 1017,1 hPa 0,0 l/m 4,8 km/h (1 Bft) O 80 0 min 0,000 mm 0,0 UV-I 18 W/m 3,7 C 4,6 C 6,4 km/h (2 Bft) 95,83 %
27.04.2018 06:13 4,6 C 16,1 C 94 % 1017,1 hPa 0,0 l/m 4,4 km/h (1 Bft) O 80 0 min 0,000 mm 0,0 UV-I 19 W/m 3,7 C 4,6 C 4,8 km/h (1 Bft) 100,00 %
27.04.2018 06:14 4,6 C 16,1 C 94 % 1017,1 hPa 0,0 l/m 4,5 km/h (1 Bft) O 80 0 min 0,000 mm 0,0 UV-I 19 W/m 3,7 C 4,6 C 4,8 km/h (1 Bft) 96,15 %
27.04.2018 06:15 4,6 C 16,1 C 94 % 1017,1 hPa 0,0 l/m 4,6 km/h (1 Bft) O 80 0 min 0,000 mm 0,0 UV-I 21 W/m 3,7 C 4,6 C 6,4 km/h (2 Bft) 100,00 %
27.04.2018 06:16 4,6 C 16,1 C 94 % 1017,1 hPa 0,0 l/m 4,3 km/h (1 Bft) O 80 0 min 0,000 mm 0,0 UV-I 21 W/m 3,7 C 4,6 C 4,8 km/h (1 Bft) 100,00 %
27.04.2018 06:17 4,6 C 16,1 C 94 % 1017,1 hPa 0,0 l/m 4,7 km/h (1 Bft) O 80 0 min 0,000 mm 0,0 UV-I 22 W/m 3,7 C 4,6 C 6,4 km/h (2 Bft) 95,83 %
27.04.2018 06:18 4,6 C 16,1 C 94 % 1017,1 hPa 0,0 l/m 5,2 km/h (1 Bft) O-NO 66 0 min 0,000 mm 0,0 UV-I 23 W/m 3,7 C 4,6 C 6,4 km/h (2 Bft) 100,00 %
27.04.2018 06:19 4,6 C 16,1 C 94 % 1017,1 hPa 0,0 l/m 4,8 km/h (1 Bft) O-NO 66 0 min 0,000 mm 0,0 UV-I 23 W/m 3,7 C 4,6 C 6,4 km/h (2 Bft) 100,00 %
27.04.2018 06:20 4,7 C 16,1 C 94 % 1017,1 hPa 0,0 l/m 4,8 km/h (1 Bft) O-NO 66 0 min 0,000 mm 0,0 UV-I 25 W/m 3,8 C 4,7 C 6,4 km/h (2 Bft) 95,65 %
27.04.2018 06:21 4,7 C 16,1 C 94 % 1017,1 hPa 0,0 l/m 4,2 km/h (1 Bft) O-NO 66 0 min 0,000 mm 0,0 UV-I 25 W/m 3,8 C 4,7 C 6,4 km/h (2 Bft) 100,00 %
27.04.2018 06:22 4,7 C 16,1 C 94 % 1017,1 hPa 0,0 l/m 4,5 km/h (1 Bft) O-NO 66 0 min 0,000 mm 0,0 UV-I 26 W/m 3,8 C 4,7 C 4,8 km/h (1 Bft) 96,00 %
27.04.2018 06:23 4,7 C 16,1 C 94 % 1017,2 hPa 0,0 l/m 4,3 km/h (1 Bft) O-NO 66 0 min 0,000 mm 0,0 UV-I 26 W/m 3,8 C 4,7 C 6,4 km/h (2 Bft) 100,00 %
27.04.2018 06:24 4,8 C 16,1 C 94 % 1017,1 hPa 0,0 l/m 3,2 km/h (1 Bft) O-NO 66 0 min 0,000 mm 0,0 UV-I 27 W/m 3,9 C 4,8 C 4,8 km/h (1 Bft) 91,30 %
27.04.2018 06:25 4,8 C 16,1 C 94 % 1017,1 hPa 0,0 l/m 3,6 km/h (1 Bft) O-NO 66 0 min 0,000 mm 0,0 UV-I 28 W/m 3,9 C 4,8 C 4,8 km/h (1 Bft) 100,00 %
27.04.2018 06:26 4,8 C 16,1 C 95 % 1017,2 hPa 0,0 l/m 4,0 km/h (1 Bft) O-NO 66 0 min 0,000 mm 0,0 UV-I 30 W/m 4,1 C 4,8 C 4,8 km/h (1 Bft) 96,15 %
27.04.2018 06:27 4,9 C 16,1 C 95 % 1017,2 hPa 0,0 l/m 3,7 km/h (1 Bft) O-NO 66 0 min 0,000 mm 0,0 UV-I 30 W/m 4,2 C 4,9 C 4,8 km/h (1 Bft) 100,00 %
27.04.2018 06:28 4,9 C 16,1 C 94 % 1017,2 hPa 0,0 l/m 3,8 km/h (1 Bft) O-NO 66 0 min 0,000 mm 0,0 UV-I 31 W/m 4,0 C 4,9 C 4,8 km/h (1 Bft) 100,00 %
27.04.2018 06:29 4,9 C 16,1 C 94 % 1017,1 hPa 0,0 l/m 3,4 km/h (1 Bft) O-NO 66 0 min 0,000 mm 0,0 UV-I 33 W/m 4,0 C 4,9 C 4,8 km/h (1 Bft) 95,65 %
27.04.2018 06:30 4,9 C 16,1 C 94 % 1017,2 hPa 0,0 l/m 5,0 km/h (1 Bft) O-NO 66 0 min 0,000 mm 0,0 UV-I 33 W/m 4,0 C 4,9 C 6,4 km/h (2 Bft) 100,00 %
27.04.2018 06:31 4,9 C 16,1 C 94 % 1017,2 hPa 0,0 l/m 5,1 km/h (1 Bft) O-NO 66 0 min 0,000 mm 0,0 UV-I 35 W/m 4,0 C 4,9 C 6,4 km/h (2 Bft) 95,65 %
27.04.2018 06:32 4,9 C 16,1 C 94 % 1017,2 hPa 0,0 l/m 4,6 km/h (1 Bft) O-NO 66 0 min 0,000 mm 0,0 UV-I 35 W/m 4,0 C 4,9 C 6,4 km/h (2 Bft) 100,00 %
27.04.2018 06:33 4,9 C 16,1 C 94 % 1017,2 hPa 0,0 l/m 5,2 km/h (1 Bft) O-NO 66 0 min 0,000 mm 0,0 UV-I 38 W/m 4,0 C 4,9 C 6,4 km/h (2 Bft) 95,65 %
27.04.2018 06:34 4,9 C 16,1 C 94 % 1017,2 hPa 0,0 l/m 4,4 km/h (1 Bft) O-NO 66 0 min 0,000 mm 0,0 UV-I 39 W/m 4,0 C 4,9 C 6,4 km/h (2 Bft) 100,00 %
27.04.2018 06:35 4,9 C 16,1 C 94 % 1017,2 hPa 0,0 l/m 3,6 km/h (1 Bft) O-NO 66 0 min 0,000 mm 0,0 UV-I 40 W/m 4,0 C 4,9 C 4,8 km/h (1 Bft) 100,00 %
27.04.2018 06:36 5,0 C 16,1 C 94 % 1017,2 hPa 0,0 l/m 4,6 km/h (1 Bft) O-NO 66 0 min 0,000 mm 0,0 UV-I 40 W/m 4,1 C 5,0 C 6,4 km/h (2 Bft) 100,00 %
27.04.2018 06:37 4,9 C 16,1 C 94 % 1017,1 hPa 0,0 l/m 5,4 km/h (1 Bft) O-NO 63 0 min 0,000 mm 0,0 UV-I 42 W/m 4,0 C 4,9 C 6,4 km/h (2 Bft) 100,00 %
27.04.2018 06:38 4,9 C 16,1 C 94 % 1017,1 hPa 0,0 l/m 6,2 km/h (2 Bft) NO 53 0 min 0,000 mm 0,0 UV-I 42 W/m 4,0 C 4,9 C 8,0 km/h (2 Bft) 100,00 %
27.04.2018 06:39 4,9 C 16,1 C 94 % 1017,1 hPa 0,0 l/m 5,6 km/h (1 Bft) NO 53 0 min 0,000 mm 0,0 UV-I 43 W/m 4,0 C 4,9 C 6,4 km/h (2 Bft) 100,00 %
27.04.2018 06:40 4,9 C 16,1 C 94 % 1017,1 hPa 0,0 l/m 4,8 km/h (1 Bft) NO 53 0 min 0,000 mm 0,0 UV-I 44 W/m 4,0 C 4,9 C 6,4 km/h (2 Bft) 100,00 %
27.04.2018 06:41 4,9 C 16,1 C 94 % 1017,2 hPa 0,0 l/m 4,5 km/h (1 Bft) NO 53 0 min 0,000 mm 0,0 UV-I 44 W/m 4,0 C 4,9 C 4,8 km/h (1 Bft) 100,00 %
27.04.2018 06:42 4,9 C 16,1 C 94 % 1017,2 hPa 0,0 l/m 4,4 km/h (1 Bft) NO 53 0 min 0,000 mm 0,0 UV-I 46 W/m 4,0 C 4,9 C 4,8 km/h (1 Bft) 100,00 %
27.04.2018 06:43 4,9 C 16,1 C 94 % 1017,2 hPa 0,0 l/m 4,3 km/h (1 Bft) NO 53 0 min 0,000 mm 0,0 UV-I 47 W/m 4,0 C 4,9 C 6,4 km/h (2 Bft) 95,65 %
27.04.2018 06:44 5,0 C 16,1 C 94 % 1017,2 hPa 0,0 l/m 3,7 km/h (1 Bft) NO 53 0 min 0,000 mm 0,0 UV-I 47 W/m 4,1 C 5,0 C 4,8 km/h (1 Bft) 100,00 %
27.04.2018 06:45 5,1 C 16,1 C 94 % 1017,2 hPa 0,0 l/m 3,1 km/h (1 Bft) NO 53 0 min 0,000 mm 0,0 UV-I 47 W/m 4,2 C 5,1 C 4,8 km/h (1 Bft) 100,00 %
27.04.2018 06:46 5,1 C 16,1 C 94 % 1017,2 hPa 0,0 l/m 4,0 km/h (1 Bft) O-NO 65 0 min 0,000 mm 0,0 UV-I 48 W/m 4,2 C 5,1 C 6,4 km/h (2 Bft) 100,00 %
27.04.2018 06:47 5,1 C 16,1 C 94 % 1017,2 hPa 0,0 l/m 4,0 km/h (1 Bft) O-NO 65 0 min 0,000 mm 0,0 UV-I 49 W/m 4,2 C 5,1 C 4,8 km/h (1 Bft) 100,00 %
27.04.2018 06:48 5,1 C 16,1 C 94 % 1017,2 hPa 0,0 l/m 3,7 km/h (1 Bft) O-NO 65 0 min 0,000 mm 0,0 UV-I 50 W/m 4,2 C 5,1 C 4,8 km/h (1 Bft) 100,00 %
27.04.2018 06:49 5,2 C 16,1 C 94 % 1017,2 hPa 0,0 l/m 3,9 km/h (1 Bft) O-NO 65 0 min 0,000 mm 0,0 UV-I 53 W/m 4,3 C 5,2 C 6,4 km/h (2 Bft) 100,00 %
27.04.2018 06:50 5,2 C 16,1 C 94 % 1017,2 hPa 0,0 l/m 3,9 km/h (1 Bft) NO 34 0 min 0,000 mm 0,0 UV-I 54 W/m 4,3 C 5,2 C 4,8 km/h (1 Bft) 100,00 %
27.04.2018 06:51 5,2 C 16,1 C 94 % 1017,2 hPa 0,0 l/m 3,0 km/h (1 Bft) NO 34 0 min 0,000 mm 0,0 UV-I 55 W/m 4,3 C 5,2 C 4,8 km/h (1 Bft) 100,00 %
27.04.2018 06:52 5,2 C 16,1 C 94 % 1017,2 hPa 0,0 l/m 3,4 km/h (1 Bft) NO 46 0 min 0,000 mm 0,0 UV-I 58 W/m 4,3 C 5,2 C 4,8 km/h (1 Bft) 100,00 %
27.04.2018 06:53 5,3 C 16,1 C 94 % 1017,1 hPa 0,0 l/m 5,3 km/h (1 Bft) O-NO 72 0 min 0,000 mm 0,0 UV-I 64 W/m 4,4 C 5,3 C 6,4 km/h (2 Bft) 100,00 %
27.04.2018 06:54 5,2 C 16,1 C 94 % 1017,1 hPa 0,0 l/m 4,7 km/h (1 Bft) O 84 0 min 0,000 mm 0,0 UV-I 71 W/m 4,3 C 5,2 C 6,4 km/h (2 Bft) 95,65 %
27.04.2018 06:55 5,3 C 16,1 C 94 % 1017,1 hPa 0,0 l/m 5,4 km/h (1 Bft) O 80 0 min 0,000 mm 0,0 UV-I 72 W/m 4,4 C 5,3 C 6,4 km/h (2 Bft) 100,00 %
27.04.2018 06:56 5,3 C 16,1 C 94 % 1017,1 hPa 0,0 l/m 5,2 km/h (1 Bft) O 87 0 min 0,000 mm 0,0 UV-I 75 W/m 4,4 C 5,3 C 6,4 km/h (2 Bft) 100,00 %
27.04.2018 06:57 5,3 C 16,1 C 94 % 1017,1 hPa 0,0 l/m 5,4 km/h (1 Bft) O-NO 72 0 min 0,000 mm 0,0 UV-I 80 W/m 4,4 C 5,3 C 8,0 km/h (2 Bft) 100,00 %
27.04.2018 06:58 5,3 C 16,1 C 94 % 1017,1 hPa 0,0 l/m 6,0 km/h (2 Bft) O-NO 74 0 min 0,000 mm 0,0 UV-I 87 W/m 4,4 C 5,3 C 8,0 km/h (2 Bft) 100,00 %
27.04.2018 06:59 5,3 C 16,1 C 94 % 1017,1 hPa 0,0 l/m 5,6 km/h (1 Bft) O-NO 69 1 min 0,000 mm 0,0 UV-I 97 W/m 4,4 C 5,3 C 8,0 km/h (2 Bft) 100,00 %
27.04.2018 07:00 5,3 C 16,1 C 94 % 1017,0 hPa 0,0 l/m 4,8 km/h (1 Bft) O 87 1 min 0,000 mm 0,0 UV-I 98 W/m 4,4 C 5,3 C 6,4 km/h (2 Bft) 100,00 %
27.04.2018 07:01 5,4 C 16,1 C 94 % 1017,0 hPa 0,0 l/m 6,2 km/h (2 Bft) O-NO 78 1 min 0,025 mm 0,0 UV-I 98 W/m 4,5 C 5,4 C 8,0 km/h (2 Bft) 100,00 %
27.04.2018 07:02 5,4 C 16,1 C 94 % 1017,1 hPa 0,0 l/m 6,1 km/h (2 Bft) O-NO 74 0 min 0,000 mm 0,0 UV-I 95 W/m 4,5 C 5,4 C 8,0 km/h (2 Bft) 100,00 %
27.04.2018 07:03 5,4 C 16,1 C 94 % 1017,1 hPa 0,0 l/m 5,6 km/h (1 Bft) O-NO 75 0 min 0,000 mm 0,0 UV-I 94 W/m 4,5 C 5,4 C 8,0 km/h (2 Bft) 100,00 %
27.04.2018 07:04 5,4 C 16,1 C 94 % 1017,1 hPa 0,0 l/m 5,5 km/h (1 Bft) O-NO 74 1 min 0,000 mm 0,0 UV-I 108 W/m 4,5 C 5,4 C 6,4 km/h (2 Bft) 100,00 %
27.04.2018 07:05 5,5 C 16,1 C 95 % 1017,1 hPa 0,0 l/m 6,8 km/h (2 Bft) O-NO 73 1 min 0,000 mm 0,0 UV-I 112 W/m 4,8 C 5,2 C 8,0 km/h (2 Bft) 100,00 %
27.04.2018 07:06 5,5 C 16,1 C 95 % 1017,1 hPa 0,0 l/m 5,9 km/h (2 Bft) O 81 1 min 0,000 mm 0,0 UV-I 113 W/m 4,8 C 5,5 C 8,0 km/h (2 Bft) 100,00 %
27.04.2018 07:07 5,5 C 16,1 C 95 % 1017,1 hPa 0,0 l/m 7,3 km/h (2 Bft) O-NO 74 1 min 0,000 mm 0,0 UV-I 112 W/m 4,8 C 4,7 C 12,9 km/h (3 Bft) 100,00 %
27.04.2018 07:08 5,6 C 16,1 C 95 % 1017,1 hPa 0,0 l/m 7,8 km/h (2 Bft) O-NO 73 1 min 0,000 mm 0,0 UV-I 122 W/m 4,9 C 4,4 C 11,3 km/h (2 Bft) 100,00 %
27.04.2018 07:09 5,6 C 16,1 C 95 % 1017,0 hPa 0,0 l/m 7,8 km/h (2 Bft) O-NO 73 1 min 0,000 mm 0,0 UV-I 135 W/m 4,9 C 4,4 C 11,3 km/h (2 Bft) 100,00 %
27.04.2018 07:10 5,6 C 16,1 C 95 % 1017,0 hPa 0,0 l/m 8,6 km/h (2 Bft) O-NO 78 1 min 0,000 mm 0,0 UV-I 132 W/m 4,9 C 3,8 C 11,3 km/h (2 Bft) 95,83 %
27.04.2018 07:11 5,6 C 16,1 C 95 % 1017,0 hPa 0,0 l/m 7,6 km/h (2 Bft) O-NO 67 1 min 0,000 mm 0,0 UV-I 131 W/m 4,9 C 4,6 C 11,3 km/h (2 Bft) 100,00 %
27.04.2018 07:12 5,6 C 16,1 C 95 % 1017,0 hPa 0,0 l/m 5,9 km/h (2 Bft) O-NO 74 1 min 0,000 mm 0,0 UV-I 124 W/m 4,9 C 5,6 C 6,4 km/h (2 Bft) 100,00 %
27.04.2018 07:13 5,7 C 16,1 C 95 % 1017,0 hPa 0,0 l/m 6,9 km/h (2 Bft) O 79 0 min 0,000 mm 0,0 UV-I 110 W/m 5,0 C 5,3 C 8,0 km/h (2 Bft) 95,65 %
27.04.2018 07:14 5,7 C 16,1 C 95 % 1017,0 hPa 0,0 l/m 6,2 km/h (2 Bft) O 82 0 min 0,000 mm 0,0 UV-I 114 W/m 5,0 C 5,7 C 8,0 km/h (2 Bft) 100,00 %
27.04.2018 07:15 5,7 C 16,1 C 94 % 1016,9 hPa 0,0 l/m 6,2 km/h (2 Bft) O-NO 66 0 min 0,000 mm 0,0 UV-I 118 W/m 4,8 C 5,7 C 8,0 km/h (2 Bft) 96,15 %
27.04.2018 07:16 5,7 C 16,1 C 94 % 1017,0 hPa 0,0 l/m 5,7 km/h (1 Bft) O-NO 69 1 min 0,000 mm 0,0 UV-I 126 W/m 4,8 C 5,7 C 6,4 km/h (2 Bft) 95,83 %
27.04.2018 07:17 5,7 C 16,1 C 95 % 1016,9 hPa 0,0 l/m 5,1 km/h (1 Bft) NO 55 1 min 0,000 mm 0,0 UV-I 133 W/m 5,0 C 5,7 C 6,4 km/h (2 Bft) 90,91 %
27.04.2018 07:18 5,8 C 16,1 C 95 % 1016,9 hPa 0,0 l/m 5,3 km/h (1 Bft) NO 54 0 min 0,000 mm 0,0 UV-I 121 W/m 5,1 C 5,8 C 6,4 km/h (2 Bft) 100,00 %
27.04.2018 07:19 5,8 C 16,1 C 95 % 1016,9 hPa 0,0 l/m 5,5 km/h (1 Bft) NO 54 1 min 0,000 mm 0,0 UV-I 134 W/m 5,1 C 5,8 C 6,4 km/h (2 Bft) 91,30 %
27.04.2018 07:20 5,9 C 16,1 C 95 % 1016,9 hPa 0,0 l/m 5,4 km/h (1 Bft) NO 54 1 min 0,000 mm 0,0 UV-I 175 W/m 5,2 C 5,9 C 6,4 km/h (2 Bft) 95,83 %
27.04.2018 07:21 5,9 C 16,1 C 95 % 1016,9 hPa 0,0 l/m 5,0 km/h (1 Bft) O-NO 71 1 min 0,000 mm 0,0 UV-I 167 W/m 5,2 C 5,9 C 6,4 km/h (2 Bft) 95,65 %
27.04.2018 07:22 6,0 C 16,1 C 95 % 1016,9 hPa 0,0 l/m 6,0 km/h (2 Bft) O 84 1 min 0,000 mm 0,0 UV-I 169 W/m 5,3 C 6,0 C 8,0 km/h (2 Bft) 95,83 %
27.04.2018 07:23 6,0 C 16,1 C 95 % 1016,9 hPa 0,0 l/m 8,4 km/h (2 Bft) O-NO 71 1 min 0,000 mm 0,0 UV-I 166 W/m 5,3 C 4,3 C 11,3 km/h (2 Bft) 100,00 %
27.04.2018 07:24 6,1 C 16,1 C 94 % 1016,9 hPa 0,0 l/m 7,5 km/h (2 Bft) O-NO 76 1 min 0,000 mm 0,0 UV-I 156 W/m 5,2 C 5,2 C 9,7 km/h (2 Bft) 95,83 %
27.04.2018 07:25 6,1 C 16,1 C 94 % 1016,9 hPa 0,0 l/m 7,3 km/h (2 Bft) O-NO 58 1 min 0,000 mm 0,0 UV-I 175 W/m 5,2 C 5,3 C 8,0 km/h (2 Bft) 100,00 %
27.04.2018 07:26 6,1 C 16,1 C 94 % 1016,9 hPa 0,0 l/m 6,0 km/h (2 Bft) O-NO 60 1 min 0,000 mm 0,0 UV-I 183 W/m 5,2 C 6,1 C 8,0 km/h (2 Bft) 95,65 %
27.04.2018 07:27 6,2 C 16,1 C 94 % 1016,9 hPa 0,0 l/m 5,9 km/h (2 Bft) O 81 1 min 0,000 mm 0,0 UV-I 184 W/m 5,3 C 6,2 C 8,0 km/h (2 Bft) 100,00 %
27.04.2018 07:28 6,2 C 16,1 C 94 % 1016,9 hPa 0,0 l/m 6,1 km/h (2 Bft) O-NO 76 1 min 0,000 mm 0,0 UV-I 185 W/m 5,3 C 6,2 C 8,0 km/h (2 Bft) 96,00 %
27.04.2018 07:29 6,2 C 16,1 C 94 % 1016,8 hPa 0,0 l/m 5,1 km/h (1 Bft) O 80 1 min 0,000 mm 0,0 UV-I 185 W/m 5,3 C 6,2 C 8,0 km/h (2 Bft) 95,83 %
27.04.2018 07:30 6,3 C 16,1 C 94 % 1016,9 hPa 0,0 l/m 5,3 km/h (1 Bft) O-NO 76 1 min 0,000 mm 0,0 UV-I 186 W/m 5,4 C 6,3 C 8,0 km/h (2 Bft) 100,00 %
27.04.2018 07:31 6,3 C 16,1 C 94 % 1016,8 hPa 0,0 l/m 5,8 km/h (2 Bft) O 80 1 min 0,000 mm 0,0 UV-I 189 W/m 5,4 C 6,3 C 8,0 km/h (2 Bft) 96,30 %
27.04.2018 07:32 6,4 C 16,1 C 94 % 1016,8 hPa 0,0 l/m 4,7 km/h (1 Bft) NO 46 1 min 0,000 mm 0,0 UV-I 198 W/m 5,5 C 6,4 C 6,4 km/h (2 Bft) 100,00 %
27.04.2018 07:33 6,4 C 16,1 C 94 % 1016,8 hPa 0,0 l/m 4,0 km/h (1 Bft) NO 48 1 min 0,000 mm 0,0 UV-I 192 W/m 5,5 C 6,4 C 4,8 km/h (1 Bft) 91,67 %
27.04.2018 07:34 6,5 C 16,1 C 94 % 1016,8 hPa 0,0 l/m 4,0 km/h (1 Bft) NO 48 1 min 0,000 mm 0,0 UV-I 199 W/m 5,6 C 6,5 C 4,8 km/h (1 Bft) 100,00 %
27.04.2018 07:35 6,7 C 16,1 C 94 % 1016,8 hPa 0,0 l/m 3,6 km/h (1 Bft) NO 48 1 min 0,000 mm 0,0 UV-I 212 W/m 5,8 C 6,7 C 4,8 km/h (1 Bft) 95,83 %
27.04.2018 07:36 6,7 C 16,1 C 94 % 1016,8 hPa 0,0 l/m 3,9 km/h (1 Bft) O-NO 63 1 min 0,000 mm 0,0 UV-I 195 W/m 5,8 C 6,7 C 4,8 km/h (1 Bft) 95,65 %
27.04.2018 07:37 6,8 C 16,1 C 94 % 1016,8 hPa 0,0 l/m 4,0 km/h (1 Bft) O 83 1 min 0,000 mm 0,0 UV-I 177 W/m 5,9 C 6,8 C 6,4 km/h (2 Bft) 100,00 %
27.04.2018 07:38 6,8 C 16,1 C 94 % 1016,8 hPa 0,0 l/m 5,8 km/h (2 Bft) O-NO 72 1 min 0,000 mm 0,0 UV-I 164 W/m 5,9 C 6,8 C 6,4 km/h (2 Bft) 94,12 %
27.04.2018 07:39 6,8 C 16,1 C 93 % 1016,8 hPa 0,0 l/m 7,9 km/h (2 Bft) O 92 1 min 0,000 mm 0,0 UV-I 168 W/m 5,7 C 5,6 C 12,9 km/h (3 Bft) 100,00 %
27.04.2018 07:40 6,7 C 16,1 C 93 % 1016,8 hPa 0,0 l/m 10,5 km/h (2 Bft) O 93 1 min 0,000 mm 0,0 UV-I 172 W/m 5,6 C 3,6 C 14,5 km/h (3 Bft) 95,65 %
27.04.2018 07:41 6,7 C 16,1 C 93 % 1016,8 hPa 0,0 l/m 10,9 km/h (2 Bft) O-NO 75 1 min 0,000 mm 0,0 UV-I 169 W/m 5,6 C 3,4 C 14,5 km/h (3 Bft) 96,30 %
27.04.2018 07:42 6,7 C 16,1 C 93 % 1016,8 hPa 0,0 l/m 8,0 km/h (2 Bft) O-SO 103 1 min 0,000 mm 0,0 UV-I 194 W/m 5,6 C 5,4 C 11,3 km/h (2 Bft) 91,30 %
27.04.2018 07:43 6,8 C 16,1 C 93 % 1016,8 hPa 0,0 l/m 7,2 km/h (2 Bft) O 98 1 min 0,000 mm 0,0 UV-I 204 W/m 5,7 C 6,1 C 11,3 km/h (2 Bft) 100,00 %
27.04.2018 07:44 6,8 C 16,1 C 93 % 1016,8 hPa 0,0 l/m 7,8 km/h (2 Bft) O-NO 60 1 min 0,000 mm 0,0 UV-I 217 W/m 5,7 C 5,6 C 11,3 km/h (2 Bft) 100,00 %
27.04.2018 07:45 6,7 C 16,1 C 93 % 1016,8 hPa 0,0 l/m 9,1 km/h (2 Bft) O 84 1 min 0,000 mm 0,0 UV-I 212 W/m 5,6 C 4,6 C 12,9 km/h (3 Bft) 100,00 %
27.04.2018 07:46 6,7 C 16,1 C 93 % 1016,8 hPa 0,0 l/m 8,6 km/h (2 Bft) O 90 1 min 0,000 mm 0,0 UV-I 213 W/m 5,6 C 4,9 C 11,3 km/h (2 Bft) 100,00 %
27.04.2018 07:47 6,8 C 16,1 C 93 % 1016,9 hPa 0,0 l/m 10,5 km/h (2 Bft) O 90 1 min 0,000 mm 0,0 UV-I 191 W/m 5,7 C 3,7 C 14,5 km/h (3 Bft) 95,83 %
27.04.2018 07:48 6,8 C 16,1 C 93 % 1016,8 hPa 0,0 l/m 9,4 km/h (2 Bft) O-NO 75 1 min 0,000 mm 0,0 UV-I 185 W/m 5,7 C 4,5 C 14,5 km/h (3 Bft) 100,00 %
27.04.2018 07:49 6,8 C 16,1 C 93 % 1016,7 hPa 0,0 l/m 10,1 km/h (2 Bft) O 99 1 min 0,000 mm 0,0 UV-I 179 W/m 5,7 C 4,0 C 14,5 km/h (3 Bft) 95,83 %
27.04.2018 07:50 6,8 C 16,1 C 93 % 1016,7 hPa 0,0 l/m 11,9 km/h (2 Bft) O-NO 72 1 min 0,000 mm 0,0 UV-I 183 W/m 5,7 C 2,9 C 14,5 km/h (3 Bft) 100,00 %
27.04.2018 07:51 6,8 C 16,1 C 93 % 1016,7 hPa 0,0 l/m 11,9 km/h (2 Bft) O-NO 69 1 min 0,000 mm 0,0 UV-I 190 W/m 5,7 C 2,9 C 16,1 km/h (3 Bft) 100,00 %
27.04.2018 07:52 6,7 C 16,1 C 93 % 1016,7 hPa 0,0 l/m 13,4 km/h (3 Bft) O 80 1 min 0,000 mm 0,0 UV-I 187 W/m 5,6 C 1,9 C 17,7 km/h (3 Bft) 100,00 %
27.04.2018 07:53 6,7 C 16,1 C 93 % 1016,6 hPa 0,0 l/m 10,7 km/h (2 Bft) O-NO 74 1 min 0,000 mm 0,0 UV-I 198 W/m 5,6 C 3,5 C 16,1 km/h (3 Bft) 100,00 %
27.04.2018 07:54 6,8 C 16,1 C 93 % 1016,6 hPa 0,0 l/m 13,3 km/h (3 Bft) O-NO 61 1 min 0,000 mm 0,0 UV-I 206 W/m 5,7 C 2,1 C 17,7 km/h (3 Bft) 100,00 %
27.04.2018 07:55 6,8 C 16,1 C 93 % 1016,7 hPa 0,0 l/m 13,9 km/h (3 Bft) O-NO 77 1 min 0,000 mm 0,0 UV-I 212 W/m 5,7 C 1,8 C 19,3 km/h (3 Bft) 100,00 %
27.04.2018 07:56 6,8 C 16,1 C 93 % 1016,6 hPa 0,0 l/m 9,7 km/h (2 Bft) O-SO 115 1 min 0,000 mm 0,5 UV-I 236 W/m 5,7 C 4,3 C 14,5 km/h (3 Bft) 100,00 %
27.04.2018 07:57 6,8 C 16,1 C 93 % 1016,6 hPa 0,0 l/m 12,4 km/h (3 Bft) O-NO 69 1 min 0,000 mm 0,5 UV-I 250 W/m 5,7 C 2,6 C 19,3 km/h (3 Bft) 95,65 %
27.04.2018 07:58 6,9 C 16,1 C 93 % 1016,6 hPa 0,0 l/m 14,3 km/h (3 Bft) O 80 1 min 0,000 mm 0,5 UV-I 233 W/m 5,8 C 1,7 C 17,7 km/h (3 Bft) 100,00 %
27.04.2018 07:59 6,9 C 16,1 C 93 % 1016,7 hPa 0,0 l/m 11,9 km/h (2 Bft) O-NO 73 1 min 0,000 mm 0,5 UV-I 236 W/m 5,8 C 3,0 C 16,1 km/h (3 Bft) 100,00 %
27.04.2018 08:00 6,9 C 16,1 C 93 % 1016,6 hPa 0,0 l/m 12,3 km/h (3 Bft) O-NO 74 1 min 0,000 mm 0,5 UV-I 225 W/m 5,8 C 2,8 C 14,5 km/h (3 Bft) 100,00 %
27.04.2018 08:01 6,9 C 16,1 C 92 % 1016,6 hPa 0,0 l/m 12,0 km/h (2 Bft) O-NO 61 1 min 0,077 mm 0,5 UV-I 221 W/m 5,7 C 2,9 C 16,1 km/h (3 Bft) 100,00 %
27.04.2018 08:02 7,0 C 16,1 C 93 % 1016,6 hPa 0,0 l/m 13,5 km/h (3 Bft) O-NO 69 1 min 0,000 mm 0,5 UV-I 242 W/m 5,9 C 2,2 C 16,1 km/h (3 Bft) 100,00 %
27.04.2018 08:03 7,0 C 16,1 C 92 % 1016,6 hPa 0,0 l/m 11,5 km/h (2 Bft) O 79 1 min 0,000 mm 0,5 UV-I 248 W/m 5,8 C 3,3 C 14,5 km/h (3 Bft) 100,00 %
27.04.2018 08:04 7,0 C 16,1 C 92 % 1016,6 hPa 0,0 l/m 11,1 km/h (2 Bft) O 88 1 min 0,000 mm 0,5 UV-I 260 W/m 5,8 C 3,6 C 16,1 km/h (3 Bft) 100,00 %
27.04.2018 08:05 7,0 C 16,1 C 92 % 1016,6 hPa 0,0 l/m 11,1 km/h (2 Bft) O-NO 71 1 min 0,000 mm 0,5 UV-I 276 W/m 5,8 C 3,6 C 16,1 km/h (3 Bft) 100,00 %
27.04.2018 08:06 7,1 C 16,1 C 92 % 1016,6 hPa 0,0 l/m 10,3 km/h (2 Bft) O-NO 78 1 min 0,000 mm 0,5 UV-I 279 W/m 5,9 C 4,2 C 16,1 km/h (3 Bft) 100,00 %
27.04.2018 08:07 7,1 C 16,1 C 93 % 1016,5 hPa 0,0 l/m 10,8 km/h (2 Bft) O 97 1 min 0,000 mm 0,6 UV-I 307 W/m 6,0 C 3,9 C 14,5 km/h (3 Bft) 100,00 %
27.04.2018 08:08 7,2 C 16,1 C 93 % 1016,6 hPa 0,0 l/m 8,9 km/h (2 Bft) O-NO 69 1 min 0,000 mm 0,6 UV-I 301 W/m 6,1 C 5,2 C 12,9 km/h (3 Bft) 100,00 %
27.04.2018 08:09 7,2 C 16,1 C 93 % 1016,5 hPa 0,0 l/m 12,4 km/h (3 Bft) O-NO 72 1 min 0,000 mm 0,6 UV-I 303 W/m 6,1 C 3,1 C 14,5 km/h (3 Bft) 100,00 %
27.04.2018 08:10 7,2 C 16,1 C 92 % 1016,5 hPa 0,0 l/m 12,1 km/h (2 Bft) O 90 1 min 0,000 mm 0,6 UV-I 310 W/m 6,0 C 3,2 C 16,1 km/h (3 Bft) 100,00 %
27.04.2018 08:11 7,2 C 16,1 C 92 % 1016,5 hPa 0,0 l/m 10,9 km/h (2 Bft) O 88 1 min 0,000 mm 0,6 UV-I 309 W/m 6,0 C 3,9 C 14,5 km/h (3 Bft) 100,00 %
27.04.2018 08:12 7,3 C 16,1 C 92 % 1016,5 hPa 0,0 l/m 12,2 km/h (2 Bft) O-NO 71 1 min 0,000 mm 0,6 UV-I 312 W/m 6,1 C 3,3 C 14,5 km/h (3 Bft) 100,00 %
27.04.2018 08:13 7,3 C 16,1 C 92 % 1016,5 hPa 0,0 l/m 12,8 km/h (3 Bft) O-NO 74 1 min 0,000 mm 0,6 UV-I 310 W/m 6,1 C 3,0 C 16,1 km/h (3 Bft) 100,00 %
27.04.2018 08:14 7,4 C 16,1 C 92 % 1016,5 hPa 0,0 l/m 12,2 km/h (2 Bft) O-NO 70 1 min 0,000 mm 0,6 UV-I 321 W/m 6,2 C 3,4 C 17,7 km/h (3 Bft) 100,00 %
27.04.2018 08:15 7,4 C 16,1 C 91 % 1016,5 hPa 0,0 l/m 11,7 km/h (2 Bft) O-NO 58 1 min 0,000 mm 0,6 UV-I 332 W/m 6,0 C 3,7 C 16,1 km/h (3 Bft) 100,00 %
27.04.2018 08:16 7,4 C 16,1 C 91 % 1016,5 hPa 0,0 l/m 11,1 km/h (2 Bft) O-NO 69 1 min 0,000 mm 0,7 UV-I 337 W/m 6,0 C 4,0 C 14,5 km/h (3 Bft) 95,65 %
27.04.2018 08:17 7,4 C 16,1 C 91 % 1016,4 hPa 0,0 l/m 8,5 km/h (2 Bft) O-NO 63 1 min 0,000 mm 0,7 UV-I 339 W/m 6,0 C 5,8 C 11,3 km/h (2 Bft) 95,83 %
27.04.2018 08:18 7,5 C 16,1 C 91 % 1016,5 hPa 0,0 l/m 9,2 km/h (2 Bft) O-NO 58 1 min 0,000 mm 0,7 UV-I 342 W/m 6,1 C 5,4 C 12,9 km/h (3 Bft) 100,00 %
27.04.2018 08:19 7,6 C 16,1 C 91 % 1016,4 hPa 0,0 l/m 10,9 km/h (2 Bft) O 85 1 min 0,000 mm 0,7 UV-I 347 W/m 6,2 C 4,4 C 14,5 km/h (3 Bft) 95,83 %
27.04.2018 08:20 7,6 C 16,1 C 91 % 1016,4 hPa 0,0 l/m 8,6 km/h (2 Bft) O 79 1 min 0,000 mm 0,7 UV-I 350 W/m 6,2 C 5,9 C 12,9 km/h (3 Bft) 100,00 %
27.04.2018 08:21 7,6 C 16,1 C 91 % 1016,4 hPa 0,0 l/m 10,1 km/h (2 Bft) O-NO 73 1 min 0,000 mm 0,7 UV-I 337 W/m 6,2 C 4,9 C 12,9 km/h (3 Bft) 96,15 %
27.04.2018 08:22 7,7 C 16,1 C 91 % 1016,4 hPa 0,0 l/m 10,5 km/h (2 Bft) O-NO 65 1 min 0,000 mm 0,7 UV-I 350 W/m 6,3 C 4,7 C 12,9 km/h (3 Bft) 100,00 %
27.04.2018 08:23 7,8 C 16,1 C 91 % 1016,4 hPa 0,0 l/m 8,8 km/h (2 Bft) O-NO 72 1 min 0,000 mm 0,7 UV-I 352 W/m 6,4 C 6,0 C 12,9 km/h (3 Bft) 95,65 %
27.04.2018 08:24 7,8 C 16,1 C 91 % 1016,4 hPa 0,0 l/m 14,0 km/h (3 Bft) O-NO 73 1 min 0,000 mm 0,7 UV-I 350 W/m 6,4 C 2,9 C 17,7 km/h (3 Bft) 100,00 %
27.04.2018 08:25 7,8 C 16,1 C 90 % 1016,4 hPa 0,0 l/m 11,3 km/h (2 Bft) O 84 1 min 0,000 mm 0,7 UV-I 345 W/m 6,3 C 4,4 C 14,5 km/h (3 Bft) 95,65 %
27.04.2018 08:26 7,8 C 16,1 C 90 % 1016,3 hPa 0,0 l/m 13,0 km/h (3 Bft) NO 42 1 min 0,000 mm 0,8 UV-I 356 W/m 6,3 C 3,4 C 17,7 km/h (3 Bft) 91,67 %
27.04.2018 08:27 7,9 C 16,1 C 91 % 1016,4 hPa 0,0 l/m 12,9 km/h (3 Bft) O 90 1 min 0,000 mm 0,8 UV-I 373 W/m 6,5 C 3,6 C 17,7 km/h (3 Bft) 100,00 %
27.04.2018 08:28 8,0 C 16,1 C 91 % 1016,3 hPa 0,0 l/m 10,0 km/h (2 Bft) NO 53 1 min 0,000 mm 0,8 UV-I 376 W/m 6,6 C 5,4 C 14,5 km/h (3 Bft) 95,83 %
27.04.2018 08:29 8,1 C 16,1 C 91 % 1016,3 hPa 0,0 l/m 9,1 km/h (2 Bft) O-NO 58 1 min 0,000 mm 0,8 UV-I 378 W/m 6,7 C 6,1 C 12,9 km/h (3 Bft) 100,00 %
27.04.2018 08:30 8,1 C 16,1 C 91 % 1016,3 hPa 0,0 l/m 8,1 km/h (2 Bft) O 96 1 min 0,000 mm 0,8 UV-I 383 W/m 6,7 C 6,8 C 11,3 km/h (2 Bft) 95,83 %
27.04.2018 08:31 8,1 C 16,1 C 90 % 1016,2 hPa 0,0 l/m 11,8 km/h (2 Bft) O-NO 74 1 min 0,000 mm 0,8 UV-I 381 W/m 6,6 C 4,4 C 14,5 km/h (3 Bft) 95,65 %
27.04.2018 08:32 8,1 C 16,1 C 90 % 1016,2 hPa 0,0 l/m 12,0 km/h (2 Bft) NO 52 1 min 0,000 mm 0,8 UV-I 380 W/m 6,6 C 4,3 C 16,1 km/h (3 Bft) 91,67 %
27.04.2018 08:33 8,1 C 16,1 C 90 % 1016,2 hPa 0,0 l/m 10,1 km/h (2 Bft) O-NO 70 1 min 0,000 mm 0,8 UV-I 373 W/m 6,6 C 5,4 C 14,5 km/h (3 Bft) 100,00 %
27.04.2018 08:34 8,1 C 16,1 C 90 % 1016,2 hPa 0,0 l/m 12,9 km/h (3 Bft) O-NO 69 1 min 0,000 mm 0,9 UV-I 384 W/m 6,6 C 3,8 C 17,7 km/h (3 Bft) 95,83 %
27.04.2018 08:35 8,1 C 16,1 C 89 % 1016,2 hPa 0,0 l/m 12,9 km/h (3 Bft) O-NO 77 1 min 0,000 mm 0,9 UV-I 388 W/m 6,4 C 3,8 C 16,1 km/h (3 Bft) 100,00 %
27.04.2018 08:36 8,1 C 16,1 C 89 % 1016,1 hPa 0,0 l/m 13,7 km/h (3 Bft) O-NO 64 1 min 0,000 mm 0,9 UV-I 395 W/m 6,4 C 3,4 C 16,1 km/h (3 Bft) 95,83 %
27.04.2018 08:37 8,1 C 16,1 C 89 % 1016,1 hPa 0,0 l/m 9,8 km/h (2 Bft) O-SO 105 1 min 0,000 mm 0,9 UV-I 383 W/m 6,4 C 5,6 C 14,5 km/h (3 Bft) 100,00 %
27.04.2018 08:38 8,2 C 16,1 C 90 % 1016,1 hPa 0,0 l/m 9,7 km/h (2 Bft) O-NO 63 1 min 0,000 mm 0,9 UV-I 382 W/m 6,7 C 5,8 C 12,9 km/h (3 Bft) 96,55 %
27.04.2018 08:39 8,2 C 16,1 C 89 % 1016,1 hPa 0,0 l/m 13,6 km/h (3 Bft) O 88 1 min 0,000 mm 0,9 UV-I 389 W/m 6,5 C 3,6 C 16,1 km/h (3 Bft) 95,65 %
27.04.2018 08:40 8,2 C 16,1 C 89 % 1016,1 hPa 0,0 l/m 11,2 km/h (2 Bft) O 93 1 min 0,000 mm 0,9 UV-I 390 W/m 6,5 C 4,9 C 14,5 km/h (3 Bft) 95,83 %
27.04.2018 08:41 8,4 C 16,1 C 89 % 1016,1 hPa 0,0 l/m 9,8 km/h (2 Bft) O-SO 102 1 min 0,000 mm 0,9 UV-I 393 W/m 6,7 C 6,0 C 12,9 km/h (3 Bft) 95,83 %
27.04.2018 08:42 8,5 C 16,1 C 89 % 1016,1 hPa 0,0 l/m 11,4 km/h (2 Bft) O-SO 102 1 min 0,000 mm 0,9 UV-I 395 W/m 6,8 C 5,1 C 16,1 km/h (3 Bft) 100,00 %
27.04.2018 08:43 8,6 C 16,1 C 89 % 1016,1 hPa 0,0 l/m 13,0 km/h (3 Bft) O-NO 74 1 min 0,000 mm 0,9 UV-I 398 W/m 6,9 C 4,4 C 16,1 km/h (3 Bft) 96,15 %
27.04.2018 08:44 8,7 C 16,1 C 88 % 1016,0 hPa 0,0 l/m 9,2 km/h (2 Bft) NO 56 1 min 0,000 mm 1,0 UV-I 405 W/m 6,8 C 6,7 C 12,9 km/h (3 Bft) 100,00 %
27.04.2018 08:45 8,7 C 16,1 C 89 % 1016,0 hPa 0,0 l/m 9,3 km/h (2 Bft) O-NO 63 1 min 0,000 mm 1,0 UV-I 413 W/m 7,0 C 6,6 C 14,5 km/h (3 Bft) 95,83 %
27.04.2018 08:46 8,7 C 16,1 C 88 % 1015,9 hPa 0,0 l/m 11,0 km/h (2 Bft) O 101 1 min 0,000 mm 1,0 UV-I 407 W/m 6,8 C 5,6 C 14,5 km/h (3 Bft) 100,00 %
27.04.2018 08:47 8,7 C 16,1 C 88 % 1015,9 hPa 0,0 l/m 9,7 km/h (2 Bft) O-NO 61 1 min 0,000 mm 1,0 UV-I 418 W/m 6,8 C 6,3 C 12,9 km/h (3 Bft) 95,83 %
27.04.2018 08:48 8,8 C 16,1 C 88 % 1015,9 hPa 0,0 l/m 9,4 km/h (2 Bft) O 99 1 min 0,000 mm 1,0 UV-I 415 W/m 6,9 C 6,6 C 11,3 km/h (2 Bft) 95,65 %
27.04.2018 08:49 8,8 C 16,1 C 89 % 1015,9 hPa 0,0 l/m 10,8 km/h (2 Bft) O-NO 76 1 min 0,000 mm 1,0 UV-I 419 W/m 7,1 C 5,8 C 12,9 km/h (3 Bft) 100,00 %
27.04.2018 08:50 8,9 C 16,1 C 89 % 1015,9 hPa 0,0 l/m 6,7 km/h (2 Bft) O-NO 77 1 min 0,000 mm 1,0 UV-I 425 W/m 7,2 C 8,7 C 12,9 km/h (3 Bft) 100,00 %
27.04.2018 08:51 8,9 C 16,1 C 88 % 1015,9 hPa 0,0 l/m 10,9 km/h (2 Bft) O-NO 71 1 min 0,000 mm 1,1 UV-I 431 W/m 7,0 C 5,9 C 14,5 km/h (3 Bft) 95,83 %
27.04.2018 08:53 9,0 C 16,1 C 87 % 1015,8 hPa 0,0 l/m 10,1 km/h (2 Bft) O-NO 73 2 min 0,000 mm 1,1 UV-I 436 W/m 7,0 C 6,4 C 16,1 km/h (3 Bft) 96,00 %
27.04.2018 08:54 9,1 C 16,1 C 87 % 1015,8 hPa 0,0 l/m 8,1 km/h (2 Bft) O 101 1 min 0,000 mm 1,1 UV-I 431 W/m 7,1 C 7,8 C 12,9 km/h (3 Bft) 95,65 %
27.04.2018 08:55 9,2 C 16,1 C 87 % 1015,8 hPa 0,0 l/m 11,3 km/h (2 Bft) O-NO 67 1 min 0,000 mm 1,1 UV-I 435 W/m 7,2 C 6,0 C 16,1 km/h (3 Bft) 100,00 %
27.04.2018 08:56 9,2 C 16,1 C 87 % 1015,8 hPa 0,0 l/m 9,4 km/h (2 Bft) O-NO 76 1 min 0,000 mm 1,1 UV-I 427 W/m 7,2 C 7,1 C 12,9 km/h (3 Bft) 96,15 %
27.04.2018 08:57 9,3 C 16,1 C 87 % 1015,8 hPa 0,0 l/m 11,3 km/h (2 Bft) O 80 1 min 0,000 mm 1,1 UV-I 434 W/m 7,2 C 6,1 C 12,9 km/h (3 Bft) 100,00 %
27.04.2018 08:58 9,3 C 16,1 C 86 % 1015,8 hPa 0,0 l/m 9,1 km/h (2 Bft) O 88 1 min 0,000 mm 1,2 UV-I 449 W/m 7,1 C 7,4 C 12,9 km/h (3 Bft) 95,65 %
27.04.2018 08:59 9,4 C 16,1 C 86 % 1015,8 hPa 0,0 l/m 8,6 km/h (2 Bft) O-NO 59 1 min 0,000 mm 1,2 UV-I 450 W/m 7,2 C 7,8 C 14,5 km/h (3 Bft) 91,67 %
27.04.2018 09:00 9,4 C 16,1 C 86 % 1015,8 hPa 0,0 l/m 9,3 km/h (2 Bft) NO 47 1 min 0,177 mm 1,2 UV-I 454 W/m 7,2 C 7,4 C 14,5 km/h (3 Bft) 95,65 %
27.04.2018 09:02 9,6 C 16,1 C 85 % 1015,7 hPa 0,0 l/m 9,9 km/h (2 Bft) O-NO 73 2 min 0,000 mm 1,2 UV-I 467 W/m 7,2 C 7,2 C 16,1 km/h (3 Bft) 92,00 %
27.04.2018 09:03 9,6 C 16,1 C 85 % 1015,7 hPa 0,0 l/m 13,3 km/h (3 Bft) O-NO 74 1 min 0,000 mm 1,2 UV-I 476 W/m 7,2 C 5,4 C 20,9 km/h (4 Bft) 95,83 %
27.04.2018 09:04 9,6 C 16,1 C 85 % 1015,7 hPa 0,0 l/m 13,4 km/h (3 Bft) O 80 1 min 0,000 mm 1,2 UV-I 478 W/m 7,2 C 5,4 C 17,7 km/h (3 Bft) 91,67 %
27.04.2018 09:05 9,6 C 16,1 C 85 % 1015,7 hPa 0,0 l/m 11,8 km/h (2 Bft) O-NO 78 1 min 0,000 mm 1,3 UV-I 476 W/m 7,2 C 6,2 C 16,1 km/h (3 Bft) 95,65 %
27.04.2018 09:06 9,7 C 16,1 C 85 % 1015,7 hPa 0,0 l/m 12,1 km/h (2 Bft) O-NO 76 1 min 0,000 mm 1,3 UV-I 478 W/m 7,3 C 6,1 C 14,5 km/h (3 Bft) 95,83 %
27.04.2018 09:07 9,7 C 16,1 C 84 % 1015,6 hPa 0,0 l/m 14,7 km/h (3 Bft) O-NO 58 1 min 0,000 mm 1,3 UV-I 482 W/m 7,1 C 4,9 C 19,3 km/h (3 Bft) 100,00 %
27.04.2018 09:08 9,8 C 16,1 C 83 % 1015,6 hPa 0,0 l/m 17,3 km/h (3 Bft) O 89 1 min 0,000 mm 1,3 UV-I 492 W/m 7,1 C 4,0 C 20,9 km/h (4 Bft) 91,67 %
27.04.2018 09:09 9,8 C 16,1 C 83 % 1015,5 hPa 0,0 l/m 14,3 km/h (3 Bft) O 84 1 min 0,000 mm 1,3 UV-I 497 W/m 7,1 C 5,2 C 17,7 km/h (3 Bft) 100,00 %
27.04.2018 09:10 9,9 C 16,1 C 84 % 1015,6 hPa 0,0 l/m 11,3 km/h (2 Bft) O 91 1 min 0,000 mm 1,3 UV-I 463 W/m 7,3 C 6,8 C 16,1 km/h (3 Bft) 95,83 %
27.04.2018 09:11 10,1 C 16,1 C 84 % 1015,5 hPa 0,0 l/m 16,2 km/h (3 Bft) O-NO 69 1 min 0,000 mm 1,3 UV-I 504 W/m 7,5 C 4,8 C 20,9 km/h (4 Bft) 100,00 %
27.04.2018 09:12 10,1 C 16,1 C 83 % 1015,5 hPa 0,0 l/m 11,4 km/h (2 Bft) O 80 1 min 0,000 mm 1,3 UV-I 499 W/m 7,3 C 6,9 C 16,1 km/h (3 Bft) 95,83 %
27.04.2018 09:13 10,1 C 16,1 C 83 % 1015,5 hPa 0,0 l/m 12,2 km/h (2 Bft) O-NO 57 1 min 0,000 mm 1,3 UV-I 489 W/m 7,3 C 6,5 C 16,1 km/h (3 Bft) 95,65 %
27.04.2018 09:14 10,2 C 16,1 C 84 % 1015,5 hPa 0,0 l/m 17,0 km/h (3 Bft) NO 48 1 min 0,000 mm 1,3 UV-I 484 W/m 7,6 C 4,6 C 20,9 km/h (4 Bft) 91,67 %
27.04.2018 09:15 10,3 C 16,1 C 84 % 1015,4 hPa 0,0 l/m 15,9 km/h (3 Bft) O-NO 65 1 min 0,000 mm 1,4 UV-I 483 W/m 7,7 C 5,1 C 20,9 km/h (4 Bft) 96,15 %
27.04.2018 09:16 10,3 C 16,1 C 82 % 1015,5 hPa 0,0 l/m 15,8 km/h (3 Bft) O-SO 116 1 min 0,000 mm 1,4 UV-I 494 W/m 7,4 C 5,2 C 19,3 km/h (3 Bft) 100,00 %
27.04.2018 09:17 10,3 C 16,1 C 82 % 1015,4 hPa 0,0 l/m 18,7 km/h (3 Bft) O-NO 70 1 min 0,000 mm 1,4 UV-I 502 W/m 7,4 C 4,1 C 22,5 km/h (4 Bft) 91,30 %
27.04.2018 09:18 10,2 C 16,1 C 81 % 1015,4 hPa 0,0 l/m 17,8 km/h (3 Bft) O 94 1 min 0,000 mm 1,4 UV-I 513 W/m 7,1 C 4,3 C 20,9 km/h (4 Bft) 100,00 %
27.04.2018 09:19 10,2 C 16,1 C 81 % 1015,4 hPa 0,0 l/m 15,7 km/h (3 Bft) O-NO 67 1 min 0,000 mm 1,4 UV-I 514 W/m 7,1 C 5,1 C 19,3 km/h (3 Bft) 95,65 %
27.04.2018 09:20 10,2 C 16,7 C 81 % 1015,4 hPa 0,0 l/m 13,7 km/h (3 Bft) O 90 1 min 0,000 mm 1,4 UV-I 503 W/m 7,1 C 5,9 C 19,3 km/h (3 Bft) 95,83 %
27.04.2018 09:21 10,3 C 16,1 C 81 % 1015,4 hPa 0,0 l/m 15,3 km/h (3 Bft) O-NO 77 1 min 0,000 mm 1,5 UV-I 500 W/m 7,2 C 5,4 C 20,9 km/h (4 Bft) 95,65 %
27.04.2018 09:22 10,3 C 16,1 C 81 % 1015,4 hPa 0,0 l/m 17,9 km/h (3 Bft) O-NO 78 1 min 0,000 mm 1,5 UV-I 514 W/m 7,2 C 4,4 C 22,5 km/h (4 Bft) 95,83 %
27.04.2018 09:23 10,4 C 16,1 C 81 % 1015,4 hPa 0,0 l/m 17,0 km/h (3 Bft) O-NO 67 1 min 0,000 mm 1,5 UV-I 523 W/m 7,3 C 4,8 C 24,1 km/h (4 Bft) 95,83 %
27.04.2018 09:24 10,4 C 16,1 C 80 % 1015,4 hPa 0,0 l/m 13,6 km/h (3 Bft) NO 51 1 min 0,000 mm 1,5 UV-I 529 W/m 7,1 C 6,2 C 22,5 km/h (4 Bft) 95,65 %
27.04.2018 09:25 10,5 C 16,1 C 81 % 1015,4 hPa 0,0 l/m 14,6 km/h (3 Bft) O-NO 70 1 min 0,000 mm 1,5 UV-I 538 W/m 7,4 C 5,9 C 19,3 km/h (3 Bft) 100,00 %
27.04.2018 09:26 10,6 C 16,1 C 80 % 1015,4 hPa 0,0 l/m 16,3 km/h (3 Bft) NO 55 1 min 0,000 mm 1,6 UV-I 540 W/m 7,3 C 5,3 C 19,3 km/h (3 Bft) 92,86 %
27.04.2018 09:27 10,6 C 16,1 C 79 % 1015,3 hPa 0,0 l/m 16,4 km/h (3 Bft) O 93 1 min 0,000 mm 1,6 UV-I 544 W/m 7,1 C 5,3 C 25,7 km/h (4 Bft) 100,00 %
27.04.2018 09:28 10,6 C 16,7 C 79 % 1015,4 hPa 0,0 l/m 16,1 km/h (3 Bft) O 95 1 min 0,000 mm 1,6 UV-I 533 W/m 7,1 C 5,4 C 19,3 km/h (3 Bft) 95,65 %
27.04.2018 09:29 10,6 C 16,1 C 79 % 1015,3 hPa 0,0 l/m 17,5 km/h (3 Bft) O-NO 78 1 min 0,000 mm 1,6 UV-I 520 W/m 7,1 C 4,9 C 20,9 km/h (4 Bft) 100,00 %
27.04.2018 09:30 10,7 C 16,1 C 80 % 1015,4 hPa 0,0 l/m 21,3 km/h (4 Bft) O-NO 65 1 min 0,000 mm 1,6 UV-I 522 W/m 7,4 C 3,8 C 27,4 km/h (4 Bft) 95,65 %
27.04.2018 09:31 10,7 C 16,1 C 79 % 1015,3 hPa 0,0 l/m 13,8 km/h (3 Bft) NO 49 1 min 0,000 mm 1,6 UV-I 534 W/m 7,2 C 6,5 C 20,9 km/h (4 Bft) 100,00 %
27.04.2018 09:32 10,7 C 16,1 C 79 % 1015,3 hPa 0,0 l/m 12,3 km/h (3 Bft) O 86 1 min 0,000 mm 1,6 UV-I 550 W/m 7,2 C 7,2 C 19,3 km/h (3 Bft) 100,00 %
27.04.2018 09:33 10,8 C 16,1 C 79 % 1015,3 hPa 0,0 l/m 15,2 km/h (3 Bft) O 87 1 min 0,000 mm 1,6 UV-I 552 W/m 7,3 C 6,0 C 20,9 km/h (4 Bft) 100,00 %
27.04.2018 09:34 10,8 C 16,1 C 78 % 1015,3 hPa 0,0 l/m 12,7 km/h (3 Bft) O-NO 74 1 min 0,000 mm 1,6 UV-I 532 W/m 7,1 C 7,1 C 17,7 km/h (3 Bft) 100,00 %
27.04.2018 09:35 10,8 C 16,1 C 79 % 1015,2 hPa 0,0 l/m 15,8 km/h (3 Bft) O-NO 71 1 min 0,000 mm 1,6 UV-I 531 W/m 7,3 C 5,8 C 19,3 km/h (3 Bft) 100,00 %
27.04.2018 09:36 10,9 C 16,7 C 79 % 1015,2 hPa 0,0 l/m 12,5 km/h (3 Bft) O-NO 71 1 min 0,000 mm 1,7 UV-I 549 W/m 7,4 C 7,3 C 19,3 km/h (3 Bft) 95,65 %
27.04.2018 09:37 10,9 C 16,1 C 79 % 1015,2 hPa 0,0 l/m 11,5 km/h (2 Bft) NO 45 1 min 0,000 mm 1,7 UV-I 557 W/m 7,4 C 7,8 C 17,7 km/h (3 Bft) 95,83 %
27.04.2018 09:38 11,1 C 16,1 C 80 % 1015,2 hPa 0,0 l/m 14,0 km/h (3 Bft) O-NO 75 1 min 0,000 mm 1,8 UV-I 576 W/m 7,8 C 6,9 C 17,7 km/h (3 Bft) 95,65 %
27.04.2018 09:39 11,2 C 16,1 C 79 % 1015,2 hPa 0,0 l/m 14,6 km/h (3 Bft) O-NO 61 1 min 0,000 mm 1,8 UV-I 588 W/m 7,7 C 6,7 C 20,9 km/h (4 Bft) 100,00 %
27.04.2018 09:40 11,2 C 16,1 C 79 % 1015,2 hPa 0,0 l/m 17,4 km/h (3 Bft) NO 50 1 min 0,000 mm 1,8 UV-I 585 W/m 7,7 C 5,7 C 22,5 km/h (4 Bft) 95,65 %
27.04.2018 09:41 11,3 C 16,1 C 79 % 1015,2 hPa 0,0 l/m 15,1 km/h (3 Bft) NO 41 1 min 0,000 mm 1,8 UV-I 576 W/m 7,8 C 6,7 C 20,9 km/h (4 Bft) 100,00 %
27.04.2018 09:42 11,4 C 16,1 C 80 % 1015,1 hPa 0,0 l/m 18,2 km/h (3 Bft) NO 50 1 min 0,000 mm 1,8 UV-I 578 W/m 8,1 C 5,7 C 25,7 km/h (4 Bft) 100,00 %
27.04.2018 09:43 11,5 C 16,7 C 80 % 1015,1 hPa 0,0 l/m 18,7 km/h (3 Bft) O-SO 107 1 min 0,000 mm 1,8 UV-I 589 W/m 8,2 C 5,6 C 24,1 km/h (4 Bft) 100,00 %
27.04.2018 09:44 11,6 C 16,7 C 79 % 1015,1 hPa 0,0 l/m 17,1 km/h (3 Bft) N-NO 33 1 min 0,000 mm 1,9 UV-I 603 W/m 8,1 C 6,3 C 24,1 km/h (4 Bft) 95,83 %
27.04.2018 09:45 11,6 C 16,1 C 79 % 1015,1 hPa 0,0 l/m 19,4 km/h (3 Bft) NO 44 1 min 0,000 mm 1,9 UV-I 612 W/m 8,1 C 5,5 C 22,5 km/h (4 Bft) 100,00 %
27.04.2018 09:46 11,6 C 16,1 C 78 % 1015,0 hPa 0,0 l/m 20,0 km/h (4 Bft) O-NO 59 1 min 0,000 mm 1,9 UV-I 618 W/m 7,9 C 5,4 C 24,1 km/h (4 Bft) 97,84 %
27.04.2018 09:47 11,7 C 16,1 C 77 % 1015,1 hPa 0,0 l/m 15,4 km/h (3 Bft) O-NO 59 1 min 0,000 mm 1,9 UV-I 607 W/m 7,8 C 7,0 C 22,5 km/h (4 Bft) 100,00 %
27.04.2018 09:48 11,7 C 16,1 C 78 % 1015,0 hPa 0,0 l/m 11,0 km/h (2 Bft) O-NO 76 1 min 0,000 mm 1,9 UV-I 577 W/m 8,0 C 9,0 C 14,5 km/h (3 Bft) 100,00 %
27.04.2018 09:49 11,8 C 16,1 C 78 % 1015,0 hPa 0,0 l/m 15,1 km/h (3 Bft) O-NO 76 1 min 0,000 mm 1,9 UV-I 586 W/m 8,1 C 7,3 C 19,3 km/h (3 Bft) 100,00 %
27.04.2018 09:50 11,8 C 16,7 C 75 % 1015,0 hPa 0,0 l/m 15,7 km/h (3 Bft) O-NO 67 1 min 0,000 mm 1,9 UV-I 587 W/m 7,5 C 7,0 C 20,9 km/h (4 Bft) 100,00 %
27.04.2018 09:51 11,8 C 16,7 C 74 % 1015,0 hPa 0,0 l/m 15,8 km/h (3 Bft) NO 48 1 min 0,000 mm 1,9 UV-I 568 W/m 7,3 C 7,0 C 24,1 km/h (4 Bft) 95,65 %
27.04.2018 09:52 11,7 C 16,7 C 74 % 1015,0 hPa 0,0 l/m 15,5 km/h (3 Bft) O-NO 68 1 min 0,000 mm 1,9 UV-I 562 W/m 7,2 C 7,0 C 17,7 km/h (3 Bft) 100,00 %
27.04.2018 09:53 11,7 C 16,7 C 75 % 1015,0 hPa 0,0 l/m 18,1 km/h (3 Bft) NO 50 1 min 0,000 mm 1,9 UV-I 563 W/m 7,4 C 6,1 C 27,4 km/h (4 Bft) 95,65 %
27.04.2018 09:54 11,7 C 16,7 C 75 % 1015,1 hPa 0,0 l/m 18,5 km/h (3 Bft) O-NO 71 1 min 0,000 mm 1,9 UV-I 552 W/m 7,4 C 6,0 C 24,1 km/h (4 Bft) 100,00 %
27.04.2018 09:55 11,7 C 16,1 C 75 % 1015,0 hPa 0,0 l/m 18,7 km/h (3 Bft) O 90 1 min 0,000 mm 1,9 UV-I 508 W/m 7,4 C 5,9 C 24,1 km/h (4 Bft) 100,00 %
27.04.2018 09:56 11,7 C 16,1 C 73 % 1015,0 hPa 0,0 l/m 20,3 km/h (4 Bft) O-SO 107 1 min 0,000 mm 1,9 UV-I 515 W/m 7,0 C 5,4 C 25,7 km/h (4 Bft) 100,00 %
27.04.2018 09:57 11,6 C 16,1 C 73 % 1015,0 hPa 0,0 l/m 19,0 km/h (3 Bft) O 80 1 min 0,000 mm 1,9 UV-I 526 W/m 6,9 C 5,7 C 25,7 km/h (4 Bft) 95,65 %
27.04.2018 09:58 11,6 C 16,1 C 74 % 1015,0 hPa 0,0 l/m 13,7 km/h (3 Bft) O-NO 78 1 min 0,000 mm 2,0 UV-I 524 W/m 7,1 C 7,6 C 17,7 km/h (3 Bft) 95,83 %
27.04.2018 09:59 11,7 C 16,1 C 74 % 1015,0 hPa 0,0 l/m 19,7 km/h (3 Bft) O-NO 63 1 min 0,000 mm 1,9 UV-I 535 W/m 7,2 C 5,6 C 29,0 km/h (5 Bft) 100,00 %
27.04.2018 10:00 11,7 C 16,7 C 73 % 1015,0 hPa 0,0 l/m 20,3 km/h (4 Bft) O-NO 65 1 min 0,000 mm 2,0 UV-I 541 W/m 7,0 C 5,4 C 29,0 km/h (5 Bft) 100,00 %
27.04.2018 10:01 11,6 C 16,1 C 73 % 1015,0 hPa 0,0 l/m 17,8 km/h (3 Bft) O-NO 67 1 min 0,280 mm 2,0 UV-I 561 W/m 6,9 C 6,1 C 24,1 km/h (4 Bft) 95,83 %
27.04.2018 10:02 11,7 C 16,1 C 73 % 1015,0 hPa 0,0 l/m 13,7 km/h (3 Bft) O-NO 61 1 min 0,000 mm 2,0 UV-I 560 W/m 7,0 C 7,7 C 20,9 km/h (4 Bft) 95,65 %
27.04.2018 10:03 11,7 C 16,1 C 74 % 1015,1 hPa 0,0 l/m 17,4 km/h (3 Bft) O-NO 72 1 min 0,000 mm 2,0 UV-I 566 W/m 7,2 C 6,3 C 27,4 km/h (4 Bft) 100,00 %
27.04.2018 10:04 11,8 C 16,1 C 72 % 1015,0 hPa 0,0 l/m 23,7 km/h (4 Bft) O-NO 66 1 min 0,000 mm 2,1 UV-I 599 W/m 6,9 C 4,6 C 29,0 km/h (5 Bft) 100,00 %
27.04.2018 10:05 11,8 C 16,1 C 72 % 1015,0 hPa 0,0 l/m 20,0 km/h (4 Bft) O-NO 69 1 min 0,000 mm 2,2 UV-I 622 W/m 6,9 C 5,6 C 22,5 km/h (4 Bft) 100,00 %
27.04.2018 10:06 11,8 C 16,1 C 73 % 1015,0 hPa 0,0 l/m 19,2 km/h (3 Bft) O-NO 67 1 min 0,000 mm 2,2 UV-I 628 W/m 7,1 C 5,9 C 22,5 km/h (4 Bft) 95,65 %
27.04.2018 10:07 11,8 C 16,1 C 73 % 1015,0 hPa 0,0 l/m 17,9 km/h (3 Bft) NO 42 1 min 0,000 mm 2,2 UV-I 632 W/m 7,1 C 6,3 C 22,5 km/h (4 Bft) 100,00 %
27.04.2018 10:08 11,8 C 16,1 C 73 % 1015,0 hPa 0,0 l/m 18,7 km/h (3 Bft) O 80 1 min 0,000 mm 2,2 UV-I 629 W/m 7,1 C 6,0 C 22,5 km/h (4 Bft) 100,00 %
27.04.2018 10:09 11,9 C 16,1 C 73 % 1015,0 hPa 0,0 l/m 21,5 km/h (4 Bft) O-NO 63 1 min 0,000 mm 2,2 UV-I 640 W/m 7,2 C 5,3 C 27,4 km/h (4 Bft) 100,00 %
27.04.2018 10:10 11,9 C 16,1 C 73 % 1015,0 hPa 0,0 l/m 14,3 km/h (3 Bft) O-NO 57 1 min 0,000 mm 2,2 UV-I 624 W/m 7,2 C 7,7 C 19,3 km/h (3 Bft) 100,00 %
27.04.2018 10:11 12,0 C 16,1 C 74 % 1015,0 hPa 0,0 l/m 16,0 km/h (3 Bft) O 101 1 min 0,000 mm 2,2 UV-I 619 W/m 7,5 C 7,2 C 19,3 km/h (3 Bft) 100,00 %
27.04.2018 10:12 12,1 C 16,1 C 75 % 1014,9 hPa 0,0 l/m 14,5 km/h (3 Bft) O-NO 63 1 min 0,000 mm 2,2 UV-I 636 W/m 7,8 C 7,9 C 17,7 km/h (3 Bft) 100,00 %
27.04.2018 10:13 12,2 C 16,1 C 75 % 1015,0 hPa 0,0 l/m 17,8 km/h (3 Bft) O-NO 63 1 min 0,000 mm 2,2 UV-I 616 W/m 7,9 C 6,8 C 24,1 km/h (4 Bft) 100,00 %
27.04.2018 10:14 12,3 C 16,1 C 75 % 1014,9 hPa 0,0 l/m 15,1 km/h (3 Bft) O-NO 66 1 min 0,000 mm 2,2 UV-I 585 W/m 8,0 C 7,9 C 20,9 km/h (4 Bft) 100,00 %
27.04.2018 10:15 12,3 C 16,1 C 73 % 1014,9 hPa 0,0 l/m 19,9 km/h (4 Bft) O-NO 64 1 min 0,000 mm 2,2 UV-I 579 W/m 7,6 C 6,3 C 27,4 km/h (4 Bft) 95,65 %
27.04.2018 10:16 12,4 C 16,1 C 74 % 1014,9 hPa 0,0 l/m 19,4 km/h (3 Bft) NO 54 1 min 0,000 mm 2,2 UV-I 589 W/m 7,9 C 6,6 C 24,1 km/h (4 Bft) 100,00 %
27.04.2018 10:17 12,4 C 16,1 C 73 % 1014,9 hPa 0,0 l/m 17,4 km/h (3 Bft) O 88 1 min 0,000 mm 2,3 UV-I 598 W/m 7,7 C 7,2 C 24,1 km/h (4 Bft) 95,65 %
27.04.2018 10:18 12,4 C 16,1 C 74 % 1014,9 hPa 0,0 l/m 17,1 km/h (3 Bft) NO 56 1 min 0,000 mm 2,3 UV-I 597 W/m 7,9 C 7,3 C 20,9 km/h (4 Bft) 100,00 %
27.04.2018 10:19 12,5 C 16,1 C 73 % 1014,9 hPa 0,0 l/m 17,2 km/h (3 Bft) O-NO 59 1 min 0,000 mm 2,4 UV-I 628 W/m 7,8 C 7,4 C 22,5 km/h (4 Bft) 96,15 %
27.04.2018 10:20 12,6 C 16,1 C 75 % 1014,9 hPa 0,0 l/m 19,5 km/h (3 Bft) O-NO 67 1 min 0,000 mm 2,4 UV-I 662 W/m 8,3 C 6,8 C 22,5 km/h (4 Bft) 100,00 %
27.04.2018 10:21 12,7 C 16,1 C 74 % 1014,8 hPa 0,0 l/m 13,0 km/h (3 Bft) O-NO 67 1 min 0,000 mm 2,4 UV-I 654 W/m 8,2 C 9,2 C 17,7 km/h (3 Bft) 100,00 %
27.04.2018 10:22 12,7 C 16,1 C 73 % 1014,8 hPa 0,0 l/m 13,9 km/h (3 Bft) O-NO 57 1 min 0,000 mm 2,4 UV-I 621 W/m 8,0 C 8,8 C 20,9 km/h (4 Bft) 100,00 %
27.04.2018 10:23 12,7 C 16,1 C 72 % 1014,8 hPa 0,0 l/m 15,2 km/h (3 Bft) NO 53 1 min 0,000 mm 2,4 UV-I 633 W/m 7,8 C 8,3 C 20,9 km/h (4 Bft) 100,00 %
27.04.2018 10:24 12,7 C 16,1 C 74 % 1014,8 hPa 0,0 l/m 18,3 km/h (3 Bft) O-NO 58 1 min 0,000 mm 2,4 UV-I 652 W/m 8,2 C 7,3 C 27,4 km/h (4 Bft) 100,00 %
27.04.2018 10:25 12,8 C 16,7 C 73 % 1014,8 hPa 0,0 l/m 22,0 km/h (4 Bft) O-SO 108 1 min 0,000 mm 2,5 UV-I 659 W/m 8,1 C 6,4 C 25,7 km/h (4 Bft) 100,00 %
27.04.2018 10:26 12,8 C 16,1 C 72 % 1014,8 hPa 0,0 l/m 19,5 km/h (3 Bft) O-NO 58 1 min 0,000 mm 2,4 UV-I 644 W/m 7,9 C 7,0 C 25,7 km/h (4 Bft) 100,00 %
27.04.2018 10:27 12,8 C 16,1 C 72 % 1014,8 hPa 0,0 l/m 17,6 km/h (3 Bft) O-NO 74 1 min 0,000 mm 2,4 UV-I 588 W/m 7,9 C 7,6 C 22,5 km/h (4 Bft) 100,00 %
27.04.2018 10:28 12,8 C 16,1 C 71 % 1014,8 hPa 0,0 l/m 15,9 km/h (3 Bft) O-NO 74 1 min 0,000 mm 2,4 UV-I 617 W/m 7,7 C 8,2 C 22,5 km/h (4 Bft) 100,00 %
27.04.2018 10:29 12,8 C 16,7 C 71 % 1014,8 hPa 0,0 l/m 18,7 km/h (3 Bft) O 80 1 min 0,000 mm 2,4 UV-I 616 W/m 7,7 C 7,3 C 24,1 km/h (4 Bft) 100,00 %
27.04.2018 10:30 12,8 C 16,7 C 71 % 1014,7 hPa 0,0 l/m 17,7 km/h (3 Bft) O 90 1 min 0,000 mm 2,4 UV-I 629 W/m 7,7 C 7,6 C 22,5 km/h (4 Bft) 100,00 %
27.04.2018 10:31 12,8 C 16,7 C 72 % 1014,7 hPa 0,0 l/m 16,4 km/h (3 Bft) O-NO 75 1 min 0,000 mm 2,5 UV-I 648 W/m 7,9 C 8,0 C 24,1 km/h (4 Bft) 100,00 %
27.04.2018 10:32 12,8 C 16,7 C 72 % 1014,7 hPa 0,0 l/m 10,4 km/h (2 Bft) O 90 1 min 0,000 mm 2,5 UV-I 652 W/m 7,9 C 10,5 C 14,5 km/h (3 Bft) 100,00 %
27.04.2018 10:33 12,9 C 16,7 C 72 % 1014,7 hPa 0,0 l/m 14,8 km/h (3 Bft) O-NO 63 1 min 0,000 mm 2,5 UV-I 647 W/m 8,0 C 8,7 C 20,9 km/h (4 Bft) 100,00 %
27.04.2018 10:34 13,0 C 16,7 C 73 % 1014,7 hPa 0,0 l/m 13,1 km/h (3 Bft) O-NO 58 1 min 0,000 mm 2,5 UV-I 648 W/m 8,3 C 9,5 C 17,7 km/h (3 Bft) 100,00 %
27.04.2018 10:35 13,2 C 16,7 C 74 % 1014,7 hPa 0,0 l/m 15,3 km/h (3 Bft) O-NO 68 1 min 0,000 mm 2,6 UV-I 677 W/m 8,7 C 8,9 C 19,3 km/h (3 Bft) 100,00 %
27.04.2018 10:36 13,2 C 16,7 C 70 % 1014,7 hPa 0,0 l/m 19,0 km/h (3 Bft) NO 53 1 min 0,000 mm 2,7 UV-I 687 W/m 7,9 C 7,7 C 25,7 km/h (4 Bft) 100,00 %
27.04.2018 10:37 13,2 C 16,7 C 71 % 1014,7 hPa 0,0 l/m 15,4 km/h (3 Bft) O-NO 67 1 min 0,000 mm 2,7 UV-I 708 W/m 8,1 C 8,9 C 19,3 km/h (3 Bft) 100,00 %
27.04.2018 10:38 13,2 C 16,7 C 70 % 1014,7 hPa 0,0 l/m 14,1 km/h (3 Bft) O-SO 107 1 min 0,000 mm 2,7 UV-I 697 W/m 7,9 C 9,3 C 19,3 km/h (3 Bft) 95,65 %
27.04.2018 10:39 13,2 C 16,7 C 69 % 1014,8 hPa 0,0 l/m 16,3 km/h (3 Bft) O 90 1 min 0,000 mm 2,7 UV-I 705 W/m 7,6 C 8,6 C 24,1 km/h (4 Bft) 100,00 %
27.04.2018 10:40 13,2 C 16,7 C 69 % 1014,8 hPa 0,0 l/m 18,4 km/h (3 Bft) O 88 1 min 0,000 mm 2,7 UV-I 689 W/m 7,6 C 7,9 C 22,5 km/h (4 Bft) 96,15 %
27.04.2018 10:41 13,2 C 16,7 C 70 % 1014,7 hPa 0,0 l/m 14,1 km/h (3 Bft) O-NO 63 1 min 0,000 mm 2,7 UV-I 689 W/m 7,9 C 9,3 C 17,7 km/h (3 Bft) 96,67 %
27.04.2018 10:42 13,3 C 16,7 C 73 % 1014,7 hPa 0,0 l/m 15,8 km/h (3 Bft) NO 44 1 min 0,000 mm 2,7 UV-I 688 W/m 8,6 C 8,9 C 24,1 km/h (4 Bft) 100,00 %
27.04.2018 10:43 13,4 C 16,7 C 72 % 1014,7 hPa 0,0 l/m 19,3 km/h (3 Bft) NO 42 1 min 0,000 mm 2,8 UV-I 646 W/m 8,5 C 7,9 C 25,7 km/h (4 Bft) 95,83 %
27.04.2018 10:44 13,5 C 16,7 C 71 % 1014,7 hPa 0,0 l/m 19,2 km/h (3 Bft) O-NO 71 1 min 0,000 mm 2,8 UV-I 696 W/m 8,3 C 8,0 C 24,1 km/h (4 Bft) 100,00 %
27.04.2018 10:45 13,5 C 16,7 C 70 % 1014,7 hPa 0,0 l/m 17,4 km/h (3 Bft) O-NO 76 1 min 0,000 mm 2,8 UV-I 709 W/m 8,1 C 8,6 C 22,5 km/h (4 Bft) 95,83 %
27.04.2018 10:46 13,5 C 16,7 C 69 % 1014,6 hPa 0,0 l/m 19,6 km/h (3 Bft) O 82 1 min 0,000 mm 2,9 UV-I 689 W/m 7,9 C 7,9 C 22,5 km/h (4 Bft) 95,65 %
27.04.2018 10:47 13,6 C 16,7 C 69 % 1014,6 hPa 0,0 l/m 17,2 km/h (3 Bft) O-NO 64 1 min 0,000 mm 2,8 UV-I 711 W/m 8,0 C 8,8 C 24,1 km/h (4 Bft) 100,00 %
27.04.2018 10:48 13,5 C 16,7 C 68 % 1014,6 hPa 0,0 l/m 16,3 km/h (3 Bft) O-NO 73 1 min 0,000 mm 2,9 UV-I 728 W/m 7,7 C 8,9 C 20,9 km/h (4 Bft) 95,65 %
27.04.2018 10:49 13,6 C 16,7 C 69 % 1014,6 hPa 0,0 l/m 14,1 km/h (3 Bft) O-NO 57 1 min 0,000 mm 2,9 UV-I 735 W/m 8,0 C 9,8 C 20,9 km/h (4 Bft) 100,00 %
27.04.2018 10:50 13,7 C 16,7 C 71 % 1014,6 hPa 0,0 l/m 21,2 km/h (4 Bft) O-NO 74 1 min 0,000 mm 2,9 UV-I 695 W/m 8,5 C 7,7 C 27,4 km/h (4 Bft) 91,30 %
27.04.2018 10:51 13,7 C 16,7 C 70 % 1014,6 hPa 0,0 l/m 14,5 km/h (3 Bft) O 86 1 min 0,000 mm 2,8 UV-I 684 W/m 8,3 C 9,8 C 22,5 km/h (4 Bft) 100,00 %
27.04.2018 10:52 13,8 C 16,7 C 70 % 1014,6 hPa 0,0 l/m 14,3 km/h (3 Bft) NO 51 1 min 0,000 mm 2,9 UV-I 696 W/m 8,4 C 10,0 C 24,1 km/h (4 Bft) 91,30 %
27.04.2018 10:53 13,9 C 16,7 C 67 % 1014,6 hPa 0,0 l/m 16,4 km/h (3 Bft) O 86 1 min 0,000 mm 2,9 UV-I 702 W/m 7,9 C 9,4 C 24,1 km/h (4 Bft) 95,83 %
27.04.2018 10:54 13,9 C 16,7 C 68 % 1014,6 hPa 0,0 l/m 16,3 km/h (3 Bft) NO 55 1 min 0,000 mm 3,0 UV-I 702 W/m 8,1 C 9,4 C 22,5 km/h (4 Bft) 100,00 %
27.04.2018 10:55 13,9 C 16,7 C 69 % 1014,6 hPa 0,0 l/m 19,4 km/h (3 Bft) NO 56 1 min 0,000 mm 3,0 UV-I 748 W/m 8,3 C 8,5 C 25,7 km/h (4 Bft) 95,65 %
27.04.2018 10:56 13,9 C 16,7 C 69 % 1014,6 hPa 0,0 l/m 20,1 km/h (4 Bft) O-NO 62 1 min 0,000 mm 2,8 UV-I 754 W/m 8,3 C 8,3 C 24,1 km/h (4 Bft) 96,30 %
27.04.2018 10:57 13,9 C 16,7 C 68 % 1014,5 hPa 0,0 l/m 17,6 km/h (3 Bft) O-NO 61 1 min 0,000 mm 3,1 UV-I 751 W/m 8,1 C 9,0 C 22,5 km/h (4 Bft) 91,30 %
27.04.2018 10:58 13,9 C 16,7 C 68 % 1014,5 hPa 0,0 l/m 17,0 km/h (3 Bft) NO 49 1 min 0,000 mm 3,0 UV-I 727 W/m 8,1 C 9,2 C 20,9 km/h (4 Bft) 100,00 %
27.04.2018 10:59 13,9 C 16,7 C 67 % 1014,5 hPa 0,0 l/m 18,2 km/h (3 Bft) NO 53 1 min 0,000 mm 3,0 UV-I 708 W/m 7,9 C 8,8 C 22,5 km/h (4 Bft) 95,65 %
27.04.2018 11:00 13,9 C 16,7 C 67 % 1014,4 hPa 0,0 l/m 16,0 km/h (3 Bft) NO 55 1 min 0,000 mm 2,9 UV-I 711 W/m 7,9 C 9,5 C 20,9 km/h (4 Bft) 100,00 %
27.04.2018 11:02 14,0 C 16,7 C 69 % 1014,4 hPa 0,0 l/m 16,4 km/h (3 Bft) O 82 2 min 0,381 mm 3,0 UV-I 681 W/m 8,4 C 9,5 C 22,5 km/h (4 Bft) 98,00 %
27.04.2018 11:03 14,1 C 16,7 C 69 % 1014,3 hPa 0,0 l/m 16,4 km/h (3 Bft) O-SO 105 1 min 0,000 mm 3,0 UV-I 689 W/m 8,5 C 9,6 C 19,3 km/h (3 Bft) 95,65 %
27.04.2018 11:04 14,2 C 16,7 C 66 % 1014,3 hPa 0,0 l/m 12,7 km/h (3 Bft) O 83 1 min 0,000 mm 3,0 UV-I 719 W/m 7,9 C 11,1 C 16,1 km/h (3 Bft) 100,00 %
27.04.2018 11:05 14,2 C 16,7 C 69 % 1014,3 hPa 0,0 l/m 13,6 km/h (3 Bft) NO 48 1 min 0,000 mm 3,1 UV-I 741 W/m 8,6 C 10,7 C 19,3 km/h (3 Bft) 100,00 %
27.04.2018 11:06 14,3 C 16,7 C 69 % 1014,3 hPa 0,0 l/m 14,1 km/h (3 Bft) O 81 1 min 0,000 mm 3,1 UV-I 746 W/m 8,7 C 10,7 C 17,7 km/h (3 Bft) 95,83 %
27.04.2018 11:07 14,4 C 16,7 C 68 % 1014,3 hPa 0,0 l/m 18,8 km/h (3 Bft) O-NO 78 1 min 0,000 mm 3,1 UV-I 741 W/m 8,6 C 9,3 C 25,7 km/h (4 Bft) 95,65 %
27.04.2018 11:08 14,4 C 16,7 C 68 % 1014,2 hPa 0,0 l/m 22,9 km/h (4 Bft) NO 44 1 min 0,000 mm 3,1 UV-I 720 W/m 8,6 C 8,3 C 30,6 km/h (5 Bft) 100,00 %
27.04.2018 11:09 14,5 C 16,7 C 68 % 1014,3 hPa 0,0 l/m 21,8 km/h (4 Bft) O-NO 71 1 min 0,000 mm 3,1 UV-I 701 W/m 8,7 C 8,6 C 25,7 km/h (4 Bft) 100,00 %
27.04.2018 11:10 14,4 C 16,7 C 65 % 1014,2 hPa 0,0 l/m 20,1 km/h (4 Bft) NO 40 1 min 0,000 mm 3,1 UV-I 706 W/m 7,9 C 8,9 C 24,1 km/h (4 Bft) 100,00 %
27.04.2018 11:11 14,4 C 16,7 C 67 % 1014,2 hPa 0,0 l/m 17,9 km/h (3 Bft) O-NO 71 1 min 0,000 mm 3,2 UV-I 718 W/m 8,4 C 9,6 C 20,9 km/h (4 Bft) 100,00 %
27.04.2018 11:12 14,3 C 16,7 C 66 % 1014,3 hPa 0,0 l/m 13,8 km/h (3 Bft) O 94 1 min 0,000 mm 3,2 UV-I 740 W/m 8,0 C 10,8 C 19,3 km/h (3 Bft) 100,00 %
27.04.2018 11:13 14,4 C 16,7 C 67 % 1014,2 hPa 0,0 l/m 14,6 km/h (3 Bft) NO 49 1 min 0,000 mm 3,2 UV-I 747 W/m 8,4 C 10,6 C 19,3 km/h (3 Bft) 100,00 %
27.04.2018 11:14 14,4 C 16,7 C 67 % 1014,2 hPa 0,0 l/m 16,5 km/h (3 Bft) O 80 1 min 0,000 mm 3,3 UV-I 735 W/m 8,4 C 10,0 C 27,4 km/h (4 Bft) 100,00 %
27.04.2018 11:15 14,4 C 16,7 C 65 % 1014,2 hPa 0,0 l/m 17,0 km/h (3 Bft) NO 55 1 min 0,000 mm 3,1 UV-I 679 W/m 7,9 C 9,8 C 22,5 km/h (4 Bft) 96,30 %
27.04.2018 11:16 14,4 C 16,7 C 65 % 1014,2 hPa 0,0 l/m 17,9 km/h (3 Bft) NO 54 1 min 0,000 mm 3,3 UV-I 728 W/m 7,9 C 9,6 C 22,5 km/h (4 Bft) 100,00 %
27.04.2018 11:17 14,5 C 16,7 C 68 % 1014,2 hPa 0,0 l/m 20,2 km/h (4 Bft) NO 52 1 min 0,000 mm 3,2 UV-I 722 W/m 8,7 C 9,0 C 25,7 km/h (4 Bft) 100,00 %
27.04.2018 11:18 14,6 C 16,7 C 66 % 1014,1 hPa 0,0 l/m 22,1 km/h (4 Bft) O-NO 59 1 min 0,000 mm 3,2 UV-I 700 W/m 8,3 C 8,7 C 25,7 km/h (4 Bft) 100,00 %
27.04.2018 11:19 14,6 C 16,7 C 65 % 1014,1 hPa 0,0 l/m 17,6 km/h (3 Bft) O-NO 65 1 min 0,000 mm 3,4 UV-I 763 W/m 8,1 C 9,9 C 22,5 km/h (4 Bft) 100,00 %
27.04.2018 11:20 14,7 C 16,7 C 66 % 1014,2 hPa 0,0 l/m 15,4 km/h (3 Bft) NO 55 1 min 0,000 mm 3,4 UV-I 767 W/m 8,4 C 10,7 C 20,9 km/h (4 Bft) 100,00 %
27.04.2018 11:21 14,8 C 16,7 C 66 % 1014,2 hPa 0,0 l/m 15,4 km/h (3 Bft) NO 45 1 min 0,000 mm 3,4 UV-I 757 W/m 8,5 C 10,8 C 22,5 km/h (4 Bft) 100,00 %
27.04.2018 11:22 14,9 C 16,7 C 65 % 1014,2 hPa 0,0 l/m 17,7 km/h (3 Bft) O-NO 64 1 min 0,000 mm 3,3 UV-I 736 W/m 8,4 C 10,2 C 20,9 km/h (4 Bft) 100,00 %
27.04.2018 11:23 15,0 C 16,7 C 63 % 1014,2 hPa 0,0 l/m 15,2 km/h (3 Bft) O-SO 102 1 min 0,000 mm 3,3 UV-I 761 W/m 8,0 C 11,1 C 19,3 km/h (3 Bft) 100,00 %
27.04.2018 11:24 14,9 C 16,7 C 62 % 1014,2 hPa 0,0 l/m 10,6 km/h (2 Bft) O-NO 74 1 min 0,000 mm 3,4 UV-I 772 W/m 7,7 C 12,7 C 16,1 km/h (3 Bft) 92,86 %
27.04.2018 11:25 14,8 C 16,7 C 62 % 1014,2 hPa 0,0 l/m 19,8 km/h (3 Bft) O 87 1 min 0,000 mm 3,2 UV-I 686 W/m 7,6 C 9,5 C 25,7 km/h (4 Bft) 100,00 %
27.04.2018 11:26 14,7 C 16,7 C 61 % 1014,1 hPa 0,0 l/m 18,9 km/h (3 Bft) O 87 1 min 0,000 mm 3,3 UV-I 736 W/m 7,3 C 9,7 C 24,1 km/h (4 Bft) 96,15 %
27.04.2018 11:27 14,7 C 16,7 C 63 % 1014,1 hPa 0,0 l/m 16,8 km/h (3 Bft) O-NO 66 1 min 0,000 mm 3,4 UV-I 776 W/m 7,7 C 10,3 C 19,3 km/h (3 Bft) 100,00 %
27.04.2018 11:28 14,7 C 16,7 C 64 % 1014,1 hPa 0,0 l/m 19,3 km/h (3 Bft) O-NO 58 1 min 0,000 mm 3,5 UV-I 781 W/m 8,0 C 9,5 C 22,5 km/h (4 Bft) 100,00 %
27.04.2018 11:29 14,7 C 16,7 C 64 % 1014,1 hPa 0,0 l/m 18,7 km/h (3 Bft) O-SO 114 1 min 0,000 mm 3,5 UV-I 768 W/m 8,0 C 9,7 C 27,4 km/h (4 Bft) 100,00 %
27.04.2018 11:30 14,8 C 16,7 C 63 % 1014,1 hPa 0,0 l/m 12,8 km/h (3 Bft) O-NO 76 1 min 0,000 mm 3,5 UV-I 789 W/m 7,8 C 11,7 C 16,1 km/h (3 Bft) 91,30 %
27.04.2018 11:31 14,8 C 16,7 C 63 % 1014,1 hPa 0,0 l/m 16,0 km/h (3 Bft) O 97 1 min 0,000 mm 3,5 UV-I 743 W/m 7,8 C 10,6 C 24,1 km/h (4 Bft) 100,00 %
27.04.2018 11:32 14,8 C 16,7 C 63 % 1014,1 hPa 0,0 l/m 17,5 km/h (3 Bft) NO 55 1 min 0,000 mm 3,5 UV-I 743 W/m 7,8 C 10,2 C 22,5 km/h (4 Bft) 100,00 %
27.04.2018 11:33 14,8 C 16,7 C 62 % 1014,0 hPa 0,0 l/m 17,2 km/h (3 Bft) O 82 1 min 0,000 mm 3,5 UV-I 775 W/m 7,6 C 10,3 C 20,9 km/h (4 Bft) 93,10 %
27.04.2018 11:34 14,9 C 16,7 C 64 % 1014,1 hPa 0,0 l/m 15,3 km/h (3 Bft) O-NO 74 1 min 0,000 mm 3,6 UV-I 777 W/m 8,2 C 11,0 C 20,9 km/h (4 Bft) 100,00 %
27.04.2018 11:35 14,9 C 16,7 C 63 % 1014,0 hPa 0,0 l/m 16,3 km/h (3 Bft) O-NO 59 1 min 0,000 mm 3,4 UV-I 770 W/m 7,9 C 10,7 C 24,1 km/h (4 Bft) 100,00 %
27.04.2018 11:36 14,9 C 16,7 C 62 % 1014,1 hPa 0,0 l/m 19,8 km/h (3 Bft) O 81 1 min 0,000 mm 3,4 UV-I 768 W/m 7,7 C 9,7 C 24,1 km/h (4 Bft) 100,00 %
27.04.2018 11:37 14,9 C 16,7 C 62 % 1014,0 hPa 0,0 l/m 19,4 km/h (3 Bft) O-NO 62 1 min 0,000 mm 3,4 UV-I 726 W/m 7,7 C 9,8 C 24,1 km/h (4 Bft) 100,00 %
27.04.2018 11:38 14,8 C 16,7 C 61 % 1014,0 hPa 0,0 l/m 19,2 km/h (3 Bft) O-NO 78 1 min 0,000 mm 3,5 UV-I 733 W/m 7,4 C 9,7 C 25,7 km/h (4 Bft) 100,00 %
27.04.2018 11:39 14,8 C 16,7 C 61 % 1013,9 hPa 0,0 l/m 15,4 km/h (3 Bft) O-NO 68 1 min 0,000 mm 3,5 UV-I 740 W/m 7,4 C 10,8 C 22,5 km/h (4 Bft) 100,00 %
27.04.2018 11:40 14,9 C 16,7 C 66 % 1014,0 hPa 0,0 l/m 16,2 km/h (3 Bft) NO 56 1 min 0,000 mm 3,5 UV-I 732 W/m 8,6 C 10,7 C 22,5 km/h (4 Bft) 100,00 %
27.04.2018 11:41 15,2 C 16,7 C 67 % 1013,9 hPa 0,0 l/m 20,7 km/h (4 Bft) O-NO 67 1 min 0,000 mm 3,5 UV-I 767 W/m 9,1 C 9,8 C 24,1 km/h (4 Bft) 95,65 %
27.04.2018 11:42 15,2 C 16,7 C 63 % 1013,9 hPa 0,0 l/m 18,6 km/h (3 Bft) O-NO 74 1 min 0,000 mm 3,6 UV-I 761 W/m 8,2 C 10,4 C 25,7 km/h (4 Bft) 100,00 %
27.04.2018 11:43 15,2 C 16,7 C 61 % 1013,9 hPa 0,0 l/m 17,0 km/h (3 Bft) O-NO 70 1 min 0,000 mm 3,6 UV-I 764 W/m 7,7 C 10,8 C 20,9 km/h (4 Bft) 100,00 %
27.04.2018 11:44 15,3 C 16,7 C 62 % 1013,9 hPa 0,0 l/m 18,9 km/h (3 Bft) O-NO 57 1 min 0,000 mm 3,6 UV-I 776 W/m 8,1 C 10,4 C 24,1 km/h (4 Bft) 100,00 %
27.04.2018 11:45 15,3 C 16,7 C 63 % 1013,9 hPa 0,0 l/m 22,7 km/h (4 Bft) NO 53 1 min 0,000 mm 3,5 UV-I 779 W/m 8,3 C 9,5 C 30,6 km/h (5 Bft) 100,00 %
27.04.2018 11:46 15,3 C 16,7 C 63 % 1013,9 hPa 0,0 l/m 18,8 km/h (3 Bft) O-NO 58 1 min 0,000 mm 3,5 UV-I 779 W/m 8,3 C 10,4 C 25,7 km/h (4 Bft) 91,67 %
27.04.2018 11:47 15,4 C 16,7 C 65 % 1013,8 hPa 0,0 l/m 18,8 km/h (3 Bft) O-NO 57 1 min 0,000 mm 3,7 UV-I 792 W/m 8,9 C 10,6 C 24,1 km/h (4 Bft) 100,00 %
27.04.2018 11:48 15,6 C 16,7 C 65 % 1013,8 hPa 0,0 l/m 16,3 km/h (3 Bft) O-NO 59 1 min 0,000 mm 3,7 UV-I 799 W/m 9,0 C 11,5 C 20,9 km/h (4 Bft) 100,00 %
27.04.2018 11:49 15,6 C 16,7 C 62 % 1013,8 hPa 0,0 l/m 17,1 km/h (3 Bft) O-NO 76 1 min 0,000 mm 3,6 UV-I 828 W/m 8,3 C 11,3 C 22,5 km/h (4 Bft) 100,00 %
27.04.2018 11:50 15,6 C 16,7 C 61 % 1013,9 hPa 0,0 l/m 20,6 km/h (4 Bft) O-NO 69 1 min 0,000 mm 3,6 UV-I 828 W/m 8,1 C 10,4 C 24,1 km/h (4 Bft) 95,83 %
27.04.2018 11:51 15,6 C 16,7 C 61 % 1013,8 hPa 0,0 l/m 16,3 km/h (3 Bft) O-NO 71 1 min 0,000 mm 3,8 UV-I 823 W/m 8,1 C 11,5 C 19,3 km/h (3 Bft) 100,00 %
27.04.2018 11:52 15,6 C 16,7 C 61 % 1013,7 hPa 0,0 l/m 12,5 km/h (3 Bft) O-NO 78 1 min 0,000 mm 3,7 UV-I 819 W/m 8,1 C 12,8 C 17,7 km/h (3 Bft) 95,65 %
27.04.2018 11:53 15,7 C 16,7 C 61 % 1013,8 hPa 0,0 l/m 15,7 km/h (3 Bft) O 88 1 min 0,000 mm 3,6 UV-I 788 W/m 8,2 C 11,8 C 22,5 km/h (4 Bft) 100,00 %
27.04.2018 11:54 15,6 C 16,7 C 59 % 1013,8 hPa 0,0 l/m 17,1 km/h (3 Bft) O-NO 65 1 min 0,000 mm 3,7 UV-I 782 W/m 7,6 C 11,3 C 22,5 km/h (4 Bft) 100,00 %
27.04.2018 11:55 15,6 C 16,7 C 60 % 1013,7 hPa 0,0 l/m 16,2 km/h (3 Bft) O-NO 73 1 min 0,000 mm 3,5 UV-I 754 W/m 7,9 C 11,5 C 22,5 km/h (4 Bft) 100,00 %
27.04.2018 11:56 15,6 C 16,7 C 59 % 1013,7 hPa 0,0 l/m 18,5 km/h (3 Bft) O 98 1 min 0,000 mm 3,2 UV-I 659 W/m 7,6 C 10,9 C 22,5 km/h (4 Bft) 100,00 %
27.04.2018 11:57 15,6 C 16,7 C 61 % 1013,5 hPa 0,0 l/m 16,2 km/h (3 Bft) O 94 1 min 0,000 mm 3,4 UV-I 674 W/m 8,1 C 11,5 C 25,7 km/h (4 Bft) 100,00 %
27.04.2018 11:58 15,6 C 16,7 C 60 % 1013,7 hPa 0,0 l/m 21,6 km/h (4 Bft) O 97 1 min 0,000 mm 3,6 UV-I 756 W/m 7,9 C 10,1 C 27,4 km/h (4 Bft) 100,00 %
27.04.2018 11:59 15,6 C 16,7 C 58 % 1013,7 hPa 0,0 l/m 19,9 km/h (4 Bft) O-NO 70 1 min 0,000 mm 3,7 UV-I 793 W/m 7,4 C 10,5 C 25,7 km/h (4 Bft) 100,00 %
27.04.2018 12:00 15,6 C 16,7 C 59 % 1013,7 hPa 0,0 l/m 19,8 km/h (3 Bft) O 90 1 min 0,457 mm 3,8 UV-I 763 W/m 7,6 C 10,6 C 24,1 km/h (4 Bft) 100,00 %
27.04.2018 12:02 15,6 C 16,7 C 60 % 1013,6 hPa 0,0 l/m 18,2 km/h (3 Bft) O-NO 64 2 min 0,000 mm 3,9 UV-I 829 W/m 7,9 C 11,0 C 25,7 km/h (4 Bft) 100,00 %
27.04.2018 12:03 15,7 C 16,7 C 61 % 1013,6 hPa 0,0 l/m 14,1 km/h (3 Bft) O 81 1 min 0,000 mm 4,0 UV-I 849 W/m 8,2 C 12,3 C 16,1 km/h (3 Bft) 100,00 %
27.04.2018 12:04 15,7 C 16,7 C 60 % 1013,6 hPa 0,0 l/m 11,0 km/h (2 Bft) O 89 1 min 0,000 mm 4,0 UV-I 845 W/m 8,0 C 13,5 C 16,1 km/h (3 Bft) 95,83 %
27.04.2018 12:05 15,7 C 16,7 C 60 % 1013,6 hPa 0,0 l/m 8,4 km/h (2 Bft) O 80 1 min 0,000 mm 3,9 UV-I 826 W/m 8,0 C 14,6 C 16,1 km/h (3 Bft) 100,00 %
27.04.2018 12:06 15,8 C 16,7 C 61 % 1013,6 hPa 0,0 l/m 16,7 km/h (3 Bft) O-NO 63 1 min 0,000 mm 3,9 UV-I 786 W/m 8,3 C 11,7 C 22,5 km/h (4 Bft) 95,83 %
27.04.2018 12:07 15,9 C 16,7 C 62 % 1013,5 hPa 0,0 l/m 17,3 km/h (3 Bft) O-NO 76 1 min 0,000 mm 4,0 UV-I 814 W/m 8,6 C 11,6 C 20,9 km/h (4 Bft) 100,00 %
27.04.2018 12:08 15,9 C 16,7 C 59 % 1013,6 hPa 0,0 l/m 18,8 km/h (3 Bft) O-NO 69 1 min 0,000 mm 4,0 UV-I 797 W/m 7,9 C 11,2 C 24,1 km/h (4 Bft) 91,67 %
27.04.2018 12:09 16,0 C 16,7 C 61 % 1013,6 hPa 0,0 l/m 19,0 km/h (3 Bft) NO 51 1 min 0,000 mm 4,0 UV-I 744 W/m 8,5 C 11,3 C 25,7 km/h (4 Bft) 100,00 %
27.04.2018 12:10 16,0 C 16,7 C 61 % 1013,5 hPa 0,0 l/m 17,5 km/h (3 Bft) O-NO 74 1 min 0,000 mm 4,0 UV-I 789 W/m 8,5 C 11,7 C 24,1 km/h (4 Bft) 95,83 %
27.04.2018 12:11 16,0 C 16,7 C 59 % 1013,6 hPa 0,0 l/m 17,0 km/h (3 Bft) O-NO 74 1 min 0,000 mm 3,9 UV-I 777 W/m 8,0 C 11,8 C 22,5 km/h (4 Bft) 96,55 %
27.04.2018 12:12 16,0 C 16,7 C 59 % 1013,6 hPa 0,0 l/m 15,4 km/h (3 Bft) O-NO 73 1 min 0,000 mm 4,0 UV-I 822 W/m 8,0 C 12,3 C 19,3 km/h (3 Bft) 100,00 %
27.04.2018 12:13 16,1 C 16,7 C 62 % 1013,5 hPa 0,0 l/m 16,3 km/h (3 Bft) O-SO 103 1 min 0,000 mm 3,9 UV-I 801 W/m 8,8 C 12,1 C 22,5 km/h (4 Bft) 95,65 %
27.04.2018 12:14 16,1 C 16,7 C 60 % 1013,5 hPa 0,0 l/m 16,2 km/h (3 Bft) O-NO 61 1 min 0,000 mm 3,9 UV-I 773 W/m 8,3 C 12,2 C 20,9 km/h (4 Bft) 100,00 %
27.04.2018 12:15 16,2 C 16,7 C 60 % 1013,5 hPa 0,0 l/m 11,0 km/h (2 Bft) O-SO 111 1 min 0,000 mm 3,8 UV-I 761 W/m 8,4 C 14,0 C 16,1 km/h (3 Bft) 91,30 %
27.04.2018 12:16 16,2 C 16,7 C 61 % 1013,5 hPa 0,0 l/m 12,1 km/h (2 Bft) O 82 1 min 0,000 mm 3,8 UV-I 780 W/m 8,7 C 13,6 C 20,9 km/h (4 Bft) 95,83 %
27.04.2018 12:17 16,3 C 16,7 C 64 % 1013,5 hPa 0,0 l/m 16,6 km/h (3 Bft) O 92 1 min 0,000 mm 3,9 UV-I 802 W/m 9,5 C 12,3 C 22,5 km/h (4 Bft) 95,65 %
27.04.2018 12:18 16,4 C 16,7 C 59 % 1013,4 hPa 0,0 l/m 20,6 km/h (4 Bft) O-NO 78 1 min 0,000 mm 4,0 UV-I 813 W/m 8,4 C 11,4 C 30,6 km/h (5 Bft) 95,83 %
27.04.2018 12:19 16,4 C 16,7 C 58 % 1013,4 hPa 0,0 l/m 16,7 km/h (3 Bft) O-NO 61 1 min 0,000 mm 4,0 UV-I 784 W/m 8,1 C 12,4 C 24,1 km/h (4 Bft) 96,15 %
27.04.2018 12:20 16,4 C 16,7 C 60 % 1013,3 hPa 0,0 l/m 18,2 km/h (3 Bft) NO 36 1 min 0,000 mm 4,0 UV-I 801 W/m 8,6 C 12,0 C 25,7 km/h (4 Bft) 91,67 %
27.04.2018 12:21 16,5 C 16,7 C 63 % 1013,4 hPa 0,0 l/m 21,4 km/h (4 Bft) N-NO 28 1 min 0,000 mm 4,0 UV-I 808 W/m 9,4 C 11,4 C 27,4 km/h (4 Bft) 92,59 %
27.04.2018 12:22 16,5 C 16,7 C 60 % 1013,3 hPa 0,0 l/m 19,5 km/h (3 Bft) NO 53 1 min 0,000 mm 3,9 UV-I 790 W/m 8,7 C 11,8 C 24,1 km/h (4 Bft) 87,50 %
27.04.2018 12:23 16,5 C 16,7 C 61 % 1013,3 hPa 0,0 l/m 20,3 km/h (4 Bft) N-NO 32 1 min 0,000 mm 3,9 UV-I 779 W/m 9,0 C 11,6 C 25,7 km/h (4 Bft) 95,65 %
27.04.2018 12:24 16,6 C 16,7 C 62 % 1013,2 hPa 0,0 l/m 18,3 km/h (3 Bft) N-NO 17 1 min 0,000 mm 3,9 UV-I 759 W/m 9,3 C 12,2 C 20,9 km/h (4 Bft) 96,30 %
27.04.2018 12:25 16,6 C 16,7 C 61 % 1013,2 hPa 0,0 l/m 16,9 km/h (3 Bft) O-NO 61 1 min 0,000 mm 3,9 UV-I 768 W/m 9,0 C 12,6 C 22,5 km/h (4 Bft) 95,65 %
27.04.2018 12:26 16,6 C 16,7 C 61 % 1013,2 hPa 0,0 l/m 16,7 km/h (3 Bft) NO 42 1 min 0,000 mm 4,0 UV-I 794 W/m 9,0 C 12,6 C 20,9 km/h (4 Bft) 95,83 %
27.04.2018 12:27 16,6 C 16,7 C 61 % 1013,2 hPa 0,0 l/m 12,2 km/h (2 Bft) O 100 1 min 0,000 mm 4,0 UV-I 793 W/m 9,0 C 14,0 C 22,5 km/h (4 Bft) 96,15 %
27.04.2018 12:28 16,6 C 16,7 C 57 % 1013,2 hPa 0,0 l/m 18,0 km/h (3 Bft) O-NO 65 1 min 0,000 mm 4,0 UV-I 781 W/m 8,0 C 12,3 C 24,1 km/h (4 Bft) 91,67 %
27.04.2018 12:29 16,6 C 16,7 C 58 % 1013,1 hPa 0,0 l/m 16,1 km/h (3 Bft) O-NO 60 1 min 0,000 mm 4,0 UV-I 772 W/m 8,3 C 12,8 C 20,9 km/h (4 Bft) 93,33 %
27.04.2018 12:30 16,5 C 16,7 C 58 % 1013,1 hPa 0,0 l/m 16,2 km/h (3 Bft) O-NO 61 1 min 0,000 mm 4,0 UV-I 777 W/m 8,2 C 12,7 C 22,5 km/h (4 Bft) 95,65 %
27.04.2018 12:31 16,6 C 16,7 C 59 % 1013,1 hPa 0,0 l/m 16,6 km/h (3 Bft) O-NO 66 1 min 0,000 mm 4,0 UV-I 787 W/m 8,6 C 12,7 C 22,5 km/h (4 Bft) 95,83 %
27.04.2018 12:32 16,6 C 16,7 C 59 % 1013,1 hPa 0,0 l/m 22,9 km/h (4 Bft) NO 52 1 min 0,000 mm 4,0 UV-I 805 W/m 8,6 C 11,2 C 32,2 km/h (5 Bft) 86,96 %
27.04.2018 12:33 16,7 C 16,7 C 61 % 1013,0 hPa 0,0 l/m 17,8 km/h (3 Bft) NO 51 1 min 0,000 mm 4,1 UV-I 810 W/m 9,1 C 12,5 C 24,1 km/h (4 Bft) 100,00 %
27.04.2018 12:34 16,8 C 16,7 C 62 % 1013,0 hPa 0,0 l/m 14,8 km/h (3 Bft) O-NO 69 1 min 0,000 mm 4,1 UV-I 790 W/m 9,5 C 13,4 C 19,3 km/h (3 Bft) 86,96 %
27.04.2018 12:35 16,8 C 16,7 C 59 % 1013,0 hPa 0,0 l/m 15,7 km/h (3 Bft) O-NO 67 1 min 0,000 mm 4,1 UV-I 787 W/m 8,7 C 13,2 C 19,3 km/h (3 Bft) 95,83 %
27.04.2018 12:36 16,9 C 16,7 C 63 % 1013,0 hPa 0,0 l/m 14,1 km/h (3 Bft) O-NO 58 1 min 0,000 mm 4,0 UV-I 800 W/m 9,8 C 13,8 C 19,3 km/h (3 Bft) 95,65 %
27.04.2018 12:37 17,1 C 16,7 C 65 % 1013,0 hPa 0,0 l/m 20,6 km/h (4 Bft) O 80 1 min 0,000 mm 4,1 UV-I 820 W/m 10,5 C 12,3 C 24,1 km/h (4 Bft) 95,83 %
27.04.2018 12:38 17,1 C 16,7 C 60 % 1012,9 hPa 0,0 l/m 18,2 km/h (3 Bft) O-SO 103 1 min 0,000 mm 4,1 UV-I 826 W/m 9,3 C 12,9 C 27,4 km/h (4 Bft) 96,15 %
27.04.2018 12:39 17,0 C 16,7 C 59 % 1012,9 hPa 0,0 l/m 15,3 km/h (3 Bft) O-NO 61 1 min 0,000 mm 4,2 UV-I 832 W/m 8,9 C 13,5 C 22,5 km/h (4 Bft) 91,67 %
27.04.2018 12:40 17,0 C 16,7 C 59 % 1012,9 hPa 0,0 l/m 19,2 km/h (3 Bft) NO 38 1 min 0,000 mm 4,1 UV-I 829 W/m 8,9 C 12,5 C 25,7 km/h (4 Bft) 95,65 %
27.04.2018 12:41 16,9 C 16,7 C 57 % 1012,9 hPa 0,0 l/m 17,0 km/h (3 Bft) O 80 1 min 0,000 mm 4,1 UV-I 827 W/m 8,3 C 12,9 C 22,5 km/h (4 Bft) 91,67 %
27.04.2018 12:42 16,9 C 16,7 C 59 % 1012,9 hPa 0,0 l/m 18,7 km/h (3 Bft) NO 49 1 min 0,000 mm 4,1 UV-I 809 W/m 8,8 C 12,5 C 24,1 km/h (4 Bft) 95,65 %
27.04.2018 12:43 17,0 C 16,7 C 61 % 1012,9 hPa 0,0 l/m 18,7 km/h (3 Bft) O-NO 73 1 min 0,000 mm 4,1 UV-I 794 W/m 9,4 C 12,6 C 24,1 km/h (4 Bft) 91,67 %
27.04.2018 12:44 17,1 C 16,7 C 60 % 1012,8 hPa 0,0 l/m 18,1 km/h (3 Bft) O-NO 60 1 min 0,000 mm 4,1 UV-I 803 W/m 9,3 C 12,9 C 22,5 km/h (4 Bft) 100,00 %
27.04.2018 12:45 17,2 C 16,7 C 57 % 1012,8 hPa 0,0 l/m 15,7 km/h (3 Bft) NO 39 1 min 0,000 mm 4,0 UV-I 781 W/m 8,6 C 13,7 C 25,7 km/h (4 Bft) 93,75 %
27.04.2018 12:46 17,2 C 16,7 C 59 % 1012,8 hPa 0,0 l/m 19,0 km/h (3 Bft) NO 51 1 min 0,000 mm 3,9 UV-I 723 W/m 9,1 C 12,8 C 29,0 km/h (5 Bft) 95,83 %
27.04.2018 12:47 17,2 C 16,7 C 60 % 1012,7 hPa 0,0 l/m 17,5 km/h (3 Bft) O 81 1 min 0,000 mm 3,9 UV-I 737 W/m 9,4 C 13,2 C 29,0 km/h (5 Bft) 100,00 %
27.04.2018 12:48 17,1 C 16,7 C 58 % 1012,7 hPa 0,0 l/m 19,8 km/h (3 Bft) NO 46 1 min 0,000 mm 4,0 UV-I 790 W/m 8,8 C 12,5 C 27,4 km/h (4 Bft) 95,83 %
27.04.2018 12:49 17,1 C 16,7 C 59 % 1012,6 hPa 0,0 l/m 20,5 km/h (4 Bft) NO 51 1 min 0,000 mm 4,0 UV-I 796 W/m 9,0 C 12,3 C 25,7 km/h (4 Bft) 100,00 %
27.04.2018 12:50 17,2 C 16,7 C 58 % 1012,6 hPa 0,0 l/m 22,5 km/h (4 Bft) O-NO 75 1 min 0,000 mm 4,1 UV-I 784 W/m 8,9 C 12,1 C 27,4 km/h (4 Bft) 91,67 %
27.04.2018 12:51 17,1 C 16,7 C 56 % 1012,6 hPa 0,0 l/m 20,4 km/h (4 Bft) O 80 1 min 0,000 mm 4,0 UV-I 778 W/m 8,3 C 12,4 C 25,7 km/h (4 Bft) 100,00 %
27.04.2018 12:52 17,0 C 16,7 C 56 % 1012,6 hPa 0,0 l/m 18,2 km/h (3 Bft) O 82 1 min 0,000 mm 4,0 UV-I 771 W/m 8,2 C 12,8 C 20,9 km/h (4 Bft) 95,83 %
27.04.2018 12:53 16,9 C 17,2 C 57 % 1012,6 hPa 0,0 l/m 19,9 km/h (4 Bft) O 96 1 min 0,000 mm 4,0 UV-I 791 W/m 8,3 C 12,2 C 25,7 km/h (4 Bft) 100,00 %
27.04.2018 12:54 16,9 C 16,7 C 57 % 1012,6 hPa 0,0 l/m 17,9 km/h (3 Bft) O 84 1 min 0,000 mm 4,0 UV-I 771 W/m 8,3 C 12,7 C 20,9 km/h (4 Bft) 91,67 %
27.04.2018 12:55 16,9 C 16,7 C 58 % 1012,5 hPa 0,0 l/m 18,8 km/h (3 Bft) NO 55 1 min 0,000 mm 3,9 UV-I 764 W/m 8,6 C 12,5 C 22,5 km/h (4 Bft) 95,65 %
27.04.2018 12:56 17,1 C 16,7 C 60 % 1012,5 hPa 0,0 l/m 16,4 km/h (3 Bft) O-NO 67 1 min 0,000 mm 4,0 UV-I 801 W/m 9,3 C 13,3 C 20,9 km/h (4 Bft) 100,00 %
27.04.2018 12:57 17,1 C 16,7 C 59 % 1012,5 hPa 0,0 l/m 20,8 km/h (4 Bft) O-NO 63 1 min 0,000 mm 4,1 UV-I 816 W/m 9,0 C 12,3 C 29,0 km/h (5 Bft) 96,15 %
27.04.2018 12:58 17,2 C 16,7 C 59 % 1012,4 hPa 0,0 l/m 20,0 km/h (4 Bft) NO 45 1 min 0,000 mm 4,1 UV-I 823 W/m 9,1 C 12,6 C 29,0 km/h (5 Bft) 100,00 %
27.04.2018 12:59 17,2 C 17,2 C 59 % 1012,4 hPa 0,0 l/m 19,0 km/h (3 Bft) O-NO 69 1 min 0,000 mm 4,1 UV-I 816 W/m 9,1 C 12,8 C 24,1 km/h (4 Bft) 95,65 %
27.04.2018 13:00 17,3 C 17,2 C 59 % 1012,4 hPa 0,0 l/m 20,3 km/h (4 Bft) O-NO 65 1 min 0,000 mm 4,2 UV-I 828 W/m 9,2 C 12,7 C 27,4 km/h (4 Bft) 100,00 %
27.04.2018 13:02 17,2 C 17,2 C 55 % 1012,4 hPa 0,0 l/m 20,8 km/h (4 Bft) O-NO 57 2 min 0,508 mm 4,1 UV-I 805 W/m 8,1 C 12,4 C 25,7 km/h (4 Bft) 97,37 %
27.04.2018 13:03 17,2 C 17,2 C 56 % 1012,4 hPa 0,0 l/m 21,8 km/h (4 Bft) O-NO 69 1 min 0,000 mm 4,0 UV-I 791 W/m 8,3 C 12,2 C 29,0 km/h (5 Bft) 95,83 %
27.04.2018 13:04 17,1 C 17,2 C 58 % 1012,3 hPa 0,0 l/m 17,6 km/h (3 Bft) O-NO 57 1 min 0,000 mm 4,1 UV-I 798 W/m 8,8 C 13,0 C 22,5 km/h (4 Bft) 100,00 %
27.04.2018 13:05 17,2 C 17,2 C 58 % 1012,3 hPa 0,0 l/m 18,0 km/h (3 Bft) N-NO 30 1 min 0,000 mm 4,1 UV-I 800 W/m 8,9 C 13,1 C 24,1 km/h (4 Bft) 91,67 %
27.04.2018 13:06 17,3 C 17,2 C 59 % 1012,3 hPa 0,0 l/m 17,6 km/h (3 Bft) N-NO 21 1 min 0,000 mm 4,0 UV-I 753 W/m 9,2 C 13,3 C 25,7 km/h (4 Bft) 100,00 %
27.04.2018 13:07 17,5 C 17,2 C 62 % 1012,3 hPa 0,0 l/m 21,8 km/h (4 Bft) NO 55 1 min 0,000 mm 4,0 UV-I 755 W/m 10,1 C 12,6 C 30,6 km/h (5 Bft) 96,30 %
27.04.2018 13:08 17,5 C 17,2 C 59 % 1012,2 hPa 0,0 l/m 23,1 km/h (4 Bft) NO 42 1 min 0,000 mm 4,0 UV-I 770 W/m 9,4 C 12,3 C 29,0 km/h (5 Bft) 95,65 %
27.04.2018 13:09 17,5 C 17,2 C 59 % 1012,2 hPa 0,0 l/m 20,0 km/h (4 Bft) O-NO 62 1 min 0,000 mm 4,1 UV-I 821 W/m 9,4 C 13,0 C 29,0 km/h (5 Bft) 100,00 %
27.04.2018 13:10 17,5 C 17,2 C 59 % 1012,2 hPa 0,0 l/m 17,9 km/h (3 Bft) NO 40 1 min 0,000 mm 4,2 UV-I 844 W/m 9,4 C 13,5 C 22,5 km/h (4 Bft) 92,31 %
27.04.2018 13:11 17,5 C 17,2 C 59 % 1012,1 hPa 0,0 l/m 18,2 km/h (3 Bft) NO 34 1 min 0,000 mm 4,2 UV-I 823 W/m 9,4 C 13,4 C 24,1 km/h (4 Bft) 100,00 %
27.04.2018 13:12 17,6 C 17,2 C 60 % 1012,1 hPa 0,0 l/m 19,0 km/h (3 Bft) N-NO 32 1 min 0,000 mm 4,2 UV-I 821 W/m 9,7 C 13,3 C 20,9 km/h (4 Bft) 96,67 %
27.04.2018 13:13 17,6 C 17,2 C 62 % 1012,1 hPa 0,0 l/m 14,9 km/h (3 Bft) NO 45 1 min 0,000 mm 4,1 UV-I 805 W/m 10,2 C 14,4 C 19,3 km/h (3 Bft) 100,00 %
27.04.2018 13:14 17,7 C 17,2 C 59 % 1012,1 hPa 0,0 l/m 15,1 km/h (3 Bft) O 84 1 min 0,000 mm 4,1 UV-I 802 W/m 9,6 C 14,4 C 20,9 km/h (4 Bft) 96,15 %
27.04.2018 13:15 17,7 C 17,2 C 56 % 1012,1 hPa 0,0 l/m 19,6 km/h (3 Bft) O 101 1 min 0,000 mm 4,0 UV-I 798 W/m 8,8 C 13,3 C 22,5 km/h (4 Bft) 100,00 %
27.04.2018 13:16 17,6 C 17,2 C 55 % 1012,1 hPa 0,0 l/m 16,8 km/h (3 Bft) O 90 1 min 0,000 mm 3,9 UV-I 742 W/m 8,5 C 13,9 C 22,5 km/h (4 Bft) 95,65 %
27.04.2018 13:17 17,6 C 17,2 C 56 % 1012,1 hPa 0,0 l/m 20,0 km/h (4 Bft) O 82 1 min 0,000 mm 4,0 UV-I 752 W/m 8,7 C 13,1 C 29,0 km/h (5 Bft) 91,67 %
27.04.2018 13:18 17,5 C 17,2 C 56 % 1012,1 hPa 0,0 l/m 20,7 km/h (4 Bft) O-NO 68 1 min 0,000 mm 4,0 UV-I 758 W/m 8,6 C 12,8 C 24,1 km/h (4 Bft) 95,65 %
27.04.2018 13:19 17,5 C 17,2 C 55 % 1012,0 hPa 0,0 l/m 17,6 km/h (3 Bft) O 88 1 min 0,000 mm 4,0 UV-I 781 W/m 8,4 C 13,5 C 25,7 km/h (4 Bft) 95,83 %
27.04.2018 13:20 17,5 C 17,2 C 56 % 1012,0 hPa 0,0 l/m 15,2 km/h (3 Bft) O-NO 67 1 min 0,000 mm 4,0 UV-I 797 W/m 8,6 C 14,2 C 20,9 km/h (4 Bft) 100,00 %
27.04.2018 13:21 17,6 C 17,2 C 57 % 1012,0 hPa 0,0 l/m 16,9 km/h (3 Bft) O-NO 69 1 min 0,000 mm 4,1 UV-I 802 W/m 9,0 C 13,8 C 20,9 km/h (4 Bft) 95,83 %
27.04.2018 13:22 17,6 C 17,2 C 57 % 1011,9 hPa 0,0 l/m 20,4 km/h (4 Bft) O-SO 121 1 min 0,000 mm 4,0 UV-I 795 W/m 9,0 C 13,0 C 25,7 km/h (4 Bft) 100,00 %
27.04.2018 13:23 17,7 C 17,2 C 55 % 1012,0 hPa 0,0 l/m 22,6 km/h (4 Bft) O-NO 63 1 min 0,000 mm 4,0 UV-I 777 W/m 8,5 C 12,7 C 27,4 km/h (4 Bft) 93,33 %
27.04.2018 13:24 17,7 C 17,2 C 56 % 1011,9 hPa 0,0 l/m 20,6 km/h (4 Bft) O-NO 71 1 min 0,000 mm 4,0 UV-I 744 W/m 8,8 C 13,1 C 27,4 km/h (4 Bft) 100,00 %
27.04.2018 13:25 17,7 C 17,2 C 56 % 1011,9 hPa 0,0 l/m 12,9 km/h (3 Bft) O 101 1 min 0,000 mm 4,0 UV-I 791 W/m 8,8 C 15,1 C 19,3 km/h (3 Bft) 96,15 %
27.04.2018 13:26 17,7 C 17,2 C 57 % 1011,9 hPa 0,0 l/m 13,2 km/h (3 Bft) O-NO 66 1 min 0,000 mm 4,1 UV-I 817 W/m 9,1 C 15,0 C 16,1 km/h (3 Bft) 100,00 %
27.04.2018 13:27 17,8 C 17,2 C 58 % 1011,9 hPa 0,0 l/m 17,4 km/h (3 Bft) O-NO 71 1 min 0,000 mm 4,2 UV-I 847 W/m 9,4 C 14,0 C 22,5 km/h (4 Bft) 95,65 %
27.04.2018 13:28 17,9 C 17,2 C 58 % 1011,8 hPa 0,0 l/m 15,6 km/h (3 Bft) NO 42 1 min 0,000 mm 4,2 UV-I 838 W/m 9,5 C 14,5 C 24,1 km/h (4 Bft) 95,83 %
27.04.2018 13:29 17,9 C 17,2 C 57 % 1011,8 hPa 0,0 l/m 20,9 km/h (4 Bft) O-NO 58 1 min 0,000 mm 4,2 UV-I 836 W/m 9,3 C 13,3 C 30,6 km/h (5 Bft) 100,00 %
27.04.2018 13:30 17,9 C 17,2 C 58 % 1011,8 hPa 0,0 l/m 20,1 km/h (4 Bft) O-NO 76 1 min 0,000 mm 4,1 UV-I 823 W/m 9,5 C 13,5 C 25,7 km/h (4 Bft) 95,83 %
27.04.2018 13:31 17,9 C 17,2 C 55 % 1011,8 hPa 0,0 l/m 15,5 km/h (3 Bft) O-NO 66 1 min 0,000 mm 4,1 UV-I 810 W/m 8,7 C 14,6 C 20,9 km/h (4 Bft) 100,00 %
27.04.2018 13:32 17,9 C 17,2 C 56 % 1011,8 hPa 0,0 l/m 14,4 km/h (3 Bft) NO 44 1 min 0,000 mm 4,0 UV-I 785 W/m 9,0 C 14,9 C 19,3 km/h (3 Bft) 95,83 %
27.04.2018 13:33 17,9 C 17,2 C 59 % 1011,8 hPa 0,0 l/m 18,5 km/h (3 Bft) NO 44 1 min 0,000 mm 4,0 UV-I 777 W/m 9,8 C 13,8 C 25,7 km/h (4 Bft) 92,86 %
27.04.2018 13:34 18,0 C 17,2 C 57 % 1011,8 hPa 0,0 l/m 16,6 km/h (3 Bft) NO 36 1 min 0,000 mm 4,1 UV-I 810 W/m 9,4 C 14,4 C 20,9 km/h (4 Bft) 91,67 %
27.04.2018 13:35 18,1 C 17,2 C 59 % 1011,8 hPa 0,0 l/m 11,7 km/h (2 Bft) O 88 1 min 0,000 mm 4,1 UV-I 807 W/m 10,0 C 15,9 C 14,5 km/h (3 Bft) 100,00 %
27.04.2018 13:36 18,2 C 17,2 C 57 % 1011,8 hPa 0,0 l/m 15,9 km/h (3 Bft) O 80 1 min 0,000 mm 4,1 UV-I 800 W/m 9,5 C 14,8 C 22,5 km/h (4 Bft) 95,83 %
27.04.2018 13:37 18,1 C 17,2 C 53 % 1011,8 hPa 0,0 l/m 18,8 km/h (3 Bft) O 81 1 min 0,000 mm 4,1 UV-I 812 W/m 8,4 C 14,0 C 25,7 km/h (4 Bft) 100,00 %
27.04.2018 13:38 18,1 C 17,2 C 56 % 1011,8 hPa 0,0 l/m 19,7 km/h (3 Bft) O-NO 72 1 min 0,000 mm 4,1 UV-I 816 W/m 9,2 C 13,8 C 29,0 km/h (5 Bft) 95,83 %
27.04.2018 13:39 18,1 C 17,2 C 57 % 1011,8 hPa 0,0 l/m 20,3 km/h (4 Bft) NO 55 1 min 0,000 mm 4,0 UV-I 796 W/m 9,4 C 13,7 C 29,0 km/h (5 Bft) 100,00 %
27.04.2018 13:40 18,1 C 17,2 C 56 % 1011,7 hPa 0,0 l/m 18,9 km/h (3 Bft) O-NO 68 1 min 0,000 mm 4,0 UV-I 806 W/m 9,2 C 14,0 C 27,4 km/h (4 Bft) 96,15 %
27.04.2018 13:41 18,2 C 17,2 C 57 % 1011,6 hPa 0,0 l/m 20,0 km/h (4 Bft) O-NO 73 1 min 0,000 mm 4,0 UV-I 788 W/m 9,5 C 13,9 C 27,4 km/h (4 Bft) 91,30 %
27.04.2018 13:42 18,2 C 17,2 C 54 % 1011,7 hPa 0,0 l/m 17,6 km/h (3 Bft) O 92 1 min 0,000 mm 4,0 UV-I 764 W/m 8,7 C 14,4 C 22,5 km/h (4 Bft) 100,00 %
27.04.2018 13:43 18,1 C 17,2 C 54 % 1011,6 hPa 0,0 l/m 19,0 km/h (3 Bft) O-NO 69 1 min 0,000 mm 3,9 UV-I 748 W/m 8,6 C 14,0 C 24,1 km/h (4 Bft) 95,65 %
27.04.2018 13:44 18,1 C 17,2 C 55 % 1011,6 hPa 0,0 l/m 21,3 km/h (4 Bft) O-NO 68 1 min 0,000 mm 4,0 UV-I 763 W/m 8,9 C 13,5 C 29,0 km/h (5 Bft) 100,00 %
27.04.2018 13:45 18,1 C 17,2 C 58 % 1011,6 hPa 0,0 l/m 18,1 km/h (3 Bft) O 79 1 min 0,000 mm 3,9 UV-I 770 W/m 9,7 C 14,2 C 25,7 km/h (4 Bft) 95,83 %
27.04.2018 13:46 18,1 C 17,2 C 56 % 1011,6 hPa 0,0 l/m 17,1 km/h (3 Bft) O 98 1 min 0,000 mm 4,0 UV-I 781 W/m 9,2 C 14,4 C 25,7 km/h (4 Bft) 100,00 %
27.04.2018 13:47 18,2 C 17,2 C 56 % 1011,6 hPa 0,0 l/m 22,6 km/h (4 Bft) O 88 1 min 0,000 mm 4,0 UV-I 791 W/m 9,3 C 13,4 C 30,6 km/h (5 Bft) 95,83 %
27.04.2018 13:48 18,1 C 17,2 C 54 % 1011,6 hPa 0,0 l/m 22,4 km/h (4 Bft) O-NO 61 1 min 0,000 mm 4,0 UV-I 787 W/m 8,6 C 13,3 C 29,0 km/h (5 Bft) 100,00 %
27.04.2018 13:49 18,1 C 17,2 C 55 % 1011,6 hPa 0,0 l/m 17,6 km/h (3 Bft) O 87 1 min 0,000 mm 4,0 UV-I 770 W/m 8,9 C 14,3 C 22,5 km/h (4 Bft) 95,83 %
27.04.2018 13:50 18,0 C 17,2 C 54 % 1011,6 hPa 0,0 l/m 16,6 km/h (3 Bft) O-NO 78 1 min 0,000 mm 3,9 UV-I 762 W/m 8,6 C 14,4 C 20,9 km/h (4 Bft) 95,65 %
27.04.2018 13:51 17,9 C 17,2 C 54 % 1011,6 hPa 0,0 l/m 15,7 km/h (3 Bft) O 82 1 min 0,000 mm 3,8 UV-I 744 W/m 8,5 C 14,5 C 19,3 km/h (3 Bft) 91,67 %
27.04.2018 13:52 18,0 C 17,2 C 56 % 1011,5 hPa 0,0 l/m 17,6 km/h (3 Bft) O-NO 66 1 min 0,000 mm 4,0 UV-I 769 W/m 9,1 C 14,2 C 24,1 km/h (4 Bft) 93,55 %
27.04.2018 13:53 18,1 C 17,2 C 57 % 1011,5 hPa 0,0 l/m 16,9 km/h (3 Bft) NO 51 1 min 0,000 mm 3,7 UV-I 733 W/m 9,4 C 14,5 C 25,7 km/h (4 Bft) 100,00 %
27.04.2018 13:54 18,2 C 17,2 C 55 % 1011,5 hPa 0,0 l/m 18,2 km/h (3 Bft) NO 56 1 min 0,000 mm 3,8 UV-I 724 W/m 9,0 C 14,3 C 24,1 km/h (4 Bft) 97,37 %
27.04.2018 13:55 18,2 C 17,2 C 60 % 1011,5 hPa 0,0 l/m 16,4 km/h (3 Bft) O-NO 67 1 min 0,000 mm 3,7 UV-I 715 W/m 10,3 C 14,7 C 22,5 km/h (4 Bft) 100,00 %
27.04.2018 13:56 18,3 C 17,2 C 56 % 1011,5 hPa 0,0 l/m 15,3 km/h (3 Bft) O-SO 105 1 min 0,000 mm 3,8 UV-I 732 W/m 9,4 C 15,1 C 19,3 km/h (3 Bft) 92,31 %
27.04.2018 13:57 18,3 C 17,2 C 53 % 1011,5 hPa 0,0 l/m 13,6 km/h (3 Bft) O 84 1 min 0,000 mm 3,8 UV-I 761 W/m 8,6 C 15,6 C 19,3 km/h (3 Bft) 100,00 %
27.04.2018 13:58 18,3 C 17,2 C 53 % 1011,5 hPa 0,0 l/m 15,2 km/h (3 Bft) O-NO 60 1 min 0,000 mm 3,8 UV-I 777 W/m 8,6 C 15,1 C 20,9 km/h (4 Bft) 91,67 %
27.04.2018 13:59 18,5 C 17,2 C 56 % 1011,5 hPa 0,0 l/m 13,1 km/h (3 Bft) O-NO 70 1 min 0,000 mm 2,1 UV-I 765 W/m 9,6 C 16,0 C 17,7 km/h (3 Bft) 100,00 %
27.04.2018 14:00 18,6 C 17,2 C 56 % 1011,4 hPa 0,0 l/m 14,6 km/h (3 Bft) NO 56 1 min 0,000 mm 2,6 UV-I 791 W/m 9,6 C 15,7 C 20,9 km/h (4 Bft) 92,31 %
27.04.2018 14:02 18,7 C 17,2 C 54 % 1011,5 hPa 0,0 l/m 18,8 km/h (3 Bft) O-SO 108 2 min 0,533 mm 4,0 UV-I 800 W/m 9,2 C 14,8 C 25,7 km/h (4 Bft) 95,83 %
27.04.2018 14:03 18,7 C 17,2 C 53 % 1011,5 hPa 0,0 l/m 16,2 km/h (3 Bft) O-NO 67 1 min 0,000 mm 3,9 UV-I 795 W/m 8,9 C 15,4 C 22,5 km/h (4 Bft) 95,65 %
27.04.2018 14:04 18,6 C 17,2 C 54 % 1011,5 hPa 0,0 l/m 17,2 km/h (3 Bft) O-NO 69 1 min 0,000 mm 3,9 UV-I 765 W/m 9,1 C 15,0 C 22,5 km/h (4 Bft) 95,83 %
27.04.2018 14:05 18,5 C 17,2 C 52 % 1011,5 hPa 0,0 l/m 12,6 km/h (3 Bft) NO 49 1 min 0,000 mm 3,8 UV-I 757 W/m 8,5 C 16,1 C 16,1 km/h (3 Bft) 100,00 %
27.04.2018 14:06 18,5 C 17,2 C 54 % 1011,4 hPa 0,0 l/m 16,5 km/h (3 Bft) O 84 1 min 0,000 mm 3,9 UV-I 770 W/m 9,0 C 15,1 C 22,5 km/h (4 Bft) 95,83 %
27.04.2018 14:07 18,5 C 17,2 C 52 % 1011,4 hPa 0,0 l/m 14,2 km/h (3 Bft) O-NO 64 1 min 0,000 mm 3,9 UV-I 777 W/m 8,5 C 15,6 C 17,7 km/h (3 Bft) 91,30 %
27.04.2018 14:08 18,6 C 17,2 C 56 % 1011,4 hPa 0,0 l/m 16,1 km/h (3 Bft) NO 49 1 min 0,000 mm 3,9 UV-I 793 W/m 9,6 C 15,3 C 24,1 km/h (4 Bft) 100,00 %
27.04.2018 14:09 18,6 C 17,2 C 55 % 1011,4 hPa 0,0 l/m 18,5 km/h (3 Bft) O 90 1 min 0,000 mm 3,7 UV-I 706 W/m 9,4 C 14,7 C 20,9 km/h (4 Bft) 92,31 %
27.04.2018 14:10 18,6 C 17,2 C 53 % 1011,4 hPa 0,0 l/m 20,5 km/h (4 Bft) O-SO 106 1 min 0,000 mm 3,6 UV-I 704 W/m 8,8 C 14,3 C 22,5 km/h (4 Bft) 100,00 %
27.04.2018 14:11 18,4 C 17,2 C 52 % 1011,3 hPa 0,0 l/m 13,0 km/h (3 Bft) O-NO 63 1 min 0,000 mm 3,7 UV-I 711 W/m 8,4 C 15,9 C 17,7 km/h (3 Bft) 96,55 %
27.04.2018 14:12 18,4 C 17,2 C 56 % 1011,3 hPa 0,0 l/m 12,3 km/h (3 Bft) O-SO 113 1 min 0,000 mm 3,8 UV-I 764 W/m 9,5 C 16,1 C 17,7 km/h (3 Bft) 100,00 %
27.04.2018 14:13 18,5 C 17,2 C 53 % 1011,3 hPa 0,0 l/m 19,4 km/h (3 Bft) O 96 1 min 0,000 mm 3,8 UV-I 772 W/m 8,7 C 14,4 C 30,6 km/h (5 Bft) 95,65 %
27.04.2018 14:14 18,5 C 17,2 C 54 % 1011,3 hPa 0,0 l/m 20,2 km/h (4 Bft) O-NO 73 1 min 0,000 mm 3,8 UV-I 766 W/m 9,0 C 14,2 C 27,4 km/h (4 Bft) 100,00 %
27.04.2018 14:15 18,5 C 17,2 C 54 % 1011,3 hPa 0,0 l/m 22,1 km/h (4 Bft) O 85 1 min 0,000 mm 3,8 UV-I 766 W/m 9,0 C 13,9 C 25,7 km/h (4 Bft) 95,65 %
27.04.2018 14:16 18,5 C 17,2 C 53 % 1011,2 hPa 0,0 l/m 20,7 km/h (4 Bft) O 82 1 min 0,000 mm 3,7 UV-I 739 W/m 8,7 C 14,1 C 24,1 km/h (4 Bft) 91,67 %
27.04.2018 14:17 18,5 C 17,2 C 53 % 1011,2 hPa 0,0 l/m 19,7 km/h (3 Bft) O-NO 68 1 min 0,000 mm 3,7 UV-I 731 W/m 8,7 C 14,3 C 25,7 km/h (4 Bft) 100,00 %
27.04.2018 14:18 18,5 C 17,2 C 53 % 1011,2 hPa 0,0 l/m 20,0 km/h (4 Bft) O-NO 70 1 min 0,000 mm 3,7 UV-I 745 W/m 8,7 C 14,3 C 27,4 km/h (4 Bft) 100,00 %
27.04.2018 14:19 18,4 C 17,2 C 53 % 1011,2 hPa 0,0 l/m 18,8 km/h (3 Bft) O-NO 65 1 min 0,000 mm 3,6 UV-I 727 W/m 8,6 C 14,4 C 22,5 km/h (4 Bft) 100,00 %
27.04.2018 14:20 18,4 C 17,2 C 54 % 1011,2 hPa 0,0 l/m 18,3 km/h (3 Bft) O-SO 117 1 min 0,000 mm 3,6 UV-I 711 W/m 8,9 C 14,5 C 24,1 km/h (4 Bft) 95,65 %
27.04.2018 14:21 18,4 C 17,2 C 54 % 1011,2 hPa 0,0 l/m 16,6 km/h (3 Bft) NO 53 1 min 0,000 mm 3,7 UV-I 746 W/m 8,9 C 14,9 C 20,9 km/h (4 Bft) 100,00 %
27.04.2018 14:22 18,5 C 17,2 C 55 % 1011,2 hPa 0,0 l/m 17,6 km/h (3 Bft) O-NO 68 1 min 0,000 mm 3,7 UV-I 750 W/m 9,3 C 14,8 C 22,5 km/h (4 Bft) 96,15 %
27.04.2018 14:23 18,6 C 17,2 C 55 % 1011,2 hPa 0,0 l/m 18,2 km/h (3 Bft) O-NO 74 1 min 0,000 mm 3,7 UV-I 750 W/m 9,4 C 14,8 C 25,7 km/h (4 Bft) 91,67 %
27.04.2018 14:24 18,6 C 17,2 C 54 % 1011,2 hPa 0,0 l/m 18,8 km/h (3 Bft) O 92 1 min 0,000 mm 3,7 UV-I 749 W/m 9,1 C 14,6 C 20,9 km/h (4 Bft) 91,30 %
27.04.2018 14:25 18,7 C 17,2 C 54 % 1011,1 hPa 0,0 l/m 16,2 km/h (3 Bft) O-NO 58 1 min 0,000 mm 3,6 UV-I 723 W/m 9,2 C 15,4 C 22,5 km/h (4 Bft) 95,83 %
27.04.2018 14:26 18,7 C 17,2 C 56 % 1011,1 hPa 0,0 l/m 17,6 km/h (3 Bft) O-NO 67 1 min 0,000 mm 3,5 UV-I 716 W/m 9,7 C 15,0 C 22,5 km/h (4 Bft) 100,00 %
27.04.2018 14:27 18,7 C 17,2 C 54 % 1011,1 hPa 0,0 l/m 17,3 km/h (3 Bft) O 88 1 min 0,000 mm 3,5 UV-I 694 W/m 9,2 C 15,1 C 22,5 km/h (4 Bft) 91,67 %
27.04.2018 14:28 18,7 C 17,2 C 55 % 1011,0 hPa 0,0 l/m 17,4 km/h (3 Bft) O 97 1 min 0,000 mm 3,6 UV-I 742 W/m 9,5 C 15,1 C 22,5 km/h (4 Bft) 100,00 %
27.04.2018 14:29 18,7 C 17,2 C 53 % 1011,0 hPa 0,0 l/m 18,8 km/h (3 Bft) N-NO 32 1 min 0,000 mm 3,6 UV-I 719 W/m 8,9 C 14,8 C 24,1 km/h (4 Bft) 96,30 %
27.04.2018 14:30 18,8 C 17,2 C 53 % 1011,0 hPa 0,0 l/m 18,6 km/h (3 Bft) O-NO 62 1 min 0,000 mm 3,5 UV-I 694 W/m 9,0 C 14,9 C 24,1 km/h (4 Bft) 91,30 %
27.04.2018 14:31 18,8 C 17,2 C 53 % 1010,9 hPa 0,0 l/m 18,4 km/h (3 Bft) O-NO 69 1 min 0,000 mm 3,5 UV-I 705 W/m 9,0 C 15,0 C 22,5 km/h (4 Bft) 100,00 %
27.04.2018 14:32 18,8 C 17,2 C 55 % 1010,9 hPa 0,0 l/m 15,6 km/h (3 Bft) O 89 1 min 0,000 mm 3,5 UV-I 720 W/m 9,6 C 15,6 C 20,9 km/h (4 Bft) 100,00 %
27.04.2018 14:33 18,9 C 17,2 C 54 % 1010,9 hPa 0,0 l/m 20,0 km/h (4 Bft) NO 50 1 min 0,000 mm 3,5 UV-I 714 W/m 9,4 C 14,8 C 29,0 km/h (5 Bft) 100,00 %
27.04.2018 14:34 18,9 C 17,2 C 57 % 1010,8 hPa 0,0 l/m 22,0 km/h (4 Bft) O-NO 61 1 min 0,000 mm 3,5 UV-I 713 W/m 10,2 C 14,4 C 30,6 km/h (5 Bft) 100,00 %
27.04.2018 14:35 18,9 C 17,2 C 53 % 1010,8 hPa 0,0 l/m 18,1 km/h (3 Bft) NO 53 1 min 0,000 mm 3,5 UV-I 723 W/m 9,1 C 15,2 C 24,1 km/h (4 Bft) 100,00 %
27.04.2018 14:36 18,9 C 17,2 C 52 % 1010,9 hPa 0,0 l/m 19,2 km/h (3 Bft) N 11 1 min 0,000 mm 3,5 UV-I 711 W/m 8,8 C 14,9 C 25,7 km/h (4 Bft) 95,65 %
27.04.2018 14:37 18,9 C 17,2 C 55 % 1010,8 hPa 0,0 l/m 21,7 km/h (4 Bft) O 84 1 min 0,000 mm 3,5 UV-I 702 W/m 9,7 C 14,5 C 27,4 km/h (4 Bft) 100,00 %
27.04.2018 14:38 19,0 C 17,2 C 55 % 1010,8 hPa 0,0 l/m 17,3 km/h (3 Bft) O 92 1 min 0,000 mm 3,5 UV-I 709 W/m 9,8 C 15,5 C 22,5 km/h (4 Bft) 100,00 %
27.04.2018 14:39 19,0 C 17,2 C 54 % 1010,8 hPa 0,0 l/m 20,4 km/h (4 Bft) O 100 1 min 0,000 mm 3,4 UV-I 697 W/m 9,5 C 14,8 C 27,4 km/h (4 Bft) 100,00 %
27.04.2018 14:40 19,0 C 17,2 C 54 % 1010,8 hPa 0,0 l/m 20,0 km/h (4 Bft) O-NO 63 1 min 0,000 mm 3,5 UV-I 717 W/m 9,5 C 14,9 C 27,4 km/h (4 Bft) 100,00 %
27.04.2018 14:41 19,0 C 17,2 C 52 % 1010,8 hPa 0,0 l/m 21,0 km/h (4 Bft) O-NO 72 1 min 0,000 mm 3,5 UV-I 721 W/m 8,9 C 14,7 C 27,4 km/h (4 Bft) 100,00 %
27.04.2018 14:42 18,9 C 17,2 C 52 % 1010,8 hPa 0,0 l/m 20,1 km/h (4 Bft) O-NO 76 1 min 0,000 mm 3,3 UV-I 693 W/m 8,8 C 14,8 C 25,7 km/h (4 Bft) 100,00 %
27.04.2018 14:43 18,9 C 17,2 C 51 % 1010,7 hPa 0,0 l/m 20,1 km/h (4 Bft) O-NO 77 1 min 0,000 mm 3,3 UV-I 678 W/m 8,5 C 14,8 C 25,7 km/h (4 Bft) 100,00 %
27.04.2018 14:44 18,8 C 17,2 C 52 % 1010,7 hPa 0,0 l/m 15,4 km/h (3 Bft) NO 51 1 min 0,000 mm 3,3 UV-I 674 W/m 8,7 C 15,7 C 20,9 km/h (4 Bft) 100,00 %
27.04.2018 14:45 18,8 C 17,8 C 54 % 1010,7 hPa 0,0 l/m 14,6 km/h (3 Bft) O 93 1 min 0,000 mm 3,3 UV-I 658 W/m 9,3 C 15,9 C 24,1 km/h (4 Bft) 95,65 %
27.04.2018 14:46 18,9 C 17,8 C 54 % 1010,7 hPa 0,0 l/m 15,7 km/h (3 Bft) O-NO 57 1 min 0,000 mm 3,4 UV-I 698 W/m 9,4 C 15,7 C 24,1 km/h (4 Bft) 100,00 %
27.04.2018 14:47 19,0 C 17,8 C 52 % 1010,7 hPa 0,0 l/m 18,4 km/h (3 Bft) O-NO 78 1 min 0,000 mm 3,4 UV-I 700 W/m 8,9 C 15,2 C 22,5 km/h (4 Bft) 100,00 %
27.04.2018 14:48 19,0 C 17,8 C 51 % 1010,7 hPa 0,0 l/m 19,7 km/h (3 Bft) O-NO 71 1 min 0,000 mm 3,4 UV-I 697 W/m 8,6 C 15,0 C 25,7 km/h (4 Bft) 100,00 %
27.04.2018 14:49 19,0 C 17,8 C 52 % 1010,6 hPa 0,0 l/m 16,9 km/h (3 Bft) O-NO 65 1 min 0,000 mm 3,4 UV-I 712 W/m 8,9 C 15,6 C 24,1 km/h (4 Bft) 100,00 %
27.04.2018 14:50 19,0 C 17,8 C 54 % 1010,6 hPa 0,0 l/m 20,3 km/h (4 Bft) NO 47 1 min 0,000 mm 3,4 UV-I 705 W/m 9,5 C 14,9 C 25,7 km/h (4 Bft) 95,83 %
27.04.2018 14:51 19,1 C 17,8 C 54 % 1010,6 hPa 0,0 l/m 18,8 km/h (3 Bft) O-SO 105 1 min 0,000 mm 3,3 UV-I 700 W/m 9,6 C 15,3 C 25,7 km/h (4 Bft) 100,00 %
27.04.2018 14:52 19,1 C 17,8 C 53 % 1010,6 hPa 0,0 l/m 17,0 km/h (3 Bft) SO 129 1 min 0,000 mm 3,3 UV-I 699 W/m 9,3 C 15,7 C 22,5 km/h (4 Bft) 100,00 %
27.04.2018 14:53 19,1 C 17,8 C 52 % 1010,6 hPa 0,0 l/m 18,3 km/h (3 Bft) O-SO 105 1 min 0,000 mm 3,4 UV-I 715 W/m 9,0 C 15,4 C 22,5 km/h (4 Bft) 95,65 %
27.04.2018 14:54 19,1 C 17,8 C 52 % 1010,5 hPa 0,0 l/m 16,9 km/h (3 Bft) O 79 1 min 0,000 mm 3,3 UV-I 708 W/m 9,0 C 15,7 C 22,5 km/h (4 Bft) 100,00 %
27.04.2018 14:55 19,1 C 17,8 C 54 % 1010,5 hPa 0,0 l/m 19,4 km/h (3 Bft) O-NO 63 1 min 0,000 mm 3,3 UV-I 703 W/m 9,6 C 15,2 C 29,0 km/h (5 Bft) 100,00 %
27.04.2018 14:56 19,2 C 17,8 C 51 % 1010,5 hPa 0,0 l/m 20,2 km/h (4 Bft) NO 53 1 min 0,000 mm 3,2 UV-I 649 W/m 8,8 C 15,1 C 25,7 km/h (4 Bft) 100,00 %
27.04.2018 14:57 19,2 C 17,8 C 52 % 1010,4 hPa 0,0 l/m 20,6 km/h (4 Bft) O-NO 71 1 min 0,000 mm 3,1 UV-I 605 W/m 9,1 C 15,1 C 25,7 km/h (4 Bft) 100,00 %
27.04.2018 14:58 19,2 C 17,8 C 52 % 1010,4 hPa 0,0 l/m 17,1 km/h (3 Bft) NO 42 1 min 0,000 mm 3,2 UV-I 643 W/m 9,1 C 15,8 C 22,5 km/h (4 Bft) 100,00 %
27.04.2018 14:59 19,2 C 17,8 C 53 % 1010,4 hPa 0,0 l/m 15,7 km/h (3 Bft) O 82 1 min 0,000 mm 3,2 UV-I 658 W/m 9,4 C 16,1 C 24,1 km/h (4 Bft) 100,00 %
27.04.2018 15:00 19,2 C 17,8 C 51 % 1010,5 hPa 0,0 l/m 21,7 km/h (4 Bft) O-NO 66 1 min 0,000 mm 3,1 UV-I 627 W/m 8,8 C 14,9 C 27,4 km/h (4 Bft) 96,55 %
27.04.2018 15:02 19,1 C 17,8 C 50 % 1010,5 hPa 0,0 l/m 21,6 km/h (4 Bft) O 96 2 min 0,508 mm 3,1 UV-I 676 W/m 8,4 C 14,7 C 29,0 km/h (5 Bft) 100,00 %
27.04.2018 15:03 19,1 C 17,8 C 52 % 1010,4 hPa 0,0 l/m 19,3 km/h (3 Bft) O 93 1 min 0,000 mm 3,2 UV-I 683 W/m 9,0 C 15,2 C 27,4 km/h (4 Bft) 100,00 %
27.04.2018 15:04 19,1 C 17,8 C 52 % 1010,4 hPa 0,0 l/m 16,6 km/h (3 Bft) NO 37 1 min 0,000 mm 3,1 UV-I 665 W/m 9,0 C 15,8 C 24,1 km/h (4 Bft) 95,65 %
27.04.2018 15:05 19,1 C 17,8 C 55 % 1010,3 hPa 0,0 l/m 16,9 km/h (3 Bft) O-NO 62 1 min 0,000 mm 3,2 UV-I 718 W/m 9,8 C 15,7 C 24,1 km/h (4 Bft) 100,00 %
27.04.2018 15:06 19,2 C 17,8 C 56 % 1010,3 hPa 0,0 l/m 20,4 km/h (4 Bft) O-NO 61 1 min 0,000 mm 3,3 UV-I 716 W/m 10,2 C 15,1 C 24,1 km/h (4 Bft) 100,00 %
27.04.2018 15:07 19,3 C 17,8 C 54 % 1010,3 hPa 0,0 l/m 21,7 km/h (4 Bft) O-NO 65 1 min 0,000 mm 3,3 UV-I 719 W/m 9,8 C 15,0 C 29,0 km/h (5 Bft) 100,00 %
27.04.2018 15:08 19,3 C 17,8 C 53 % 1010,3 hPa 0,0 l/m 21,3 km/h (4 Bft) NO 48 1 min 0,000 mm 3,2 UV-I 702 W/m 9,5 C 15,1 C 25,7 km/h (4 Bft) 100,00 %
27.04.2018 15:09 19,4 C 17,8 C 54 % 1010,2 hPa 0,0 l/m 18,9 km/h (3 Bft) O-SO 105 1 min 0,000 mm 3,1 UV-I 679 W/m 9,8 C 15,6 C 25,7 km/h (4 Bft) 100,00 %
27.04.2018 15:10 19,4 C 17,8 C 52 % 1010,3 hPa 0,0 l/m 13,7 km/h (3 Bft) O-NO 70 1 min 0,000 mm 3,1 UV-I 692 W/m 9,3 C 16,9 C 19,3 km/h (3 Bft) 100,00 %
27.04.2018 15:11 19,5 C 17,8 C 54 % 1010,4 hPa 0,0 l/m 13,3 km/h (3 Bft) NO 56 1 min 0,000 mm 3,2 UV-I 685 W/m 9,9 C 17,1 C 19,3 km/h (3 Bft) 100,00 %
27.04.2018 15:12 19,6 C 17,8 C 54 % 1010,3 hPa 0,0 l/m 20,0 km/h (4 Bft) O-NO 76 1 min 0,000 mm 3,1 UV-I 666 W/m 10,0 C 15,7 C 25,7 km/h (4 Bft) 100,00 %
27.04.2018 15:13 19,6 C 17,8 C 51 % 1010,3 hPa 0,0 l/m 15,2 km/h (3 Bft) O-NO 72 1 min 0,000 mm 3,1 UV-I 683 W/m 9,2 C 16,7 C 19,3 km/h (3 Bft) 100,00 %
27.04.2018 15:14 19,6 C 17,8 C 51 % 1010,3 hPa 0,0 l/m 19,7 km/h (3 Bft) O-NO 77 1 min 0,000 mm 3,1 UV-I 672 W/m 9,2 C 15,7 C 27,4 km/h (4 Bft) 100,00 %
27.04.2018 15:15 19,5 C 17,8 C 49 % 1010,3 hPa 0,0 l/m 20,3 km/h (4 Bft) O 83 1 min 0,000 mm 3,1 UV-I 674 W/m 8,5 C 15,5 C 27,4 km/h (4 Bft) 100,00 %
27.04.2018 15:16 19,4 C 17,8 C 49 % 1010,3 hPa 0,0 l/m 18,2 km/h (3 Bft) O-SO 103 1 min 0,000 mm 3,1 UV-I 686 W/m 8,4 C 15,8 C 25,7 km/h (4 Bft) 100,00 %
27.04.2018 15:17 19,4 C 17,8 C 52 % 1010,3 hPa 0,0 l/m 18,3 km/h (3 Bft) O 100 1 min 0,000 mm 3,0 UV-I 683 W/m 9,3 C 15,8 C 24,1 km/h (4 Bft) 100,00 %
27.04.2018 15:18 19,4 C 17,8 C 51 % 1010,3 hPa 0,0 l/m 14,6 km/h (3 Bft) O-NO 75 1 min 0,000 mm 3,0 UV-I 666 W/m 9,0 C 16,6 C 19,3 km/h (3 Bft) 100,00 %
27.04.2018 15:19 19,4 C 17,8 C 53 % 1010,3 hPa 0,0 l/m 11,6 km/h (2 Bft) O-NO 76 1 min 0,000 mm 3,0 UV-I 659 W/m 9,6 C 17,5 C 16,1 km/h (3 Bft) 100,00 %
27.04.2018 15:20 19,4 C 17,8 C 52 % 1010,2 hPa 0,0 l/m 16,2 km/h (3 Bft) O-NO 63 1 min 0,000 mm 3,0 UV-I 653 W/m 9,3 C 16,2 C 24,1 km/h (4 Bft) 95,83 %
27.04.2018 15:21 19,5 C 17,8 C 53 % 1010,2 hPa 0,0 l/m 18,1 km/h (3 Bft) O 90 1 min 0,000 mm 3,0 UV-I 640 W/m 9,7 C 15,9 C 25,7 km/h (4 Bft) 100,00 %
27.04.2018 15:22 19,5 C 17,8 C 51 % 1010,2 hPa 0,0 l/m 21,2 km/h (4 Bft) O 98 1 min 0,000 mm 2,9 UV-I 647 W/m 9,1 C 15,3 C 27,4 km/h (4 Bft) 100,00 %
27.04.2018 15:23 19,4 C 17,8 C 50 % 1010,2 hPa 0,0 l/m 23,2 km/h (4 Bft) O-SO 103 1 min 0,000 mm 2,9 UV-I 643 W/m 8,7 C 14,9 C 30,6 km/h (5 Bft) 100,00 %
27.04.2018 15:24 19,4 C 17,8 C 51 % 1010,2 hPa 0,0 l/m 21,7 km/h (4 Bft) O-NO 74 1 min 0,000 mm 2,9 UV-I 621 W/m 9,0 C 15,1 C 30,6 km/h (5 Bft) 100,00 %
27.04.2018 15:25 19,4 C 17,8 C 50 % 1010,1 hPa 0,0 l/m 19,0 km/h (3 Bft) O 98 1 min 0,000 mm 2,8 UV-I 624 W/m 8,7 C 15,6 C 24,1 km/h (4 Bft) 100,00 %
27.04.2018 15:26 19,4 C 17,8 C 51 % 1010,1 hPa 0,0 l/m 19,0 km/h (3 Bft) O-NO 70 1 min 0,000 mm 2,8 UV-I 629 W/m 9,0 C 15,6 C 29,0 km/h (5 Bft) 100,00 %
27.04.2018 15:27 19,4 C 17,8 C 52 % 1010,1 hPa 0,0 l/m 21,6 km/h (4 Bft) NO 46 1 min 0,000 mm 2,8 UV-I 641 W/m 9,3 C 15,1 C 27,4 km/h (4 Bft) 96,15 %
27.04.2018 15:28 19,4 C 17,8 C 54 % 1010,1 hPa 0,0 l/m 22,3 km/h (4 Bft) O 84 1 min 0,000 mm 2,8 UV-I 638 W/m 9,8 C 15,0 C 29,0 km/h (5 Bft) 100,00 %
27.04.2018 15:29 19,4 C 17,8 C 51 % 1010,0 hPa 0,0 l/m 19,5 km/h (3 Bft) O-NO 72 1 min 0,000 mm 2,8 UV-I 622 W/m 9,0 C 15,5 C 25,7 km/h (4 Bft) 95,65 %
27.04.2018 15:30 19,4 C 17,8 C 52 % 1010,0 hPa 0,0 l/m 17,4 km/h (3 Bft) NO 54 1 min 0,000 mm 2,7 UV-I 613 W/m 9,3 C 16,0 C 22,5 km/h (4 Bft) 100,00 %
27.04.2018 15:31 19,4 C 17,8 C 54 % 1010,0 hPa 0,0 l/m 18,3 km/h (3 Bft) NO 46 1 min 0,000 mm 2,8 UV-I 628 W/m 9,8 C 15,8 C 22,5 km/h (4 Bft) 100,00 %
27.04.2018 15:32 19,4 C 17,8 C 52 % 1010,0 hPa 0,0 l/m 23,5 km/h (4 Bft) O-NO 78 1 min 0,000 mm 2,8 UV-I 628 W/m 9,3 C 14,8 C 32,2 km/h (5 Bft) 100,00 %
27.04.2018 15:33 19,4 C 17,8 C 51 % 1010,0 hPa 0,0 l/m 20,5 km/h (4 Bft) NO 47 1 min 0,000 mm 2,8 UV-I 641 W/m 9,0 C 15,3 C 24,1 km/h (4 Bft) 100,00 %
27.04.2018 15:34 19,4 C 17,8 C 52 % 1010,0 hPa 0,0 l/m 18,9 km/h (3 Bft) O-NO 61 1 min 0,000 mm 2,8 UV-I 640 W/m 9,3 C 15,6 C 25,7 km/h (4 Bft) 100,00 %
27.04.2018 15:35 19,4 C 17,8 C 53 % 1009,9 hPa 0,0 l/m 22,4 km/h (4 Bft) O-NO 57 1 min 0,000 mm 2,8 UV-I 628 W/m 9,6 C 15,0 C 30,6 km/h (5 Bft) 100,00 %
27.04.2018 15:36 19,4 C 17,8 C 53 % 1010,0 hPa 0,0 l/m 21,1 km/h (4 Bft) O-NO 62 1 min 0,000 mm 2,6 UV-I 583 W/m 9,6 C 15,2 C 25,7 km/h (4 Bft) 100,00 %
27.04.2018 15:37 19,4 C 17,8 C 53 % 1009,9 hPa 0,0 l/m 19,7 km/h (3 Bft) O 88 1 min 0,000 mm 2,6 UV-I 594 W/m 9,6 C 15,5 C 27,4 km/h (4 Bft) 100,00 %
27.04.2018 15:38 19,4 C 17,8 C 53 % 1010,0 hPa 0,0 l/m 18,1 km/h (3 Bft) NO 55 1 min 0,000 mm 2,6 UV-I 595 W/m 9,6 C 15,8 C 22,5 km/h (4 Bft) 100,00 %
27.04.2018 15:39 19,5 C 17,8 C 52 % 1010,0 hPa 0,0 l/m 17,0 km/h (3 Bft) O 84 1 min 0,000 mm 2,6 UV-I 589 W/m 9,4 C 16,2 C 22,5 km/h (4 Bft) 100,00 %
27.04.2018 15:40 19,6 C 17,8 C 50 % 1010,0 hPa 0,0 l/m 15,7 km/h (3 Bft) O-SO 113 1 min 0,000 mm 2,6 UV-I 583 W/m 8,9 C 16,6 C 24,1 km/h (4 Bft) 100,00 %
27.04.2018 15:41 19,6 C 17,8 C 51 % 1010,0 hPa 0,0 l/m 23,7 km/h (4 Bft) O-SO 103 1 min 0,000 mm 2,7 UV-I 598 W/m 9,2 C 15,0 C 29,0 km/h (5 Bft) 100,00 %
27.04.2018 15:42 19,6 C 17,8 C 49 % 1009,9 hPa 0,0 l/m 22,0 km/h (4 Bft) O-SO 103 1 min 0,000 mm 2,7 UV-I 634 W/m 8,6 C 15,3 C 30,6 km/h (5 Bft) 100,00 %
27.04.2018 15:43 19,6 C 17,8 C 49 % 1009,9 hPa 0,0 l/m 21,1 km/h (4 Bft) O 87 1 min 0,000 mm 2,7 UV-I 647 W/m 8,6 C 15,5 C 30,6 km/h (5 Bft) 100,00 %
27.04.2018 15:44 19,6 C 17,8 C 50 % 1009,9 hPa 0,0 l/m 20,1 km/h (4 Bft) NO 43 1 min 0,000 mm 2,6 UV-I 627 W/m 8,9 C 15,7 C 22,5 km/h (4 Bft) 91,30 %
27.04.2018 15:45 19,6 C 17,8 C 49 % 1009,9 hPa 0,0 l/m 19,1 km/h (3 Bft) O-NO 77 1 min 0,000 mm 2,6 UV-I 612 W/m 8,6 C 15,9 C 22,5 km/h (4 Bft) 100,00 %
27.04.2018 15:46 19,6 C 17,8 C 50 % 1009,8 hPa 0,0 l/m 19,2 km/h (3 Bft) O-NO 70 1 min 0,000 mm 2,6 UV-I 616 W/m 8,9 C 15,8 C 24,1 km/h (4 Bft) 100,00 %
27.04.2018 15:47 19,7 C 17,8 C 49 % 1009,8 hPa 0,0 l/m 16,8 km/h (3 Bft) NO 53 1 min 0,000 mm 2,5 UV-I 586 W/m 8,7 C 16,5 C 20,9 km/h (4 Bft) 100,00 %
27.04.2018 15:48 19,7 C 17,8 C 53 % 1009,7 hPa 0,0 l/m 20,0 km/h (4 Bft) NO 46 1 min 0,000 mm 2,5 UV-I 604 W/m 9,8 C 15,8 C 25,7 km/h (4 Bft) 100,00 %
27.04.2018 15:49 19,8 C 17,8 C 51 % 1009,7 hPa 0,0 l/m 22,2 km/h (4 Bft) O-SO 105 1 min 0,000 mm 2,6 UV-I 624 W/m 9,4 C 15,6 C 25,7 km/h (4 Bft) 100,00 %
27.04.2018 15:50 19,8 C 17,8 C 50 % 1009,8 hPa 0,0 l/m 17,9 km/h (3 Bft) O 95 1 min 0,000 mm 2,6 UV-I 631 W/m 9,1 C 16,4 C 22,5 km/h (4 Bft) 95,83 %
27.04.2018 15:51 19,8 C 17,8 C 49 % 1009,7 hPa 0,0 l/m 15,5 km/h (3 Bft) O 89 1 min 0,000 mm 2,6 UV-I 634 W/m 8,8 C 16,9 C 24,1 km/h (4 Bft) 100,00 %
27.04.2018 15:52 19,8 C 17,8 C 50 % 1009,7 hPa 0,0 l/m 18,3 km/h (3 Bft) O 86 1 min 0,000 mm 2,5 UV-I 615 W/m 9,1 C 16,3 C 27,4 km/h (4 Bft) 95,83 %
27.04.2018 15:53 19,8 C 17,8 C 49 % 1009,6 hPa 0,0 l/m 16,7 km/h (3 Bft) O-NO 59 1 min 0,000 mm 2,5 UV-I 570 W/m 8,8 C 16,6 C 22,5 km/h (4 Bft) 95,65 %
27.04.2018 15:54 19,8 C 17,8 C 50 % 1009,6 hPa 0,0 l/m 14,8 km/h (3 Bft) O 84 1 min 0,000 mm 2,4 UV-I 591 W/m 9,1 C 17,1 C 22,5 km/h (4 Bft) 100,00 %
27.04.2018 15:55 19,8 C 17,8 C 48 % 1009,7 hPa 0,0 l/m 19,6 km/h (3 Bft) O-NO 78 1 min 0,000 mm 2,4 UV-I 560 W/m 8,5 C 16,0 C 27,4 km/h (4 Bft) 91,30 %
27.04.2018 15:56 19,8 C 17,8 C 48 % 1009,6 hPa 0,0 l/m 19,0 km/h (3 Bft) O 90 1 min 0,000 mm 2,4 UV-I 573 W/m 8,5 C 16,1 C 24,1 km/h (4 Bft) 100,00 %
27.04.2018 15:57 19,8 C 17,8 C 48 % 1009,6 hPa 0,0 l/m 20,5 km/h (4 Bft) O 82 1 min 0,000 mm 2,4 UV-I 590 W/m 8,5 C 15,9 C 24,1 km/h (4 Bft) 91,30 %
27.04.2018 15:58 19,8 C 17,8 C 51 % 1009,5 hPa 0,0 l/m 16,2 km/h (3 Bft) O-NO 72 1 min 0,000 mm 2,4 UV-I 588 W/m 9,4 C 16,7 C 22,5 km/h (4 Bft) 100,00 %
27.04.2018 15:59 19,9 C 17,8 C 49 % 1009,6 hPa 0,0 l/m 16,2 km/h (3 Bft) O 92 1 min 0,000 mm 2,3 UV-I 574 W/m 8,9 C 16,9 C 24,1 km/h (4 Bft) 96,15 %
27.04.2018 16:00 19,8 C 17,8 C 48 % 1009,6 hPa 0,0 l/m 18,6 km/h (3 Bft) O 94 1 min 0,000 mm 2,3 UV-I 567 W/m 8,5 C 16,2 C 22,5 km/h (4 Bft) 95,83 %
27.04.2018 16:02 19,9 C 17,8 C 49 % 1009,5 hPa 0,0 l/m 14,0 km/h (3 Bft) N-NO 32 2 min 0,483 mm 2,3 UV-I 548 W/m 8,9 C 17,4 C 20,9 km/h (4 Bft) 97,87 %
27.04.2018 16:03 19,9 C 17,8 C 51 % 1009,5 hPa 0,0 l/m 18,9 km/h (3 Bft) O 93 1 min 0,000 mm 2,2 UV-I 540 W/m 9,5 C 16,3 C 22,5 km/h (4 Bft) 100,00 %
27.04.2018 16:04 19,9 C 17,8 C 50 % 1009,5 hPa 0,0 l/m 22,5 km/h (4 Bft) O-NO 66 1 min 0,000 mm 2,3 UV-I 553 W/m 9,2 C 15,6 C 29,0 km/h (5 Bft) 95,83 %
27.04.2018 16:05 19,8 C 17,8 C 48 % 1009,5 hPa 0,0 l/m 20,3 km/h (4 Bft) O 82 1 min 0,000 mm 2,3 UV-I 562 W/m 8,5 C 15,9 C 25,7 km/h (4 Bft) 100,00 %
27.04.2018 16:06 19,8 C 17,8 C 50 % 1009,5 hPa 0,0 l/m 22,8 km/h (4 Bft) NO 53 1 min 0,000 mm 2,3 UV-I 582 W/m 9,1 C 15,5 C 29,0 km/h (5 Bft) 92,59 %
27.04.2018 16:07 19,8 C 17,8 C 50 % 1009,5 hPa 0,0 l/m 23,2 km/h (4 Bft) O-NO 61 1 min 0,000 mm 2,3 UV-I 582 W/m 9,1 C 15,4 C 27,4 km/h (4 Bft) 94,44 %
27.04.2018 16:08 19,8 C 17,8 C 51 % 1009,4 hPa 0,0 l/m 21,7 km/h (4 Bft) O-NO 71 1 min 0,000 mm 2,3 UV-I 582 W/m 9,4 C 15,6 C 27,4 km/h (4 Bft) 92,31 %
27.04.2018 16:09 19,8 C 17,8 C 51 % 1009,5 hPa 0,0 l/m 17,3 km/h (3 Bft) O-NO 67 1 min 0,000 mm 2,2 UV-I 583 W/m 9,4 C 16,5 C 25,7 km/h (4 Bft) 91,30 %
27.04.2018 16:10 19,8 C 17,8 C 51 % 1009,5 hPa 0,0 l/m 20,4 km/h (4 Bft) O-NO 69 1 min 0,000 mm 2,2 UV-I 572 W/m 9,4 C 15,9 C 27,4 km/h (4 Bft) 100,00 %
27.04.2018 16:11 19,8 C 17,8 C 51 % 1009,4 hPa 0,0 l/m 23,0 km/h (4 Bft) NO 42 1 min 0,000 mm 2,2 UV-I 570 W/m 9,4 C 15,4 C 29,0 km/h (5 Bft) 95,65 %
27.04.2018 16:12 19,9 C 17,8 C 52 % 1009,4 hPa 0,0 l/m 26,2 km/h (4 Bft) O-NO 73 1 min 0,000 mm 2,2 UV-I 578 W/m 9,7 C 15,1 C 30,6 km/h (5 Bft) 100,00 %
27.04.2018 16:13 19,9 C 17,8 C 51 % 1009,4 hPa 0,0 l/m 22,0 km/h (4 Bft) O-NO 63 1 min 0,000 mm 2,2 UV-I 580 W/m 9,5 C 15,7 C 27,4 km/h (4 Bft) 95,83 %
27.04.2018 16:14 19,9 C 17,8 C 51 % 1009,4 hPa 0,0 l/m 20,4 km/h (4 Bft) O-NO 65 1 min 0,000 mm 2,2 UV-I 549 W/m 9,5 C 16,0 C 24,1 km/h (4 Bft) 96,15 %
27.04.2018 16:15 19,9 C 17,8 C 48 % 1009,4 hPa 0,0 l/m 16,1 km/h (3 Bft) O-NO 70 1 min 0,000 mm 2,1 UV-I 525 W/m 8,6 C 16,9 C 24,1 km/h (4 Bft) 100,00 %
27.04.2018 16:16 20,0 C 17,8 C 50 % 1009,4 hPa 0,0 l/m 18,2 km/h (3 Bft) O-NO 61 1 min 0,000 mm 2,1 UV-I 548 W/m 9,3 C 16,6 C 24,1 km/h (4 Bft) 100,00 %
27.04.2018 16:17 20,1 C 17,8 C 50 % 1009,4 hPa 0,0 l/m 16,5 km/h (3 Bft) O-NO 76 1 min 0,000 mm 2,1 UV-I 548 W/m 9,3 C 17,0 C 32,2 km/h (5 Bft) 95,83 %
27.04.2018 16:18 20,1 C 17,8 C 50 % 1009,5 hPa 0,0 l/m 20,8 km/h (4 Bft) N-NO 28 1 min 0,000 mm 2,1 UV-I 541 W/m 9,3 C 16,2 C 27,4 km/h (4 Bft) 96,15 %
27.04.2018 16:19 20,1 C 17,8 C 48 % 1009,4 hPa 0,0 l/m 17,8 km/h (3 Bft) NO 44 1 min 0,000 mm 2,1 UV-I 545 W/m 8,7 C 16,8 C 20,9 km/h (4 Bft) 91,67 %
27.04.2018 16:20 20,1 C 17,8 C 49 % 1009,4 hPa 0,0 l/m 18,8 km/h (3 Bft) O-NO 57 1 min 0,000 mm 2,0 UV-I 536 W/m 9,0 C 16,6 C 24,1 km/h (4 Bft) 95,65 %
27.04.2018 16:21 20,0 C 17,8 C 47 % 1009,4 hPa 0,0 l/m 17,5 km/h (3 Bft) NO 54 1 min 0,000 mm 2,0 UV-I 505 W/m 8,3 C 16,7 C 24,1 km/h (4 Bft) 95,83 %
27.04.2018 16:22 19,9 C 17,8 C 48 % 1009,4 hPa 0,0 l/m 18,1 km/h (3 Bft) NO 54 1 min 0,000 mm 1,9 UV-I 490 W/m 8,6 C 16,4 C 22,5 km/h (4 Bft) 100,00 %
27.04.2018 16:23 19,9 C 17,8 C 49 % 1009,3 hPa 0,0 l/m 22,1 km/h (4 Bft) NO 54 1 min 0,000 mm 1,9 UV-I 503 W/m 8,9 C 15,7 C 29,0 km/h (5 Bft) 100,00 %
27.04.2018 16:24 19,9 C 17,8 C 52 % 1009,4 hPa 0,0 l/m 19,2 km/h (3 Bft) O-NO 77 1 min 0,000 mm 1,9 UV-I 519 W/m 9,7 C 16,2 C 27,4 km/h (4 Bft) 95,65 %
27.04.2018 16:25 19,9 C 17,8 C 48 % 1009,3 hPa 0,0 l/m 17,4 km/h (3 Bft) NO 54 1 min 0,000 mm 1,9 UV-I 527 W/m 8,6 C 16,6 C 22,5 km/h (4 Bft) 95,83 %
27.04.2018 16:26 19,9 C 17,8 C 50 % 1009,3 hPa 0,0 l/m 18,3 km/h (3 Bft) NO 47 1 min 0,000 mm 1,9 UV-I 521 W/m 9,2 C 16,4 C 24,1 km/h (4 Bft) 100,00 %
27.04.2018 16:27 20,0 C 17,8 C 48 % 1009,3 hPa 0,0 l/m 17,0 km/h (3 Bft) O-SO 113 1 min 0,000 mm 1,9 UV-I 522 W/m 8,7 C 16,8 C 25,7 km/h (4 Bft) 100,00 %
27.04.2018 16:28 20,0 C 17,8 C 48 % 1009,2 hPa 0,0 l/m 19,4 km/h (3 Bft) O-NO 57 1 min 0,000 mm 1,9 UV-I 504 W/m 8,7 C 16,3 C 32,2 km/h (5 Bft) 95,65 %
27.04.2018 16:29 20,1 C 17,8 C 49 % 1009,2 hPa 0,0 l/m 23,0 km/h (4 Bft) NO 42 1 min 0,000 mm 1,9 UV-I 505 W/m 9,0 C 15,8 C 27,4 km/h (4 Bft) 91,67 %
27.04.2018 16:30 20,0 C 17,8 C 50 % 1009,2 hPa 0,0 l/m 21,0 km/h (4 Bft) O-NO 65 1 min 0,000 mm 1,8 UV-I 504 W/m 9,3 C 16,0 C 29,0 km/h (5 Bft) 100,00 %
27.04.2018 16:31 20,0 C 17,8 C 48 % 1009,3 hPa 0,0 l/m 12,7 km/h (3 Bft) O-NO 65 1 min 0,000 mm 1,9 UV-I 521 W/m 8,7 C 17,8 C 24,1 km/h (4 Bft) 100,00 %
27.04.2018 16:32 20,1 C 17,8 C 50 % 1009,2 hPa 0,0 l/m 18,0 km/h (3 Bft) O-NO 75 1 min 0,000 mm 1,8 UV-I 517 W/m 9,3 C 16,7 C 27,4 km/h (4 Bft) 100,00 %
27.04.2018 16:33 20,1 C 17,8 C 48 % 1009,2 hPa 0,0 l/m 15,8 km/h (3 Bft) O 88 1 min 0,000 mm 1,8 UV-I 520 W/m 8,7 C 17,2 C 22,5 km/h (4 Bft) 100,00 %
27.04.2018 16:34 20,1 C 17,8 C 49 % 1009,2 hPa 0,0 l/m 13,3 km/h (3 Bft) NO 51 1 min 0,000 mm 1,8 UV-I 507 W/m 9,0 C 17,8 C 20,9 km/h (4 Bft) 100,00 %
27.04.2018 16:35 20,2 C 17,8 C 49 % 1009,2 hPa 0,0 l/m 20,3 km/h (4 Bft) NO 51 1 min 0,000 mm 1,8 UV-I 510 W/m 9,1 C 16,4 C 27,4 km/h (4 Bft) 100,00 %
27.04.2018 16:36 20,2 C 17,8 C 51 % 1009,2 hPa 0,0 l/m 15,3 km/h (3 Bft) O-NO 69 1 min 0,000 mm 1,8 UV-I 509 W/m 9,7 C 17,4 C 24,1 km/h (4 Bft) 100,00 %
27.04.2018 16:37 20,2 C 17,8 C 49 % 1009,2 hPa 0,0 l/m 20,0 km/h (4 Bft) O-NO 71 1 min 0,000 mm 1,8 UV-I 491 W/m 9,1 C 16,5 C 24,1 km/h (4 Bft) 95,65 %
27.04.2018 16:38 20,2 C 17,8 C 50 % 1009,2 hPa 0,0 l/m 19,3 km/h (3 Bft) O-NO 59 1 min 0,000 mm 1,7 UV-I 477 W/m 9,4 C 16,6 C 27,4 km/h (4 Bft) 100,00 %
27.04.2018 16:39 20,2 C 17,8 C 50 % 1009,2 hPa 0,0 l/m 17,8 km/h (3 Bft) O 81 1 min 0,000 mm 1,7 UV-I 475 W/m 9,4 C 16,9 C 24,1 km/h (4 Bft) 100,00 %
27.04.2018 16:40 20,3 C 17,8 C 51 % 1009,1 hPa 0,0 l/m 17,2 km/h (3 Bft) O-NO 68 1 min 0,000 mm 1,6 UV-I 454 W/m 9,8 C 17,1 C 22,5 km/h (4 Bft) 100,00 %
27.04.2018 16:41 20,2 C 17,8 C 49 % 1009,1 hPa 0,0 l/m 18,4 km/h (3 Bft) NO 55 1 min 0,000 mm 1,7 UV-I 466 W/m 9,1 C 16,8 C 29,0 km/h (5 Bft) 100,00 %
27.04.2018 16:42 20,2 C 17,8 C 49 % 1009,1 hPa 0,0 l/m 19,8 km/h (3 Bft) O-NO 57 1 min 0,000 mm 1,6 UV-I 485 W/m 9,1 C 16,5 C 29,0 km/h (5 Bft) 100,00 %
27.04.2018 16:43 20,3 C 17,8 C 49 % 1009,1 hPa 0,0 l/m 16,4 km/h (3 Bft) O-NO 67 1 min 0,000 mm 1,6 UV-I 472 W/m 9,2 C 17,3 C 19,3 km/h (3 Bft) 100,00 %
27.04.2018 16:44 20,3 C 17,8 C 49 % 1009,1 hPa 0,0 l/m 15,6 km/h (3 Bft) O 82 1 min 0,000 mm 1,6 UV-I 479 W/m 9,2 C 17,5 C 20,9 km/h (4 Bft) 100,00 %
27.04.2018 16:45 20,3 C 17,8 C 48 % 1009,1 hPa 0,0 l/m 15,5 km/h (3 Bft) O 80 1 min 0,000 mm 1,6 UV-I 482 W/m 8,9 C 17,5 C 22,5 km/h (4 Bft) 100,00 %
27.04.2018 16:46 20,2 C 17,8 C 48 % 1009,1 hPa 0,0 l/m 14,7 km/h (3 Bft) O-NO 63 1 min 0,000 mm 1,6 UV-I 479 W/m 8,8 C 17,6 C 19,3 km/h (3 Bft) 100,00 %
27.04.2018 16:47 20,2 C 17,8 C 48 % 1009,1 hPa 0,0 l/m 19,7 km/h (3 Bft) O-NO 72 1 min 0,000 mm 1,6 UV-I 473 W/m 8,8 C 16,5 C 27,4 km/h (4 Bft) 100,00 %
27.04.2018 16:48 20,2 C 17,8 C 49 % 1009,1 hPa 0,0 l/m 19,4 km/h (3 Bft) NO 51 1 min 0,000 mm 1,6 UV-I 477 W/m 9,1 C 16,6 C 27,4 km/h (4 Bft) 95,83 %
27.04.2018 16:49 20,2 C 17,8 C 50 % 1009,1 hPa 0,0 l/m 19,0 km/h (3 Bft) NO 36 1 min 0,000 mm 1,6 UV-I 476 W/m 9,4 C 16,6 C 27,4 km/h (4 Bft) 100,00 %
27.04.2018 16:50 20,2 C 17,8 C 48 % 1009,1 hPa 0,0 l/m 17,3 km/h (3 Bft) O-NO 63 1 min 0,000 mm 1,6 UV-I 470 W/m 8,8 C 17,0 C 22,5 km/h (4 Bft) 100,00 %
27.04.2018 16:51 20,2 C 17,8 C 48 % 1009,1 hPa 0,0 l/m 17,4 km/h (3 Bft) O-NO 73 1 min 0,000 mm 1,5 UV-I 462 W/m 8,8 C 17,0 C 20,9 km/h (4 Bft) 100,00 %
27.04.2018 16:52 20,2 C 17,8 C 49 % 1009,1 hPa 0,0 l/m 14,8 km/h (3 Bft) O-NO 70 1 min 0,000 mm 1,5 UV-I 447 W/m 9,1 C 17,5 C 22,5 km/h (4 Bft) 100,00 %
27.04.2018 16:53 20,2 C 17,8 C 48 % 1009,0 hPa 0,0 l/m 18,2 km/h (3 Bft) O-NO 58 1 min 0,000 mm 1,5 UV-I 442 W/m 8,8 C 16,8 C 25,7 km/h (4 Bft) 100,00 %
27.04.2018 16:54 20,2 C 17,8 C 49 % 1009,0 hPa 0,0 l/m 16,0 km/h (3 Bft) NO 52 1 min 0,000 mm 1,5 UV-I 457 W/m 9,1 C 17,3 C 24,1 km/h (4 Bft) 95,65 %
27.04.2018 16:55 20,2 C 17,8 C 48 % 1009,1 hPa 0,0 l/m 17,9 km/h (3 Bft) O 91 1 min 0,000 mm 1,5 UV-I 454 W/m 8,8 C 16,9 C 27,4 km/h (4 Bft) 100,00 %
27.04.2018 16:56 20,2 C 17,8 C 47 % 1009,0 hPa 0,0 l/m 20,1 km/h (4 Bft) NO 53 1 min 0,000 mm 1,5 UV-I 447 W/m 8,5 C 16,4 C 27,4 km/h (4 Bft) 95,65 %
27.04.2018 16:58 20,2 C 17,8 C 48 % 1009,0 hPa 0,0 l/m 17,1 km/h (3 Bft) O-NO 75 2 min 0,000 mm 1,4 UV-I 454 W/m 8,8 C 17,0 C 22,5 km/h (4 Bft) 100,00 %
27.04.2018 16:59 20,2 C 17,8 C 49 % 1009,0 hPa 0,0 l/m 12,3 km/h (3 Bft) NO 38 1 min 0,000 mm 1,4 UV-I 445 W/m 9,1 C 18,2 C 17,7 km/h (3 Bft) 100,00 %
27.04.2018 17:00 20,2 C 17,8 C 50 % 1009,0 hPa 0,0 l/m 13,8 km/h (3 Bft) NO 55 1 min 0,000 mm 1,4 UV-I 441 W/m 9,4 C 17,8 C 17,7 km/h (3 Bft) 95,65 %
27.04.2018 17:02 20,3 C 17,8 C 50 % 1009,0 hPa 0,0 l/m 17,0 km/h (3 Bft) N-NO 31 2 min 0,432 mm 1,4 UV-I 437 W/m 9,5 C 17,2 C 22,5 km/h (4 Bft) 97,87 %
27.04.2018 17:03 20,3 C 17,8 C 49 % 1009,0 hPa 0,0 l/m 18,2 km/h (3 Bft) O-NO 59 1 min 0,000 mm 1,3 UV-I 437 W/m 9,2 C 16,9 C 24,1 km/h (4 Bft) 100,00 %
27.04.2018 17:04 20,2 C 17,8 C 49 % 1009,0 hPa 0,0 l/m 19,9 km/h (4 Bft) NO 51 1 min 0,000 mm 1,3 UV-I 432 W/m 9,1 C 16,5 C 29,0 km/h (5 Bft) 100,00 %
27.04.2018 17:05 20,2 C 17,8 C 48 % 1008,9 hPa 0,0 l/m 24,0 km/h (4 Bft) O-NO 59 1 min 0,000 mm 1,3 UV-I 431 W/m 8,8 C 15,8 C 30,6 km/h (5 Bft) 100,00 %
27.04.2018 17:06 20,1 C 17,8 C 48 % 1009,0 hPa 0,0 l/m 20,4 km/h (4 Bft) NO 46 1 min 0,000 mm 1,3 UV-I 428 W/m 8,7 C 16,3 C 25,7 km/h (4 Bft) 100,00 %
27.04.2018 17:07 20,1 C 17,8 C 49 % 1009,0 hPa 0,0 l/m 20,5 km/h (4 Bft) O-NO 64 1 min 0,000 mm 1,3 UV-I 426 W/m 9,0 C 16,2 C 25,7 km/h (4 Bft) 96,15 %
27.04.2018 17:08 20,1 C 17,8 C 48 % 1008,9 hPa 0,0 l/m 22,1 km/h (4 Bft) NO 51 1 min 0,000 mm 1,3 UV-I 424 W/m 8,7 C 16,0 C 29,0 km/h (5 Bft) 100,00 %
27.04.2018 17:09 20,1 C 17,8 C 49 % 1008,9 hPa 0,0 l/m 22,1 km/h (4 Bft) O-NO 74 1 min 0,000 mm 1,3 UV-I 422 W/m 9,0 C 16,0 C 25,7 km/h (4 Bft) 100,00 %
27.04.2018 17:10 20,2 C 17,8 C 48 % 1008,9 hPa 0,0 l/m 16,2 km/h (3 Bft) NO 51 1 min 0,000 mm 1,3 UV-I 421 W/m 8,8 C 17,2 C 20,9 km/h (4 Bft) 100,00 %
27.04.2018 17:11 20,2 C 17,8 C 49 % 1008,9 hPa 0,0 l/m 13,9 km/h (3 Bft) O 82 1 min 0,000 mm 1,2 UV-I 412 W/m 9,1 C 17,8 C 24,1 km/h (4 Bft) 100,00 %
27.04.2018 17:12 20,2 C 17,8 C 49 % 1008,9 hPa 0,0 l/m 17,0 km/h (3 Bft) O-NO 76 1 min 0,000 mm 1,2 UV-I 413 W/m 9,1 C 17,0 C 24,1 km/h (4 Bft) 100,00 %
27.04.2018 17:13 20,3 C 17,8 C 49 % 1008,9 hPa 0,0 l/m 23,2 km/h (4 Bft) NO 56 1 min 0,000 mm 1,2 UV-I 407 W/m 9,2 C 16,1 C 30,6 km/h (5 Bft) 100,00 %
27.04.2018 17:14 20,3 C 17,8 C 47 % 1008,8 hPa 0,0 l/m 22,5 km/h (4 Bft) O 88 1 min 0,000 mm 1,2 UV-I 402 W/m 8,6 C 16,2 C 27,4 km/h (4 Bft) 100,00 %
27.04.2018 17:15 20,2 C 17,8 C 46 % 1008,8 hPa 0,0 l/m 19,4 km/h (3 Bft) O 96 1 min 0,000 mm 1,2 UV-I 395 W/m 8,2 C 16,6 C 25,7 km/h (4 Bft) 95,65 %
27.04.2018 17:16 20,2 C 17,8 C 46 % 1008,8 hPa 0,0 l/m 19,0 km/h (3 Bft) O-NO 72 1 min 0,000 mm 1,2 UV-I 398 W/m 8,2 C 16,6 C 24,1 km/h (4 Bft) 100,00 %
27.04.2018 17:17 20,2 C 17,8 C 47 % 1008,8 hPa 0,0 l/m 23,1 km/h (4 Bft) NO 56 1 min 0,000 mm 1,1 UV-I 391 W/m 8,5 C 15,9 C 32,2 km/h (5 Bft) 100,00 %
27.04.2018 17:18 20,2 C 17,8 C 47 % 1008,8 hPa 0,0 l/m 19,3 km/h (3 Bft) NO 47 1 min 0,000 mm 1,1 UV-I 395 W/m 8,5 C 16,6 C 25,7 km/h (4 Bft) 100,00 %
27.04.2018 17:19 20,2 C 17,8 C 47 % 1008,8 hPa 0,0 l/m 17,4 km/h (3 Bft) O-NO 78 1 min 0,000 mm 1,1 UV-I 398 W/m 8,5 C 17,0 C 24,1 km/h (4 Bft) 100,00 %
27.04.2018 17:20 20,2 C 17,8 C 47 % 1008,8 hPa 0,0 l/m 18,1 km/h (3 Bft) O 80 1 min 0,000 mm 1,1 UV-I 397 W/m 8,5 C 16,8 C 24,1 km/h (4 Bft) 100,00 %
27.04.2018 17:21 20,2 C 17,8 C 47 % 1008,9 hPa 0,0 l/m 17,3 km/h (3 Bft) O 95 1 min 0,000 mm 1,1 UV-I 396 W/m 8,5 C 17,0 C 20,9 km/h (4 Bft) 100,00 %
27.04.2018 17:22 20,2 C 17,8 C 47 % 1008,8 hPa 0,0 l/m 12,9 km/h (3 Bft) O 82 1 min 0,000 mm 1,1 UV-I 392 W/m 8,5 C 18,0 C 19,3 km/h (3 Bft) 100,00 %
27.04.2018 17:23 20,2 C 17,8 C 49 % 1008,9 hPa 0,0 l/m 19,6 km/h (3 Bft) O-NO 63 1 min 0,000 mm 1,1 UV-I 388 W/m 9,1 C 16,5 C 27,4 km/h (4 Bft) 95,65 %
27.04.2018 17:24 20,2 C 17,8 C 47 % 1008,9 hPa 0,0 l/m 19,1 km/h (3 Bft) O-NO 67 1 min 0,000 mm 1,1 UV-I 392 W/m 8,5 C 16,6 C 25,7 km/h (4 Bft) 100,00 %
27.04.2018 17:25 20,2 C 17,8 C 46 % 1008,9 hPa 0,0 l/m 18,6 km/h (3 Bft) O-NO 78 1 min 0,000 mm 1,1 UV-I 390 W/m 8,2 C 16,7 C 24,1 km/h (4 Bft) 100,00 %
27.04.2018 17:26 20,2 C 17,8 C 47 % 1008,8 hPa 0,0 l/m 18,9 km/h (3 Bft) O 89 1 min 0,000 mm 1,1 UV-I 388 W/m 8,5 C 16,7 C 24,1 km/h (4 Bft) 100,00 %
27.04.2018 17:28 20,2 C 17,8 C 48 % 1008,9 hPa 0,0 l/m 16,3 km/h (3 Bft) O-NO 73 2 min 0,000 mm 1,0 UV-I 381 W/m 8,8 C 17,2 C 24,1 km/h (4 Bft) 100,00 %
27.04.2018 17:29 20,2 C 17,8 C 48 % 1008,9 hPa 0,0 l/m 19,4 km/h (3 Bft) O-NO 78 1 min 0,000 mm 1,0 UV-I 374 W/m 8,8 C 16,6 C 25,7 km/h (4 Bft) 100,00 %
27.04.2018 17:30 20,2 C 17,8 C 48 % 1008,8 hPa 0,0 l/m 18,8 km/h (3 Bft) O-NO 74 1 min 0,000 mm 1,0 UV-I 371 W/m 8,8 C 16,7 C 22,5 km/h (4 Bft) 100,00 %
27.04.2018 17:31 20,2 C 17,8 C 47 % 1008,8 hPa 0,0 l/m 13,2 km/h (3 Bft) O 86 1 min 0,000 mm 1,0 UV-I 363 W/m 8,5 C 17,9 C 20,9 km/h (4 Bft) 100,00 %
27.04.2018 17:32 20,2 C 17,8 C 49 % 1008,8 hPa 0,0 l/m 21,6 km/h (4 Bft) NO 38 1 min 0,000 mm 1,0 UV-I 358 W/m 9,1 C 16,2 C 29,0 km/h (5 Bft) 100,00 %
27.04.2018 17:33 20,1 C 17,8 C 49 % 1008,8 hPa 0,0 l/m 16,4 km/h (3 Bft) O-NO 69 1 min 0,000 mm 0,9 UV-I 357 W/m 9,0 C 17,1 C 24,1 km/h (4 Bft) 100,00 %
27.04.2018 17:34 20,1 C 17,8 C 48 % 1008,8 hPa 0,0 l/m 15,6 km/h (3 Bft) NO 49 1 min 0,000 mm 0,9 UV-I 355 W/m 8,7 C 17,2 C 25,7 km/h (4 Bft) 100,00 %
27.04.2018 17:35 20,1 C 17,8 C 49 % 1008,8 hPa 0,0 l/m 22,7 km/h (4 Bft) O-NO 57 1 min 0,000 mm 0,9 UV-I 351 W/m 9,0 C 15,9 C 29,0 km/h (5 Bft) 100,00 %
27.04.2018 17:36 20,1 C 17,8 C 48 % 1008,8 hPa 0,0 l/m 16,9 km/h (3 Bft) O-NO 59 1 min 0,000 mm 0,9 UV-I 348 W/m 8,7 C 16,9 C 24,1 km/h (4 Bft) 86,96 %
27.04.2018 17:37 20,2 C 17,8 C 49 % 1008,8 hPa 0,0 l/m 16,8 km/h (3 Bft) O-NO 67 1 min 0,000 mm 0,9 UV-I 342 W/m 9,1 C 17,1 C 27,4 km/h (4 Bft) 100,00 %
27.04.2018 17:38 20,2 C 17,8 C 47 % 1008,8 hPa 0,0 l/m 16,1 km/h (3 Bft) O-NO 75 1 min 0,000 mm 0,9 UV-I 340 W/m 8,5 C 17,2 C 20,9 km/h (4 Bft) 100,00 %
27.04.2018 17:39 20,2 C 17,8 C 48 % 1008,8 hPa 0,0 l/m 14,4 km/h (3 Bft) O-NO 70 1 min 0,000 mm 0,9 UV-I 341 W/m 8,8 C 17,6 C 20,9 km/h (4 Bft) 100,00 %
27.04.2018 17:40 20,1 C 17,8 C 49 % 1008,8 hPa 0,0 l/m 19,0 km/h (3 Bft) O 80 1 min 0,000 mm 0,9 UV-I 331 W/m 9,0 C 16,5 C 20,9 km/h (4 Bft) 100,00 %
27.04.2018 17:41 20,1 C 17,8 C 48 % 1008,8 hPa 0,0 l/m 17,6 km/h (3 Bft) O-NO 62 1 min 0,000 mm 0,8 UV-I 327 W/m 8,7 C 16,8 C 25,7 km/h (4 Bft) 94,74 %
27.04.2018 17:42 20,1 C 17,8 C 48 % 1008,8 hPa 0,0 l/m 18,3 km/h (3 Bft) N-NO 32 1 min 0,000 mm 0,8 UV-I 324 W/m 8,7 C 16,7 C 24,1 km/h (4 Bft) 91,30 %
27.04.2018 17:43 20,2 C 17,8 C 49 % 1008,8 hPa 0,0 l/m 17,6 km/h (3 Bft) O-NO 67 1 min 0,000 mm 0,8 UV-I 327 W/m 9,1 C 16,9 C 22,5 km/h (4 Bft) 100,00 %
27.04.2018 17:44 20,2 C 17,8 C 48 % 1008,9 hPa 0,0 l/m 18,1 km/h (3 Bft) O 80 1 min 0,000 mm 0,8 UV-I 329 W/m 8,8 C 16,8 C 24,1 km/h (4 Bft) 96,15 %
27.04.2018 17:45 20,2 C 17,8 C 48 % 1008,8 hPa 0,0 l/m 18,2 km/h (3 Bft) NO 40 1 min 0,000 mm 0,8 UV-I 329 W/m 8,8 C 16,8 C 25,7 km/h (4 Bft) 100,00 %
27.04.2018 17:46 20,2 C 17,8 C 48 % 1008,8 hPa 0,0 l/m 15,8 km/h (3 Bft) O 80 1 min 0,000 mm 0,8 UV-I 322 W/m 8,8 C 17,3 C 25,7 km/h (4 Bft) 93,33 %
27.04.2018 17:47 20,2 C 17,8 C 48 % 1008,8 hPa 0,0 l/m 19,2 km/h (3 Bft) NO 42 1 min 0,000 mm 0,8 UV-I 320 W/m 8,8 C 16,6 C 24,1 km/h (4 Bft) 100,00 %
27.04.2018 17:48 20,2 C 17,8 C 48 % 1008,9 hPa 0,0 l/m 18,0 km/h (3 Bft) O-NO 58 1 min 0,000 mm 0,8 UV-I 312 W/m 8,8 C 16,8 C 20,9 km/h (4 Bft) 96,30 %
27.04.2018 17:49 20,1 C 17,8 C 49 % 1008,8 hPa 0,0 l/m 15,8 km/h (3 Bft) O-NO 59 1 min 0,000 mm 0,8 UV-I 309 W/m 9,0 C 17,2 C 20,9 km/h (4 Bft) 100,00 %
27.04.2018 17:50 20,1 C 17,8 C 49 % 1008,8 hPa 0,0 l/m 18,5 km/h (3 Bft) O 85 1 min 0,000 mm 0,7 UV-I 312 W/m 9,0 C 16,6 C 29,0 km/h (5 Bft) 95,83 %
27.04.2018 17:51 20,1 C 17,8 C 47 % 1008,9 hPa 0,0 l/m 20,3 km/h (4 Bft) O-NO 66 1 min 0,000 mm 0,7 UV-I 307 W/m 8,4 C 16,3 C 24,1 km/h (4 Bft) 95,65 %
27.04.2018 17:52 20,1 C 17,8 C 47 % 1008,8 hPa 0,0 l/m 16,0 km/h (3 Bft) O-NO 65 1 min 0,000 mm 0,7 UV-I 304 W/m 8,4 C 17,1 C 19,3 km/h (3 Bft) 100,00 %
27.04.2018 17:53 20,1 C 17,8 C 49 % 1008,8 hPa 0,0 l/m 17,6 km/h (3 Bft) O-NO 74 1 min 0,000 mm 0,7 UV-I 303 W/m 9,0 C 16,8 C 22,5 km/h (4 Bft) 86,96 %
27.04.2018 17:54 20,1 C 17,8 C 47 % 1008,9 hPa 0,0 l/m 14,6 km/h (3 Bft) NO 51 1 min 0,000 mm 0,7 UV-I 302 W/m 8,4 C 17,5 C 17,7 km/h (3 Bft) 100,00 %
27.04.2018 17:55 20,1 C 17,8 C 49 % 1008,8 hPa 0,0 l/m 15,9 km/h (3 Bft) O-NO 74 1 min 0,000 mm 0,7 UV-I 300 W/m 9,0 C 17,2 C 22,5 km/h (4 Bft) 92,86 %
27.04.2018 17:56 20,0 C 17,8 C 50 % 1008,8 hPa 0,0 l/m 16,8 km/h (3 Bft) O-NO 66 1 min 0,000 mm 0,7 UV-I 301 W/m 9,3 C 16,8 C 22,5 km/h (4 Bft) 100,00 %
27.04.2018 17:57 20,0 C 17,8 C 48 % 1008,8 hPa 0,0 l/m 20,4 km/h (4 Bft) NO 44 1 min 0,000 mm 0,7 UV-I 297 W/m 8,7 C 16,1 C 25,7 km/h (4 Bft) 91,67 %
27.04.2018 17:58 19,9 C 17,8 C 48 % 1008,8 hPa 0,0 l/m 14,9 km/h (3 Bft) O 82 1 min 0,000 mm 0,7 UV-I 293 W/m 8,6 C 17,2 C 22,5 km/h (4 Bft) 100,00 %
27.04.2018 17:59 19,9 C 17,8 C 47 % 1008,8 hPa 0,0 l/m 14,1 km/h (3 Bft) NO 55 1 min 0,000 mm 0,6 UV-I 289 W/m 8,3 C 17,3 C 17,7 km/h (3 Bft) 95,83 %
27.04.2018 18:00 19,9 C 17,8 C 48 % 1008,8 hPa 0,0 l/m 14,3 km/h (3 Bft) NO 51 1 min 0,000 mm 0,6 UV-I 285 W/m 8,6 C 17,3 C 25,7 km/h (4 Bft) 95,65 %
27.04.2018 18:02 20,0 C 17,8 C 48 % 1008,8 hPa 0,0 l/m 18,8 km/h (3 Bft) O-NO 63 2 min 0,330 mm 0,6 UV-I 281 W/m 8,7 C 16,4 C 27,4 km/h (4 Bft) 96,23 %
27.04.2018 18:03 20,0 C 17,8 C 47 % 1008,7 hPa 0,0 l/m 18,6 km/h (3 Bft) O-NO 58 1 min 0,000 mm 0,6 UV-I 281 W/m 8,3 C 16,5 C 20,9 km/h (4 Bft) 100,00 %
27.04.2018 18:04 20,0 C 17,8 C 48 % 1008,7 hPa 0,0 l/m 18,3 km/h (3 Bft) O-NO 78 1 min 0,000 mm 0,6 UV-I 276 W/m 8,7 C 16,5 C 22,5 km/h (4 Bft) 91,67 %
27.04.2018 18:05 20,0 C 17,8 C 48 % 1008,7 hPa 0,0 l/m 18,3 km/h (3 Bft) O-NO 62 1 min 0,000 mm 0,6 UV-I 272 W/m 8,7 C 16,5 C 22,5 km/h (4 Bft) 100,00 %
27.04.2018 18:06 19,9 C 17,8 C 47 % 1008,7 hPa 0,0 l/m 17,0 km/h (3 Bft) NO 34 1 min 0,000 mm 0,6 UV-I 271 W/m 8,3 C 16,7 C 20,9 km/h (4 Bft) 95,65 %
27.04.2018 18:07 20,0 C 17,8 C 49 % 1008,7 hPa 0,0 l/m 14,8 km/h (3 Bft) O-NO 57 1 min 0,000 mm 0,6 UV-I 267 W/m 9,0 C 17,3 C 20,9 km/h (4 Bft) 95,83 %
27.04.2018 18:08 19,9 C 17,8 C 48 % 1008,7 hPa 0,0 l/m 15,3 km/h (3 Bft) O-NO 68 1 min 0,000 mm 0,6 UV-I 263 W/m 8,6 C 17,1 C 19,3 km/h (3 Bft) 100,00 %
27.04.2018 18:09 19,9 C 17,8 C 47 % 1008,7 hPa 0,0 l/m 21,0 km/h (4 Bft) O 82 1 min 0,000 mm 0,5 UV-I 260 W/m 8,3 C 15,9 C 25,7 km/h (4 Bft) 96,30 %
27.04.2018 18:10 19,9 C 17,8 C 47 % 1008,7 hPa 0,0 l/m 20,0 km/h (4 Bft) O-NO 78 1 min 0,000 mm 0,5 UV-I 258 W/m 8,3 C 16,1 C 24,1 km/h (4 Bft) 95,65 %
27.04.2018 18:11 19,9 C 17,8 C 47 % 1008,7 hPa 0,0 l/m 14,8 km/h (3 Bft) NO 55 1 min 0,000 mm 0,5 UV-I 256 W/m 8,3 C 17,2 C 22,5 km/h (4 Bft) 95,83 %
27.04.2018 18:12 19,9 C 17,8 C 47 % 1008,7 hPa 0,0 l/m 19,2 km/h (3 Bft) O-NO 69 1 min 0,000 mm 0,5 UV-I 254 W/m 8,3 C 16,2 C 22,5 km/h (4 Bft) 95,65 %
27.04.2018 18:13 19,9 C 17,8 C 49 % 1008,8 hPa 0,0 l/m 18,8 km/h (3 Bft) NO 45 1 min 0,000 mm 0,5 UV-I 252 W/m 8,9 C 16,3 C 22,5 km/h (4 Bft) 100,00 %
27.04.2018 18:14 19,9 C 17,8 C 48 % 1008,8 hPa 0,0 l/m 19,6 km/h (3 Bft) NO 56 1 min 0,000 mm 0,5 UV-I 248 W/m 8,6 C 16,2 C 25,7 km/h (4 Bft) 96,15 %
27.04.2018 18:15 19,9 C 17,8 C 48 % 1008,7 hPa 0,0 l/m 16,3 km/h (3 Bft) O-NO 63 1 min 0,000 mm 0,5 UV-I 245 W/m 8,6 C 16,8 C 19,3 km/h (3 Bft) 100,00 %
27.04.2018 18:16 19,9 C 17,8 C 49 % 1008,8 hPa 0,0 l/m 16,4 km/h (3 Bft) O-NO 59 1 min 0,000 mm 0,5 UV-I 242 W/m 8,9 C 16,8 C 20,9 km/h (4 Bft) 86,96 %
27.04.2018 18:17 19,8 C 17,8 C 48 % 1008,7 hPa 0,0 l/m 18,9 km/h (3 Bft) O-NO 60 1 min 0,000 mm 0,5 UV-I 239 W/m 8,5 C 16,2 C 22,5 km/h (4 Bft) 100,00 %
27.04.2018 18:18 19,8 C 17,8 C 49 % 1008,7 hPa 0,0 l/m 18,1 km/h (3 Bft) NO 41 1 min 0,000 mm 0,5 UV-I 236 W/m 8,8 C 16,3 C 25,7 km/h (4 Bft) 95,65 %
27.04.2018 18:19 19,8 C 17,8 C 49 % 1008,7 hPa 0,0 l/m 18,7 km/h (3 Bft) O-NO 78 1 min 0,000 mm 0,5 UV-I 235 W/m 8,8 C 16,2 C 22,5 km/h (4 Bft) 95,83 %
27.04.2018 18:20 19,8 C 17,8 C 48 % 1008,7 hPa 0,0 l/m 16,4 km/h (3 Bft) O 83 1 min 0,000 mm 0,1 UV-I 232 W/m 8,5 C 16,7 C 22,5 km/h (4 Bft) 100,00 %
27.04.2018 18:21 19,8 C 17,8 C 48 % 1008,7 hPa 0,0 l/m 13,2 km/h (3 Bft) O-NO 63 1 min 0,000 mm 0,0 UV-I 229 W/m 8,5 C 17,5 C 17,7 km/h (3 Bft) 95,83 %
27.04.2018 18:22 19,8 C 17,8 C 48 % 1008,8 hPa 0,0 l/m 15,4 km/h (3 Bft) NO 53 1 min 0,000 mm 0,0 UV-I 226 W/m 8,5 C 16,9 C 20,9 km/h (4 Bft) 95,65 %
27.04.2018 18:23 19,8 C 17,8 C 49 % 1008,8 hPa 0,0 l/m 10,1 km/h (2 Bft) NO 48 1 min 0,000 mm 0,0 UV-I 225 W/m 8,8 C 18,4 C 14,5 km/h (3 Bft) 95,83 %
27.04.2018 18:24 19,8 C 17,8 C 49 % 1008,7 hPa 0,0 l/m 11,5 km/h (2 Bft) NO 56 1 min 0,000 mm 0,0 UV-I 222 W/m 8,8 C 17,9 C 14,5 km/h (3 Bft) 100,00 %
27.04.2018 18:25 19,8 C 17,8 C 50 % 1008,7 hPa 0,0 l/m 10,0 km/h (2 Bft) O-NO 69 1 min 0,000 mm 0,0 UV-I 219 W/m 9,1 C 18,4 C 14,5 km/h (3 Bft) 91,30 %
27.04.2018 18:26 19,9 C 17,8 C 49 % 1008,7 hPa 0,0 l/m 7,5 km/h (2 Bft) O-NO 74 1 min 0,000 mm 0,0 UV-I 216 W/m 8,9 C 19,4 C 12,9 km/h (3 Bft) 100,00 %
27.04.2018 18:27 19,9 C 17,8 C 50 % 1008,7 hPa 0,0 l/m 13,3 km/h (3 Bft) O-SO 106 1 min 0,000 mm 0,0 UV-I 208 W/m 9,2 C 17,6 C 22,5 km/h (4 Bft) 95,65 %
27.04.2018 18:28 19,9 C 17,8 C 48 % 1008,7 hPa 0,0 l/m 17,5 km/h (3 Bft) NO 53 1 min 0,000 mm 0,0 UV-I 206 W/m 8,6 C 16,6 C 20,9 km/h (4 Bft) 100,00 %
27.04.2018 18:29 19,9 C 17,8 C 47 % 1008,7 hPa 0,0 l/m 15,0 km/h (3 Bft) O 85 1 min 0,000 mm 0,0 UV-I 205 W/m 8,3 C 17,1 C 19,3 km/h (3 Bft) 95,65 %
27.04.2018 18:30 19,8 C 17,8 C 47 % 1008,7 hPa 0,0 l/m 15,5 km/h (3 Bft) O 94 1 min 0,000 mm 0,0 UV-I 203 W/m 8,2 C 16,9 C 24,1 km/h (4 Bft) 100,00 %
27.04.2018 18:31 19,8 C 17,8 C 46 % 1008,7 hPa 0,0 l/m 18,4 km/h (3 Bft) O-NO 78 1 min 0,000 mm 0,0 UV-I 200 W/m 7,8 C 16,3 C 27,4 km/h (4 Bft) 91,30 %
27.04.2018 18:32 19,8 C 17,8 C 47 % 1008,7 hPa 0,0 l/m 14,7 km/h (3 Bft) O 97 1 min 0,000 mm 0,0 UV-I 195 W/m 8,2 C 17,1 C 19,3 km/h (3 Bft) 100,00 %
27.04.2018 18:33 19,7 C 17,8 C 47 % 1008,6 hPa 0,0 l/m 12,7 km/h (3 Bft) O 80 1 min 0,000 mm 0,0 UV-I 193 W/m 8,1 C 17,5 C 16,1 km/h (3 Bft) 91,30 %
27.04.2018 18:34 19,7 C 17,8 C 48 % 1008,7 hPa 0,0 l/m 10,3 km/h (2 Bft) O 89 1 min 0,000 mm 0,0 UV-I 190 W/m 8,4 C 18,2 C 14,5 km/h (3 Bft) 95,83 %
27.04.2018 18:35 19,7 C 17,8 C 49 % 1008,7 hPa 0,0 l/m 11,3 km/h (2 Bft) NO 55 1 min 0,000 mm 0,0 UV-I 188 W/m 8,7 C 17,9 C 16,1 km/h (3 Bft) 100,00 %
27.04.2018 18:36 19,7 C 17,8 C 48 % 1008,7 hPa 0,0 l/m 12,9 km/h (3 Bft) O-NO 71 1 min 0,000 mm 0,0 UV-I 185 W/m 8,4 C 17,4 C 19,3 km/h (3 Bft) 91,67 %
27.04.2018 18:37 19,7 C 17,8 C 48 % 1008,7 hPa 0,0 l/m 13,2 km/h (3 Bft) O-NO 69 1 min 0,000 mm 0,0 UV-I 183 W/m 8,4 C 17,3 C 16,1 km/h (3 Bft) 100,00 %
27.04.2018 18:38 19,7 C 17,8 C 48 % 1008,7 hPa 0,0 l/m 10,3 km/h (2 Bft) N-NO 13 1 min 0,000 mm 0,0 UV-I 181 W/m 8,4 C 18,2 C 14,5 km/h (3 Bft) 95,83 %
27.04.2018 18:39 19,7 C 17,8 C 49 % 1008,7 hPa 0,0 l/m 12,1 km/h (2 Bft) NO 51 1 min 0,000 mm 0,0 UV-I 178 W/m 8,7 C 17,7 C 16,1 km/h (3 Bft) 100,00 %
27.04.2018 18:40 19,6 C 17,8 C 49 % 1008,7 hPa 0,0 l/m 8,6 km/h (2 Bft) NO 50 1 min 0,000 mm 0,0 UV-I 176 W/m 8,6 C 18,7 C 14,5 km/h (3 Bft) 95,83 %
27.04.2018 18:41 19,6 C 17,8 C 50 % 1008,7 hPa 0,0 l/m 12,1 km/h (2 Bft) O-NO 62 1 min 0,000 mm 0,0 UV-I 173 W/m 8,9 C 17,5 C 16,1 km/h (3 Bft) 96,55 %
27.04.2018 18:42 19,6 C 17,8 C 50 % 1008,7 hPa 0,0 l/m 13,6 km/h (3 Bft) O-NO 59 1 min 0,000 mm 0,0 UV-I 171 W/m 8,9 C 17,1 C 17,7 km/h (3 Bft) 97,82 %
27.04.2018 18:43 19,6 C 17,8 C 49 % 1008,7 hPa 0,0 l/m 16,5 km/h (3 Bft) O 86 1 min 0,000 mm 0,0 UV-I 169 W/m 8,6 C 16,4 C 22,5 km/h (4 Bft) 97,44 %
27.04.2018 18:44 19,6 C 17,8 C 49 % 1008,7 hPa 0,0 l/m 13,4 km/h (3 Bft) O-NO 65 1 min 0,000 mm 0,0 UV-I 167 W/m 8,6 C 17,2 C 16,1 km/h (3 Bft) 95,65 %
27.04.2018 18:45 19,6 C 17,8 C 49 % 1008,7 hPa 0,0 l/m 8,4 km/h (2 Bft) O-NO 65 1 min 0,000 mm 0,0 UV-I 163 W/m 8,6 C 18,8 C 14,5 km/h (3 Bft) 95,83 %
27.04.2018 18:46 19,6 C 17,8 C 49 % 1008,7 hPa 0,0 l/m 10,9 km/h (2 Bft) O-NO 77 1 min 0,000 mm 0,0 UV-I 162 W/m 8,6 C 17,9 C 14,5 km/h (3 Bft) 100,00 %
27.04.2018 18:47 19,6 C 17,8 C 49 % 1008,7 hPa 0,0 l/m 10,7 km/h (2 Bft) O 79 1 min 0,000 mm 0,0 UV-I 160 W/m 8,6 C 18,0 C 14,5 km/h (3 Bft) 95,83 %
27.04.2018 18:48 19,6 C 17,8 C 49 % 1008,7 hPa 0,0 l/m 14,8 km/h (3 Bft) O-NO 73 1 min 0,000 mm 0,0 UV-I 157 W/m 8,6 C 16,8 C 20,9 km/h (4 Bft) 100,00 %
27.04.2018 18:49 19,5 C 17,8 C 49 % 1008,7 hPa 0,0 l/m 12,6 km/h (3 Bft) O 83 1 min 0,000 mm 0,0 UV-I 155 W/m 8,5 C 17,3 C 16,1 km/h (3 Bft) 87,50 %
27.04.2018 18:50 19,5 C 17,8 C 49 % 1008,7 hPa 0,0 l/m 12,6 km/h (3 Bft) O 95 1 min 0,000 mm 0,0 UV-I 152 W/m 8,5 C 17,3 C 16,1 km/h (3 Bft) 95,65 %
27.04.2018 18:51 19,4 C 17,8 C 49 % 1008,7 hPa 0,0 l/m 12,0 km/h (2 Bft) O 89 1 min 0,000 mm 0,0 UV-I 149 W/m 8,4 C 17,3 C 17,7 km/h (3 Bft) 95,83 %
27.04.2018 18:52 19,4 C 17,8 C 49 % 1008,7 hPa 0,0 l/m 11,5 km/h (2 Bft) O-NO 71 1 min 0,000 mm 0,0 UV-I 147 W/m 8,4 C 17,5 C 17,7 km/h (3 Bft) 100,00 %
27.04.2018 18:53 19,4 C 17,8 C 48 % 1008,7 hPa 0,0 l/m 13,8 km/h (3 Bft) O-NO 76 1 min 0,000 mm 0,0 UV-I 145 W/m 8,1 C 16,8 C 20,9 km/h (4 Bft) 95,83 %
27.04.2018 18:54 19,4 C 17,8 C 49 % 1008,7 hPa 0,0 l/m 15,2 km/h (3 Bft) O-NO 60 1 min 0,000 mm 0,0 UV-I 143 W/m 8,4 C 16,5 C 19,3 km/h (3 Bft) 96,15 %
27.04.2018 18:55 19,4 C 17,8 C 49 % 1008,7 hPa 0,0 l/m 9,9 km/h (2 Bft) O-NO 63 1 min 0,000 mm 0,0 UV-I 141 W/m 8,4 C 18,0 C 14,5 km/h (3 Bft) 100,00 %
27.04.2018 18:56 19,4 C 17,8 C 50 % 1008,7 hPa 0,0 l/m 12,1 km/h (2 Bft) O 80 1 min 0,000 mm 0,0 UV-I 137 W/m 8,7 C 17,3 C 14,5 km/h (3 Bft) 100,00 %
27.04.2018 18:57 19,3 C 17,8 C 50 % 1008,7 hPa 0,0 l/m 14,8 km/h (3 Bft) O-NO 71 1 min 0,000 mm 0,0 UV-I 135 W/m 8,6 C 16,5 C 17,7 km/h (3 Bft) 95,83 %
27.04.2018 18:58 19,3 C 17,8 C 48 % 1008,7 hPa 0,0 l/m 13,3 km/h (3 Bft) O-NO 67 1 min 0,000 mm 0,0 UV-I 133 W/m 8,0 C 16,8 C 16,1 km/h (3 Bft) 96,15 %
27.04.2018 18:59 19,3 C 17,8 C 49 % 1008,6 hPa 0,0 l/m 13,8 km/h (3 Bft) O-NO 64 1 min 0,000 mm 0,0 UV-I 131 W/m 8,3 C 16,7 C 19,3 km/h (3 Bft) 100,00 %
27.04.2018 19:00 19,3 C 17,8 C 49 % 1008,6 hPa 0,0 l/m 13,0 km/h (3 Bft) O-NO 74 1 min 0,000 mm 0,0 UV-I 130 W/m 8,3 C 16,9 C 16,1 km/h (3 Bft) 95,83 %
27.04.2018 19:02 19,2 C 17,8 C 49 % 1008,6 hPa 0,0 l/m 11,4 km/h (2 Bft) O 87 2 min 0,229 mm 0,0 UV-I 126 W/m 8,2 C 17,3 C 17,7 km/h (3 Bft) 97,87 %
27.04.2018 19:03 19,2 C 17,8 C 50 % 1008,6 hPa 0,0 l/m 11,3 km/h (2 Bft) NO 37 1 min 0,000 mm 0,0 UV-I 124 W/m 8,5 C 17,3 C 14,5 km/h (3 Bft) 95,65 %
27.04.2018 19:04 19,2 C 17,8 C 50 % 1008,6 hPa 0,0 l/m 11,9 km/h (2 Bft) O-NO 59 1 min 0,000 mm 0,0 UV-I 121 W/m 8,5 C 17,1 C 16,1 km/h (3 Bft) 91,67 %
27.04.2018 19:05 19,1 C 17,8 C 50 % 1008,6 hPa 0,0 l/m 10,5 km/h (2 Bft) O-NO 61 1 min 0,000 mm 0,0 UV-I 119 W/m 8,4 C 17,5 C 14,5 km/h (3 Bft) 92,31 %
27.04.2018 19:06 19,1 C 17,8 C 51 % 1008,6 hPa 0,0 l/m 9,9 km/h (2 Bft) NO 51 1 min 0,000 mm 0,0 UV-I 116 W/m 8,7 C 17,7 C 14,5 km/h (3 Bft) 100,00 %
27.04.2018 19:07 19,1 C 17,8 C 50 % 1008,6 hPa 0,0 l/m 8,3 km/h (2 Bft) O 86 1 min 0,000 mm 0,0 UV-I 114 W/m 8,4 C 18,3 C 12,9 km/h (3 Bft) 86,96 %
27.04.2018 19:08 19,1 C 17,8 C 50 % 1008,6 hPa 0,0 l/m 8,2 km/h (2 Bft) O-NO 59 1 min 0,000 mm 0,0 UV-I 113 W/m 8,4 C 18,3 C 14,5 km/h (3 Bft) 100,00 %
27.04.2018 19:09 19,0 C 17,8 C 51 % 1008,6 hPa 0,0 l/m 8,7 km/h (2 Bft) O-NO 71 1 min 0,000 mm 0,0 UV-I 110 W/m 8,6 C 18,0 C 14,5 km/h (3 Bft) 97,14 %
27.04.2018 19:10 19,0 C 17,8 C 51 % 1008,6 hPa 0,0 l/m 10,1 km/h (2 Bft) O-NO 69 1 min 0,000 mm 0,0 UV-I 108 W/m 8,6 C 17,5 C 14,5 km/h (3 Bft) 100,00 %
27.04.2018 19:11 19,0 C 17,8 C 51 % 1008,6 hPa 0,0 l/m 12,3 km/h (3 Bft) O-NO 72 1 min 0,000 mm 0,0 UV-I 106 W/m 8,6 C 16,8 C 16,1 km/h (3 Bft) 94,29 %
27.04.2018 19:12 18,9 C 17,8 C 51 % 1008,6 hPa 0,0 l/m 11,1 km/h (2 Bft) O 82 1 min 0,000 mm 0,0 UV-I 104 W/m 8,5 C 17,0 C 16,1 km/h (3 Bft) 100,00 %
27.04.2018 19:13 18,9 C 17,8 C 51 % 1008,6 hPa 0,0 l/m 9,4 km/h (2 Bft) O-NO 74 1 min 0,000 mm 0,0 UV-I 102 W/m 8,5 C 17,6 C 12,9 km/h (3 Bft) 96,15 %
27.04.2018 19:14 18,9 C 17,8 C 51 % 1008,6 hPa 0,0 l/m 10,6 km/h (2 Bft) O 99 1 min 0,000 mm 0,0 UV-I 100 W/m 8,5 C 17,2 C 14,5 km/h (3 Bft) 100,00 %
27.04.2018 19:15 18,9 C 17,8 C 50 % 1008,6 hPa 0,0 l/m 10,0 km/h (2 Bft) O-NO 71 1 min 0,000 mm 0,0 UV-I 98 W/m 8,2 C 17,4 C 12,9 km/h (3 Bft) 95,65 %
27.04.2018 19:16 18,9 C 17,8 C 51 % 1008,6 hPa 0,0 l/m 13,3 km/h (3 Bft) O 86 1 min 0,000 mm 0,0 UV-I 96 W/m 8,5 C 16,4 C 19,3 km/h (3 Bft) 95,83 %
27.04.2018 19:17 18,8 C 17,8 C 52 % 1008,6 hPa 0,0 l/m 9,3 km/h (2 Bft) O 92 1 min 0,000 mm 0,0 UV-I 94 W/m 8,7 C 17,6 C 14,5 km/h (3 Bft) 91,67 %
27.04.2018 19:18 18,8 C 17,8 C 52 % 1008,6 hPa 0,0 l/m 11,3 km/h (2 Bft) O-NO 73 1 min 0,000 mm 0,0 UV-I 91 W/m 8,7 C 16,9 C 16,1 km/h (3 Bft) 91,30 %
27.04.2018 19:19 18,8 C 17,8 C 51 % 1008,6 hPa 0,0 l/m 10,6 km/h (2 Bft) O 82 1 min 0,000 mm 0,0 UV-I 90 W/m 8,4 C 17,1 C 14,5 km/h (3 Bft) 100,00 %
27.04.2018 19:20 18,7 C 17,8 C 51 % 1008,6 hPa 0,0 l/m 6,7 km/h (2 Bft) O 80 1 min 0,000 mm 0,0 UV-I 89 W/m 8,4 C 18,6 C 11,3 km/h (2 Bft) 91,30 %
27.04.2018 19:21 18,7 C 17,8 C 52 % 1008,6 hPa 0,0 l/m 9,1 km/h (2 Bft) O-NO 70 1 min 0,000 mm 0,0 UV-I 85 W/m 8,6 C 17,5 C 12,9 km/h (3 Bft) 100,00 %
27.04.2018 19:22 18,7 C 17,8 C 52 % 1008,7 hPa 0,0 l/m 9,7 km/h (2 Bft) O-NO 69 1 min 0,000 mm 0,0 UV-I 84 W/m 8,6 C 17,3 C 14,5 km/h (3 Bft) 95,65 %
27.04.2018 19:23 18,7 C 17,8 C 51 % 1008,6 hPa 0,0 l/m 12,1 km/h (2 Bft) O 86 1 min 0,000 mm 0,0 UV-I 82 W/m 8,4 C 16,5 C 14,5 km/h (3 Bft) 100,00 %
27.04.2018 19:24 18,6 C 17,8 C 51 % 1008,7 hPa 0,0 l/m 11,7 km/h (2 Bft) O-NO 77 1 min 0,000 mm 0,0 UV-I 79 W/m 8,3 C 16,5 C 20,9 km/h (4 Bft) 95,65 %
27.04.2018 19:25 18,7 C 17,8 C 51 % 1008,7 hPa 0,0 l/m 14,1 km/h (3 Bft) O 92 1 min 0,000 mm 0,0 UV-I 77 W/m 8,4 C 15,9 C 17,7 km/h (3 Bft) 100,00 %
27.04.2018 19:26 18,6 C 17,8 C 51 % 1008,6 hPa 0,0 l/m 9,3 km/h (2 Bft) O-NO 61 1 min 0,000 mm 0,0 UV-I 75 W/m 8,3 C 17,4 C 12,9 km/h (3 Bft) 96,15 %
27.04.2018 19:27 18,6 C 17,8 C 52 % 1008,6 hPa 0,0 l/m 9,6 km/h (2 Bft) O-NO 69 1 min 0,000 mm 0,0 UV-I 73 W/m 8,5 C 17,2 C 12,9 km/h (3 Bft) 95,83 %
27.04.2018 19:28 18,6 C 17,8 C 52 % 1008,6 hPa 0,0 l/m 11,0 km/h (2 Bft) O 97 1 min 0,000 mm 0,0 UV-I 71 W/m 8,5 C 16,7 C 12,9 km/h (3 Bft) 100,00 %
27.04.2018 19:29 18,5 C 17,8 C 52 % 1008,6 hPa 0,0 l/m 12,7 km/h (3 Bft) O 80 1 min 0,000 mm 0,0 UV-I 69 W/m 8,5 C 16,1 C 19,3 km/h (3 Bft) 100,00 %
27.04.2018 19:30 18,4 C 17,8 C 52 % 1008,6 hPa 0,0 l/m 13,0 km/h (3 Bft) O-NO 71 1 min 0,000 mm 0,0 UV-I 67 W/m 8,4 C 15,9 C 17,7 km/h (3 Bft) 96,15 %
27.04.2018 19:31 18,4 C 17,8 C 52 % 1008,6 hPa 0,0 l/m 14,5 km/h (3 Bft) O 93 1 min 0,000 mm 0,0 UV-I 65 W/m 8,4 C 15,4 C 17,7 km/h (3 Bft) 95,83 %
27.04.2018 19:32 18,4 C 17,8 C 52 % 1008,6 hPa 0,0 l/m 10,9 km/h (2 Bft) O 86 1 min 0,000 mm 0,0 UV-I 63 W/m 8,4 C 16,6 C 14,5 km/h (3 Bft) 100,00 %
27.04.2018 19:33 18,4 C 17,8 C 52 % 1008,6 hPa 0,0 l/m 12,4 km/h (3 Bft) O 89 1 min 0,000 mm 0,0 UV-I 61 W/m 8,4 C 16,1 C 16,1 km/h (3 Bft) 100,00 %
27.04.2018 19:34 18,4 C 17,8 C 52 % 1008,6 hPa 0,0 l/m 15,8 km/h (3 Bft) O-NO 57 1 min 0,000 mm 0,0 UV-I 59 W/m 8,4 C 15,1 C 19,3 km/h (3 Bft) 95,65 %
27.04.2018 19:35 18,3 C 17,8 C 52 % 1008,6 hPa 0,0 l/m 15,1 km/h (3 Bft) O-NO 77 1 min 0,000 mm 0,0 UV-I 57 W/m 8,3 C 15,2 C 19,3 km/h (3 Bft) 95,83 %
27.04.2018 19:36 18,3 C 17,8 C 52 % 1008,6 hPa 0,0 l/m 12,9 km/h (3 Bft) O 83 1 min 0,000 mm 0,0 UV-I 54 W/m 8,3 C 15,8 C 17,7 km/h (3 Bft) 95,65 %
27.04.2018 19:37 18,2 C 17,8 C 52 % 1008,6 hPa 0,0 l/m 10,7 km/h (2 Bft) O-NO 72 1 min 0,000 mm 0,0 UV-I 53 W/m 8,2 C 16,4 C 14,5 km/h (3 Bft) 95,83 %
27.04.2018 19:38 18,2 C 17,8 C 52 % 1008,6 hPa 0,0 l/m 13,2 km/h (3 Bft) O-NO 65 1 min 0,000 mm 0,0 UV-I 52 W/m 8,2 C 15,6 C 17,7 km/h (3 Bft) 100,00 %
27.04.2018 19:39 18,1 C 17,8 C 52 % 1008,6 hPa 0,0 l/m 12,1 km/h (2 Bft) O-NO 67 1 min 0,000 mm 0,0 UV-I 50 W/m 8,1 C 15,8 C 16,1 km/h (3 Bft) 95,65 %
27.04.2018 19:40 18,1 C 17,8 C 53 % 1008,6 hPa 0,0 l/m 10,1 km/h (2 Bft) O-NO 69 1 min 0,000 mm 0,0 UV-I 48 W/m 8,4 C 16,5 C 12,9 km/h (3 Bft) 100,00 %
27.04.2018 19:41 18,1 C 17,8 C 53 % 1008,6 hPa 0,0 l/m 9,3 km/h (2 Bft) O-NO 71 1 min 0,000 mm 0,0 UV-I 46 W/m 8,4 C 16,8 C 14,5 km/h (3 Bft) 95,65 %
27.04.2018 19:42 18,0 C 17,8 C 53 % 1008,6 hPa 0,0 l/m 11,7 km/h (2 Bft) O 84 1 min 0,000 mm 0,0 UV-I 46 W/m 8,3 C 15,8 C 14,5 km/h (3 Bft) 100,00 %
27.04.2018 19:43 17,9 C 17,8 C 53 % 1008,6 hPa 0,0 l/m 10,3 km/h (2 Bft) O 86 1 min 0,000 mm 0,0 UV-I 44 W/m 8,2 C 16,2 C 12,9 km/h (3 Bft) 95,65 %
27.04.2018 19:44 17,9 C 17,8 C 53 % 1008,7 hPa 0,0 l/m 10,7 km/h (2 Bft) O 86 1 min 0,000 mm 0,0 UV-I 42 W/m 8,2 C 16,1 C 12,9 km/h (3 Bft) 100,00 %
27.04.2018 19:45 17,9 C 17,8 C 53 % 1008,7 hPa 0,0 l/m 11,7 km/h (2 Bft) O 82 1 min 0,000 mm 0,0 UV-I 39 W/m 8,2 C 15,7 C 14,5 km/h (3 Bft) 95,65 %
27.04.2018 19:46 17,8 C 17,8 C 53 % 1008,7 hPa 0,0 l/m 9,9 km/h (2 Bft) O-NO 78 1 min 0,000 mm 0,0 UV-I 33 W/m 8,1 C 16,2 C 14,5 km/h (3 Bft) 95,83 %
27.04.2018 19:47 17,8 C 17,8 C 53 % 1008,7 hPa 0,0 l/m 9,3 km/h (2 Bft) O-NO 71 1 min 0,000 mm 0,0 UV-I 30 W/m 8,1 C 16,5 C 11,3 km/h (2 Bft) 100,00 %
27.04.2018 19:48 17,8 C 17,8 C 53 % 1008,7 hPa 0,0 l/m 8,7 km/h (2 Bft) O-NO 60 1 min 0,000 mm 0,0 UV-I 30 W/m 8,1 C 16,7 C 12,9 km/h (3 Bft) 95,83 %
27.04.2018 19:49 17,7 C 17,8 C 53 % 1008,7 hPa 0,0 l/m 10,1 km/h (2 Bft) O 80 1 min 0,000 mm 0,0 UV-I 26 W/m 8,0 C 16,1 C 14,5 km/h (3 Bft) 95,65 %
27.04.2018 19:50 17,7 C 17,8 C 53 % 1008,7 hPa 0,0 l/m 10,9 km/h (2 Bft) O-NO 68 1 min 0,000 mm 0,0 UV-I 24 W/m 8,0 C 15,8 C 16,1 km/h (3 Bft) 95,83 %
27.04.2018 19:51 17,7 C 17,8 C 53 % 1008,7 hPa 0,0 l/m 10,1 km/h (2 Bft) O-NO 74 0 min 0,000 mm 0,0 UV-I 21 W/m 8,0 C 16,1 C 14,5 km/h (3 Bft) 95,65 %
27.04.2018 19:52 17,7 C 17,8 C 53 % 1008,7 hPa 0,0 l/m 10,5 km/h (2 Bft) O-NO 73 0 min 0,000 mm 0,0 UV-I 20 W/m 8,0 C 15,9 C 12,9 km/h (3 Bft) 95,83 %
27.04.2018 19:53 17,7 C 17,8 C 53 % 1008,7 hPa 0,0 l/m 12,1 km/h (2 Bft) O 79 0 min 0,000 mm 0,0 UV-I 18 W/m 8,0 C 15,3 C 14,5 km/h (3 Bft) 100,00 %
27.04.2018 19:54 17,6 C 17,8 C 53 % 1008,7 hPa 0,0 l/m 11,5 km/h (2 Bft) O-NO 76 0 min 0,000 mm 0,0 UV-I 16 W/m 7,9 C 15,4 C 14,5 km/h (3 Bft) 95,65 %
27.04.2018 19:55 17,6 C 17,8 C 53 % 1008,7 hPa 0,0 l/m 10,5 km/h (2 Bft) O 79 0 min 0,000 mm 0,0 UV-I 14 W/m 7,9 C 15,8 C 12,9 km/h (3 Bft) 95,83 %
27.04.2018 19:56 17,6 C 17,8 C 53 % 1008,7 hPa 0,0 l/m 10,0 km/h (2 Bft) O-NO 75 0 min 0,000 mm 0,0 UV-I 14 W/m 7,9 C 16,0 C 12,9 km/h (3 Bft) 100,00 %
27.04.2018 19:57 17,5 C 17,8 C 53 % 1008,8 hPa 0,0 l/m 9,2 km/h (2 Bft) O-NO 76 1 min 0,000 mm 0,0 UV-I 13 W/m 7,8 C 16,2 C 14,5 km/h (3 Bft) 95,83 %
27.04.2018 19:58 17,4 C 17,8 C 54 % 1008,8 hPa 0,0 l/m 12,1 km/h (2 Bft) O 82 1 min 0,000 mm 0,0 UV-I 12 W/m 8,0 C 15,0 C 16,1 km/h (3 Bft) 95,65 %
27.04.2018 19:59 17,4 C 17,8 C 54 % 1008,8 hPa 0,0 l/m 10,5 km/h (2 Bft) O-NO 75 1 min 0,000 mm 0,0 UV-I 12 W/m 8,0 C 15,6 C 12,9 km/h (3 Bft) 95,83 %
27.04.2018 20:00 17,4 C 17,8 C 54 % 1008,8 hPa 0,0 l/m 7,3 km/h (2 Bft) O-NO 66 1 min 0,000 mm 0,0 UV-I 11 W/m 8,0 C 17,0 C 12,9 km/h (3 Bft) 100,00 %
27.04.2018 20:02 17,3 C 17,8 C 54 % 1008,8 hPa 0,0 l/m 9,6 km/h (2 Bft) O-NO 78 0 min 0,101 mm 0,0 UV-I 11 W/m 7,9 C 15,8 C 14,5 km/h (3 Bft) 94,00 %
27.04.2018 20:03 17,3 C 17,8 C 54 % 1008,8 hPa 0,0 l/m 9,3 km/h (2 Bft) O-NO 71 0 min 0,000 mm 0,0 UV-I 11 W/m 7,9 C 15,9 C 12,9 km/h (3 Bft) 100,00 %
27.04.2018 20:04 17,3 C 17,8 C 54 % 1008,8 hPa 0,0 l/m 12,6 km/h (3 Bft) O-NO 66 0 min 0,000 mm 0,0 UV-I 10 W/m 7,9 C 14,7 C 17,7 km/h (3 Bft) 96,15 %
27.04.2018 20:05 17,2 C 17,8 C 54 % 1008,9 hPa 0,0 l/m 11,3 km/h (2 Bft) O-NO 71 0 min 0,000 mm 0,0 UV-I 9 W/m 7,8 C 15,1 C 16,1 km/h (3 Bft) 100,00 %
27.04.2018 20:06 17,2 C 17,8 C 54 % 1008,9 hPa 0,0 l/m 10,9 km/h (2 Bft) O-NO 70 0 min 0,000 mm 0,0 UV-I 9 W/m 7,8 C 15,2 C 14,5 km/h (3 Bft) 86,96 %
27.04.2018 20:08 17,1 C 17,8 C 54 % 1008,9 hPa 0,0 l/m 9,6 km/h (2 Bft) O 88 0 min 0,000 mm 0,0 UV-I 9 W/m 7,7 C 15,6 C 14,5 km/h (3 Bft) 100,00 %
27.04.2018 20:09 17,1 C 17,8 C 54 % 1008,9 hPa 0,0 l/m 10,2 km/h (2 Bft) O 86 0 min 0,000 mm 0,0 UV-I 8 W/m 7,7 C 15,4 C 14,5 km/h (3 Bft) 100,00 %
27.04.2018 20:10 17,1 C 17,8 C 54 % 1008,9 hPa 0,0 l/m 10,3 km/h (2 Bft) O-NO 70 0 min 0,000 mm 0,0 UV-I 7 W/m 7,7 C 15,3 C 12,9 km/h (3 Bft) 100,00 %
27.04.2018 20:11 17,1 C 17,8 C 54 % 1008,9 hPa 0,0 l/m 10,1 km/h (2 Bft) O-NO 67 0 min 0,000 mm 0,0 UV-I 7 W/m 7,7 C 15,4 C 12,9 km/h (3 Bft) 100,00 %
27.04.2018 20:12 17,0 C 17,8 C 54 % 1008,9 hPa 0,0 l/m 9,5 km/h (2 Bft) O-NO 71 0 min 0,000 mm 0,0 UV-I 7 W/m 7,6 C 15,5 C 12,9 km/h (3 Bft) 100,00 %
27.04.2018 20:13 17,0 C 17,8 C 54 % 1008,9 hPa 0,0 l/m 9,7 km/h (2 Bft) O-NO 58 0 min 0,000 mm 0,0 UV-I 7 W/m 7,6 C 15,4 C 12,9 km/h (3 Bft) 95,83 %
27.04.2018 20:14 16,9 C 17,8 C 55 % 1008,9 hPa 0,0 l/m 8,9 km/h (2 Bft) O-NO 59 0 min 0,000 mm 0,0 UV-I 7 W/m 7,8 C 15,7 C 12,9 km/h (3 Bft) 100,00 %
27.04.2018 20:15 16,9 C 17,8 C 55 % 1008,9 hPa 0,0 l/m 7,6 km/h (2 Bft) O-NO 78 0 min 0,000 mm 0,0 UV-I 7 W/m 7,8 C 16,3 C 11,3 km/h (2 Bft) 100,00 %
27.04.2018 20:16 16,8 C 17,8 C 55 % 1009,0 hPa 0,0 l/m 8,6 km/h (2 Bft) O 82 0 min 0,000 mm 0,0 UV-I 6 W/m 7,7 C 15,7 C 12,9 km/h (3 Bft) 100,00 %
27.04.2018 20:17 16,8 C 17,8 C 55 % 1008,9 hPa 0,0 l/m 9,8 km/h (2 Bft) O 86 0 min 0,000 mm 0,0 UV-I 5 W/m 7,7 C 15,2 C 14,5 km/h (3 Bft) 100,00 %
27.04.2018 20:18 16,8 C 17,8 C 55 % 1008,9 hPa 0,0 l/m 10,0 km/h (2 Bft) O 98 0 min 0,000 mm 0,0 UV-I 5 W/m 7,7 C 15,1 C 14,5 km/h (3 Bft) 100,00 %
27.04.2018 20:19 16,7 C 17,8 C 55 % 1008,9 hPa 0,0 l/m 9,5 km/h (2 Bft) O 93 0 min 0,000 mm 0,0 UV-I 5 W/m 7,6 C 15,2 C 12,9 km/h (3 Bft) 100,00 %
27.04.2018 20:20 16,7 C 17,8 C 55 % 1008,9 hPa 0,0 l/m 10,9 km/h (2 Bft) O 93 0 min 0,000 mm 0,0 UV-I 5 W/m 7,6 C 14,6 C 14,5 km/h (3 Bft) 100,00 %
27.04.2018 20:21 16,7 C 17,8 C 56 % 1008,9 hPa 0,0 l/m 8,8 km/h (2 Bft) O 86 0 min 0,000 mm 0,0 UV-I 5 W/m 7,9 C 15,5 C 12,9 km/h (3 Bft) 100,00 %
27.04.2018 20:23 16,6 C 17,8 C 56 % 1008,9 hPa 0,0 l/m 8,8 km/h (2 Bft) O 92 0 min 0,000 mm 0,0 UV-I 5 W/m 7,8 C 15,4 C 12,9 km/h (3 Bft) 100,00 %
27.04.2018 20:24 16,6 C 17,8 C 56 % 1008,9 hPa 0,0 l/m 9,6 km/h (2 Bft) O 93 0 min 0,000 mm 0,0 UV-I 4 W/m 7,8 C 15,1 C 12,9 km/h (3 Bft) 100,00 %
27.04.2018 20:25 16,6 C 17,8 C 56 % 1008,9 hPa 0,0 l/m 9,7 km/h (2 Bft) O-NO 65 0 min 0,000 mm 0,0 UV-I 0 W/m 7,8 C 15,0 C 14,5 km/h (3 Bft) 100,00 %
27.04.2018 20:26 16,6 C 17,8 C 56 % 1008,9 hPa 0,0 l/m 10,3 km/h (2 Bft) O-NO 67 0 min 0,000 mm 0,0 UV-I 0 W/m 7,8 C 14,8 C 12,9 km/h (3 Bft) 100,00 %
27.04.2018 20:27 16,6 C 17,8 C 56 % 1008,9 hPa 0,0 l/m 10,1 km/h (2 Bft) O 90 0 min 0,000 mm 0,0 UV-I 0 W/m 7,8 C 14,8 C 14,5 km/h (3 Bft) 100,00 %
27.04.2018 20:28 16,5 C 17,8 C 55 % 1008,9 hPa 0,0 l/m 9,9 km/h (2 Bft) O-NO 66 0 min 0,000 mm 0,0 UV-I 0 W/m 7,4 C 14,8 C 12,9 km/h (3 Bft) 100,00 %
27.04.2018 20:29 16,6 C 17,8 C 56 % 1008,9 hPa 0,0 l/m 10,5 km/h (2 Bft) O-NO 70 0 min 0,000 mm 0,0 UV-I 0 W/m 7,8 C 14,7 C 12,9 km/h (3 Bft) 100,00 %
27.04.2018 20:30 16,6 C 17,8 C 55 % 1008,9 hPa 0,0 l/m 9,3 km/h (2 Bft) O-NO 71 0 min 0,000 mm 0,0 UV-I 0 W/m 7,5 C 15,2 C 12,9 km/h (3 Bft) 100,00 %
27.04.2018 20:31 16,5 C 17,8 C 56 % 1008,9 hPa 0,0 l/m 6,2 km/h (2 Bft) O-NO 63 0 min 0,000 mm 0,0 UV-I 0 W/m 7,7 C 16,5 C 11,3 km/h (2 Bft) 100,00 %
27.04.2018 20:32 16,4 C 17,8 C 56 % 1008,9 hPa 0,0 l/m 8,9 km/h (2 Bft) O 86 0 min 0,000 mm 0,0 UV-I 0 W/m 7,6 C 15,1 C 12,9 km/h (3 Bft) 100,00 %
27.04.2018 20:33 16,4 C 17,8 C 56 % 1008,9 hPa 0,0 l/m 8,8 km/h (2 Bft) O 87 0 min 0,000 mm 0,0 UV-I 0 W/m 7,6 C 15,2 C 11,3 km/h (2 Bft) 100,00 %
27.04.2018 20:34 16,3 C 17,8 C 56 % 1008,8 hPa 0,0 l/m 8,7 km/h (2 Bft) O-NO 65 0 min 0,000 mm 0,0 UV-I 0 W/m 7,5 C 15,1 C 12,9 km/h (3 Bft) 100,00 %
27.04.2018 20:35 16,3 C 17,8 C 57 % 1008,9 hPa 0,0 l/m 8,3 km/h (2 Bft) O 81 0 min 0,000 mm 0,0 UV-I 0 W/m 7,8 C 15,3 C 12,9 km/h (3 Bft) 95,83 %
27.04.2018 20:36 16,2 C 17,8 C 57 % 1008,8 hPa 0,0 l/m 10,4 km/h (2 Bft) O 82 0 min 0,000 mm 0,0 UV-I 0 W/m 7,7 C 14,3 C 14,5 km/h (3 Bft) 95,65 %
27.04.2018 20:37 16,2 C 17,8 C 56 % 1008,8 hPa 0,0 l/m 10,6 km/h (2 Bft) O 98 0 min 0,000 mm 0,0 UV-I 0 W/m 7,4 C 14,2 C 17,7 km/h (3 Bft) 100,00 %
27.04.2018 20:38 16,3 C 17,8 C 56 % 1008,9 hPa 0,0 l/m 10,5 km/h (2 Bft) O-NO 71 0 min 0,000 mm 0,0 UV-I 0 W/m 7,5 C 14,3 C 14,5 km/h (3 Bft) 95,65 %
27.04.2018 20:39 16,3 C 17,8 C 56 % 1008,9 hPa 0,0 l/m 10,3 km/h (2 Bft) O-SO 112 0 min 0,000 mm 0,0 UV-I 0 W/m 7,5 C 14,4 C 14,5 km/h (3 Bft) 100,00 %
27.04.2018 20:40 16,3 C 17,8 C 56 % 1008,8 hPa 0,0 l/m 12,6 km/h (3 Bft) O 83 0 min 0,000 mm 0,0 UV-I 0 W/m 7,5 C 13,6 C 17,7 km/h (3 Bft) 100,00 %
27.04.2018 20:41 16,4 C 17,8 C 56 % 1008,9 hPa 0,0 l/m 11,3 km/h (2 Bft) O-NO 74 0 min 0,000 mm 0,0 UV-I 0 W/m 7,6 C 14,1 C 16,1 km/h (3 Bft) 95,83 %
27.04.2018 20:43 16,4 C 17,8 C 56 % 1008,9 hPa 0,0 l/m 11,5 km/h (2 Bft) O 87 0 min 0,000 mm 0,0 UV-I 0 W/m 7,6 C 14,1 C 16,1 km/h (3 Bft) 100,00 %
27.04.2018 20:44 16,4 C 17,8 C 56 % 1008,9 hPa 0,0 l/m 10,9 km/h (2 Bft) O-NO 65 0 min 0,000 mm 0,0 UV-I 0 W/m 7,6 C 14,3 C 16,1 km/h (3 Bft) 96,15 %
27.04.2018 20:45 16,4 C 17,8 C 56 % 1008,9 hPa 0,0 l/m 8,7 km/h (2 Bft) O 82 0 min 0,000 mm 0,0 UV-I 0 W/m 7,6 C 15,2 C 16,1 km/h (3 Bft) 100,00 %
27.04.2018 20:46 16,3 C 17,8 C 56 % 1008,9 hPa 0,0 l/m 9,8 km/h (2 Bft) O-NO 64 0 min 0,000 mm 0,0 UV-I 0 W/m 7,5 C 14,6 C 12,9 km/h (3 Bft) 100,00 %
27.04.2018 20:47 16,3 C 17,8 C 56 % 1009,0 hPa 0,0 l/m 8,8 km/h (2 Bft) O-NO 76 0 min 0,000 mm 0,0 UV-I 0 W/m 7,5 C 15,1 C 14,5 km/h (3 Bft) 100,00 %
27.04.2018 20:48 16,3 C 17,8 C 56 % 1008,9 hPa 0,0 l/m 10,2 km/h (2 Bft) O 82 0 min 0,000 mm 0,0 UV-I 0 W/m 7,5 C 14,5 C 14,5 km/h (3 Bft) 100,00 %
27.04.2018 20:49 16,2 C 17,8 C 56 % 1008,9 hPa 0,0 l/m 11,0 km/h (2 Bft) O 98 0 min 0,000 mm 0,0 UV-I 0 W/m 7,4 C 14,0 C 16,1 km/h (3 Bft) 100,00 %
27.04.2018 20:50 16,2 C 17,8 C 57 % 1008,9 hPa 0,0 l/m 8,0 km/h (2 Bft) O 84 0 min 0,000 mm 0,0 UV-I 0 W/m 7,7 C 15,4 C 12,9 km/h (3 Bft) 100,00 %
27.04.2018 20:51 16,2 C 17,8 C 57 % 1008,9 hPa 0,0 l/m 11,1 km/h (2 Bft) O-NO 77 0 min 0,000 mm 0,0 UV-I 0 W/m 7,7 C 14,0 C 17,7 km/h (3 Bft) 96,55 %
27.04.2018 20:52 16,1 C 17,8 C 57 % 1008,9 hPa 0,0 l/m 11,3 km/h (2 Bft) O-SO 113 0 min 0,000 mm 0,0 UV-I 0 W/m 7,6 C 13,8 C 14,5 km/h (3 Bft) 100,00 %
27.04.2018 20:53 16,0 C 17,8 C 57 % 1008,9 hPa 0,0 l/m 12,0 km/h (2 Bft) O 92 0 min 0,000 mm 0,0 UV-I 0 W/m 7,5 C 13,4 C 17,7 km/h (3 Bft) 100,00 %
27.04.2018 20:54 16,1 C 17,8 C 57 % 1008,9 hPa 0,0 l/m 10,9 km/h (2 Bft) O-NO 64 0 min 0,000 mm 0,0 UV-I 0 W/m 7,6 C 14,0 C 14,5 km/h (3 Bft) 100,00 %
27.04.2018 20:55 16,1 C 17,8 C 57 % 1008,9 hPa 0,0 l/m 8,8 km/h (2 Bft) O 81 0 min 0,000 mm 0,0 UV-I 0 W/m 7,6 C 14,9 C 12,9 km/h (3 Bft) 100,00 %
27.04.2018 20:56 16,1 C 17,8 C 57 % 1008,9 hPa 0,0 l/m 12,0 km/h (2 Bft) O-NO 71 0 min 0,000 mm 0,0 UV-I 0 W/m 7,6 C 13,5 C 17,7 km/h (3 Bft) 100,00 %
27.04.2018 20:57 16,1 C 17,8 C 57 % 1008,9 hPa 0,0 l/m 10,0 km/h (2 Bft) O 88 0 min 0,000 mm 0,0 UV-I 0 W/m 7,6 C 14,3 C 12,9 km/h (3 Bft) 100,00 %
27.04.2018 20:58 16,1 C 17,8 C 57 % 1009,0 hPa 0,0 l/m 10,1 km/h (2 Bft) O 81 0 min 0,000 mm 0,0 UV-I 0 W/m 7,6 C 14,3 C 14,5 km/h (3 Bft) 100,00 %
27.04.2018 20:59 16,1 C 17,8 C 57 % 1008,9 hPa 0,0 l/m 9,4 km/h (2 Bft) O 81 0 min 0,000 mm 0,0 UV-I 0 W/m 7,6 C 14,6 C 14,5 km/h (3 Bft) 100,00 %
27.04.2018 21:00 16,1 C 17,8 C 57 % 1008,9 hPa 0,0 l/m 10,1 km/h (2 Bft) O 86 0 min 0,000 mm 0,0 UV-I 0 W/m 7,6 C 14,3 C 14,5 km/h (3 Bft) 100,00 %
27.04.2018 21:02 16,1 C 17,8 C 57 % 1009,0 hPa 0,0 l/m 11,2 km/h (2 Bft) O 88 0 min 0,076 mm 0,0 UV-I 0 W/m 7,6 C 13,8 C 16,1 km/h (3 Bft) 100,00 %
27.04.2018 21:03 16,0 C 17,8 C 57 % 1008,9 hPa 0,0 l/m 9,9 km/h (2 Bft) O 91 0 min 0,000 mm 0,0 UV-I 0 W/m 7,5 C 14,3 C 12,9 km/h (3 Bft) 100,00 %
27.04.2018 21:04 16,0 C 17,8 C 57 % 1009,0 hPa 0,0 l/m 14,2 km/h (3 Bft) O-NO 69 0 min 0,000 mm 0,0 UV-I 0 W/m 7,5 C 12,7 C 16,1 km/h (3 Bft) 100,00 %
27.04.2018 21:05 16,0 C 17,8 C 57 % 1009,0 hPa 0,0 l/m 11,8 km/h (2 Bft) O 88 0 min 0,000 mm 0,0 UV-I 0 W/m 7,5 C 13,5 C 16,1 km/h (3 Bft) 92,31 %
27.04.2018 21:06 16,0 C 17,8 C 57 % 1009,0 hPa 0,0 l/m 13,4 km/h (3 Bft) O-NO 78 0 min 0,000 mm 0,0 UV-I 0 W/m 7,5 C 12,9 C 17,7 km/h (3 Bft) 100,00 %
27.04.2018 21:08 16,1 C 17,8 C 57 % 1008,9 hPa 0,0 l/m 11,5 km/h (2 Bft) O-NO 67 0 min 0,000 mm 0,0 UV-I 0 W/m 7,6 C 13,7 C 17,7 km/h (3 Bft) 96,61 %
27.04.2018 21:09 16,0 C 17,8 C 57 % 1008,9 hPa 0,0 l/m 11,5 km/h (2 Bft) O-NO 66 0 min 0,000 mm 0,0 UV-I 0 W/m 7,5 C 13,6 C 14,5 km/h (3 Bft) 100,00 %
27.04.2018 21:10 15,9 C 17,8 C 57 % 1008,9 hPa 0,0 l/m 10,7 km/h (2 Bft) O-NO 61 0 min 0,000 mm 0,0 UV-I 0 W/m 7,4 C 13,8 C 14,5 km/h (3 Bft) 100,00 %
27.04.2018 21:11 15,9 C 17,8 C 58 % 1008,9 hPa 0,0 l/m 12,3 km/h (3 Bft) O-NO 67 0 min 0,000 mm 0,0 UV-I 0 W/m 7,6 C 13,2 C 16,1 km/h (3 Bft) 100,00 %
27.04.2018 21:12 15,9 C 17,8 C 58 % 1008,9 hPa 0,0 l/m 14,8 km/h (3 Bft) O-NO 72 0 min 0,000 mm 0,0 UV-I 0 W/m 7,6 C 12,3 C 19,3 km/h (3 Bft) 95,65 %
27.04.2018 21:13 15,9 C 17,8 C 58 % 1008,9 hPa 0,0 l/m 14,8 km/h (3 Bft) O 81 0 min 0,000 mm 0,0 UV-I 0 W/m 7,6 C 12,3 C 19,3 km/h (3 Bft) 100,00 %
27.04.2018 21:14 15,9 C 17,8 C 58 % 1008,9 hPa 0,0 l/m 16,4 km/h (3 Bft) O 93 0 min 0,000 mm 0,0 UV-I 0 W/m 7,6 C 11,9 C 25,7 km/h (4 Bft) 100,00 %
27.04.2018 21:15 15,9 C 17,8 C 58 % 1008,9 hPa 0,0 l/m 15,0 km/h (3 Bft) O 94 0 min 0,000 mm 0,0 UV-I 0 W/m 7,6 C 12,3 C 20,9 km/h (4 Bft) 100,00 %
27.04.2018 21:16 15,8 C 17,8 C 58 % 1009,0 hPa 0,0 l/m 13,6 km/h (3 Bft) O-SO 106 0 min 0,000 mm 0,0 UV-I 0 W/m 7,6 C 12,6 C 17,7 km/h (3 Bft) 100,00 %
27.04.2018 21:17 15,8 C 17,8 C 58 % 1008,9 hPa 0,0 l/m 12,1 km/h (2 Bft) O-NO 74 0 min 0,000 mm 0,0 UV-I 0 W/m 7,6 C 13,2 C 17,7 km/h (3 Bft) 100,00 %
27.04.2018 21:18 15,8 C 17,8 C 58 % 1008,9 hPa 0,0 l/m 15,0 km/h (3 Bft) O 100 0 min 0,000 mm 0,0 UV-I 0 W/m 7,6 C 12,2 C 19,3 km/h (3 Bft) 100,00 %
27.04.2018 21:19 15,8 C 17,8 C 58 % 1008,9 hPa 0,0 l/m 12,9 km/h (3 Bft) O-SO 105 0 min 0,000 mm 0,0 UV-I 0 W/m 7,6 C 12,9 C 19,3 km/h (3 Bft) 100,00 %
27.04.2018 21:20 15,8 C 17,8 C 58 % 1008,9 hPa 0,0 l/m 12,9 km/h (3 Bft) O 97 0 min 0,000 mm 0,0 UV-I 0 W/m 7,6 C 12,9 C 16,1 km/h (3 Bft) 96,15 %
27.04.2018 21:21 15,8 C 17,8 C 58 % 1008,9 hPa 0,0 l/m 14,5 km/h (3 Bft) O 86 0 min 0,000 mm 0,0 UV-I 0 W/m 7,6 C 12,3 C 19,3 km/h (3 Bft) 100,00 %
27.04.2018 21:22 15,8 C 17,8 C 58 % 1009,0 hPa 0,0 l/m 13,5 km/h (3 Bft) O-SO 103 0 min 0,000 mm 0,0 UV-I 0 W/m 7,6 C 12,7 C 17,7 km/h (3 Bft) 100,00 %
27.04.2018 21:23 15,8 C 17,8 C 58 % 1009,0 hPa 0,0 l/m 15,3 km/h (3 Bft) O-SO 107 0 min 0,000 mm 0,0 UV-I 0 W/m 7,6 C 12,1 C 17,7 km/h (3 Bft) 100,00 %
27.04.2018 21:24 15,8 C 17,8 C 58 % 1009,0 hPa 0,0 l/m 14,5 km/h (3 Bft) O 100 0 min 0,000 mm 0,0 UV-I 0 W/m 7,6 C 12,3 C 19,3 km/h (3 Bft) 100,00 %
27.04.2018 21:25 15,9 C 17,8 C 58 % 1009,0 hPa 0,0 l/m 14,2 km/h (3 Bft) O 82 0 min 0,000 mm 0,0 UV-I 0 W/m 7,6 C 12,5 C 22,5 km/h (4 Bft) 100,00 %
27.04.2018 21:26 15,9 C 17,8 C 58 % 1009,0 hPa 0,0 l/m 14,2 km/h (3 Bft) O-SO 111 0 min 0,000 mm 0,0 UV-I 0 W/m 7,6 C 12,5 C 20,9 km/h (4 Bft) 100,00 %
27.04.2018 21:27 15,9 C 17,8 C 58 % 1009,0 hPa 0,0 l/m 15,9 km/h (3 Bft) O 90 0 min 0,000 mm 0,0 UV-I 0 W/m 7,6 C 12,0 C 19,3 km/h (3 Bft) 100,00 %
27.04.2018 21:28 15,9 C 17,8 C 58 % 1009,0 hPa 0,0 l/m 13,9 km/h (3 Bft) O 84 0 min 0,000 mm 0,0 UV-I 0 W/m 7,6 C 12,6 C 17,7 km/h (3 Bft) 100,00 %
27.04.2018 21:29 15,9 C 17,8 C 58 % 1009,0 hPa 0,0 l/m 15,4 km/h (3 Bft) O 101 0 min 0,000 mm 0,0 UV-I 0 W/m 7,6 C 12,2 C 19,3 km/h (3 Bft) 100,00 %
27.04.2018 21:30 15,8 C 17,8 C 58 % 1009,0 hPa 0,0 l/m 14,6 km/h (3 Bft) SO 130 0 min 0,000 mm 0,0 UV-I 0 W/m 7,6 C 12,3 C 19,3 km/h (3 Bft) 100,00 %
27.04.2018 21:31 15,8 C 17,8 C 58 % 1009,0 hPa 0,0 l/m 14,2 km/h (3 Bft) O-SO 112 0 min 0,000 mm 0,0 UV-I 0 W/m 7,6 C 12,4 C 19,3 km/h (3 Bft) 96,15 %
27.04.2018 21:32 15,8 C 17,8 C 59 % 1009,0 hPa 0,0 l/m 9,2 km/h (2 Bft) O-SO 109 0 min 0,000 mm 0,0 UV-I 0 W/m 7,8 C 14,4 C 14,5 km/h (3 Bft) 100,00 %
27.04.2018 21:34 15,7 C 17,8 C 59 % 1009,1 hPa 0,0 l/m 11,3 km/h (2 Bft) O 94 0 min 0,000 mm 0,0 UV-I 0 W/m 7,7 C 13,3 C 17,7 km/h (3 Bft) 97,87 %
27.04.2018 21:35 15,7 C 17,8 C 59 % 1009,1 hPa 0,0 l/m 11,9 km/h (2 Bft) O 92 0 min 0,000 mm 0,0 UV-I 0 W/m 7,7 C 13,1 C 17,7 km/h (3 Bft) 95,65 %
27.04.2018 21:36 15,7 C 17,8 C 59 % 1009,1 hPa 0,0 l/m 13,0 km/h (3 Bft) O-SO 104 0 min 0,000 mm 0,0 UV-I 0 W/m 7,7 C 12,7 C 19,3 km/h (3 Bft) 100,00 %
27.04.2018 21:37 15,7 C 17,8 C 59 % 1009,1 hPa 0,0 l/m 10,9 km/h (2 Bft) O-SO 107 0 min 0,000 mm 0,0 UV-I 0 W/m 7,7 C 13,5 C 16,1 km/h (3 Bft) 95,65 %
27.04.2018 21:38 15,6 C 17,8 C 59 % 1009,1 hPa 0,0 l/m 10,9 km/h (2 Bft) O-SO 107 0 min 0,000 mm 0,0 UV-I 0 W/m 7,6 C 13,4 C 14,5 km/h (3 Bft) 100,00 %
27.04.2018 21:39 15,6 C 17,8 C 59 % 1009,1 hPa 0,0 l/m 10,9 km/h (2 Bft) O-SO 102 0 min 0,000 mm 0,0 UV-I 0 W/m 7,6 C 13,4 C 17,7 km/h (3 Bft) 91,30 %
27.04.2018 21:40 15,6 C 17,8 C 60 % 1009,2 hPa 0,0 l/m 13,2 km/h (3 Bft) O 83 0 min 0,000 mm 0,0 UV-I 0 W/m 7,9 C 12,5 C 16,1 km/h (3 Bft) 100,00 %
27.04.2018 21:41 15,6 C 17,8 C 59 % 1009,2 hPa 0,0 l/m 13,0 km/h (3 Bft) O-NO 65 0 min 0,000 mm 0,0 UV-I 0 W/m 7,6 C 12,6 C 17,7 km/h (3 Bft) 91,30 %
27.04.2018 21:42 15,6 C 17,8 C 59 % 1009,2 hPa 0,0 l/m 14,0 km/h (3 Bft) O 93 0 min 0,000 mm 0,0 UV-I 0 W/m 7,6 C 12,2 C 17,7 km/h (3 Bft) 100,00 %
27.04.2018 21:43 15,6 C 17,8 C 60 % 1009,2 hPa 0,0 l/m 11,3 km/h (2 Bft) O 82 0 min 0,000 mm 0,0 UV-I 0 W/m 7,9 C 13,2 C 16,1 km/h (3 Bft) 95,65 %
27.04.2018 21:44 15,6 C 17,2 C 60 % 1009,2 hPa 0,0 l/m 13,2 km/h (3 Bft) O-NO 69 0 min 0,000 mm 0,0 UV-I 0 W/m 7,9 C 12,5 C 16,1 km/h (3 Bft) 95,83 %
27.04.2018 21:45 15,6 C 17,8 C 60 % 1009,2 hPa 0,0 l/m 13,0 km/h (3 Bft) O 85 0 min 0,000 mm 0,0 UV-I 0 W/m 7,9 C 12,6 C 16,1 km/h (3 Bft) 100,00 %
27.04.2018 21:46 15,6 C 17,8 C 60 % 1009,3 hPa 0,0 l/m 14,3 km/h (3 Bft) O 95 0 min 0,000 mm 0,0 UV-I 0 W/m 7,9 C 12,1 C 19,3 km/h (3 Bft) 95,83 %
27.04.2018 21:48 15,5 C 17,8 C 60 % 1009,3 hPa 0,0 l/m 12,5 km/h (3 Bft) O-SO 112 0 min 0,000 mm 0,0 UV-I 0 W/m 7,8 C 12,7 C 16,1 km/h (3 Bft) 96,00 %
27.04.2018 21:49 15,4 C 17,8 C 60 % 1009,3 hPa 0,0 l/m 13,6 km/h (3 Bft) O-SO 104 0 min 0,000 mm 0,0 UV-I 0 W/m 7,7 C 12,1 C 17,7 km/h (3 Bft) 100,00 %
27.04.2018 21:50 15,4 C 17,8 C 60 % 1009,3 hPa 0,0 l/m 11,4 km/h (2 Bft) O 80 0 min 0,000 mm 0,0 UV-I 0 W/m 7,7 C 13,0 C 14,5 km/h (3 Bft) 96,15 %
27.04.2018 21:51 15,4 C 17,8 C 60 % 1009,2 hPa 0,0 l/m 10,9 km/h (2 Bft) O 82 0 min 0,000 mm 0,0 UV-I 0 W/m 7,7 C 13,2 C 14,5 km/h (3 Bft) 100,00 %
27.04.2018 21:52 15,4 C 17,8 C 60 % 1009,3 hPa 0,0 l/m 14,8 km/h (3 Bft) O-SO 108 0 min 0,000 mm 0,0 UV-I 0 W/m 7,7 C 11,7 C 19,3 km/h (3 Bft) 95,65 %
27.04.2018 21:54 15,4 C 17,8 C 60 % 1009,3 hPa 0,0 l/m 12,0 km/h (2 Bft) O 89 0 min 0,000 mm 0,0 UV-I 0 W/m 7,7 C 12,7 C 17,7 km/h (3 Bft) 98,00 %
27.04.2018 21:55 15,4 C 17,2 C 61 % 1009,3 hPa 0,0 l/m 10,3 km/h (2 Bft) O 83 0 min 0,000 mm 0,0 UV-I 0 W/m 7,9 C 13,4 C 12,9 km/h (3 Bft) 100,00 %
27.04.2018 21:56 15,3 C 17,2 C 61 % 1009,3 hPa 0,0 l/m 12,7 km/h (3 Bft) O 88 0 min 0,000 mm 0,0 UV-I 0 W/m 7,8 C 12,4 C 16,1 km/h (3 Bft) 91,30 %
27.04.2018 21:57 15,3 C 17,2 C 61 % 1009,3 hPa 0,0 l/m 12,4 km/h (3 Bft) O 79 0 min 0,000 mm 0,0 UV-I 0 W/m 7,8 C 12,5 C 17,7 km/h (3 Bft) 95,83 %
27.04.2018 21:58 15,3 C 17,8 C 61 % 1009,3 hPa 0,0 l/m 11,6 km/h (2 Bft) O-SO 107 0 min 0,000 mm 0,0 UV-I 0 W/m 7,8 C 12,8 C 14,5 km/h (3 Bft) 100,00 %
27.04.2018 21:59 15,3 C 17,8 C 61 % 1009,3 hPa 0,0 l/m 9,4 km/h (2 Bft) O 91 0 min 0,000 mm 0,0 UV-I 0 W/m 7,8 C 13,7 C 14,5 km/h (3 Bft) 95,83 %
27.04.2018 22:00 15,3 C 17,2 C 61 % 1009,3 hPa 0,0 l/m 13,3 km/h (3 Bft) O 82 0 min 0,000 mm 0,0 UV-I 0 W/m 7,8 C 12,1 C 16,1 km/h (3 Bft) 100,00 %
27.04.2018 22:02 15,2 C 17,2 C 61 % 1009,3 hPa 0,0 l/m 11,8 km/h (2 Bft) O 92 0 min 0,077 mm 0,0 UV-I 0 W/m 7,7 C 12,6 C 17,7 km/h (3 Bft) 94,00 %
27.04.2018 22:03 15,3 C 17,2 C 62 % 1009,2 hPa 0,0 l/m 12,7 km/h (3 Bft) O 92 0 min 0,000 mm 0,0 UV-I 0 W/m 8,1 C 12,4 C 16,1 km/h (3 Bft) 100,00 %
27.04.2018 22:04 15,2 C 17,2 C 62 % 1009,2 hPa 0,0 l/m 10,1 km/h (2 Bft) O 95 0 min 0,000 mm 0,0 UV-I 0 W/m 8,0 C 13,3 C 14,5 km/h (3 Bft) 95,65 %
27.04.2018 22:05 15,2 C 17,2 C 62 % 1009,3 hPa 0,0 l/m 13,3 km/h (3 Bft) O-SO 111 0 min 0,000 mm 0,0 UV-I 0 W/m 8,0 C 12,0 C 17,7 km/h (3 Bft) 100,00 %
27.04.2018 22:06 15,2 C 17,2 C 62 % 1009,2 hPa 0,0 l/m 10,5 km/h (2 Bft) O-SO 110 0 min 0,000 mm 0,0 UV-I 0 W/m 8,0 C 13,1 C 16,1 km/h (3 Bft) 100,00 %
27.04.2018 22:07 15,2 C 17,2 C 62 % 1009,3 hPa 0,0 l/m 13,7 km/h (3 Bft) O-SO 103 0 min 0,000 mm 0,0 UV-I 0 W/m 8,0 C 11,9 C 19,3 km/h (3 Bft) 100,00 %
27.04.2018 22:08 15,2 C 17,2 C 62 % 1009,3 hPa 0,0 l/m 14,8 km/h (3 Bft) O-SO 115 0 min 0,000 mm 0,0 UV-I 0 W/m 8,0 C 11,5 C 16,1 km/h (3 Bft) 100,00 %
27.04.2018 22:09 15,2 C 17,2 C 62 % 1009,3 hPa 0,0 l/m 10,0 km/h (2 Bft) O 82 0 min 0,000 mm 0,0 UV-I 0 W/m 8,0 C 13,3 C 16,1 km/h (3 Bft) 100,00 %
27.04.2018 22:10 15,2 C 17,2 C 62 % 1009,2 hPa 0,0 l/m 11,8 km/h (2 Bft) O 90 0 min 0,000 mm 0,0 UV-I 0 W/m 8,0 C 12,6 C 14,5 km/h (3 Bft) 96,30 %
27.04.2018 22:11 15,1 C 17,2 C 62 % 1009,2 hPa 0,0 l/m 8,8 km/h (2 Bft) O 100 0 min 0,000 mm 0,0 UV-I 0 W/m 7,9 C 13,8 C 12,9 km/h (3 Bft) 100,00 %
27.04.2018 22:12 15,1 C 17,2 C 62 % 1009,3 hPa 0,0 l/m 10,4 km/h (2 Bft) O 94 0 min 0,000 mm 0,0 UV-I 0 W/m 7,9 C 13,1 C 12,9 km/h (3 Bft) 100,00 %
27.04.2018 22:13 15,1 C 17,2 C 62 % 1009,3 hPa 0,0 l/m 10,1 km/h (2 Bft) O 99 0 min 0,000 mm 0,0 UV-I 0 W/m 7,9 C 13,2 C 14,5 km/h (3 Bft) 100,00 %
27.04.2018 22:14 15,0 C 17,2 C 63 % 1009,2 hPa 0,0 l/m 10,2 km/h (2 Bft) O-SO 111 0 min 0,000 mm 0,0 UV-I 0 W/m 8,0 C 13,0 C 12,9 km/h (3 Bft) 95,83 %
27.04.2018 22:15 14,9 C 17,2 C 63 % 1009,3 hPa 0,0 l/m 11,4 km/h (2 Bft) O-SO 113 0 min 0,000 mm 0,0 UV-I 0 W/m 7,9 C 12,4 C 14,5 km/h (3 Bft) 100,00 %
27.04.2018 22:16 14,9 C 17,2 C 63 % 1009,3 hPa 0,0 l/m 7,5 km/h (2 Bft) O-NO 67 0 min 0,000 mm 0,0 UV-I 0 W/m 7,9 C 14,3 C 11,3 km/h (2 Bft) 95,83 %
27.04.2018 22:17 14,9 C 17,2 C 63 % 1009,3 hPa 0,0 l/m 8,6 km/h (2 Bft) O 90 0 min 0,000 mm 0,0 UV-I 0 W/m 7,9 C 13,7 C 11,3 km/h (2 Bft) 100,00 %
27.04.2018 22:18 14,9 C 17,2 C 63 % 1009,3 hPa 0,0 l/m 8,1 km/h (2 Bft) O 100 0 min 0,000 mm 0,0 UV-I 0 W/m 7,9 C 13,9 C 11,3 km/h (2 Bft) 100,00 %
27.04.2018 22:19 14,9 C 17,2 C 63 % 1009,3 hPa 0,0 l/m 6,8 km/h (2 Bft) O-NO 70 0 min 0,000 mm 0,0 UV-I 0 W/m 7,9 C 14,7 C 11,3 km/h (2 Bft) 100,00 %
27.04.2018 22:20 14,8 C 17,2 C 63 % 1009,3 hPa 0,0 l/m 6,8 km/h (2 Bft) O 90 0 min 0,000 mm 0,0 UV-I 0 W/m 7,8 C 14,6 C 9,7 km/h (2 Bft) 100,00 %
27.04.2018 22:21 14,8 C 17,2 C 63 % 1009,3 hPa 0,0 l/m 6,9 km/h (2 Bft) O 92 0 min 0,000 mm 0,0 UV-I 0 W/m 7,8 C 14,5 C 9,7 km/h (2 Bft) 100,00 %
27.04.2018 22:22 14,8 C 17,2 C 64 % 1009,3 hPa 0,0 l/m 6,3 km/h (2 Bft) O 93 0 min 0,000 mm 0,0 UV-I 0 W/m 8,1 C 14,8 C 11,3 km/h (2 Bft) 100,00 %
27.04.2018 22:23 14,7 C 17,2 C 64 % 1009,3 hPa 0,0 l/m 6,8 km/h (2 Bft) O 90 0 min 0,000 mm 0,0 UV-I 0 W/m 8,0 C 14,5 C 11,3 km/h (2 Bft) 100,00 %
27.04.2018 22:24 14,7 C 17,2 C 64 % 1009,3 hPa 0,0 l/m 9,6 km/h (2 Bft) O 86 0 min 0,000 mm 0,0 UV-I 0 W/m 8,0 C 13,0 C 12,9 km/h (3 Bft) 100,00 %
27.04.2018 22:25 14,7 C 17,2 C 64 % 1009,3 hPa 0,0 l/m 9,1 km/h (2 Bft) O-NO 73 0 min 0,000 mm 0,0 UV-I 0 W/m 8,0 C 13,2 C 11,3 km/h (2 Bft) 100,00 %
27.04.2018 22:26 14,6 C 17,2 C 65 % 1009,3 hPa 0,0 l/m 7,9 km/h (2 Bft) O 90 0 min 0,000 mm 0,0 UV-I 0 W/m 8,1 C 13,7 C 11,3 km/h (2 Bft) 100,00 %
27.04.2018 22:27 14,6 C 17,2 C 65 % 1009,3 hPa 0,0 l/m 8,0 km/h (2 Bft) O 83 0 min 0,000 mm 0,0 UV-I 0 W/m 8,1 C 13,7 C 11,3 km/h (2 Bft) 100,00 %
27.04.2018 22:28 14,5 C 17,2 C 65 % 1009,3 hPa 0,0 l/m 7,2 km/h (2 Bft) O 88 0 min 0,000 mm 0,0 UV-I 0 W/m 8,0 C 14,0 C 11,3 km/h (2 Bft) 100,00 %
27.04.2018 22:29 14,6 C 17,2 C 65 % 1009,3 hPa 0,0 l/m 5,7 km/h (1 Bft) O 85 0 min 0,000 mm 0,0 UV-I 0 W/m 8,1 C 14,6 C 11,3 km/h (2 Bft) 100,00 %
27.04.2018 22:30 14,6 C 17,2 C 65 % 1009,2 hPa 0,0 l/m 6,3 km/h (2 Bft) O-NO 74 0 min 0,000 mm 0,0 UV-I 0 W/m 8,1 C 14,6 C 9,7 km/h (2 Bft) 96,15 %
27.04.2018 22:31 14,5 C 17,2 C 65 % 1009,2 hPa 0,0 l/m 7,2 km/h (2 Bft) O-SO 108 0 min 0,000 mm 0,0 UV-I 0 W/m 8,0 C 14,0 C 9,7 km/h (2 Bft) 100,00 %
27.04.2018 22:33 14,4 C 17,2 C 65 % 1009,2 hPa 0,0 l/m 6,5 km/h (2 Bft) O 90 0 min 0,000 mm 0,0 UV-I 0 W/m 7,9 C 14,4 C 11,3 km/h (2 Bft) 98,53 %
27.04.2018 22:34 14,3 C 17,2 C 66 % 1009,2 hPa 0,0 l/m 6,1 km/h (2 Bft) O 89 0 min 0,000 mm 0,0 UV-I 0 W/m 8,0 C 14,3 C 9,7 km/h (2 Bft) 90,91 %
27.04.2018 22:35 14,3 C 17,2 C 66 % 1009,3 hPa 0,0 l/m 6,0 km/h (2 Bft) O 93 0 min 0,000 mm 0,0 UV-I 0 W/m 8,0 C 14,3 C 9,7 km/h (2 Bft) 100,00 %
27.04.2018 22:36 14,3 C 17,2 C 66 % 1009,2 hPa 0,0 l/m 6,4 km/h (2 Bft) O 96 0 min 0,000 mm 0,0 UV-I 0 W/m 8,0 C 14,3 C 9,7 km/h (2 Bft) 96,15 %
27.04.2018 22:37 14,3 C 17,2 C 66 % 1009,3 hPa 0,0 l/m 4,4 km/h (1 Bft) O 99 0 min 0,000 mm 0,0 UV-I 0 W/m 8,0 C 14,3 C 4,8 km/h (1 Bft) 100,00 %
27.04.2018 22:38 14,3 C 17,2 C 66 % 1009,3 hPa 0,0 l/m 6,5 km/h (2 Bft) O 97 0 min 0,000 mm 0,0 UV-I 0 W/m 8,0 C 14,3 C 9,7 km/h (2 Bft) 95,65 %
27.04.2018 22:39 14,3 C 17,2 C 66 % 1009,3 hPa 0,0 l/m 6,2 km/h (2 Bft) O 84 0 min 0,000 mm 0,0 UV-I 0 W/m 8,0 C 14,3 C 9,7 km/h (2 Bft) 100,00 %
27.04.2018 22:40 14,2 C 17,2 C 66 % 1009,3 hPa 0,0 l/m 5,6 km/h (1 Bft) O 101 0 min 0,000 mm 0,0 UV-I 0 W/m 7,9 C 14,2 C 9,7 km/h (2 Bft) 91,30 %
27.04.2018 22:41 14,2 C 17,2 C 66 % 1009,3 hPa 0,0 l/m 4,7 km/h (1 Bft) O 99 0 min 0,000 mm 0,0 UV-I 0 W/m 7,9 C 14,2 C 6,4 km/h (2 Bft) 95,83 %
27.04.2018 22:42 14,3 C 17,2 C 66 % 1009,4 hPa 0,0 l/m 5,5 km/h (1 Bft) O 98 0 min 0,000 mm 0,0 UV-I 0 W/m 8,0 C 14,3 C 6,4 km/h (2 Bft) 95,65 %
27.04.2018 22:43 14,3 C 17,2 C 66 % 1009,4 hPa 0,0 l/m 4,2 km/h (1 Bft) O 88 0 min 0,000 mm 0,0 UV-I 0 W/m 8,0 C 14,3 C 9,7 km/h (2 Bft) 95,83 %
27.04.2018 22:44 14,3 C 17,2 C 66 % 1009,4 hPa 0,0 l/m 1,7 km/h (1 Bft) O 88 0 min 0,000 mm 0,0 UV-I 0 W/m 8,0 C 14,3 C 3,2 km/h (1 Bft) 100,00 %
27.04.2018 22:45 14,2 C 17,2 C 67 % 1009,4 hPa 0,0 l/m 1,3 km/h (1 Bft) O 88 0 min 0,000 mm 0,0 UV-I 0 W/m 8,2 C 14,2 C 3,2 km/h (1 Bft) 95,83 %
27.04.2018 22:46 14,0 C 17,2 C 67 % 1009,4 hPa 0,0 l/m 1,8 km/h (1 Bft) O 88 0 min 0,000 mm 0,0 UV-I 0 W/m 8,0 C 14,0 C 3,2 km/h (1 Bft) 100,00 %
27.04.2018 22:47 13,9 C 17,2 C 67 % 1009,5 hPa 0,0 l/m 1,5 km/h (1 Bft) O 88 0 min 0,000 mm 0,0 UV-I 0 W/m 7,9 C 13,9 C 3,2 km/h (1 Bft) 95,65 %
27.04.2018 22:48 13,8 C 17,2 C 68 % 1009,5 hPa 0,0 l/m 2,0 km/h (1 Bft) O 88 0 min 0,000 mm 0,0 UV-I 0 W/m 8,0 C 13,8 C 3,2 km/h (1 Bft) 100,00 %
27.04.2018 22:49 13,7 C 17,2 C 68 % 1009,6 hPa 0,0 l/m 1,3 km/h (1 Bft) O 88 0 min 0,000 mm 0,0 UV-I 0 W/m 7,9 C 13,7 C 3,2 km/h (1 Bft) 95,65 %
27.04.2018 22:50 13,7 C 17,2 C 68 % 1009,6 hPa 0,0 l/m 2,1 km/h (1 Bft) O 88 0 min 0,000 mm 0,0 UV-I 0 W/m 7,9 C 13,7 C 3,2 km/h (1 Bft) 100,00 %
27.04.2018 22:51 13,7 C 17,2 C 69 % 1009,7 hPa 0,0 l/m 2,8 km/h (1 Bft) O 88 0 min 0,000 mm 0,0 UV-I 0 W/m 8,1 C 13,7 C 4,8 km/h (1 Bft) 96,15 %
27.04.2018 22:52 13,6 C 17,2 C 69 % 1009,6 hPa 0,0 l/m 2,7 km/h (1 Bft) O 88 0 min 0,000 mm 0,0 UV-I 0 W/m 8,0 C 13,6 C 3,2 km/h (1 Bft) 92,59 %
27.04.2018 22:53 13,6 C 17,2 C 69 % 1009,6 hPa 0,0 l/m 3,1 km/h (1 Bft) O 88 0 min 0,000 mm 0,0 UV-I 0 W/m 8,0 C 13,6 C 4,8 km/h (1 Bft) 95,65 %
27.04.2018 22:54 13,6 C 17,2 C 69 % 1009,7 hPa 0,0 l/m 1,7 km/h (1 Bft) O 88 0 min 0,000 mm 0,0 UV-I 0 W/m 8,0 C 13,6 C 3,2 km/h (1 Bft) 95,83 %
27.04.2018 22:55 13,6 C 17,2 C 69 % 1009,7 hPa 0,0 l/m 2,4 km/h (1 Bft) O 88 0 min 0,000 mm 0,0 UV-I 0 W/m 8,0 C 13,6 C 3,2 km/h (1 Bft) 100,00 %
27.04.2018 22:56 13,5 C 17,2 C 69 % 1009,7 hPa 0,0 l/m 2,7 km/h (1 Bft) O 88 0 min 0,000 mm 0,0 UV-I 0 W/m 7,9 C 13,5 C 4,8 km/h (1 Bft) 95,83 %
27.04.2018 22:57 13,4 C 17,2 C 69 % 1009,7 hPa 0,0 l/m 2,5 km/h (1 Bft) O 88 0 min 0,000 mm 0,0 UV-I 0 W/m 7,8 C 13,4 C 3,2 km/h (1 Bft) 95,65 %
27.04.2018 22:58 13,4 C 17,2 C 70 % 1009,7 hPa 0,0 l/m 2,1 km/h (1 Bft) O 88 0 min 0,000 mm 0,0 UV-I 0 W/m 8,0 C 13,4 C 3,2 km/h (1 Bft) 95,83 %
27.04.2018 22:59 13,4 C 17,2 C 70 % 1009,7 hPa 0,0 l/m 1,9 km/h (1 Bft) O 88 0 min 0,000 mm 0,0 UV-I 0 W/m 8,0 C 13,4 C 3,2 km/h (1 Bft) 95,65 %
27.04.2018 23:00 13,3 C 17,2 C 70 % 1009,7 hPa 0,0 l/m 2,7 km/h (1 Bft) O 88 0 min 0,000 mm 0,0 UV-I 0 W/m 7,9 C 13,3 C 4,8 km/h (1 Bft) 95,83 %
27.04.2018 23:02 13,3 C 17,2 C 70 % 1009,7 hPa 0,0 l/m 2,9 km/h (1 Bft) O 88 0 min 0,025 mm 0,0 UV-I 0 W/m 7,9 C 13,3 C 3,2 km/h (1 Bft) 96,00 %
27.04.2018 23:03 13,2 C 17,2 C 70 % 1009,7 hPa 0,0 l/m 3,0 km/h (1 Bft) O 88 0 min 0,000 mm 0,0 UV-I 0 W/m 7,9 C 13,2 C 4,8 km/h (1 Bft) 91,30 %
27.04.2018 23:04 13,2 C 17,2 C 71 % 1009,7 hPa 0,0 l/m 2,7 km/h (1 Bft) O 88 0 min 0,000 mm 0,0 UV-I 0 W/m 8,1 C 13,2 C 3,2 km/h (1 Bft) 95,83 %
27.04.2018 23:05 13,2 C 17,2 C 71 % 1009,7 hPa 0,0 l/m 2,9 km/h (1 Bft) O 88 0 min 0,000 mm 0,0 UV-I 0 W/m 8,1 C 13,2 C 3,2 km/h (1 Bft) 91,30 %
27.04.2018 23:06 13,1 C 17,2 C 71 % 1009,7 hPa 0,0 l/m 3,4 km/h (1 Bft) O 88 0 min 0,000 mm 0,0 UV-I 0 W/m 8,0 C 13,1 C 4,8 km/h (1 Bft) 100,00 %
27.04.2018 23:07 13,1 C 17,2 C 71 % 1009,7 hPa 0,0 l/m 3,3 km/h (1 Bft) O 88 0 min 0,000 mm 0,0 UV-I 0 W/m 8,0 C 13,1 C 4,8 km/h (1 Bft) 95,65 %
27.04.2018 23:08 13,2 C 17,2 C 71 % 1009,7 hPa 0,0 l/m 3,2 km/h (1 Bft) O 88 0 min 0,000 mm 0,0 UV-I 0 W/m 8,1 C 13,2 C 4,8 km/h (1 Bft) 100,00 %
27.04.2018 23:09 13,2 C 17,2 C 71 % 1009,7 hPa 0,0 l/m 3,3 km/h (1 Bft) O 88 0 min 0,000 mm 0,0 UV-I 0 W/m 8,1 C 13,2 C 4,8 km/h (1 Bft) 95,83 %
27.04.2018 23:10 13,2 C 17,2 C 71 % 1009,7 hPa 0,0 l/m 2,3 km/h (1 Bft) O 88 0 min 0,000 mm 0,0 UV-I 0 W/m 8,1 C 13,2 C 3,2 km/h (1 Bft) 100,00 %
27.04.2018 23:11 13,2 C 17,2 C 71 % 1009,7 hPa 0,0 l/m 1,9 km/h (1 Bft) O 88 0 min 0,000 mm 0,0 UV-I 0 W/m 8,1 C 13,2 C 3,2 km/h (1 Bft) 95,83 %
27.04.2018 23:12 13,2 C 17,2 C 70 % 1009,7 hPa 0,0 l/m 1,6 km/h (1 Bft) O 88 0 min 0,000 mm 0,0 UV-I 0 W/m 7,9 C 13,2 C 3,2 km/h (1 Bft) 100,00 %
27.04.2018 23:13 13,3 C 17,2 C 70 % 1009,7 hPa 0,0 l/m 2,0 km/h (1 Bft) O 88 0 min 0,000 mm 0,0 UV-I 0 W/m 7,9 C 13,3 C 3,2 km/h (1 Bft) 95,83 %
27.04.2018 23:14 13,2 C 17,2 C 70 % 1009,7 hPa 0,0 l/m 3,8 km/h (1 Bft) O-NO 62 0 min 0,000 mm 0,0 UV-I 0 W/m 7,9 C 13,2 C 4,8 km/h (1 Bft) 91,30 %
27.04.2018 23:15 13,2 C 17,2 C 71 % 1009,7 hPa 0,0 l/m 3,4 km/h (1 Bft) O-NO 62 0 min 0,000 mm 0,0 UV-I 0 W/m 8,1 C 13,2 C 4,8 km/h (1 Bft) 100,00 %
27.04.2018 23:16 13,1 C 17,2 C 71 % 1009,7 hPa 0,0 l/m 2,7 km/h (1 Bft) O-NO 62 0 min 0,000 mm 0,0 UV-I 0 W/m 8,0 C 13,1 C 3,2 km/h (1 Bft) 95,65 %
27.04.2018 23:17 13,1 C 17,2 C 71 % 1009,7 hPa 0,0 l/m 2,5 km/h (1 Bft) O-NO 62 0 min 0,000 mm 0,0 UV-I 0 W/m 8,0 C 13,1 C 3,2 km/h (1 Bft) 100,00 %
27.04.2018 23:18 13,1 C 17,2 C 71 % 1009,8 hPa 0,0 l/m 1,9 km/h (1 Bft) O-NO 62 0 min 0,000 mm 0,0 UV-I 0 W/m 8,0 C 13,1 C 3,2 km/h (1 Bft) 86,96 %
27.04.2018 23:19 13,1 C 17,2 C 72 % 1009,8 hPa 0,0 l/m 1,9 km/h (1 Bft) O-NO 62 0 min 0,000 mm 0,0 UV-I 0 W/m 8,2 C 13,1 C 3,2 km/h (1 Bft) 100,00 %
27.04.2018 23:20 12,9 C 17,2 C 72 % 1009,8 hPa 0,0 l/m 2,5 km/h (1 Bft) O-NO 62 0 min 0,000 mm 0,0 UV-I 0 W/m 8,0 C 12,9 C 3,2 km/h (1 Bft) 91,30 %
27.04.2018 23:21 12,8 C 17,2 C 72 % 1009,7 hPa 0,0 l/m 1,7 km/h (1 Bft) O-NO 62 0 min 0,000 mm 0,0 UV-I 0 W/m 7,9 C 12,8 C 3,2 km/h (1 Bft) 100,00 %
27.04.2018 23:22 12,4 C 17,2 C 73 % 1009,8 hPa 0,0 l/m 2,3 km/h (1 Bft) O-NO 62 0 min 0,000 mm 0,0 UV-I 0 W/m 7,7 C 12,4 C 3,2 km/h (1 Bft) 93,33 %
27.04.2018 23:23 12,1 C 17,2 C 75 % 1009,7 hPa 0,0 l/m 2,6 km/h (1 Bft) O-NO 62 0 min 0,000 mm 0,0 UV-I 0 W/m 7,8 C 12,1 C 3,2 km/h (1 Bft) 100,00 %
27.04.2018 23:24 11,8 C 17,2 C 76 % 1009,7 hPa 0,0 l/m 2,8 km/h (1 Bft) O-NO 62 0 min 0,000 mm 0,0 UV-I 0 W/m 7,7 C 11,8 C 3,2 km/h (1 Bft) 96,30 %
27.04.2018 23:25 11,6 C 17,2 C 77 % 1009,7 hPa 0,0 l/m 2,5 km/h (1 Bft) O-NO 62 0 min 0,000 mm 0,0 UV-I 0 W/m 7,7 C 11,6 C 3,2 km/h (1 Bft) 86,96 %
27.04.2018 23:26 11,5 C 17,2 C 78 % 1009,7 hPa 0,0 l/m 2,5 km/h (1 Bft) O-NO 62 0 min 0,000 mm 0,0 UV-I 0 W/m 7,8 C 11,5 C 3,2 km/h (1 Bft) 100,00 %
27.04.2018 23:27 11,5 C 17,2 C 78 % 1009,7 hPa 0,0 l/m 2,6 km/h (1 Bft) O-NO 62 0 min 0,000 mm 0,0 UV-I 0 W/m 7,8 C 11,5 C 3,2 km/h (1 Bft) 95,65 %
27.04.2018 23:28 11,5 C 17,2 C 78 % 1009,7 hPa 0,0 l/m 1,5 km/h (1 Bft) O-NO 62 0 min 0,000 mm 0,0 UV-I 0 W/m 7,8 C 11,5 C 3,2 km/h (1 Bft) 100,00 %
27.04.2018 23:29 11,6 C 17,2 C 78 % 1009,7 hPa 0,0 l/m 1,3 km/h (1 Bft) O-NO 62 0 min 0,000 mm 0,0 UV-I 0 W/m 7,9 C 11,6 C 1,6 km/h (1 Bft) 95,65 %
27.04.2018 23:30 11,7 C 17,2 C 78 % 1009,7 hPa 0,0 l/m 0,5 km/h (0 Bft) O-NO 62 0 min 0,000 mm 0,0 UV-I 0 W/m 8,0 C 11,7 C 1,6 km/h (1 Bft) 100,00 %
27.04.2018 23:31 11,8 C 17,2 C 77 % 1009,8 hPa 0,0 l/m 1,1 km/h (1 Bft) O-NO 62 0 min 0,000 mm 0,0 UV-I 0 W/m 7,9 C 11,8 C 1,6 km/h (1 Bft) 95,65 %
27.04.2018 23:32 11,9 C 17,2 C 77 % 1009,8 hPa 0,0 l/m 0,9 km/h (0 Bft) O-NO 62 0 min 0,000 mm 0,0 UV-I 0 W/m 8,0 C 11,9 C 1,6 km/h (1 Bft) 100,00 %
27.04.2018 23:33 11,9 C 17,2 C 76 % 1009,8 hPa 0,0 l/m 0,7 km/h (0 Bft) O-NO 62 0 min 0,000 mm 0,0 UV-I 0 W/m 7,8 C 11,9 C 1,6 km/h (1 Bft) 95,65 %
27.04.2018 23:34 11,8 C 17,2 C 77 % 1009,8 hPa 0,0 l/m 0,0 km/h (0 Bft) O-NO 62 0 min 0,000 mm 0,0 UV-I 0 W/m 7,9 C 11,8 C 0,0 km/h (0 Bft) 95,83 %
27.04.2018 23:35 11,8 C 17,2 C 76 % 1009,8 hPa 0,0 l/m 0,0 km/h (0 Bft) O-NO 62 0 min 0,000 mm 0,0 UV-I 0 W/m 7,7 C 11,8 C 0,0 km/h (0 Bft) 91,30 %
27.04.2018 23:36 11,7 C 17,2 C 77 % 1009,8 hPa 0,0 l/m 0,0 km/h (0 Bft) O-NO 62 0 min 0,000 mm 0,0 UV-I 0 W/m 7,8 C 11,7 C 0,0 km/h (0 Bft) 96,30 %
27.04.2018 23:37 11,7 C 17,2 C 77 % 1009,8 hPa 0,0 l/m 0,0 km/h (0 Bft) O-NO 62 0 min 0,000 mm 0,0 UV-I 0 W/m 7,8 C 11,7 C 0,0 km/h (0 Bft) 91,30 %
27.04.2018 23:38 11,7 C 17,2 C 77 % 1009,8 hPa 0,0 l/m 0,0 km/h (0 Bft) O-NO 62 0 min 0,000 mm 0,0 UV-I 0 W/m 7,8 C 11,7 C 0,0 km/h (0 Bft) 100,00 %
27.04.2018 23:39 11,7 C 17,2 C 78 % 1009,9 hPa 0,0 l/m 0,0 km/h (0 Bft) O-NO 62 0 min 0,000 mm 0,0 UV-I 0 W/m 8,0 C 11,7 C 0,0 km/h (0 Bft) 95,65 %
27.04.2018 23:40 11,7 C 17,2 C 78 % 1009,9 hPa 0,0 l/m 0,0 km/h (0 Bft) O-NO 62 0 min 0,000 mm 0,0 UV-I 0 W/m 8,0 C 11,7 C 0,0 km/h (0 Bft) 95,83 %
27.04.2018 23:41 11,6 C 17,2 C 78 % 1009,9 hPa 0,0 l/m 0,0 km/h (0 Bft) O-NO 62 0 min 0,000 mm 0,0 UV-I 0 W/m 7,9 C 11,6 C 0,0 km/h (0 Bft) 91,30 %
27.04.2018 23:42 11,6 C 17,2 C 78 % 1009,9 hPa 0,0 l/m 0,0 km/h (0 Bft) O-NO 62 0 min 0,000 mm 0,0 UV-I 0 W/m 7,9 C 11,6 C 0,0 km/h (0 Bft) 100,00 %
27.04.2018 23:43 11,5 C 17,2 C 78 % 1010,0 hPa 0,0 l/m 0,0 km/h (0 Bft) O-NO 62 0 min 0,000 mm 0,0 UV-I 0 W/m 7,8 C 11,5 C 0,0 km/h (0 Bft) 91,67 %
27.04.2018 23:44 11,5 C 17,2 C 78 % 1010,0 hPa 0,0 l/m 0,0 km/h (0 Bft) O-NO 62 0 min 0,000 mm 0,0 UV-I 0 W/m 7,8 C 11,5 C 0,0 km/h (0 Bft) 92,31 %
27.04.2018 23:45 11,6 C 17,2 C 78 % 1010,0 hPa 0,0 l/m 0,0 km/h (0 Bft) O-NO 62 0 min 0,000 mm 0,0 UV-I 0 W/m 7,9 C 11,6 C 0,0 km/h (0 Bft) 95,83 %
27.04.2018 23:46 11,5 C 17,2 C 78 % 1010,0 hPa 0,0 l/m 0,0 km/h (0 Bft) O-NO 62 0 min 0,000 mm 0,0 UV-I 0 W/m 7,8 C 11,5 C 0,0 km/h (0 Bft) 100,00 %
27.04.2018 23:47 11,6 C 17,2 C 78 % 1010,0 hPa 0,0 l/m 0,0 km/h (0 Bft) O-NO 62 0 min 0,000 mm 0,0 UV-I 0 W/m 7,9 C 11,6 C 0,0 km/h (0 Bft) 95,83 %
27.04.2018 23:48 11,6 C 17,2 C 78 % 1010,0 hPa 0,0 l/m 0,0 km/h (0 Bft) O-NO 62 0 min 0,000 mm 0,0 UV-I 0 W/m 7,9 C 11,6 C 0,0 km/h (0 Bft) 100,00 %
27.04.2018 23:49 11,7 C 17,2 C 78 % 1010,0 hPa 0,0 l/m 1,9 km/h (1 Bft) O-NO 62 0 min 0,000 mm 0,0 UV-I 0 W/m 8,0 C 11,7 C 3,2 km/h (1 Bft) 95,83 %
27.04.2018 23:50 11,7 C 17,2 C 79 % 1010,0 hPa 0,0 l/m 1,7 km/h (1 Bft) O-NO 62 0 min 0,000 mm 0,0 UV-I 0 W/m 8,2 C 11,7 C 3,2 km/h (1 Bft) 95,65 %
27.04.2018 23:51 11,7 C 17,2 C 78 % 1010,0 hPa 0,0 l/m 0,3 km/h (0 Bft) O-NO 62 0 min 0,000 mm 0,0 UV-I 0 W/m 8,0 C 11,7 C 1,6 km/h (1 Bft) 100,00 %
27.04.2018 23:52 11,7 C 17,2 C 78 % 1010,0 hPa 0,0 l/m 0,0 km/h (0 Bft) O-NO 62 0 min 0,000 mm 0,0 UV-I 0 W/m 8,0 C 11,7 C 0,0 km/h (0 Bft) 86,96 %
27.04.2018 23:53 11,6 C 17,2 C 78 % 1010,0 hPa 0,0 l/m 0,0 km/h (0 Bft) O-NO 62 0 min 0,000 mm 0,0 UV-I 0 W/m 7,9 C 11,6 C 0,0 km/h (0 Bft) 100,00 %
27.04.2018 23:54 11,5 C 17,2 C 79 % 1010,0 hPa 0,0 l/m 0,0 km/h (0 Bft) O-NO 62 0 min 0,000 mm 0,0 UV-I 0 W/m 8,0 C 11,5 C 0,0 km/h (0 Bft) 91,30 %
27.04.2018 23:55 11,5 C 17,2 C 79 % 1010,0 hPa 0,0 l/m 0,0 km/h (0 Bft) O-NO 62 0 min 0,000 mm 0,0 UV-I 0 W/m 8,0 C 11,5 C 0,0 km/h (0 Bft) 100,00 %
27.04.2018 23:56 11,4 C 17,2 C 79 % 1010,0 hPa 0,0 l/m 0,0 km/h (0 Bft) O-NO 62 0 min 0,000 mm 0,0 UV-I 0 W/m 7,9 C 11,4 C 0,0 km/h (0 Bft) 91,30 %
27.04.2018 23:57 11,4 C 17,2 C 79 % 1010,0 hPa 0,0 l/m 0,0 km/h (0 Bft) O-NO 62 0 min 0,000 mm 0,0 UV-I 0 W/m 7,9 C 11,4 C 0,0 km/h (0 Bft) 95,83 %
27.04.2018 23:58 11,3 C 17,2 C 79 % 1010,0 hPa 0,0 l/m 0,0 km/h (0 Bft) O-NO 62 0 min 0,000 mm 0,0 UV-I 0 W/m 7,8 C 11,3 C 0,0 km/h (0 Bft) 100,00 %
27.04.2018 23:59 11,2 C 17,2 C 79 % 1010,1 hPa 0,0 l/m 0,0 km/h (0 Bft) O-NO 62 0 min 0,000 mm 0,0 UV-I 0 W/m 7,7 C 11,2 C 0,0 km/h (0 Bft) 95,83 %
_ Min-Zeit 05:51 05:45 17:15 18:33 - 00:15 - - - - - - 05:11 07:58 00:15 02:11
Minimum _ 4,6 C 16,1 C 46 % 1008,6 hPa - 0,0 km/h (0 Bft) - - - - - - 3,7 C 1,7 C 0,0 km/h (0 Bft) 82,61 %
_ Max-Zeit 16:40 14:45 06:26 00:19 00:00 16:12 - - 08:53 14:02 12:39 12:03 12:37 18:26 12:32 00:00
Maximum _ 20,3 C 17,8 C 95 % 1018,8 hPa 0,0 l/m 26,2 km/h
O-NO (4 Bft)
- - 2 min 0,533 mm 4,2 UV-I 849 W/m 10,5 C 19,4 C 32,2 km/h
NO (5 Bft)
100,00 %
Durchschnitt _ 12,7 C 17,0 C 72 % 1013,4 hPa #0,0 l/m 10,4 km/h (2 Bft) O-NO - #12:55 h #4,699 mm 2,5 UV-I 447 W/m 7,1 C 10,6 C 14,1 km/h (3 Bft) 97,76 %